<?xml version="1.0" encoding="utf-8"?>
<gpx xmlns:xsi="http://www.w3.org/2001/XMLSchema-instance" xmlns:xsd="http://www.w3.org/2001/XMLSchema" version="1.1" creator="Shapelink.com" xmlns="http://www.topografix.com/GPX/1/1" xmlns:gpxtpx="http://www.garmin.com/xmlschemas/TrackPointExtension/v1">
  <metadata>
    <name>Mountainbike 45.81 km, 2026-08-30</name>
    <desc></desc>
    <author><name>Håkan Andersson</name></author> 
    <time>2026-08-30T13:27:19Z</time>
  </metadata>
  <trk>
    <name>Mountainbike 45.81 km, 2026-08-30</name>
    <trkseg>
      <trkpt lat="59.207728626207" lon="17.841755133122">
        <ele>59.4</ele>
        <time>2026-08-30T13:27:19Z</time>
      </trkpt>
      <trkpt lat="59.207718484104" lon="17.841681372374">
        <ele>59.2</ele>
        <time>2026-08-30T13:27:22Z</time>
      </trkpt>
      <trkpt lat="59.207795094699" lon="17.841608868912">
        <ele>59.2</ele>
        <time>2026-08-30T13:27:25Z</time>
      </trkpt>
      <trkpt lat="59.207825772464" lon="17.841582465917">
        <ele>59</ele>
        <time>2026-08-30T13:27:26Z</time>
      </trkpt>
      <trkpt lat="59.208002211526" lon="17.841433016583">
        <ele>58.8</ele>
        <time>2026-08-30T13:27:31Z</time>
      </trkpt>
      <trkpt lat="59.208123330027" lon="17.841341234744">
        <ele>58.4</ele>
        <time>2026-08-30T13:27:34Z</time>
      </trkpt>
      <trkpt lat="59.208320723847" lon="17.841231012717">
        <ele>58.2</ele>
        <time>2026-08-30T13:27:39Z</time>
      </trkpt>
      <trkpt lat="59.208355341107" lon="17.841255068779">
        <ele>58</ele>
        <time>2026-08-30T13:27:40Z</time>
      </trkpt>
      <trkpt lat="59.208415020257" lon="17.841343581676">
        <ele>58</ele>
        <time>2026-08-30T13:27:42Z</time>
      </trkpt>
      <trkpt lat="59.208534462377" lon="17.841365039349">
        <ele>58</ele>
        <time>2026-08-30T13:27:45Z</time>
      </trkpt>
      <trkpt lat="59.208684163168" lon="17.84115716815">
        <ele>57.8</ele>
        <time>2026-08-30T13:27:49Z</time>
      </trkpt>
      <trkpt lat="59.208759600297" lon="17.840991122648">
        <ele>57.8</ele>
        <time>2026-08-30T13:27:51Z</time>
      </trkpt>
      <trkpt lat="59.208841910586" lon="17.840787945315">
        <ele>57.6</ele>
        <time>2026-08-30T13:27:53Z</time>
      </trkpt>
      <trkpt lat="59.208915336058" lon="17.840605555102">
        <ele>57.4</ele>
        <time>2026-08-30T13:27:55Z</time>
      </trkpt>
      <trkpt lat="59.20894626528" lon="17.840536655858">
        <ele>57</ele>
        <time>2026-08-30T13:27:56Z</time>
      </trkpt>
      <trkpt lat="59.208979792893" lon="17.840490052477">
        <ele>57</ele>
        <time>2026-08-30T13:27:57Z</time>
      </trkpt>
      <trkpt lat="59.209013320506" lon="17.840477563441">
        <ele>56.8</ele>
        <time>2026-08-30T13:27:58Z</time>
      </trkpt>
      <trkpt lat="59.209089679644" lon="17.840489465743">
        <ele>56.4</ele>
        <time>2026-08-30T13:28:00Z</time>
      </trkpt>
      <trkpt lat="59.209129745141" lon="17.840464906767">
        <ele>56</ele>
        <time>2026-08-30T13:28:01Z</time>
      </trkpt>
      <trkpt lat="59.209277182817" lon="17.840403886512">
        <ele>55</ele>
        <time>2026-08-30T13:28:04Z</time>
      </trkpt>
      <trkpt lat="59.209424871951" lon="17.840585187078">
        <ele>54.4</ele>
        <time>2026-08-30T13:28:07Z</time>
      </trkpt>
      <trkpt lat="59.209469798952" lon="17.840700270608">
        <ele>53.8</ele>
        <time>2026-08-30T13:28:08Z</time>
      </trkpt>
      <trkpt lat="59.209628971294" lon="17.841077288613">
        <ele>53</ele>
        <time>2026-08-30T13:28:11Z</time>
      </trkpt>
      <trkpt lat="59.209692170843" lon="17.841205364093">
        <ele>52.6</ele>
        <time>2026-08-30T13:28:12Z</time>
      </trkpt>
      <trkpt lat="59.209831561893" lon="17.841454725713">
        <ele>51.4</ele>
        <time>2026-08-30T13:28:14Z</time>
      </trkpt>
      <trkpt lat="59.209905322641" lon="17.841581627727">
        <ele>50.4</ele>
        <time>2026-08-30T13:28:15Z</time>
      </trkpt>
      <trkpt lat="59.209970533848" lon="17.841719426215">
        <ele>49.2</ele>
        <time>2026-08-30T13:28:16Z</time>
      </trkpt>
      <trkpt lat="59.210024597123" lon="17.841871725395">
        <ele>48</ele>
        <time>2026-08-30T13:28:17Z</time>
      </trkpt>
      <trkpt lat="59.210068099201" lon="17.842030646279">
        <ele>46.8</ele>
        <time>2026-08-30T13:28:18Z</time>
      </trkpt>
      <trkpt lat="59.210106320679" lon="17.842189231887">
        <ele>46</ele>
        <time>2026-08-30T13:28:19Z</time>
      </trkpt>
      <trkpt lat="59.210141440853" lon="17.842342453077">
        <ele>45</ele>
        <time>2026-08-30T13:28:20Z</time>
      </trkpt>
      <trkpt lat="59.210216123611" lon="17.842630036175">
        <ele>43.2</ele>
        <time>2026-08-30T13:28:22Z</time>
      </trkpt>
      <trkpt lat="59.210257111117" lon="17.842761129141">
        <ele>42.4</ele>
        <time>2026-08-30T13:28:23Z</time>
      </trkpt>
      <trkpt lat="59.210306145251" lon="17.842872943729">
        <ele>42</ele>
        <time>2026-08-30T13:28:24Z</time>
      </trkpt>
      <trkpt lat="59.210492810234" lon="17.843067571521">
        <ele>41.4</ele>
        <time>2026-08-30T13:28:27Z</time>
      </trkpt>
      <trkpt lat="59.210668411106" lon="17.843086766079">
        <ele>41.2</ele>
        <time>2026-08-30T13:28:29Z</time>
      </trkpt>
      <trkpt lat="59.210768407211" lon="17.843088191003">
        <ele>41</ele>
        <time>2026-08-30T13:28:30Z</time>
      </trkpt>
      <trkpt lat="59.210873097181" lon="17.843092130497">
        <ele>41</ele>
        <time>2026-08-30T13:28:31Z</time>
      </trkpt>
      <trkpt lat="59.211136540398" lon="17.8431040328">
        <ele>40.2</ele>
        <time>2026-08-30T13:28:34Z</time>
      </trkpt>
      <trkpt lat="59.211203511804" lon="17.8431022726">
        <ele>39.4</ele>
        <time>2026-08-30T13:28:35Z</time>
      </trkpt>
      <trkpt lat="59.211268471554" lon="17.843084251508">
        <ele>37.6</ele>
        <time>2026-08-30T13:28:36Z</time>
      </trkpt>
      <trkpt lat="59.211323289201" lon="17.843040414155">
        <ele>36.4</ele>
        <time>2026-08-30T13:28:37Z</time>
      </trkpt>
      <trkpt lat="59.211366204545" lon="17.842974867672">
        <ele>35.2</ele>
        <time>2026-08-30T13:28:38Z</time>
      </trkpt>
      <trkpt lat="59.211431834847" lon="17.842800775543">
        <ele>34.2</ele>
        <time>2026-08-30T13:28:40Z</time>
      </trkpt>
      <trkpt lat="59.211628641933" lon="17.842108765617">
        <ele>33.2</ele>
        <time>2026-08-30T13:28:47Z</time>
      </trkpt>
      <trkpt lat="59.211746072397" lon="17.84197515808">
        <ele>33.2</ele>
        <time>2026-08-30T13:28:50Z</time>
      </trkpt>
      <trkpt lat="59.21185394749" lon="17.841692855582">
        <ele>33</ele>
        <time>2026-08-30T13:28:54Z</time>
      </trkpt>
      <trkpt lat="59.211874064058" lon="17.84138565883">
        <ele>32.8</ele>
        <time>2026-08-30T13:28:57Z</time>
      </trkpt>
      <trkpt lat="59.211884457618" lon="17.841280633584">
        <ele>32.8</ele>
        <time>2026-08-30T13:28:58Z</time>
      </trkpt>
      <trkpt lat="59.211898036301" lon="17.841177368537">
        <ele>32.8</ele>
        <time>2026-08-30T13:28:59Z</time>
      </trkpt>
      <trkpt lat="59.211935587227" lon="17.840981315821">
        <ele>32.6</ele>
        <time>2026-08-30T13:29:01Z</time>
      </trkpt>
      <trkpt lat="59.212009347975" lon="17.840691972524">
        <ele>32.4</ele>
        <time>2026-08-30T13:29:04Z</time>
      </trkpt>
      <trkpt lat="59.212216045707" lon="17.84010104835">
        <ele>32</ele>
        <time>2026-08-30T13:29:10Z</time>
      </trkpt>
      <trkpt lat="59.212255189195" lon="17.839998202398">
        <ele>32</ele>
        <time>2026-08-30T13:29:11Z</time>
      </trkpt>
      <trkpt lat="59.212332973257" lon="17.839779518545">
        <ele>32</ele>
        <time>2026-08-30T13:29:13Z</time>
      </trkpt>
      <trkpt lat="59.212491055951" lon="17.839331841096">
        <ele>31.4</ele>
        <time>2026-08-30T13:29:17Z</time>
      </trkpt>
      <trkpt lat="59.212561966851" lon="17.839091951028">
        <ele>31</ele>
        <time>2026-08-30T13:29:19Z</time>
      </trkpt>
      <trkpt lat="59.212674871087" lon="17.83873337321">
        <ele>29.6</ele>
        <time>2026-08-30T13:29:22Z</time>
      </trkpt>
      <trkpt lat="59.212712002918" lon="17.838605968282">
        <ele>29.4</ele>
        <time>2026-08-30T13:29:23Z</time>
      </trkpt>
      <trkpt lat="59.212784841657" lon="17.838347051293">
        <ele>28.8</ele>
        <time>2026-08-30T13:29:25Z</time>
      </trkpt>
      <trkpt lat="59.212861452252" lon="17.838087128475">
        <ele>28.2</ele>
        <time>2026-08-30T13:29:27Z</time>
      </trkpt>
      <trkpt lat="59.213011236861" lon="17.837552363053">
        <ele>27.4</ele>
        <time>2026-08-30T13:29:31Z</time>
      </trkpt>
      <trkpt lat="59.213040992618" lon="17.837410876527">
        <ele>27</ele>
        <time>2026-08-30T13:29:32Z</time>
      </trkpt>
      <trkpt lat="59.213141491637" lon="17.836990440264">
        <ele>25.8</ele>
        <time>2026-08-30T13:29:35Z</time>
      </trkpt>
      <trkpt lat="59.213356068358" lon="17.836518371478">
        <ele>24.6</ele>
        <time>2026-08-30T13:29:39Z</time>
      </trkpt>
      <trkpt lat="59.213584223762" lon="17.836306560785">
        <ele>23.4</ele>
        <time>2026-08-30T13:29:42Z</time>
      </trkpt>
      <trkpt lat="59.213740713894" lon="17.836210587993">
        <ele>22.6</ele>
        <time>2026-08-30T13:29:44Z</time>
      </trkpt>
      <trkpt lat="59.213811960071" lon="17.836168259382">
        <ele>22.2</ele>
        <time>2026-08-30T13:29:45Z</time>
      </trkpt>
      <trkpt lat="59.213941795751" lon="17.8360991925">
        <ele>22</ele>
        <time>2026-08-30T13:29:47Z</time>
      </trkpt>
      <trkpt lat="59.214158551767" lon="17.835989641026">
        <ele>22</ele>
        <time>2026-08-30T13:29:51Z</time>
      </trkpt>
      <trkpt lat="59.214205238968" lon="17.835956783965">
        <ele>22</ele>
        <time>2026-08-30T13:29:52Z</time>
      </trkpt>
      <trkpt lat="59.214366506785" lon="17.835793169215">
        <ele>22.6</ele>
        <time>2026-08-30T13:29:56Z</time>
      </trkpt>
      <trkpt lat="59.214399447665" lon="17.835725359619">
        <ele>23</ele>
        <time>2026-08-30T13:29:57Z</time>
      </trkpt>
      <trkpt lat="59.214424593374" lon="17.83564648591">
        <ele>23.4</ele>
        <time>2026-08-30T13:29:58Z</time>
      </trkpt>
      <trkpt lat="59.214484356344" lon="17.835434675217">
        <ele>23.8</ele>
        <time>2026-08-30T13:30:00Z</time>
      </trkpt>
      <trkpt lat="59.214530205354" lon="17.835197132081">
        <ele>23.8</ele>
        <time>2026-08-30T13:30:02Z</time>
      </trkpt>
      <trkpt lat="59.214556692168" lon="17.834801506251">
        <ele>23.8</ele>
        <time>2026-08-30T13:30:05Z</time>
      </trkpt>
      <trkpt lat="59.214548394084" lon="17.834122572094">
        <ele>22.8</ele>
        <time>2026-08-30T13:30:10Z</time>
      </trkpt>
      <trkpt lat="59.214491816238" lon="17.833574898541">
        <ele>22.4</ele>
        <time>2026-08-30T13:30:14Z</time>
      </trkpt>
      <trkpt lat="59.214476309717" lon="17.833433495834">
        <ele>22.2</ele>
        <time>2026-08-30T13:30:15Z</time>
      </trkpt>
      <trkpt lat="59.214460887015" lon="17.83329452388">
        <ele>21.8</ele>
        <time>2026-08-30T13:30:16Z</time>
      </trkpt>
      <trkpt lat="59.214449906722" lon="17.833146834746">
        <ele>21.6</ele>
        <time>2026-08-30T13:30:17Z</time>
      </trkpt>
      <trkpt lat="59.214458037168" lon="17.832872830331">
        <ele>20.8</ele>
        <time>2026-08-30T13:30:19Z</time>
      </trkpt>
      <trkpt lat="59.214493157342" lon="17.832609470934">
        <ele>19.6</ele>
        <time>2026-08-30T13:30:21Z</time>
      </trkpt>
      <trkpt lat="59.214515537024" lon="17.832475192845">
        <ele>19.2</ele>
        <time>2026-08-30T13:30:22Z</time>
      </trkpt>
      <trkpt lat="59.214564654976" lon="17.832210157067">
        <ele>18.8</ele>
        <time>2026-08-30T13:30:24Z</time>
      </trkpt>
      <trkpt lat="59.214647132903" lon="17.831720570102">
        <ele>18.6</ele>
        <time>2026-08-30T13:30:28Z</time>
      </trkpt>
      <trkpt lat="59.214681079611" lon="17.831495935097">
        <ele>18.6</ele>
        <time>2026-08-30T13:30:30Z</time>
      </trkpt>
      <trkpt lat="59.214732544497" lon="17.831178512424">
        <ele>18.6</ele>
        <time>2026-08-30T13:30:33Z</time>
      </trkpt>
      <trkpt lat="59.214741429314" lon="17.830972401425">
        <ele>18.8</ele>
        <time>2026-08-30T13:30:35Z</time>
      </trkpt>
      <trkpt lat="59.21473396942" lon="17.830786406994">
        <ele>19.4</ele>
        <time>2026-08-30T13:30:37Z</time>
      </trkpt>
      <trkpt lat="59.214736903086" lon="17.83069755882">
        <ele>19.6</ele>
        <time>2026-08-30T13:30:38Z</time>
      </trkpt>
      <trkpt lat="59.214751236141" lon="17.830614997074">
        <ele>19.8</ele>
        <time>2026-08-30T13:30:39Z</time>
      </trkpt>
      <trkpt lat="59.21487855725" lon="17.830415507779">
        <ele>20.2</ele>
        <time>2026-08-30T13:30:42Z</time>
      </trkpt>
      <trkpt lat="59.214928681031" lon="17.830353397876">
        <ele>20.2</ele>
        <time>2026-08-30T13:30:43Z</time>
      </trkpt>
      <trkpt lat="59.215048290789" lon="17.830167403445">
        <ele>20.2</ele>
        <time>2026-08-30T13:30:46Z</time>
      </trkpt>
      <trkpt lat="59.215059187263" lon="17.829869845882">
        <ele>20.2</ele>
        <time>2026-08-30T13:30:49Z</time>
      </trkpt>
      <trkpt lat="59.215026078746" lon="17.829647222534">
        <ele>20.2</ele>
        <time>2026-08-30T13:30:51Z</time>
      </trkpt>
      <trkpt lat="59.214964471757" lon="17.829348742962">
        <ele>19.8</ele>
        <time>2026-08-30T13:30:54Z</time>
      </trkpt>
      <trkpt lat="59.214934380725" lon="17.829070547596">
        <ele>18.4</ele>
        <time>2026-08-30T13:30:57Z</time>
      </trkpt>
      <trkpt lat="59.214955335483" lon="17.828988991678">
        <ele>18.4</ele>
        <time>2026-08-30T13:30:58Z</time>
      </trkpt>
      <trkpt lat="59.215088272467" lon="17.828916823491">
        <ele>18.4</ele>
        <time>2026-08-30T13:31:01Z</time>
      </trkpt>
      <trkpt lat="59.215138480067" lon="17.828913554549">
        <ele>18.4</ele>
        <time>2026-08-30T13:31:02Z</time>
      </trkpt>
      <trkpt lat="59.215333275497" lon="17.828942388296">
        <ele>18.8</ele>
        <time>2026-08-30T13:31:06Z</time>
      </trkpt>
      <trkpt lat="59.21546889469" lon="17.8290216811">
        <ele>19.4</ele>
        <time>2026-08-30T13:31:09Z</time>
      </trkpt>
      <trkpt lat="59.215597556904" lon="17.829113798216">
        <ele>19.8</ele>
        <time>2026-08-30T13:31:12Z</time>
      </trkpt>
      <trkpt lat="59.215766536072" lon="17.829227205366">
        <ele>20.2</ele>
        <time>2026-08-30T13:31:16Z</time>
      </trkpt>
      <trkpt lat="59.215890001506" lon="17.829313790426">
        <ele>20.6</ele>
        <time>2026-08-30T13:31:19Z</time>
      </trkpt>
      <trkpt lat="59.216157300398" lon="17.82945971936">
        <ele>21</ele>
        <time>2026-08-30T13:31:25Z</time>
      </trkpt>
      <trkpt lat="59.216276155785" lon="17.82943809405">
        <ele>21</ele>
        <time>2026-08-30T13:31:27Z</time>
      </trkpt>
      <trkpt lat="59.21633457765" lon="17.829381264746">
        <ele>21</ele>
        <time>2026-08-30T13:31:28Z</time>
      </trkpt>
      <trkpt lat="59.216504311189" lon="17.829066189006">
        <ele>21</ele>
        <time>2026-08-30T13:31:31Z</time>
      </trkpt>
      <trkpt lat="59.216560972854" lon="17.828951273113">
        <ele>21</ele>
        <time>2026-08-30T13:31:32Z</time>
      </trkpt>
      <trkpt lat="59.21671369113" lon="17.828640472144">
        <ele>19.8</ele>
        <time>2026-08-30T13:31:35Z</time>
      </trkpt>
      <trkpt lat="59.216768676415" lon="17.828584816307">
        <ele>19.2</ele>
        <time>2026-08-30T13:31:36Z</time>
      </trkpt>
      <trkpt lat="59.216886777431" lon="17.828570483252">
        <ele>17.8</ele>
        <time>2026-08-30T13:31:38Z</time>
      </trkpt>
      <trkpt lat="59.216951569542" lon="17.828618846834">
        <ele>17.4</ele>
        <time>2026-08-30T13:31:39Z</time>
      </trkpt>
      <trkpt lat="59.217018960044" lon="17.82867978327">
        <ele>16.8</ele>
        <time>2026-08-30T13:31:40Z</time>
      </trkpt>
      <trkpt lat="59.217130690813" lon="17.828870555386">
        <ele>15.8</ele>
        <time>2026-08-30T13:31:42Z</time>
      </trkpt>
      <trkpt lat="59.21718114987" lon="17.828983375803">
        <ele>15.6</ele>
        <time>2026-08-30T13:31:43Z</time>
      </trkpt>
      <trkpt lat="59.21733437106" lon="17.829304821789">
        <ele>15</ele>
        <time>2026-08-30T13:31:46Z</time>
      </trkpt>
      <trkpt lat="59.217464542016" lon="17.829464748502">
        <ele>14.6</ele>
        <time>2026-08-30T13:31:48Z</time>
      </trkpt>
      <trkpt lat="59.217530675232" lon="17.829523840919">
        <ele>14.4</ele>
        <time>2026-08-30T13:31:49Z</time>
      </trkpt>
      <trkpt lat="59.21760016121" lon="17.829578407109">
        <ele>14.2</ele>
        <time>2026-08-30T13:31:50Z</time>
      </trkpt>
      <trkpt lat="59.217798057944" lon="17.829756438732">
        <ele>14</ele>
        <time>2026-08-30T13:31:53Z</time>
      </trkpt>
      <trkpt lat="59.218133501709" lon="17.830141168088">
        <ele>13.6</ele>
        <time>2026-08-30T13:31:59Z</time>
      </trkpt>
      <trkpt lat="59.218237018213" lon="17.830282319337">
        <ele>13.4</ele>
        <time>2026-08-30T13:32:01Z</time>
      </trkpt>
      <trkpt lat="59.218401219696" lon="17.830517096445">
        <ele>13.4</ele>
        <time>2026-08-30T13:32:04Z</time>
      </trkpt>
      <trkpt lat="59.218586040661" lon="17.830768469721">
        <ele>13.4</ele>
        <time>2026-08-30T13:32:07Z</time>
      </trkpt>
      <trkpt lat="59.218714870512" lon="17.83095295541">
        <ele>13.4</ele>
        <time>2026-08-30T13:32:09Z</time>
      </trkpt>
      <trkpt lat="59.218779327348" lon="17.831047084183">
        <ele>13.4</ele>
        <time>2026-08-30T13:32:10Z</time>
      </trkpt>
      <trkpt lat="59.218912348151" lon="17.831224193797">
        <ele>13.4</ele>
        <time>2026-08-30T13:32:12Z</time>
      </trkpt>
      <trkpt lat="59.21904059127" lon="17.831404153258">
        <ele>13.2</ele>
        <time>2026-08-30T13:32:14Z</time>
      </trkpt>
      <trkpt lat="59.219226585701" lon="17.831662986428">
        <ele>13.2</ele>
        <time>2026-08-30T13:32:17Z</time>
      </trkpt>
      <trkpt lat="59.219278804958" lon="17.831755522639">
        <ele>13.2</ele>
        <time>2026-08-30T13:32:18Z</time>
      </trkpt>
      <trkpt lat="59.219363881275" lon="17.831972530112">
        <ele>13.2</ele>
        <time>2026-08-30T13:32:20Z</time>
      </trkpt>
      <trkpt lat="59.219481814653" lon="17.832272853702">
        <ele>13.2</ele>
        <time>2026-08-30T13:32:23Z</time>
      </trkpt>
      <trkpt lat="59.219576194882" lon="17.832423895597">
        <ele>14</ele>
        <time>2026-08-30T13:32:25Z</time>
      </trkpt>
      <trkpt lat="59.219679124653" lon="17.832538476214">
        <ele>14.6</ele>
        <time>2026-08-30T13:32:27Z</time>
      </trkpt>
      <trkpt lat="59.219734193757" lon="17.83258206211">
        <ele>14.8</ele>
        <time>2026-08-30T13:32:28Z</time>
      </trkpt>
      <trkpt lat="59.219853887334" lon="17.832631850615">
        <ele>15.2</ele>
        <time>2026-08-30T13:32:30Z</time>
      </trkpt>
      <trkpt lat="59.219980118796" lon="17.832631347701">
        <ele>15.6</ele>
        <time>2026-08-30T13:32:32Z</time>
      </trkpt>
      <trkpt lat="59.220101321116" lon="17.832589186728">
        <ele>16</ele>
        <time>2026-08-30T13:32:34Z</time>
      </trkpt>
      <trkpt lat="59.220281951129" lon="17.832507127896">
        <ele>16.8</ele>
        <time>2026-08-30T13:32:37Z</time>
      </trkpt>
      <trkpt lat="59.22057271935" lon="17.832354828715">
        <ele>17</ele>
        <time>2026-08-30T13:32:42Z</time>
      </trkpt>
      <trkpt lat="59.220804898068" lon="17.832267070189">
        <ele>17.2</ele>
        <time>2026-08-30T13:32:46Z</time>
      </trkpt>
      <trkpt lat="59.220923837274" lon="17.832251144573">
        <ele>17.2</ele>
        <time>2026-08-30T13:32:48Z</time>
      </trkpt>
      <trkpt lat="59.221142185852" lon="17.832145532593">
        <ele>17.4</ele>
        <time>2026-08-30T13:32:52Z</time>
      </trkpt>
      <trkpt lat="59.221191974357" lon="17.832121308893">
        <ele>17.4</ele>
        <time>2026-08-30T13:32:53Z</time>
      </trkpt>
      <trkpt lat="59.221241846681" lon="17.832106053829">
        <ele>17.6</ele>
        <time>2026-08-30T13:32:54Z</time>
      </trkpt>
      <trkpt lat="59.221338154748" lon="17.83206959255">
        <ele>17.8</ele>
        <time>2026-08-30T13:32:56Z</time>
      </trkpt>
      <trkpt lat="59.221436055377" lon="17.832037322223">
        <ele>17.8</ele>
        <time>2026-08-30T13:32:58Z</time>
      </trkpt>
      <trkpt lat="59.221589276567" lon="17.831980157644">
        <ele>17.8</ele>
        <time>2026-08-30T13:33:01Z</time>
      </trkpt>
      <trkpt lat="59.221689607948" lon="17.831921232864">
        <ele>18</ele>
        <time>2026-08-30T13:33:03Z</time>
      </trkpt>
      <trkpt lat="59.221734367311" lon="17.83188611269">
        <ele>18</ele>
        <time>2026-08-30T13:33:04Z</time>
      </trkpt>
      <trkpt lat="59.221821203828" lon="17.831820147112">
        <ele>18</ele>
        <time>2026-08-30T13:33:06Z</time>
      </trkpt>
      <trkpt lat="59.221900999546" lon="17.831749739125">
        <ele>17.8</ele>
        <time>2026-08-30T13:33:08Z</time>
      </trkpt>
      <trkpt lat="59.221933688968" lon="17.831704057753">
        <ele>17.8</ele>
        <time>2026-08-30T13:33:09Z</time>
      </trkpt>
      <trkpt lat="59.221981884912" lon="17.831628369167">
        <ele>17.8</ele>
        <time>2026-08-30T13:33:11Z</time>
      </trkpt>
      <trkpt lat="59.222026979551" lon="17.831561397761">
        <ele>17.8</ele>
        <time>2026-08-30T13:33:13Z</time>
      </trkpt>
      <trkpt lat="59.22212655656" lon="17.831386132166">
        <ele>17</ele>
        <time>2026-08-30T13:33:17Z</time>
      </trkpt>
      <trkpt lat="59.22214650549" lon="17.831241041422">
        <ele>16.8</ele>
        <time>2026-08-30T13:33:19Z</time>
      </trkpt>
      <trkpt lat="59.222166873515" lon="17.831038534641">
        <ele>16.4</ele>
        <time>2026-08-30T13:33:22Z</time>
      </trkpt>
      <trkpt lat="59.222174333408" lon="17.830990087241">
        <ele>16.4</ele>
        <time>2026-08-30T13:33:23Z</time>
      </trkpt>
      <trkpt lat="59.222183050588" lon="17.830952452496">
        <ele>16.4</ele>
        <time>2026-08-30T13:33:24Z</time>
      </trkpt>
      <trkpt lat="59.222209872678" lon="17.830904843286">
        <ele>16.2</ele>
        <time>2026-08-30T13:33:26Z</time>
      </trkpt>
      <trkpt lat="59.222315819934" lon="17.830769643188">
        <ele>16</ele>
        <time>2026-08-30T13:33:30Z</time>
      </trkpt>
      <trkpt lat="59.222360914573" lon="17.830731086433">
        <ele>16</ele>
        <time>2026-08-30T13:33:31Z</time>
      </trkpt>
      <trkpt lat="59.222408691421" lon="17.830690350384">
        <ele>16</ele>
        <time>2026-08-30T13:33:32Z</time>
      </trkpt>
      <trkpt lat="59.222509944811" lon="17.83059110865">
        <ele>15.8</ele>
        <time>2026-08-30T13:33:34Z</time>
      </trkpt>
      <trkpt lat="59.222562247887" lon="17.830541571602">
        <ele>15.6</ele>
        <time>2026-08-30T13:33:35Z</time>
      </trkpt>
      <trkpt lat="59.22261312604" lon="17.83048465848">
        <ele>15.6</ele>
        <time>2026-08-30T13:33:36Z</time>
      </trkpt>
      <trkpt lat="59.222712367773" lon="17.830356834456">
        <ele>15.4</ele>
        <time>2026-08-30T13:33:38Z</time>
      </trkpt>
      <trkpt lat="59.22281219624" lon="17.830228675157">
        <ele>15</ele>
        <time>2026-08-30T13:33:40Z</time>
      </trkpt>
      <trkpt lat="59.222861649469" lon="17.830158350989">
        <ele>14.8</ele>
        <time>2026-08-30T13:33:41Z</time>
      </trkpt>
      <trkpt lat="59.223019732162" lon="17.829948132858">
        <ele>14.8</ele>
        <time>2026-08-30T13:33:44Z</time>
      </trkpt>
      <trkpt lat="59.22312291339" lon="17.829813100398">
        <ele>14.6</ele>
        <time>2026-08-30T13:33:46Z</time>
      </trkpt>
      <trkpt lat="59.223219640553" lon="17.829682007432">
        <ele>14.6</ele>
        <time>2026-08-30T13:33:48Z</time>
      </trkpt>
      <trkpt lat="59.223316283897" lon="17.82955493778">
        <ele>14.8</ele>
        <time>2026-08-30T13:33:50Z</time>
      </trkpt>
      <trkpt lat="59.223408736289" lon="17.829434406012">
        <ele>14.8</ele>
        <time>2026-08-30T13:33:52Z</time>
      </trkpt>
      <trkpt lat="59.223539493978" lon="17.829225612804">
        <ele>15.4</ele>
        <time>2026-08-30T13:33:55Z</time>
      </trkpt>
      <trkpt lat="59.223661450669" lon="17.82901304774">
        <ele>15.6</ele>
        <time>2026-08-30T13:33:58Z</time>
      </trkpt>
      <trkpt lat="59.223820287734" lon="17.828744491562">
        <ele>16.6</ele>
        <time>2026-08-30T13:34:02Z</time>
      </trkpt>
      <trkpt lat="59.223894719034" lon="17.82861054875">
        <ele>17.4</ele>
        <time>2026-08-30T13:34:04Z</time>
      </trkpt>
      <trkpt lat="59.223932605237" lon="17.828545924276">
        <ele>17.8</ele>
        <time>2026-08-30T13:34:05Z</time>
      </trkpt>
      <trkpt lat="59.22409244813" lon="17.828303687274">
        <ele>18.8</ele>
        <time>2026-08-30T13:34:09Z</time>
      </trkpt>
      <trkpt lat="59.224130669609" lon="17.828248115256">
        <ele>19</ele>
        <time>2026-08-30T13:34:10Z</time>
      </trkpt>
      <trkpt lat="59.224170316011" lon="17.828197907656">
        <ele>19.4</ele>
        <time>2026-08-30T13:34:11Z</time>
      </trkpt>
      <trkpt lat="59.224211554974" lon="17.828154908493">
        <ele>19.8</ele>
        <time>2026-08-30T13:34:12Z</time>
      </trkpt>
      <trkpt lat="59.224294954911" lon="17.828073352575">
        <ele>20.2</ele>
        <time>2026-08-30T13:34:14Z</time>
      </trkpt>
      <trkpt lat="59.224418420345" lon="17.827961118892">
        <ele>21</ele>
        <time>2026-08-30T13:34:17Z</time>
      </trkpt>
      <trkpt lat="59.224504753947" lon="17.827892303467">
        <ele>21.4</ele>
        <time>2026-08-30T13:34:19Z</time>
      </trkpt>
      <trkpt lat="59.224777333438" lon="17.827721731737">
        <ele>22.2</ele>
        <time>2026-08-30T13:34:25Z</time>
      </trkpt>
      <trkpt lat="59.224825361744" lon="17.827698513865">
        <ele>22.6</ele>
        <time>2026-08-30T13:34:26Z</time>
      </trkpt>
      <trkpt lat="59.225115878507" lon="17.827480500564">
        <ele>23.4</ele>
        <time>2026-08-30T13:34:32Z</time>
      </trkpt>
      <trkpt lat="59.225162230432" lon="17.827441608533">
        <ele>23.6</ele>
        <time>2026-08-30T13:34:33Z</time>
      </trkpt>
      <trkpt lat="59.225509660318" lon="17.827097699046">
        <ele>24.2</ele>
        <time>2026-08-30T13:34:41Z</time>
      </trkpt>
      <trkpt lat="59.225635472685" lon="17.826969120651">
        <ele>24.2</ele>
        <time>2026-08-30T13:34:44Z</time>
      </trkpt>
      <trkpt lat="59.225718788803" lon="17.826884044334">
        <ele>24.2</ele>
        <time>2026-08-30T13:34:46Z</time>
      </trkpt>
      <trkpt lat="59.2258055415" lon="17.826799135655">
        <ele>24.2</ele>
        <time>2026-08-30T13:34:48Z</time>
      </trkpt>
      <trkpt lat="59.225936802104" lon="17.826658654958">
        <ele>24.2</ele>
        <time>2026-08-30T13:34:51Z</time>
      </trkpt>
      <trkpt lat="59.225982651114" lon="17.826605178416">
        <ele>24.2</ele>
        <time>2026-08-30T13:34:52Z</time>
      </trkpt>
      <trkpt lat="59.226187001914" lon="17.82636847347">
        <ele>24</ele>
        <time>2026-08-30T13:34:56Z</time>
      </trkpt>
      <trkpt lat="59.22629990615" lon="17.826247354969">
        <ele>23.8</ele>
        <time>2026-08-30T13:34:58Z</time>
      </trkpt>
      <trkpt lat="59.226529905573" lon="17.82597720623">
        <ele>22.6</ele>
        <time>2026-08-30T13:35:02Z</time>
      </trkpt>
      <trkpt lat="59.226593188941" lon="17.825921550393">
        <ele>22.4</ele>
        <time>2026-08-30T13:35:03Z</time>
      </trkpt>
      <trkpt lat="59.226723946631" lon="17.825827589259">
        <ele>22.2</ele>
        <time>2026-08-30T13:35:05Z</time>
      </trkpt>
      <trkpt lat="59.2267854698" lon="17.825773609802">
        <ele>22.2</ele>
        <time>2026-08-30T13:35:06Z</time>
      </trkpt>
      <trkpt lat="59.226902564988" lon="17.825639164075">
        <ele>22</ele>
        <time>2026-08-30T13:35:08Z</time>
      </trkpt>
      <trkpt lat="59.227177994326" lon="17.825330877677">
        <ele>21.8</ele>
        <time>2026-08-30T13:35:13Z</time>
      </trkpt>
      <trkpt lat="59.227522071451" lon="17.82499208115">
        <ele>21.8</ele>
        <time>2026-08-30T13:35:20Z</time>
      </trkpt>
      <trkpt lat="59.22760521993" lon="17.824854869395">
        <ele>22</ele>
        <time>2026-08-30T13:35:22Z</time>
      </trkpt>
      <trkpt lat="59.227716280147" lon="17.824596622959">
        <ele>22.2</ele>
        <time>2026-08-30T13:35:25Z</time>
      </trkpt>
      <trkpt lat="59.227829352021" lon="17.824344830588">
        <ele>23</ele>
        <time>2026-08-30T13:35:28Z</time>
      </trkpt>
      <trkpt lat="59.227901017293" lon="17.824180293828">
        <ele>23.6</ele>
        <time>2026-08-30T13:35:30Z</time>
      </trkpt>
      <trkpt lat="59.227940160781" lon="17.824108628556">
        <ele>23.8</ele>
        <time>2026-08-30T13:35:31Z</time>
      </trkpt>
      <trkpt lat="59.227982237935" lon="17.824042160064">
        <ele>24.2</ele>
        <time>2026-08-30T13:35:32Z</time>
      </trkpt>
      <trkpt lat="59.228066811338" lon="17.823903607205">
        <ele>24.6</ele>
        <time>2026-08-30T13:35:34Z</time>
      </trkpt>
      <trkpt lat="59.228222630918" lon="17.823670925573">
        <ele>24.8</ele>
        <time>2026-08-30T13:35:38Z</time>
      </trkpt>
      <trkpt lat="59.228432094678" lon="17.82338979654">
        <ele>25.6</ele>
        <time>2026-08-30T13:35:44Z</time>
      </trkpt>
      <trkpt lat="59.22850468196" lon="17.823294997215">
        <ele>26.6</ele>
        <time>2026-08-30T13:35:46Z</time>
      </trkpt>
      <trkpt lat="59.228576933965" lon="17.823164323345">
        <ele>27.4</ele>
        <time>2026-08-30T13:35:48Z</time>
      </trkpt>
      <trkpt lat="59.228615742177" lon="17.823093663901">
        <ele>27.6</ele>
        <time>2026-08-30T13:35:49Z</time>
      </trkpt>
      <trkpt lat="59.228696459904" lon="17.822942454368">
        <ele>27.6</ele>
        <time>2026-08-30T13:35:51Z</time>
      </trkpt>
      <trkpt lat="59.228735016659" lon="17.822859724984">
        <ele>27.6</ele>
        <time>2026-08-30T13:35:52Z</time>
      </trkpt>
      <trkpt lat="59.228860996664" lon="17.822593851015">
        <ele>27.8</ele>
        <time>2026-08-30T13:35:55Z</time>
      </trkpt>
      <trkpt lat="59.229013128206" lon="17.822320517153">
        <ele>26.8</ele>
        <time>2026-08-30T13:35:58Z</time>
      </trkpt>
      <trkpt lat="59.2290690355" lon="17.822235692292">
        <ele>26.2</ele>
        <time>2026-08-30T13:35:59Z</time>
      </trkpt>
      <trkpt lat="59.229127708822" lon="17.822153717279">
        <ele>25.8</ele>
        <time>2026-08-30T13:36:00Z</time>
      </trkpt>
      <trkpt lat="59.229233739898" lon="17.821976020932">
        <ele>24.8</ele>
        <time>2026-08-30T13:36:02Z</time>
      </trkpt>
      <trkpt lat="59.229399533942" lon="17.821714170277">
        <ele>23.8</ele>
        <time>2026-08-30T13:36:05Z</time>
      </trkpt>
      <trkpt lat="59.229451082647" lon="17.821627417579">
        <ele>23.6</ele>
        <time>2026-08-30T13:36:06Z</time>
      </trkpt>
      <trkpt lat="59.229614110664" lon="17.82137629576">
        <ele>22.4</ele>
        <time>2026-08-30T13:36:09Z</time>
      </trkpt>
      <trkpt lat="59.229770852253" lon="17.821162557229">
        <ele>21.4</ele>
        <time>2026-08-30T13:36:12Z</time>
      </trkpt>
      <trkpt lat="59.229876631871" lon="17.82104998827">
        <ele>21</ele>
        <time>2026-08-30T13:36:14Z</time>
      </trkpt>
      <trkpt lat="59.230029014871" lon="17.820913614705">
        <ele>20.8</ele>
        <time>2026-08-30T13:36:17Z</time>
      </trkpt>
      <trkpt lat="59.230127418414" lon="17.820814121515">
        <ele>20.8</ele>
        <time>2026-08-30T13:36:19Z</time>
      </trkpt>
      <trkpt lat="59.23027234152" lon="17.820679089054">
        <ele>20.8</ele>
        <time>2026-08-30T13:36:22Z</time>
      </trkpt>
      <trkpt lat="59.230353981256" lon="17.820605998859">
        <ele>20.8</ele>
        <time>2026-08-30T13:36:24Z</time>
      </trkpt>
      <trkpt lat="59.230478871614" lon="17.82048211433">
        <ele>21.4</ele>
        <time>2026-08-30T13:36:27Z</time>
      </trkpt>
      <trkpt lat="59.230757988989" lon="17.820181539282">
        <ele>21.4</ele>
        <time>2026-08-30T13:36:33Z</time>
      </trkpt>
      <trkpt lat="59.230795456097" lon="17.82013325952">
        <ele>21.6</ele>
        <time>2026-08-30T13:36:34Z</time>
      </trkpt>
      <trkpt lat="59.230956304818" lon="17.819932093844">
        <ele>21.2</ele>
        <time>2026-08-30T13:36:38Z</time>
      </trkpt>
      <trkpt lat="59.231079518795" lon="17.819800917059">
        <ele>21.2</ele>
        <time>2026-08-30T13:36:41Z</time>
      </trkpt>
      <trkpt lat="59.231209689751" lon="17.819596482441">
        <ele>20.8</ele>
        <time>2026-08-30T13:36:44Z</time>
      </trkpt>
      <trkpt lat="59.231343297288" lon="17.819378217682">
        <ele>20.6</ele>
        <time>2026-08-30T13:36:47Z</time>
      </trkpt>
      <trkpt lat="59.231418902054" lon="17.819218123332">
        <ele>20.6</ele>
        <time>2026-08-30T13:36:49Z</time>
      </trkpt>
      <trkpt lat="59.23149894923" lon="17.819057777524">
        <ele>20.6</ele>
        <time>2026-08-30T13:36:51Z</time>
      </trkpt>
      <trkpt lat="59.231690140441" lon="17.818771786988">
        <ele>20.8</ele>
        <time>2026-08-30T13:36:56Z</time>
      </trkpt>
      <trkpt lat="59.231900526211" lon="17.818494010717">
        <ele>22.2</ele>
        <time>2026-08-30T13:37:01Z</time>
      </trkpt>
      <trkpt lat="59.231937741861" lon="17.818446569145">
        <ele>22.4</ele>
        <time>2026-08-30T13:37:02Z</time>
      </trkpt>
      <trkpt lat="59.231969425455" lon="17.818402396515">
        <ele>23</ele>
        <time>2026-08-30T13:37:03Z</time>
      </trkpt>
      <trkpt lat="59.232022901997" lon="17.818323774263">
        <ele>23.6</ele>
        <time>2026-08-30T13:37:05Z</time>
      </trkpt>
      <trkpt lat="59.232112420723" lon="17.818112885579">
        <ele>24.6</ele>
        <time>2026-08-30T13:37:09Z</time>
      </trkpt>
      <trkpt lat="59.232202777639" lon="17.817663364112">
        <ele>24.8</ele>
        <time>2026-08-30T13:37:13Z</time>
      </trkpt>
      <trkpt lat="59.232208561152" lon="17.817523889244">
        <ele>24.8</ele>
        <time>2026-08-30T13:37:14Z</time>
      </trkpt>
      <trkpt lat="59.23219230026" lon="17.817121390253">
        <ele>24.8</ele>
        <time>2026-08-30T13:37:17Z</time>
      </trkpt>
      <trkpt lat="59.232177045196" lon="17.816890804097">
        <ele>22.4</ele>
        <time>2026-08-30T13:37:19Z</time>
      </trkpt>
      <trkpt lat="59.232175117359" lon="17.816676311195">
        <ele>20.8</ele>
        <time>2026-08-30T13:37:21Z</time>
      </trkpt>
      <trkpt lat="59.23218106851" lon="17.816573465243">
        <ele>20.4</ele>
        <time>2026-08-30T13:37:22Z</time>
      </trkpt>
      <trkpt lat="59.232269497588" lon="17.816183455288">
        <ele>20</ele>
        <time>2026-08-30T13:37:26Z</time>
      </trkpt>
      <trkpt lat="59.232301767915" lon="17.816095780581">
        <ele>19.8</ele>
        <time>2026-08-30T13:37:27Z</time>
      </trkpt>
      <trkpt lat="59.232332864776" lon="17.816011374816">
        <ele>19.8</ele>
        <time>2026-08-30T13:37:28Z</time>
      </trkpt>
      <trkpt lat="59.232405871153" lon="17.81583962962">
        <ele>19.4</ele>
        <time>2026-08-30T13:37:30Z</time>
      </trkpt>
      <trkpt lat="59.232500083745" lon="17.81563972123">
        <ele>19.2</ele>
        <time>2026-08-30T13:37:32Z</time>
      </trkpt>
      <trkpt lat="59.232600750402" lon="17.815447943285">
        <ele>18.8</ele>
        <time>2026-08-30T13:37:34Z</time>
      </trkpt>
      <trkpt lat="59.232648359612" lon="17.815347863361">
        <ele>18.8</ele>
        <time>2026-08-30T13:37:35Z</time>
      </trkpt>
      <trkpt lat="59.232741650194" lon="17.815173687413">
        <ele>17.6</ele>
        <time>2026-08-30T13:37:37Z</time>
      </trkpt>
      <trkpt lat="59.232778446749" lon="17.81509783119">
        <ele>16.6</ele>
        <time>2026-08-30T13:37:38Z</time>
      </trkpt>
      <trkpt lat="59.23282764852" lon="17.815031278878">
        <ele>15.8</ele>
        <time>2026-08-30T13:37:39Z</time>
      </trkpt>
      <trkpt lat="59.232910126448" lon="17.814911585301">
        <ele>14.6</ele>
        <time>2026-08-30T13:37:41Z</time>
      </trkpt>
      <trkpt lat="59.233001405373" lon="17.814805135131">
        <ele>14.2</ele>
        <time>2026-08-30T13:37:43Z</time>
      </trkpt>
      <trkpt lat="59.233206342906" lon="17.814552672207">
        <ele>14</ele>
        <time>2026-08-30T13:37:47Z</time>
      </trkpt>
      <trkpt lat="59.233325617388" lon="17.814406575635">
        <ele>14</ele>
        <time>2026-08-30T13:37:49Z</time>
      </trkpt>
      <trkpt lat="59.233377249911" lon="17.814331473783">
        <ele>14</ele>
        <time>2026-08-30T13:37:50Z</time>
      </trkpt>
      <trkpt lat="59.233639100567" lon="17.813988234848">
        <ele>15.2</ele>
        <time>2026-08-30T13:37:55Z</time>
      </trkpt>
      <trkpt lat="59.233746053651" lon="17.813849933445">
        <ele>15.8</ele>
        <time>2026-08-30T13:37:57Z</time>
      </trkpt>
      <trkpt lat="59.233962306753" lon="17.81357165426">
        <ele>16.2</ele>
        <time>2026-08-30T13:38:01Z</time>
      </trkpt>
      <trkpt lat="59.234179314226" lon="17.813299074769">
        <ele>16.4</ele>
        <time>2026-08-30T13:38:05Z</time>
      </trkpt>
      <trkpt lat="59.234486091882" lon="17.812905041501">
        <ele>16.4</ele>
        <time>2026-08-30T13:38:11Z</time>
      </trkpt>
      <trkpt lat="59.234779123217" lon="17.812537914142">
        <ele>16</ele>
        <time>2026-08-30T13:38:17Z</time>
      </trkpt>
      <trkpt lat="59.234872078523" lon="17.812431463972">
        <ele>16</ele>
        <time>2026-08-30T13:38:19Z</time>
      </trkpt>
      <trkpt lat="59.235120853409" lon="17.812121585011">
        <ele>16.4</ele>
        <time>2026-08-30T13:38:25Z</time>
      </trkpt>
      <trkpt lat="59.235276170075" lon="17.811854956672">
        <ele>16.8</ele>
        <time>2026-08-30T13:38:29Z</time>
      </trkpt>
      <trkpt lat="59.235313050449" lon="17.811781782657">
        <ele>16.8</ele>
        <time>2026-08-30T13:38:30Z</time>
      </trkpt>
      <trkpt lat="59.235350433737" lon="17.811718499288">
        <ele>16.8</ele>
        <time>2026-08-30T13:38:31Z</time>
      </trkpt>
      <trkpt lat="59.235440623015" lon="17.811587657779">
        <ele>16.8</ele>
        <time>2026-08-30T13:38:34Z</time>
      </trkpt>
      <trkpt lat="59.235495440662" lon="17.81145866029">
        <ele>16.8</ele>
        <time>2026-08-30T13:38:36Z</time>
      </trkpt>
      <trkpt lat="59.235593508929" lon="17.811322538182">
        <ele>16.2</ele>
        <time>2026-08-30T13:38:38Z</time>
      </trkpt>
      <trkpt lat="59.235681099817" lon="17.811163365841">
        <ele>16.2</ele>
        <time>2026-08-30T13:38:40Z</time>
      </trkpt>
      <trkpt lat="59.235805990174" lon="17.810894725844">
        <ele>15.6</ele>
        <time>2026-08-30T13:38:43Z</time>
      </trkpt>
      <trkpt lat="59.235847480595" lon="17.810802189633">
        <ele>15.6</ele>
        <time>2026-08-30T13:38:44Z</time>
      </trkpt>
      <trkpt lat="59.235930209979" lon="17.810635557398">
        <ele>15.6</ele>
        <time>2026-08-30T13:38:46Z</time>
      </trkpt>
      <trkpt lat="59.235966755077" lon="17.810554252937">
        <ele>15.6</ele>
        <time>2026-08-30T13:38:47Z</time>
      </trkpt>
      <trkpt lat="59.236049316823" lon="17.810389799997">
        <ele>15.6</ele>
        <time>2026-08-30T13:38:49Z</time>
      </trkpt>
      <trkpt lat="59.236129028723" lon="17.810226520523">
        <ele>16</ele>
        <time>2026-08-30T13:38:51Z</time>
      </trkpt>
      <trkpt lat="59.236196251586" lon="17.810059469193">
        <ele>16.8</ele>
        <time>2026-08-30T13:38:53Z</time>
      </trkpt>
      <trkpt lat="59.236257858574" lon="17.809897111729">
        <ele>17.6</ele>
        <time>2026-08-30T13:38:55Z</time>
      </trkpt>
      <trkpt lat="59.236338660121" lon="17.809662250802">
        <ele>19.2</ele>
        <time>2026-08-30T13:38:58Z</time>
      </trkpt>
      <trkpt lat="59.236383922398" lon="17.809508442879">
        <ele>20.4</ele>
        <time>2026-08-30T13:39:00Z</time>
      </trkpt>
      <trkpt lat="59.236444272101" lon="17.809272324666">
        <ele>21.6</ele>
        <time>2026-08-30T13:39:03Z</time>
      </trkpt>
      <trkpt lat="59.236502777785" lon="17.808955991641">
        <ele>22.4</ele>
        <time>2026-08-30T13:39:07Z</time>
      </trkpt>
      <trkpt lat="59.236514344811" lon="17.808874351904">
        <ele>22.6</ele>
        <time>2026-08-30T13:39:08Z</time>
      </trkpt>
      <trkpt lat="59.236535467207" lon="17.808713922277">
        <ele>23</ele>
        <time>2026-08-30T13:39:10Z</time>
      </trkpt>
      <trkpt lat="59.236596319824" lon="17.808379065245">
        <ele>23.2</ele>
        <time>2026-08-30T13:39:15Z</time>
      </trkpt>
      <trkpt lat="59.236643845215" lon="17.808306645602">
        <ele>23.2</ele>
        <time>2026-08-30T13:39:17Z</time>
      </trkpt>
      <trkpt lat="59.236670415848" lon="17.808301532641">
        <ele>23.2</ele>
        <time>2026-08-30T13:39:18Z</time>
      </trkpt>
      <trkpt lat="59.236811650917" lon="17.808332042769">
        <ele>23.4</ele>
        <time>2026-08-30T13:39:23Z</time>
      </trkpt>
      <trkpt lat="59.236862612888" lon="17.808359703049">
        <ele>23.8</ele>
        <time>2026-08-30T13:39:26Z</time>
      </trkpt>
      <trkpt lat="59.236898235977" lon="17.808381663635">
        <ele>24</ele>
        <time>2026-08-30T13:39:28Z</time>
      </trkpt>
      <trkpt lat="59.236981384456" lon="17.808427847922">
        <ele>24.8</ele>
        <time>2026-08-30T13:39:32Z</time>
      </trkpt>
      <trkpt lat="59.237050199881" lon="17.808489119634">
        <ele>25.6</ele>
        <time>2026-08-30T13:39:35Z</time>
      </trkpt>
      <trkpt lat="59.237073836848" lon="17.808503955603">
        <ele>26</ele>
        <time>2026-08-30T13:39:36Z</time>
      </trkpt>
      <trkpt lat="59.237171653658" lon="17.808570340276">
        <ele>27.2</ele>
        <time>2026-08-30T13:39:40Z</time>
      </trkpt>
      <trkpt lat="59.237197050825" lon="17.808590959758">
        <ele>27.4</ele>
        <time>2026-08-30T13:39:41Z</time>
      </trkpt>
      <trkpt lat="59.237278020009" lon="17.808652818203">
        <ele>28.2</ele>
        <time>2026-08-30T13:39:44Z</time>
      </trkpt>
      <trkpt lat="59.237366365269" lon="17.808710988611">
        <ele>28.6</ele>
        <time>2026-08-30T13:39:47Z</time>
      </trkpt>
      <trkpt lat="59.237527130172" lon="17.808806207031">
        <ele>28.8</ele>
        <time>2026-08-30T13:39:51Z</time>
      </trkpt>
      <trkpt lat="59.237572979182" lon="17.808830430731">
        <ele>28.8</ele>
        <time>2026-08-30T13:39:52Z</time>
      </trkpt>
      <trkpt lat="59.237680351362" lon="17.80881492421">
        <ele>28.8</ele>
        <time>2026-08-30T13:39:54Z</time>
      </trkpt>
      <trkpt lat="59.237736091018" lon="17.808771841228">
        <ele>28.8</ele>
        <time>2026-08-30T13:39:55Z</time>
      </trkpt>
      <trkpt lat="59.237846983597" lon="17.808631695807">
        <ele>28.6</ele>
        <time>2026-08-30T13:39:57Z</time>
      </trkpt>
      <trkpt lat="59.23800506629" lon="17.808377640322">
        <ele>28.2</ele>
        <time>2026-08-30T13:40:00Z</time>
      </trkpt>
      <trkpt lat="59.23811847344" lon="17.808214109391">
        <ele>27.8</ele>
        <time>2026-08-30T13:40:02Z</time>
      </trkpt>
      <trkpt lat="59.238260127604" lon="17.808112604544">
        <ele>26.4</ele>
        <time>2026-08-30T13:40:04Z</time>
      </trkpt>
      <trkpt lat="59.2384041287" lon="17.808073209599">
        <ele>25.2</ele>
        <time>2026-08-30T13:40:06Z</time>
      </trkpt>
      <trkpt lat="59.238548045978" lon="17.808077232912">
        <ele>24.2</ele>
        <time>2026-08-30T13:40:08Z</time>
      </trkpt>
      <trkpt lat="59.238772345707" lon="17.808100450784">
        <ele>23.4</ele>
        <time>2026-08-30T13:40:11Z</time>
      </trkpt>
      <trkpt lat="59.238914838061" lon="17.808112353086">
        <ele>23.2</ele>
        <time>2026-08-30T13:40:13Z</time>
      </trkpt>
      <trkpt lat="59.239042075351" lon="17.808127189055">
        <ele>23.2</ele>
        <time>2026-08-30T13:40:15Z</time>
      </trkpt>
      <trkpt lat="59.239098988473" lon="17.808135319501">
        <ele>23.2</ele>
        <time>2026-08-30T13:40:16Z</time>
      </trkpt>
      <trkpt lat="59.239325970411" lon="17.808168679476">
        <ele>23.6</ele>
        <time>2026-08-30T13:40:21Z</time>
      </trkpt>
      <trkpt lat="59.239395540208" lon="17.808175720274">
        <ele>24.4</ele>
        <time>2026-08-30T13:40:23Z</time>
      </trkpt>
      <trkpt lat="59.2394879926" lon="17.808182593435">
        <ele>25.8</ele>
        <time>2026-08-30T13:40:26Z</time>
      </trkpt>
      <trkpt lat="59.23954859376" lon="17.808193657547">
        <ele>27.2</ele>
        <time>2026-08-30T13:40:28Z</time>
      </trkpt>
      <trkpt lat="59.239658899605" lon="17.80820379965">
        <ele>28.4</ele>
        <time>2026-08-30T13:40:32Z</time>
      </trkpt>
      <trkpt lat="59.239730145782" lon="17.808212516829">
        <ele>29.2</ele>
        <time>2026-08-30T13:40:35Z</time>
      </trkpt>
      <trkpt lat="59.239771552384" lon="17.808218132704">
        <ele>29.4</ele>
        <time>2026-08-30T13:40:37Z</time>
      </trkpt>
      <trkpt lat="59.239827711135" lon="17.808231292292">
        <ele>30.4</ele>
        <time>2026-08-30T13:40:40Z</time>
      </trkpt>
      <trkpt lat="59.239842714742" lon="17.808237746358">
        <ele>30.8</ele>
        <time>2026-08-30T13:40:41Z</time>
      </trkpt>
      <trkpt lat="59.239893676713" lon="17.808236991987">
        <ele>31.8</ele>
        <time>2026-08-30T13:40:44Z</time>
      </trkpt>
      <trkpt lat="59.239913458005" lon="17.808208325878">
        <ele>32</ele>
        <time>2026-08-30T13:40:45Z</time>
      </trkpt>
      <trkpt lat="59.239943632856" lon="17.808003220707">
        <ele>33</ele>
        <time>2026-08-30T13:40:49Z</time>
      </trkpt>
      <trkpt lat="59.239962575957" lon="17.807871289551">
        <ele>33.4</ele>
        <time>2026-08-30T13:40:51Z</time>
      </trkpt>
      <trkpt lat="59.23998914659" lon="17.807637266815">
        <ele>33.6</ele>
        <time>2026-08-30T13:40:54Z</time>
      </trkpt>
      <trkpt lat="59.240039689466" lon="17.807330070063">
        <ele>33.6</ele>
        <time>2026-08-30T13:40:57Z</time>
      </trkpt>
      <trkpt lat="59.240052010864" lon="17.807219345123">
        <ele>33.6</ele>
        <time>2026-08-30T13:40:58Z</time>
      </trkpt>
      <trkpt lat="59.240063158795" lon="17.807111805305">
        <ele>33.6</ele>
        <time>2026-08-30T13:40:59Z</time>
      </trkpt>
      <trkpt lat="59.240106409416" lon="17.806569160894">
        <ele>31.6</ele>
        <time>2026-08-30T13:41:04Z</time>
      </trkpt>
      <trkpt lat="59.240118814632" lon="17.806208906695">
        <ele>30.6</ele>
        <time>2026-08-30T13:41:07Z</time>
      </trkpt>
      <trkpt lat="59.240110768005" lon="17.80560943298">
        <ele>29.4</ele>
        <time>2026-08-30T13:41:12Z</time>
      </trkpt>
      <trkpt lat="59.240095177665" lon="17.805363256484">
        <ele>29.2</ele>
        <time>2026-08-30T13:41:14Z</time>
      </trkpt>
      <trkpt lat="59.240051675588" lon="17.804941143841">
        <ele>28.6</ele>
        <time>2026-08-30T13:41:17Z</time>
      </trkpt>
      <trkpt lat="59.240035749972" lon="17.804787922651">
        <ele>28.4</ele>
        <time>2026-08-30T13:41:18Z</time>
      </trkpt>
      <trkpt lat="59.240019405261" lon="17.804631600156">
        <ele>28.2</ele>
        <time>2026-08-30T13:41:19Z</time>
      </trkpt>
      <trkpt lat="59.239987637848" lon="17.804316608235">
        <ele>27.8</ele>
        <time>2026-08-30T13:41:21Z</time>
      </trkpt>
      <trkpt lat="59.239937094972" lon="17.803838001564">
        <ele>27.2</ele>
        <time>2026-08-30T13:41:24Z</time>
      </trkpt>
      <trkpt lat="59.239900466055" lon="17.803511442617">
        <ele>25.6</ele>
        <time>2026-08-30T13:41:26Z</time>
      </trkpt>
      <trkpt lat="59.239881942049" lon="17.803339194506">
        <ele>24.6</ele>
        <time>2026-08-30T13:41:27Z</time>
      </trkpt>
      <trkpt lat="59.239862579852" lon="17.803157642484">
        <ele>24</ele>
        <time>2026-08-30T13:41:28Z</time>
      </trkpt>
      <trkpt lat="59.239769121632" lon="17.802379047498">
        <ele>23.2</ele>
        <time>2026-08-30T13:41:32Z</time>
      </trkpt>
      <trkpt lat="59.239742886275" lon="17.802181821316">
        <ele>22.6</ele>
        <time>2026-08-30T13:41:33Z</time>
      </trkpt>
      <trkpt lat="59.239705502987" lon="17.80178074725">
        <ele>21</ele>
        <time>2026-08-30T13:41:35Z</time>
      </trkpt>
      <trkpt lat="59.239700390026" lon="17.801574971527">
        <ele>20.4</ele>
        <time>2026-08-30T13:41:36Z</time>
      </trkpt>
      <trkpt lat="59.239708436653" lon="17.801368944347">
        <ele>19.6</ele>
        <time>2026-08-30T13:41:37Z</time>
      </trkpt>
      <trkpt lat="59.239746322855" lon="17.800965942442">
        <ele>17.4</ele>
        <time>2026-08-30T13:41:39Z</time>
      </trkpt>
      <trkpt lat="59.239768618718" lon="17.800768213347">
        <ele>16.2</ele>
        <time>2026-08-30T13:41:40Z</time>
      </trkpt>
      <trkpt lat="59.239793429151" lon="17.800573837012">
        <ele>15</ele>
        <time>2026-08-30T13:41:41Z</time>
      </trkpt>
      <trkpt lat="59.239820586517" lon="17.800381304696">
        <ele>14.4</ele>
        <time>2026-08-30T13:41:42Z</time>
      </trkpt>
      <trkpt lat="59.239878254011" lon="17.800009315833">
        <ele>14</ele>
        <time>2026-08-30T13:41:44Z</time>
      </trkpt>
      <trkpt lat="59.23997531645" lon="17.799295177683">
        <ele>13.4</ele>
        <time>2026-08-30T13:41:48Z</time>
      </trkpt>
      <trkpt lat="59.24008436501" lon="17.798454724252">
        <ele>12.8</ele>
        <time>2026-08-30T13:41:53Z</time>
      </trkpt>
      <trkpt lat="59.240161227062" lon="17.797847371548">
        <ele>12.8</ele>
        <time>2026-08-30T13:41:57Z</time>
      </trkpt>
      <trkpt lat="59.240197185427" lon="17.797559453174">
        <ele>12.8</ele>
        <time>2026-08-30T13:41:59Z</time>
      </trkpt>
      <trkpt lat="59.240243788809" lon="17.797136250883">
        <ele>13</ele>
        <time>2026-08-30T13:42:02Z</time>
      </trkpt>
      <trkpt lat="59.240293074399" lon="17.796729477122">
        <ele>13.4</ele>
        <time>2026-08-30T13:42:05Z</time>
      </trkpt>
      <trkpt lat="59.240311682224" lon="17.7965963725">
        <ele>13.4</ele>
        <time>2026-08-30T13:42:06Z</time>
      </trkpt>
      <trkpt lat="59.24038041383" lon="17.795935459435">
        <ele>14.8</ele>
        <time>2026-08-30T13:42:11Z</time>
      </trkpt>
      <trkpt lat="59.240400614217" lon="17.795683834702">
        <ele>15</ele>
        <time>2026-08-30T13:42:13Z</time>
      </trkpt>
      <trkpt lat="59.240446966141" lon="17.795067513362">
        <ele>15.2</ele>
        <time>2026-08-30T13:42:18Z</time>
      </trkpt>
      <trkpt lat="59.24046959728" lon="17.794690914452">
        <ele>15</ele>
        <time>2026-08-30T13:42:21Z</time>
      </trkpt>
      <trkpt lat="59.240503963083" lon="17.79430241324">
        <ele>15.4</ele>
        <time>2026-08-30T13:42:24Z</time>
      </trkpt>
      <trkpt lat="59.240543358028" lon="17.793914834037">
        <ele>15.6</ele>
        <time>2026-08-30T13:42:27Z</time>
      </trkpt>
      <trkpt lat="59.240584261715" lon="17.793527254835">
        <ele>15.6</ele>
        <time>2026-08-30T13:42:30Z</time>
      </trkpt>
      <trkpt lat="59.240596247837" lon="17.793399849907">
        <ele>15.6</ele>
        <time>2026-08-30T13:42:31Z</time>
      </trkpt>
      <trkpt lat="59.240678977221" lon="17.792634749785">
        <ele>16.2</ele>
        <time>2026-08-30T13:42:37Z</time>
      </trkpt>
      <trkpt lat="59.240700015798" lon="17.792514804751">
        <ele>16.2</ele>
        <time>2026-08-30T13:42:38Z</time>
      </trkpt>
      <trkpt lat="59.240855081007" lon="17.791941566393">
        <ele>16.4</ele>
        <time>2026-08-30T13:42:43Z</time>
      </trkpt>
      <trkpt lat="59.24088165164" lon="17.791822291911">
        <ele>16.4</ele>
        <time>2026-08-30T13:42:44Z</time>
      </trkpt>
      <trkpt lat="59.241033615544" lon="17.79126917012">
        <ele>16.4</ele>
        <time>2026-08-30T13:42:49Z</time>
      </trkpt>
      <trkpt lat="59.241163367406" lon="17.790731051937">
        <ele>16.6</ele>
        <time>2026-08-30T13:42:54Z</time>
      </trkpt>
      <trkpt lat="59.241239810362" lon="17.790400218219">
        <ele>16.8</ele>
        <time>2026-08-30T13:42:57Z</time>
      </trkpt>
      <trkpt lat="59.241263531148" lon="17.790296366438">
        <ele>16.8</ele>
        <time>2026-08-30T13:42:58Z</time>
      </trkpt>
      <trkpt lat="59.241323797032" lon="17.789961677045">
        <ele>17</ele>
        <time>2026-08-30T13:43:01Z</time>
      </trkpt>
      <trkpt lat="59.24132832326" lon="17.789721116424">
        <ele>17.2</ele>
        <time>2026-08-30T13:43:03Z</time>
      </trkpt>
      <trkpt lat="59.241331927478" lon="17.789600165561">
        <ele>17.4</ele>
        <time>2026-08-30T13:43:04Z</time>
      </trkpt>
      <trkpt lat="59.241382973269" lon="17.789154751226">
        <ele>17.6</ele>
        <time>2026-08-30T13:43:08Z</time>
      </trkpt>
      <trkpt lat="59.241419099271" lon="17.788953753188">
        <ele>17.6</ele>
        <time>2026-08-30T13:43:10Z</time>
      </trkpt>
      <trkpt lat="59.241551198065" lon="17.788462406024">
        <ele>17.6</ele>
        <time>2026-08-30T13:43:15Z</time>
      </trkpt>
      <trkpt lat="59.241645494476" lon="17.788177337497">
        <ele>17.6</ele>
        <time>2026-08-30T13:43:18Z</time>
      </trkpt>
      <trkpt lat="59.241701485589" lon="17.787947421893">
        <ele>17.8</ele>
        <time>2026-08-30T13:43:20Z</time>
      </trkpt>
      <trkpt lat="59.241875242442" lon="17.787011582404">
        <ele>17.8</ele>
        <time>2026-08-30T13:43:27Z</time>
      </trkpt>
      <trkpt lat="59.241884630173" lon="17.78686909005">
        <ele>17.6</ele>
        <time>2026-08-30T13:43:28Z</time>
      </trkpt>
      <trkpt lat="59.241869291291" lon="17.786595001817">
        <ele>17</ele>
        <time>2026-08-30T13:43:30Z</time>
      </trkpt>
      <trkpt lat="59.241844313219" lon="17.786345807835">
        <ele>16.2</ele>
        <time>2026-08-30T13:43:32Z</time>
      </trkpt>
      <trkpt lat="59.2418200057" lon="17.786037689075">
        <ele>15.6</ele>
        <time>2026-08-30T13:43:35Z</time>
      </trkpt>
      <trkpt lat="59.241871386766" lon="17.785849012434">
        <ele>15.4</ele>
        <time>2026-08-30T13:43:38Z</time>
      </trkpt>
      <trkpt lat="59.242002060637" lon="17.785809198394">
        <ele>15.4</ele>
        <time>2026-08-30T13:43:42Z</time>
      </trkpt>
      <trkpt lat="59.242119994015" lon="17.78592553921">
        <ele>16.4</ele>
        <time>2026-08-30T13:43:45Z</time>
      </trkpt>
      <trkpt lat="59.242165256292" lon="17.785943057388">
        <ele>16.8</ele>
        <time>2026-08-30T13:43:46Z</time>
      </trkpt>
      <trkpt lat="59.242210937664" lon="17.785950852558">
        <ele>17.4</ele>
        <time>2026-08-30T13:43:47Z</time>
      </trkpt>
      <trkpt lat="59.242335995659" lon="17.785981949419">
        <ele>18</ele>
        <time>2026-08-30T13:43:50Z</time>
      </trkpt>
      <trkpt lat="59.242379413918" lon="17.785998629406">
        <ele>18.2</ele>
        <time>2026-08-30T13:43:51Z</time>
      </trkpt>
      <trkpt lat="59.242464993149" lon="17.7860060893">
        <ele>18.4</ele>
        <time>2026-08-30T13:43:53Z</time>
      </trkpt>
      <trkpt lat="59.242586279288" lon="17.786016315222">
        <ele>19</ele>
        <time>2026-08-30T13:43:56Z</time>
      </trkpt>
      <trkpt lat="59.242626260966" lon="17.786023439839">
        <ele>19.2</ele>
        <time>2026-08-30T13:43:57Z</time>
      </trkpt>
      <trkpt lat="59.242709409446" lon="17.78603634797">
        <ele>19.6</ele>
        <time>2026-08-30T13:43:59Z</time>
      </trkpt>
      <trkpt lat="59.242830947042" lon="17.786070294678">
        <ele>20.4</ele>
        <time>2026-08-30T13:44:02Z</time>
      </trkpt>
      <trkpt lat="59.242868497968" lon="17.786086387932">
        <ele>20.8</ele>
        <time>2026-08-30T13:44:03Z</time>
      </trkpt>
      <trkpt lat="59.242938738316" lon="17.786120502278">
        <ele>21.2</ele>
        <time>2026-08-30T13:44:05Z</time>
      </trkpt>
      <trkpt lat="59.243037477136" lon="17.786179929972">
        <ele>21.6</ele>
        <time>2026-08-30T13:44:08Z</time>
      </trkpt>
      <trkpt lat="59.243069076911" lon="17.78620172292">
        <ele>22</ele>
        <time>2026-08-30T13:44:09Z</time>
      </trkpt>
      <trkpt lat="59.243159098551" lon="17.786255786195">
        <ele>22.8</ele>
        <time>2026-08-30T13:44:12Z</time>
      </trkpt>
      <trkpt lat="59.243212072179" lon="17.786280596629">
        <ele>23.2</ele>
        <time>2026-08-30T13:44:14Z</time>
      </trkpt>
      <trkpt lat="59.2432984896" lon="17.786273220554">
        <ele>24</ele>
        <time>2026-08-30T13:44:17Z</time>
      </trkpt>
      <trkpt lat="59.243320785463" lon="17.786232987419">
        <ele>24.4</ele>
        <time>2026-08-30T13:44:18Z</time>
      </trkpt>
      <trkpt lat="59.243345428258" lon="17.786034252495">
        <ele>25.4</ele>
        <time>2026-08-30T13:44:21Z</time>
      </trkpt>
      <trkpt lat="59.24334182404" lon="17.785953870043">
        <ele>25.8</ele>
        <time>2026-08-30T13:44:22Z</time>
      </trkpt>
      <trkpt lat="59.243336794898" lon="17.785870051011">
        <ele>26</ele>
        <time>2026-08-30T13:44:23Z</time>
      </trkpt>
      <trkpt lat="59.243336124346" lon="17.78578883037">
        <ele>26.6</ele>
        <time>2026-08-30T13:44:24Z</time>
      </trkpt>
      <trkpt lat="59.243353810161" lon="17.785625802353">
        <ele>26.8</ele>
        <time>2026-08-30T13:44:26Z</time>
      </trkpt>
      <trkpt lat="59.243368981406" lon="17.785548353568">
        <ele>27</ele>
        <time>2026-08-30T13:44:27Z</time>
      </trkpt>
      <trkpt lat="59.243408963084" lon="17.785434359685">
        <ele>27.2</ele>
        <time>2026-08-30T13:44:29Z</time>
      </trkpt>
      <trkpt lat="59.243431175128" lon="17.785394210368">
        <ele>27.2</ele>
        <time>2026-08-30T13:44:30Z</time>
      </trkpt>
      <trkpt lat="59.243451962247" lon="17.785359593108">
        <ele>27.4</ele>
        <time>2026-08-30T13:44:31Z</time>
      </trkpt>
      <trkpt lat="59.243492027745" lon="17.785297567025">
        <ele>27.6</ele>
        <time>2026-08-30T13:44:33Z</time>
      </trkpt>
      <trkpt lat="59.243561178446" lon="17.785177538171">
        <ele>28.2</ele>
        <time>2026-08-30T13:44:36Z</time>
      </trkpt>
      <trkpt lat="59.243585653603" lon="17.785122804344">
        <ele>28.6</ele>
        <time>2026-08-30T13:44:37Z</time>
      </trkpt>
      <trkpt lat="59.243607027456" lon="17.78506949544">
        <ele>29</ele>
        <time>2026-08-30T13:44:38Z</time>
      </trkpt>
      <trkpt lat="59.243672573939" lon="17.784917615354">
        <ele>30.2</ele>
        <time>2026-08-30T13:44:41Z</time>
      </trkpt>
      <trkpt lat="59.243763769045" lon="17.784715779126">
        <ele>31.4</ele>
        <time>2026-08-30T13:44:45Z</time>
      </trkpt>
      <trkpt lat="59.243786232546" lon="17.784664146602">
        <ele>31.6</ele>
        <time>2026-08-30T13:44:46Z</time>
      </trkpt>
      <trkpt lat="59.243847671896" lon="17.784494580701">
        <ele>32.6</ele>
        <time>2026-08-30T13:44:49Z</time>
      </trkpt>
      <trkpt lat="59.243936687708" lon="17.784305149689">
        <ele>33.2</ele>
        <time>2026-08-30T13:44:53Z</time>
      </trkpt>
      <trkpt lat="59.244059566408" lon="17.784097194672">
        <ele>33.6</ele>
        <time>2026-08-30T13:44:58Z</time>
      </trkpt>
      <trkpt lat="59.24408714287" lon="17.784069785848">
        <ele>33.8</ele>
        <time>2026-08-30T13:44:59Z</time>
      </trkpt>
      <trkpt lat="59.244108516723" lon="17.78402980417">
        <ele>33.8</ele>
        <time>2026-08-30T13:45:00Z</time>
      </trkpt>
      <trkpt lat="59.244172554463" lon="17.783896615729">
        <ele>34.2</ele>
        <time>2026-08-30T13:45:03Z</time>
      </trkpt>
      <trkpt lat="59.244382437319" lon="17.783666616306">
        <ele>34.4</ele>
        <time>2026-08-30T13:45:10Z</time>
      </trkpt>
      <trkpt lat="59.24458745867" lon="17.783458745107">
        <ele>35.6</ele>
        <time>2026-08-30T13:45:17Z</time>
      </trkpt>
      <trkpt lat="59.244686951861" lon="17.783357910812">
        <ele>36.2</ele>
        <time>2026-08-30T13:45:21Z</time>
      </trkpt>
      <trkpt lat="59.244705811143" lon="17.783327233046">
        <ele>36.4</ele>
        <time>2026-08-30T13:45:22Z</time>
      </trkpt>
      <trkpt lat="59.244717797264" lon="17.783283395693">
        <ele>36.4</ele>
        <time>2026-08-30T13:45:23Z</time>
      </trkpt>
      <trkpt lat="59.244729364291" lon="17.783107291907">
        <ele>36.8</ele>
        <time>2026-08-30T13:45:27Z</time>
      </trkpt>
      <trkpt lat="59.244728274643" lon="17.783060772344">
        <ele>36.8</ele>
        <time>2026-08-30T13:45:28Z</time>
      </trkpt>
      <trkpt lat="59.244720563293" lon="17.782859941944">
        <ele>38</ele>
        <time>2026-08-30T13:45:33Z</time>
      </trkpt>
      <trkpt lat="59.24468100071" lon="17.782738488168">
        <ele>39</ele>
        <time>2026-08-30T13:45:37Z</time>
      </trkpt>
      <trkpt lat="59.244654849172" lon="17.782665314153">
        <ele>39.4</ele>
        <time>2026-08-30T13:45:39Z</time>
      </trkpt>
      <trkpt lat="59.244601204991" lon="17.782448558137">
        <ele>40</ele>
        <time>2026-08-30T13:45:44Z</time>
      </trkpt>
      <trkpt lat="59.244589470327" lon="17.78240497224">
        <ele>40</ele>
        <time>2026-08-30T13:45:45Z</time>
      </trkpt>
      <trkpt lat="59.244546974078" lon="17.782218139619">
        <ele>40.2</ele>
        <time>2026-08-30T13:45:50Z</time>
      </trkpt>
      <trkpt lat="59.244500203058" lon="17.782111940905">
        <ele>41</ele>
        <time>2026-08-30T13:45:54Z</time>
      </trkpt>
      <trkpt lat="59.244486875832" lon="17.782083610073">
        <ele>41.2</ele>
        <time>2026-08-30T13:45:55Z</time>
      </trkpt>
      <trkpt lat="59.244479667395" lon="17.782054608688">
        <ele>41.4</ele>
        <time>2026-08-30T13:45:56Z</time>
      </trkpt>
      <trkpt lat="59.244456700981" lon="17.781947823241">
        <ele>42.4</ele>
        <time>2026-08-30T13:45:59Z</time>
      </trkpt>
      <trkpt lat="59.244442451745" lon="17.781853526831">
        <ele>43.6</ele>
        <time>2026-08-30T13:46:02Z</time>
      </trkpt>
      <trkpt lat="59.244437925518" lon="17.781822932884">
        <ele>44</ele>
        <time>2026-08-30T13:46:03Z</time>
      </trkpt>
      <trkpt lat="59.244421832263" lon="17.781761661172">
        <ele>44.8</ele>
        <time>2026-08-30T13:46:05Z</time>
      </trkpt>
      <trkpt lat="59.244381012395" lon="17.781650014222">
        <ele>45.6</ele>
        <time>2026-08-30T13:46:09Z</time>
      </trkpt>
      <trkpt lat="59.244372630492" lon="17.781622186303">
        <ele>45.8</ele>
        <time>2026-08-30T13:46:10Z</time>
      </trkpt>
      <trkpt lat="59.244293002412" lon="17.781439293176">
        <ele>46.6</ele>
        <time>2026-08-30T13:46:16Z</time>
      </trkpt>
      <trkpt lat="59.244240866974" lon="17.781368969008">
        <ele>47</ele>
        <time>2026-08-30T13:46:19Z</time>
      </trkpt>
      <trkpt lat="59.244207674637" lon="17.781323539093">
        <ele>47.2</ele>
        <time>2026-08-30T13:46:21Z</time>
      </trkpt>
      <trkpt lat="59.244080437347" lon="17.781223626807">
        <ele>47.6</ele>
        <time>2026-08-30T13:46:26Z</time>
      </trkpt>
      <trkpt lat="59.243926210329" lon="17.781087085605">
        <ele>47.8</ele>
        <time>2026-08-30T13:46:32Z</time>
      </trkpt>
      <trkpt lat="59.243866279721" lon="17.780987424776">
        <ele>48</ele>
        <time>2026-08-30T13:46:35Z</time>
      </trkpt>
      <trkpt lat="59.243826884776" lon="17.780904108658">
        <ele>48</ele>
        <time>2026-08-30T13:46:37Z</time>
      </trkpt>
      <trkpt lat="59.243701407686" lon="17.780732112005">
        <ele>48.2</ele>
        <time>2026-08-30T13:46:42Z</time>
      </trkpt>
      <trkpt lat="59.243551706895" lon="17.780616022646">
        <ele>48</ele>
        <time>2026-08-30T13:46:47Z</time>
      </trkpt>
      <trkpt lat="59.243511976674" lon="17.780608143657">
        <ele>48</ele>
        <time>2026-08-30T13:46:48Z</time>
      </trkpt>
      <trkpt lat="59.24333578907" lon="17.780607808381">
        <ele>48</ele>
        <time>2026-08-30T13:46:52Z</time>
      </trkpt>
      <trkpt lat="59.243254652247" lon="17.78059322387">
        <ele>47.8</ele>
        <time>2026-08-30T13:46:54Z</time>
      </trkpt>
      <trkpt lat="59.243179550394" lon="17.780593056232">
        <ele>47.6</ele>
        <time>2026-08-30T13:46:56Z</time>
      </trkpt>
      <trkpt lat="59.24306916073" lon="17.780591715127">
        <ele>46.8</ele>
        <time>2026-08-30T13:46:59Z</time>
      </trkpt>
      <trkpt lat="59.243031861261" lon="17.780593056232">
        <ele>46.6</ele>
        <time>2026-08-30T13:47:00Z</time>
      </trkpt>
      <trkpt lat="59.242989951745" lon="17.780586937442">
        <ele>46.4</ele>
        <time>2026-08-30T13:47:01Z</time>
      </trkpt>
      <trkpt lat="59.242841843516" lon="17.780556343496">
        <ele>46</ele>
        <time>2026-08-30T13:47:05Z</time>
      </trkpt>
      <trkpt lat="59.24280513078" lon="17.780547207221">
        <ele>45.8</ele>
        <time>2026-08-30T13:47:06Z</time>
      </trkpt>
      <trkpt lat="59.242729106918" lon="17.780516613275">
        <ele>45.6</ele>
        <time>2026-08-30T13:47:08Z</time>
      </trkpt>
      <trkpt lat="59.242654172704" lon="17.780459951609">
        <ele>45.6</ele>
        <time>2026-08-30T13:47:10Z</time>
      </trkpt>
      <trkpt lat="59.242623746395" lon="17.780431788415">
        <ele>45.6</ele>
        <time>2026-08-30T13:47:11Z</time>
      </trkpt>
      <trkpt lat="59.242540765554" lon="17.780344868079">
        <ele>45.4</ele>
        <time>2026-08-30T13:47:14Z</time>
      </trkpt>
      <trkpt lat="59.242449486628" lon="17.780246213078">
        <ele>45.4</ele>
        <time>2026-08-30T13:47:18Z</time>
      </trkpt>
      <trkpt lat="59.242312945426" lon="17.78006340377">
        <ele>45.4</ele>
        <time>2026-08-30T13:47:23Z</time>
      </trkpt>
      <trkpt lat="59.242190737277" lon="17.77987648733">
        <ele>45.4</ele>
        <time>2026-08-30T13:47:28Z</time>
      </trkpt>
      <trkpt lat="59.2420450598" lon="17.779692420736">
        <ele>45.6</ele>
        <time>2026-08-30T13:47:34Z</time>
      </trkpt>
      <trkpt lat="59.241972556338" lon="17.779529476538">
        <ele>45.8</ele>
        <time>2026-08-30T13:47:38Z</time>
      </trkpt>
      <trkpt lat="59.241902399808" lon="17.779317833483">
        <ele>46</ele>
        <time>2026-08-30T13:47:42Z</time>
      </trkpt>
      <trkpt lat="59.241890497506" lon="17.779264273122">
        <ele>46.2</ele>
        <time>2026-08-30T13:47:43Z</time>
      </trkpt>
      <trkpt lat="59.241883121431" lon="17.779049444944">
        <ele>46.6</ele>
        <time>2026-08-30T13:47:47Z</time>
      </trkpt>
      <trkpt lat="59.241884378716" lon="17.778989262879">
        <ele>46.6</ele>
        <time>2026-08-30T13:47:48Z</time>
      </trkpt>
      <trkpt lat="59.241855209693" lon="17.778746187687">
        <ele>46.8</ele>
        <time>2026-08-30T13:47:52Z</time>
      </trkpt>
      <trkpt lat="59.241857891902" lon="17.778396578506">
        <ele>46</ele>
        <time>2026-08-30T13:47:58Z</time>
      </trkpt>
      <trkpt lat="59.241876583546" lon="17.778342096135">
        <ele>45.4</ele>
        <time>2026-08-30T13:47:59Z</time>
      </trkpt>
      <trkpt lat="59.241949422285" lon="17.778229610994">
        <ele>44.4</ele>
        <time>2026-08-30T13:48:02Z</time>
      </trkpt>
      <trkpt lat="59.242008263245" lon="17.778175547719">
        <ele>42.4</ele>
        <time>2026-08-30T13:48:04Z</time>
      </trkpt>
      <trkpt lat="59.24207020551" lon="17.778119472787">
        <ele>41</ele>
        <time>2026-08-30T13:48:06Z</time>
      </trkpt>
      <trkpt lat="59.242102559656" lon="17.778079742566">
        <ele>40.4</ele>
        <time>2026-08-30T13:48:07Z</time>
      </trkpt>
      <trkpt lat="59.242178667337" lon="17.777997097">
        <ele>40</ele>
        <time>2026-08-30T13:48:09Z</time>
      </trkpt>
      <trkpt lat="59.242327613756" lon="17.777895173058">
        <ele>39.6</ele>
        <time>2026-08-30T13:48:12Z</time>
      </trkpt>
      <trkpt lat="59.242483014241" lon="17.777787717059">
        <ele>39.6</ele>
        <time>2026-08-30T13:48:15Z</time>
      </trkpt>
      <trkpt lat="59.242566581815" lon="17.777743209153">
        <ele>39.6</ele>
        <time>2026-08-30T13:48:17Z</time>
      </trkpt>
      <trkpt lat="59.242651574314" lon="17.777699287981">
        <ele>39.6</ele>
        <time>2026-08-30T13:48:19Z</time>
      </trkpt>
      <trkpt lat="59.242721479386" lon="17.777653606609">
        <ele>39.6</ele>
        <time>2026-08-30T13:48:21Z</time>
      </trkpt>
      <trkpt lat="59.242756431922" lon="17.777625862509">
        <ele>39.6</ele>
        <time>2026-08-30T13:48:22Z</time>
      </trkpt>
      <trkpt lat="59.242828432471" lon="17.777586551383">
        <ele>40.4</ele>
        <time>2026-08-30T13:48:24Z</time>
      </trkpt>
      <trkpt lat="59.24286833033" lon="17.777556292713">
        <ele>41.4</ele>
        <time>2026-08-30T13:48:25Z</time>
      </trkpt>
      <trkpt lat="59.24294276163" lon="17.77750893496">
        <ele>42.6</ele>
        <time>2026-08-30T13:48:27Z</time>
      </trkpt>
      <trkpt lat="59.24303454347" lon="17.777472473681">
        <ele>43.8</ele>
        <time>2026-08-30T13:48:29Z</time>
      </trkpt>
      <trkpt lat="59.243061868474" lon="17.777438107878">
        <ele>44.2</ele>
        <time>2026-08-30T13:48:30Z</time>
      </trkpt>
      <trkpt lat="59.243092043325" lon="17.777388654649">
        <ele>45</ele>
        <time>2026-08-30T13:48:31Z</time>
      </trkpt>
      <trkpt lat="59.243130264804" lon="17.777338447049">
        <ele>45.2</ele>
        <time>2026-08-30T13:48:32Z</time>
      </trkpt>
      <trkpt lat="59.243352301419" lon="17.777132168412">
        <ele>45.4</ele>
        <time>2026-08-30T13:48:37Z</time>
      </trkpt>
      <trkpt lat="59.24344307743" lon="17.777060084045">
        <ele>45.4</ele>
        <time>2026-08-30T13:48:39Z</time>
      </trkpt>
      <trkpt lat="59.243543827906" lon="17.776998057961">
        <ele>45.4</ele>
        <time>2026-08-30T13:48:41Z</time>
      </trkpt>
      <trkpt lat="59.243598142639" lon="17.776964697987">
        <ele>45.4</ele>
        <time>2026-08-30T13:48:42Z</time>
      </trkpt>
      <trkpt lat="59.243822861463" lon="17.776848860085">
        <ele>45.2</ele>
        <time>2026-08-30T13:48:46Z</time>
      </trkpt>
      <trkpt lat="59.243994858116" lon="17.776748361066">
        <ele>45.2</ele>
        <time>2026-08-30T13:48:49Z</time>
      </trkpt>
      <trkpt lat="59.244253775105" lon="17.776626404375">
        <ele>45.2</ele>
        <time>2026-08-30T13:48:54Z</time>
      </trkpt>
      <trkpt lat="59.244312867522" lon="17.776611903682">
        <ele>45.2</ele>
        <time>2026-08-30T13:48:55Z</time>
      </trkpt>
      <trkpt lat="59.244372379035" lon="17.776583321393">
        <ele>45.2</ele>
        <time>2026-08-30T13:48:56Z</time>
      </trkpt>
      <trkpt lat="59.244549823925" lon="17.776509393007">
        <ele>45.2</ele>
        <time>2026-08-30T13:48:59Z</time>
      </trkpt>
      <trkpt lat="59.244611514732" lon="17.776501849294">
        <ele>45.2</ele>
        <time>2026-08-30T13:49:00Z</time>
      </trkpt>
      <trkpt lat="59.244909072295" lon="17.776403278112">
        <ele>45.2</ele>
        <time>2026-08-30T13:49:05Z</time>
      </trkpt>
      <trkpt lat="59.244973864406" lon="17.77635499835">
        <ele>45</ele>
        <time>2026-08-30T13:49:06Z</time>
      </trkpt>
      <trkpt lat="59.245331436396" lon="17.77605718933">
        <ele>44.6</ele>
        <time>2026-08-30T13:49:12Z</time>
      </trkpt>
      <trkpt lat="59.245626395568" lon="17.775773042813">
        <ele>44.2</ele>
        <time>2026-08-30T13:49:17Z</time>
      </trkpt>
      <trkpt lat="59.245670735836" lon="17.7757170517">
        <ele>44.2</ele>
        <time>2026-08-30T13:49:18Z</time>
      </trkpt>
      <trkpt lat="59.245820688084" lon="17.77554128319">
        <ele>44.2</ele>
        <time>2026-08-30T13:49:21Z</time>
      </trkpt>
      <trkpt lat="59.246036773548" lon="17.775410944596">
        <ele>44.2</ele>
        <time>2026-08-30T13:49:25Z</time>
      </trkpt>
      <trkpt lat="59.2460876517" lon="17.775390492752">
        <ele>44.2</ele>
        <time>2026-08-30T13:49:26Z</time>
      </trkpt>
      <trkpt lat="59.246244644746" lon="17.775314552709">
        <ele>44.4</ele>
        <time>2026-08-30T13:49:29Z</time>
      </trkpt>
      <trkpt lat="59.246287057176" lon="17.775277169421">
        <ele>44.4</ele>
        <time>2026-08-30T13:49:30Z</time>
      </trkpt>
      <trkpt lat="59.24636375159" lon="17.775182118639">
        <ele>44.6</ele>
        <time>2026-08-30T13:49:32Z</time>
      </trkpt>
      <trkpt lat="59.246397446841" lon="17.775126378983">
        <ele>44.8</ele>
        <time>2026-08-30T13:49:33Z</time>
      </trkpt>
      <trkpt lat="59.246512027457" lon="17.774947006255">
        <ele>44.8</ele>
        <time>2026-08-30T13:49:36Z</time>
      </trkpt>
      <trkpt lat="59.246551673859" lon="17.774883219972">
        <ele>44.8</ele>
        <time>2026-08-30T13:49:37Z</time>
      </trkpt>
      <trkpt lat="59.246633313596" lon="17.774736201391">
        <ele>44.8</ele>
        <time>2026-08-30T13:49:39Z</time>
      </trkpt>
      <trkpt lat="59.246775470674" lon="17.774408301339">
        <ele>44.6</ele>
        <time>2026-08-30T13:49:42Z</time>
      </trkpt>
      <trkpt lat="59.246813189238" lon="17.774284249172">
        <ele>44.4</ele>
        <time>2026-08-30T13:49:43Z</time>
      </trkpt>
      <trkpt lat="59.246878903359" lon="17.774015692994">
        <ele>44</ele>
        <time>2026-08-30T13:49:45Z</time>
      </trkpt>
      <trkpt lat="59.246990298852" lon="17.773598190397">
        <ele>42.8</ele>
        <time>2026-08-30T13:49:48Z</time>
      </trkpt>
      <trkpt lat="59.247069088742" lon="17.77331915684">
        <ele>41.6</ele>
        <time>2026-08-30T13:49:50Z</time>
      </trkpt>
      <trkpt lat="59.247148465365" lon="17.773026544601">
        <ele>39.6</ele>
        <time>2026-08-30T13:49:52Z</time>
      </trkpt>
      <trkpt lat="59.247234463692" lon="17.772716414183">
        <ele>38</ele>
        <time>2026-08-30T13:49:54Z</time>
      </trkpt>
      <trkpt lat="59.247282324359" lon="17.77256864123">
        <ele>37.4</ele>
        <time>2026-08-30T13:49:55Z</time>
      </trkpt>
      <trkpt lat="59.247332280502" lon="17.77242321521">
        <ele>37.2</ele>
        <time>2026-08-30T13:49:56Z</time>
      </trkpt>
      <trkpt lat="59.247385002673" lon="17.77228818275">
        <ele>36.8</ele>
        <time>2026-08-30T13:49:57Z</time>
      </trkpt>
      <trkpt lat="59.247522214428" lon="17.772045526654">
        <ele>36</ele>
        <time>2026-08-30T13:49:59Z</time>
      </trkpt>
      <trkpt lat="59.247596561909" lon="17.771947374567">
        <ele>35.8</ele>
        <time>2026-08-30T13:50:00Z</time>
      </trkpt>
      <trkpt lat="59.24767350778" lon="17.771857269108">
        <ele>35.4</ele>
        <time>2026-08-30T13:50:01Z</time>
      </trkpt>
      <trkpt lat="59.247828824446" lon="17.771699018776">
        <ele>34</ele>
        <time>2026-08-30T13:50:03Z</time>
      </trkpt>
      <trkpt lat="59.247908703983" lon="17.771639339626">
        <ele>33.2</ele>
        <time>2026-08-30T13:50:04Z</time>
      </trkpt>
      <trkpt lat="59.247989337891" lon="17.771585695446">
        <ele>32.8</ele>
        <time>2026-08-30T13:50:05Z</time>
      </trkpt>
      <trkpt lat="59.248236017302" lon="17.771431636065">
        <ele>32</ele>
        <time>2026-08-30T13:50:08Z</time>
      </trkpt>
      <trkpt lat="59.248318830505" lon="17.771379500628">
        <ele>31.6</ele>
        <time>2026-08-30T13:50:09Z</time>
      </trkpt>
      <trkpt lat="59.248483953997" lon="17.771257879212">
        <ele>31</ele>
        <time>2026-08-30T13:50:11Z</time>
      </trkpt>
      <trkpt lat="59.248638097197" lon="17.77111094445">
        <ele>30.2</ele>
        <time>2026-08-30T13:50:13Z</time>
      </trkpt>
      <trkpt lat="59.24871487543" lon="17.771028969437">
        <ele>29.8</ele>
        <time>2026-08-30T13:50:14Z</time>
      </trkpt>
      <trkpt lat="59.248867845163" lon="17.770853117108">
        <ele>29</ele>
        <time>2026-08-30T13:50:16Z</time>
      </trkpt>
      <trkpt lat="59.249022491276" lon="17.77069889009">
        <ele>28.2</ele>
        <time>2026-08-30T13:50:18Z</time>
      </trkpt>
      <trkpt lat="59.249100610614" lon="17.770633175969">
        <ele>28</ele>
        <time>2026-08-30T13:50:19Z</time>
      </trkpt>
      <trkpt lat="59.24918577075" lon="17.77057684958">
        <ele>27.6</ele>
        <time>2026-08-30T13:50:20Z</time>
      </trkpt>
      <trkpt lat="59.249352486804" lon="17.770474171266">
        <ele>26.4</ele>
        <time>2026-08-30T13:50:22Z</time>
      </trkpt>
      <trkpt lat="59.249516688287" lon="17.770384401083">
        <ele>24.8</ele>
        <time>2026-08-30T13:50:24Z</time>
      </trkpt>
      <trkpt lat="59.249836876988" lon="17.770211314783">
        <ele>23.6</ele>
        <time>2026-08-30T13:50:28Z</time>
      </trkpt>
      <trkpt lat="59.250030750409" lon="17.770065721124">
        <ele>23</ele>
        <time>2026-08-30T13:50:31Z</time>
      </trkpt>
      <trkpt lat="59.250077437609" lon="17.769982237369">
        <ele>22.6</ele>
        <time>2026-08-30T13:50:32Z</time>
      </trkpt>
      <trkpt lat="59.250144828111" lon="17.76977176778">
        <ele>21.6</ele>
        <time>2026-08-30T13:50:34Z</time>
      </trkpt>
      <trkpt lat="59.250173997134" lon="17.769659534097">
        <ele>21</ele>
        <time>2026-08-30T13:50:35Z</time>
      </trkpt>
      <trkpt lat="59.250202579424" lon="17.76954755187">
        <ele>20.4</ele>
        <time>2026-08-30T13:50:36Z</time>
      </trkpt>
      <trkpt lat="59.250231999904" lon="17.769439425319">
        <ele>20</ele>
        <time>2026-08-30T13:50:37Z</time>
      </trkpt>
      <trkpt lat="59.250266449526" lon="17.769334902987">
        <ele>19.8</ele>
        <time>2026-08-30T13:50:38Z</time>
      </trkpt>
      <trkpt lat="59.250303246081" lon="17.769232643768">
        <ele>19.6</ele>
        <time>2026-08-30T13:50:39Z</time>
      </trkpt>
      <trkpt lat="59.250340377912" lon="17.769134072587">
        <ele>19.4</ele>
        <time>2026-08-30T13:50:40Z</time>
      </trkpt>
      <trkpt lat="59.250376420096" lon="17.769041871652">
        <ele>19.4</ele>
        <time>2026-08-30T13:50:41Z</time>
      </trkpt>
      <trkpt lat="59.250440038741" lon="17.768876580521">
        <ele>19.4</ele>
        <time>2026-08-30T13:50:43Z</time>
      </trkpt>
      <trkpt lat="59.250491084531" lon="17.768739201128">
        <ele>19.4</ele>
        <time>2026-08-30T13:50:45Z</time>
      </trkpt>
      <trkpt lat="59.250545818359" lon="17.768566869199">
        <ele>19.8</ele>
        <time>2026-08-30T13:50:48Z</time>
      </trkpt>
      <trkpt lat="59.250578256324" lon="17.768471231684">
        <ele>20.6</ele>
        <time>2026-08-30T13:50:50Z</time>
      </trkpt>
      <trkpt lat="59.250592505559" lon="17.768427729607">
        <ele>21.4</ele>
        <time>2026-08-30T13:50:51Z</time>
      </trkpt>
      <trkpt lat="59.250621506944" lon="17.768329745159">
        <ele>22.6</ele>
        <time>2026-08-30T13:50:53Z</time>
      </trkpt>
      <trkpt lat="59.250647909939" lon="17.768218684942">
        <ele>23.6</ele>
        <time>2026-08-30T13:50:55Z</time>
      </trkpt>
      <trkpt lat="59.250671630725" lon="17.768115503713">
        <ele>24.4</ele>
        <time>2026-08-30T13:50:57Z</time>
      </trkpt>
      <trkpt lat="59.25068336539" lon="17.768066301942">
        <ele>24.8</ele>
        <time>2026-08-30T13:50:58Z</time>
      </trkpt>
      <trkpt lat="59.250719742849" lon="17.767850384116">
        <ele>25.8</ele>
        <time>2026-08-30T13:51:02Z</time>
      </trkpt>
      <trkpt lat="59.250728962943" lon="17.767795985565">
        <ele>26</ele>
        <time>2026-08-30T13:51:03Z</time>
      </trkpt>
      <trkpt lat="59.250766513869" lon="17.767630275339">
        <ele>26.8</ele>
        <time>2026-08-30T13:51:06Z</time>
      </trkpt>
      <trkpt lat="59.250781266019" lon="17.767573110759">
        <ele>27</ele>
        <time>2026-08-30T13:51:07Z</time>
      </trkpt>
      <trkpt lat="59.250822840258" lon="17.767371693626">
        <ele>27.4</ele>
        <time>2026-08-30T13:51:10Z</time>
      </trkpt>
      <trkpt lat="59.25095259212" lon="17.766871461645">
        <ele>28</ele>
        <time>2026-08-30T13:51:17Z</time>
      </trkpt>
      <trkpt lat="59.25102090463" lon="17.766528977081">
        <ele>28</ele>
        <time>2026-08-30T13:51:21Z</time>
      </trkpt>
      <trkpt lat="59.251026185229" lon="17.766434513032">
        <ele>28</ele>
        <time>2026-08-30T13:51:22Z</time>
      </trkpt>
      <trkpt lat="59.251004727557" lon="17.76584434323">
        <ele>27.4</ele>
        <time>2026-08-30T13:51:28Z</time>
      </trkpt>
      <trkpt lat="59.250980168581" lon="17.765045966953">
        <ele>27.2</ele>
        <time>2026-08-30T13:51:36Z</time>
      </trkpt>
      <trkpt lat="59.250982180238" lon="17.764655537903">
        <ele>27.4</ele>
        <time>2026-08-30T13:51:40Z</time>
      </trkpt>
      <trkpt lat="59.250995926559" lon="17.764463927597">
        <ele>27.4</ele>
        <time>2026-08-30T13:51:42Z</time>
      </trkpt>
      <trkpt lat="59.251005733386" lon="17.764372481033">
        <ele>27.6</ele>
        <time>2026-08-30T13:51:43Z</time>
      </trkpt>
      <trkpt lat="59.251046553254" lon="17.764107948169">
        <ele>27.8</ele>
        <time>2026-08-30T13:51:46Z</time>
      </trkpt>
      <trkpt lat="59.251072788611" lon="17.76392262429">
        <ele>27.8</ele>
        <time>2026-08-30T13:51:48Z</time>
      </trkpt>
      <trkpt lat="59.251158786938" lon="17.763223405927">
        <ele>28</ele>
        <time>2026-08-30T13:51:55Z</time>
      </trkpt>
      <trkpt lat="59.251215867698" lon="17.762739937752">
        <ele>28</ele>
        <time>2026-08-30T13:52:00Z</time>
      </trkpt>
      <trkpt lat="59.251232966781" lon="17.762650335208">
        <ele>28</ele>
        <time>2026-08-30T13:52:01Z</time>
      </trkpt>
      <trkpt lat="59.251360371709" lon="17.76221212931">
        <ele>28</ele>
        <time>2026-08-30T13:52:06Z</time>
      </trkpt>
      <trkpt lat="59.251388367265" lon="17.762129735202">
        <ele>28</ele>
        <time>2026-08-30T13:52:07Z</time>
      </trkpt>
      <trkpt lat="59.25156371668" lon="17.761643081903">
        <ele>28.4</ele>
        <time>2026-08-30T13:52:13Z</time>
      </trkpt>
      <trkpt lat="59.25170394592" lon="17.761269332841">
        <ele>28.6</ele>
        <time>2026-08-30T13:52:18Z</time>
      </trkpt>
      <trkpt lat="59.251821879297" lon="17.76097856462">
        <ele>28.8</ele>
        <time>2026-08-30T13:52:22Z</time>
      </trkpt>
      <trkpt lat="59.252026900649" lon="17.760426197201">
        <ele>29</ele>
        <time>2026-08-30T13:52:30Z</time>
      </trkpt>
      <trkpt lat="59.252126142383" lon="17.760146912187">
        <ele>29.4</ele>
        <time>2026-08-30T13:52:34Z</time>
      </trkpt>
      <trkpt lat="59.25214458257" lon="17.760069798678">
        <ele>29.4</ele>
        <time>2026-08-30T13:52:35Z</time>
      </trkpt>
      <trkpt lat="59.252158496529" lon="17.759993104264">
        <ele>29.8</ele>
        <time>2026-08-30T13:52:36Z</time>
      </trkpt>
      <trkpt lat="59.252152880654" lon="17.759767966345">
        <ele>30.4</ele>
        <time>2026-08-30T13:52:39Z</time>
      </trkpt>
      <trkpt lat="59.252138379961" lon="17.759709376842">
        <ele>30.6</ele>
        <time>2026-08-30T13:52:40Z</time>
      </trkpt>
      <trkpt lat="59.252106277272" lon="17.759616421536">
        <ele>30.8</ele>
        <time>2026-08-30T13:52:42Z</time>
      </trkpt>
      <trkpt lat="59.252056572586" lon="17.759476276115">
        <ele>31.8</ele>
        <time>2026-08-30T13:52:46Z</time>
      </trkpt>
      <trkpt lat="59.252033522353" lon="17.759380890056">
        <ele>32.8</ele>
        <time>2026-08-30T13:52:49Z</time>
      </trkpt>
      <trkpt lat="59.252008879557" lon="17.759272763506">
        <ele>33.8</ele>
        <time>2026-08-30T13:52:52Z</time>
      </trkpt>
      <trkpt lat="59.252007203177" lon="17.759229848161">
        <ele>33.8</ele>
        <time>2026-08-30T13:52:53Z</time>
      </trkpt>
      <trkpt lat="59.251995217055" lon="17.759085679427">
        <ele>34.4</ele>
        <time>2026-08-30T13:52:56Z</time>
      </trkpt>
      <trkpt lat="59.252001084387" lon="17.758948132396">
        <ele>35</ele>
        <time>2026-08-30T13:52:59Z</time>
      </trkpt>
      <trkpt lat="59.25200259313" lon="17.758862385526">
        <ele>35.4</ele>
        <time>2026-08-30T13:53:01Z</time>
      </trkpt>
      <trkpt lat="59.25200955011" lon="17.758784098551">
        <ele>35.8</ele>
        <time>2026-08-30T13:53:03Z</time>
      </trkpt>
      <trkpt lat="59.252033857629" lon="17.758625596762">
        <ele>36.2</ele>
        <time>2026-08-30T13:53:06Z</time>
      </trkpt>
      <trkpt lat="59.2520605959" lon="17.758502382785">
        <ele>36.4</ele>
        <time>2026-08-30T13:53:08Z</time>
      </trkpt>
      <trkpt lat="59.252104684711" lon="17.758185798302">
        <ele>36.6</ele>
        <time>2026-08-30T13:53:13Z</time>
      </trkpt>
      <trkpt lat="59.252115497366" lon="17.757947249338">
        <ele>36.8</ele>
        <time>2026-08-30T13:53:16Z</time>
      </trkpt>
      <trkpt lat="59.252128321677" lon="17.757713310421">
        <ele>36.6</ele>
        <time>2026-08-30T13:53:18Z</time>
      </trkpt>
      <trkpt lat="59.252164950594" lon="17.757475180551">
        <ele>36.6</ele>
        <time>2026-08-30T13:53:20Z</time>
      </trkpt>
      <trkpt lat="59.252232927829" lon="17.757246103138">
        <ele>36.6</ele>
        <time>2026-08-30T13:53:22Z</time>
      </trkpt>
      <trkpt lat="59.25231247209" lon="17.757036890835">
        <ele>36</ele>
        <time>2026-08-30T13:53:24Z</time>
      </trkpt>
      <trkpt lat="59.252396542579" lon="17.756793396547">
        <ele>35</ele>
        <time>2026-08-30T13:53:26Z</time>
      </trkpt>
      <trkpt lat="59.252435769886" lon="17.756647970527">
        <ele>34.2</ele>
        <time>2026-08-30T13:53:27Z</time>
      </trkpt>
      <trkpt lat="59.252466447651" lon="17.756497934461">
        <ele>33.2</ele>
        <time>2026-08-30T13:53:28Z</time>
      </trkpt>
      <trkpt lat="59.252503411844" lon="17.756186798215">
        <ele>31.6</ele>
        <time>2026-08-30T13:53:30Z</time>
      </trkpt>
      <trkpt lat="59.252514978871" lon="17.756023183465">
        <ele>31.2</ele>
        <time>2026-08-30T13:53:31Z</time>
      </trkpt>
      <trkpt lat="59.252550434321" lon="17.75571288541">
        <ele>30.8</ele>
        <time>2026-08-30T13:53:33Z</time>
      </trkpt>
      <trkpt lat="59.252575328574" lon="17.755563436076">
        <ele>30.6</ele>
        <time>2026-08-30T13:53:34Z</time>
      </trkpt>
      <trkpt lat="59.252606341615" lon="17.755427900702">
        <ele>30</ele>
        <time>2026-08-30T13:53:35Z</time>
      </trkpt>
      <trkpt lat="59.252641880885" lon="17.755298316479">
        <ele>29.2</ele>
        <time>2026-08-30T13:53:36Z</time>
      </trkpt>
      <trkpt lat="59.25273148343" lon="17.755068736151">
        <ele>27.4</ele>
        <time>2026-08-30T13:53:38Z</time>
      </trkpt>
      <trkpt lat="59.252818655223" lon="17.754867738113">
        <ele>26.4</ele>
        <time>2026-08-30T13:53:40Z</time>
      </trkpt>
      <trkpt lat="59.252937929705" lon="17.754540843889">
        <ele>26.4</ele>
        <time>2026-08-30T13:53:43Z</time>
      </trkpt>
      <trkpt lat="59.253043876961" lon="17.754201125354">
        <ele>26.4</ele>
        <time>2026-08-30T13:53:46Z</time>
      </trkpt>
      <trkpt lat="59.253146890551" lon="17.753857467324">
        <ele>26.4</ele>
        <time>2026-08-30T13:53:49Z</time>
      </trkpt>
      <trkpt lat="59.25320145674" lon="17.753622857854">
        <ele>26.6</ele>
        <time>2026-08-30T13:53:51Z</time>
      </trkpt>
      <trkpt lat="59.253227608278" lon="17.75350718759">
        <ele>26.6</ele>
        <time>2026-08-30T13:53:52Z</time>
      </trkpt>
      <trkpt lat="59.253306146711" lon="17.753144167364">
        <ele>27</ele>
        <time>2026-08-30T13:53:55Z</time>
      </trkpt>
      <trkpt lat="59.253369262442" lon="17.752739740536">
        <ele>27.2</ele>
        <time>2026-08-30T13:53:58Z</time>
      </trkpt>
      <trkpt lat="59.253396755084" lon="17.75260864757">
        <ele>27.2</ele>
        <time>2026-08-30T13:53:59Z</time>
      </trkpt>
      <trkpt lat="59.253519549966" lon="17.752261972055">
        <ele>27.2</ele>
        <time>2026-08-30T13:54:02Z</time>
      </trkpt>
      <trkpt lat="59.253680733964" lon="17.75189450942">
        <ele>27.2</ele>
        <time>2026-08-30T13:54:05Z</time>
      </trkpt>
      <trkpt lat="59.253729013726" lon="17.751757884398">
        <ele>27.2</ele>
        <time>2026-08-30T13:54:06Z</time>
      </trkpt>
      <trkpt lat="59.253781652078" lon="17.751469966024">
        <ele>26.8</ele>
        <time>2026-08-30T13:54:08Z</time>
      </trkpt>
      <trkpt lat="59.253780813888" lon="17.751329820603">
        <ele>26.4</ele>
        <time>2026-08-30T13:54:09Z</time>
      </trkpt>
      <trkpt lat="59.25372348167" lon="17.751091606915">
        <ele>24.8</ele>
        <time>2026-08-30T13:54:11Z</time>
      </trkpt>
      <trkpt lat="59.253676459193" lon="17.750983228907">
        <ele>24</ele>
        <time>2026-08-30T13:54:12Z</time>
      </trkpt>
      <trkpt lat="59.253616612405" lon="17.750878622755">
        <ele>23.2</ele>
        <time>2026-08-30T13:54:13Z</time>
      </trkpt>
      <trkpt lat="59.253552323207" lon="17.750780303031">
        <ele>22.6</ele>
        <time>2026-08-30T13:54:14Z</time>
      </trkpt>
      <trkpt lat="59.253435060382" lon="17.750583412126">
        <ele>22.2</ele>
        <time>2026-08-30T13:54:16Z</time>
      </trkpt>
      <trkpt lat="59.253387870267" lon="17.750473525375">
        <ele>22</ele>
        <time>2026-08-30T13:54:17Z</time>
      </trkpt>
      <trkpt lat="59.253332382068" lon="17.750228019431">
        <ele>21.6</ele>
        <time>2026-08-30T13:54:19Z</time>
      </trkpt>
      <trkpt lat="59.25332006067" lon="17.750096255913">
        <ele>20.8</ele>
        <time>2026-08-30T13:54:20Z</time>
      </trkpt>
      <trkpt lat="59.253321317956" lon="17.749687051401">
        <ele>20.2</ele>
        <time>2026-08-30T13:54:23Z</time>
      </trkpt>
      <trkpt lat="59.253395833075" lon="17.749285055324">
        <ele>19.8</ele>
        <time>2026-08-30T13:54:26Z</time>
      </trkpt>
      <trkpt lat="59.253420224413" lon="17.749153291807">
        <ele>19.6</ele>
        <time>2026-08-30T13:54:27Z</time>
      </trkpt>
      <trkpt lat="59.253478730097" lon="17.748780213296">
        <ele>19.4</ele>
        <time>2026-08-30T13:54:30Z</time>
      </trkpt>
      <trkpt lat="59.253532122821" lon="17.748414091766">
        <ele>19.2</ele>
        <time>2026-08-30T13:54:33Z</time>
      </trkpt>
      <trkpt lat="59.253576043993" lon="17.748169424012">
        <ele>19.4</ele>
        <time>2026-08-30T13:54:35Z</time>
      </trkpt>
      <trkpt lat="59.253663383424" lon="17.747676149011">
        <ele>19.6</ele>
        <time>2026-08-30T13:54:39Z</time>
      </trkpt>
      <trkpt lat="59.253740664572" lon="17.747036945075">
        <ele>19.8</ele>
        <time>2026-08-30T13:54:44Z</time>
      </trkpt>
      <trkpt lat="59.253753488883" lon="17.74690920487">
        <ele>20</ele>
        <time>2026-08-30T13:54:45Z</time>
      </trkpt>
      <trkpt lat="59.253836218268" lon="17.746238736436">
        <ele>20.6</ele>
        <time>2026-08-30T13:54:50Z</time>
      </trkpt>
      <trkpt lat="59.25385507755" lon="17.746113510802">
        <ele>20.6</ele>
        <time>2026-08-30T13:54:51Z</time>
      </trkpt>
      <trkpt lat="59.253871254623" lon="17.745846128091">
        <ele>20.8</ele>
        <time>2026-08-30T13:54:53Z</time>
      </trkpt>
      <trkpt lat="59.253859771416" lon="17.745567681268">
        <ele>20.8</ele>
        <time>2026-08-30T13:54:55Z</time>
      </trkpt>
      <trkpt lat="59.253826327622" lon="17.745298370719">
        <ele>21</ele>
        <time>2026-08-30T13:54:57Z</time>
      </trkpt>
      <trkpt lat="59.25376069732" lon="17.744910120964">
        <ele>21.2</ele>
        <time>2026-08-30T13:55:00Z</time>
      </trkpt>
      <trkpt lat="59.253744939342" lon="17.744785146788">
        <ele>21.4</ele>
        <time>2026-08-30T13:55:01Z</time>
      </trkpt>
      <trkpt lat="59.253688780591" lon="17.744399914518">
        <ele>21.2</ele>
        <time>2026-08-30T13:55:04Z</time>
      </trkpt>
      <trkpt lat="59.253676459193" lon="17.744274772704">
        <ele>21.4</ele>
        <time>2026-08-30T13:55:05Z</time>
      </trkpt>
      <trkpt lat="59.253704538569" lon="17.743906052783">
        <ele>21.4</ele>
        <time>2026-08-30T13:55:08Z</time>
      </trkpt>
      <trkpt lat="59.253854239359" lon="17.743599358946">
        <ele>21.2</ele>
        <time>2026-08-30T13:55:11Z</time>
      </trkpt>
      <trkpt lat="59.254178954288" lon="17.743040202186">
        <ele>20.6</ele>
        <time>2026-08-30T13:55:16Z</time>
      </trkpt>
      <trkpt lat="59.254238801077" lon="17.742933835834">
        <ele>19.6</ele>
        <time>2026-08-30T13:55:17Z</time>
      </trkpt>
      <trkpt lat="59.254295295104" lon="17.742831073701">
        <ele>18.4</ele>
        <time>2026-08-30T13:55:18Z</time>
      </trkpt>
      <trkpt lat="59.254397973418" lon="17.742638038471">
        <ele>16.8</ele>
        <time>2026-08-30T13:55:20Z</time>
      </trkpt>
      <trkpt lat="59.254530910403" lon="17.742388425395">
        <ele>16</ele>
        <time>2026-08-30T13:55:23Z</time>
      </trkpt>
      <trkpt lat="59.254566701129" lon="17.742318436503">
        <ele>16</ele>
        <time>2026-08-30T13:55:24Z</time>
      </trkpt>
      <trkpt lat="59.254673821852" lon="17.742066727951">
        <ele>15.8</ele>
        <time>2026-08-30T13:55:28Z</time>
      </trkpt>
      <trkpt lat="59.254751438275" lon="17.741846702993">
        <ele>16.8</ele>
        <time>2026-08-30T13:55:32Z</time>
      </trkpt>
      <trkpt lat="59.254769710824" lon="17.741734469309">
        <ele>18.2</ele>
        <time>2026-08-30T13:55:34Z</time>
      </trkpt>
      <trkpt lat="59.254761328921" lon="17.741508074105">
        <ele>19.4</ele>
        <time>2026-08-30T13:55:38Z</time>
      </trkpt>
      <trkpt lat="59.254759820178" lon="17.741462895647">
        <ele>19.6</ele>
        <time>2026-08-30T13:55:39Z</time>
      </trkpt>
      <trkpt lat="59.254772393033" lon="17.741387039423">
        <ele>19.8</ele>
        <time>2026-08-30T13:55:41Z</time>
      </trkpt>
      <trkpt lat="59.254806926474" lon="17.741363570094">
        <ele>19.8</ele>
        <time>2026-08-30T13:55:43Z</time>
      </trkpt>
      <trkpt lat="59.254872472957" lon="17.741315960884">
        <ele>20.2</ele>
        <time>2026-08-30T13:55:46Z</time>
      </trkpt>
      <trkpt lat="59.25489208661" lon="17.741277487949">
        <ele>20.4</ele>
        <time>2026-08-30T13:55:47Z</time>
      </trkpt>
      <trkpt lat="59.254908766598" lon="17.741232477129">
        <ele>20.4</ele>
        <time>2026-08-30T13:55:48Z</time>
      </trkpt>
      <trkpt lat="59.254948664457" lon="17.741138432175">
        <ele>20.4</ele>
        <time>2026-08-30T13:55:50Z</time>
      </trkpt>
      <trkpt lat="59.254986131564" lon="17.74101077579">
        <ele>20.4</ele>
        <time>2026-08-30T13:55:52Z</time>
      </trkpt>
      <trkpt lat="59.255042877048" lon="17.740782368928">
        <ele>20.4</ele>
        <time>2026-08-30T13:55:55Z</time>
      </trkpt>
      <trkpt lat="59.255121750757" lon="17.740475926548">
        <ele>20.4</ele>
        <time>2026-08-30T13:55:59Z</time>
      </trkpt>
      <trkpt lat="59.255178831518" lon="17.7402273193">
        <ele>20.4</ele>
        <time>2026-08-30T13:56:02Z</time>
      </trkpt>
      <trkpt lat="59.255231637508" lon="17.739965217188">
        <ele>20.4</ele>
        <time>2026-08-30T13:56:05Z</time>
      </trkpt>
      <trkpt lat="59.255267260596" lon="17.73979363963">
        <ele>20.6</ele>
        <time>2026-08-30T13:56:07Z</time>
      </trkpt>
      <trkpt lat="59.255317216739" lon="17.739534052089">
        <ele>21.2</ele>
        <time>2026-08-30T13:56:10Z</time>
      </trkpt>
      <trkpt lat="59.255357366055" lon="17.739368174225">
        <ele>21.8</ele>
        <time>2026-08-30T13:56:12Z</time>
      </trkpt>
      <trkpt lat="59.255417715758" lon="17.739113699645">
        <ele>22.6</ele>
        <time>2026-08-30T13:56:15Z</time>
      </trkpt>
      <trkpt lat="59.25548938103" lon="17.7387748193">
        <ele>23.6</ele>
        <time>2026-08-30T13:56:19Z</time>
      </trkpt>
      <trkpt lat="59.255528524518" lon="17.738604163751">
        <ele>23.8</ele>
        <time>2026-08-30T13:56:21Z</time>
      </trkpt>
      <trkpt lat="59.255572948605" lon="17.73843375966">
        <ele>24</ele>
        <time>2026-08-30T13:56:23Z</time>
      </trkpt>
      <trkpt lat="59.255595244467" lon="17.738348348066">
        <ele>24</ele>
        <time>2026-08-30T13:56:24Z</time>
      </trkpt>
      <trkpt lat="59.255660120398" lon="17.738087670878">
        <ele>24.6</ele>
        <time>2026-08-30T13:56:27Z</time>
      </trkpt>
      <trkpt lat="59.255705298856" lon="17.737913578749">
        <ele>24.8</ele>
        <time>2026-08-30T13:56:29Z</time>
      </trkpt>
      <trkpt lat="59.255765061826" lon="17.737672347575">
        <ele>25</ele>
        <time>2026-08-30T13:56:32Z</time>
      </trkpt>
      <trkpt lat="59.255851395428" lon="17.737247049809">
        <ele>25.6</ele>
        <time>2026-08-30T13:56:38Z</time>
      </trkpt>
      <trkpt lat="59.255876038224" lon="17.737089972943">
        <ele>26</ele>
        <time>2026-08-30T13:56:40Z</time>
      </trkpt>
      <trkpt lat="59.255941919982" lon="17.736738938838">
        <ele>26.2</ele>
        <time>2026-08-30T13:56:44Z</time>
      </trkpt>
      <trkpt lat="59.255974777043" lon="17.736381534487">
        <ele>26.2</ele>
        <time>2026-08-30T13:56:47Z</time>
      </trkpt>
      <trkpt lat="59.255988942459" lon="17.736102584749">
        <ele>26.2</ele>
        <time>2026-08-30T13:56:49Z</time>
      </trkpt>
      <trkpt lat="59.256009310484" lon="17.73580301553">
        <ele>26</ele>
        <time>2026-08-30T13:56:51Z</time>
      </trkpt>
      <trkpt lat="59.256069827825" lon="17.735348381102">
        <ele>25.6</ele>
        <time>2026-08-30T13:56:54Z</time>
      </trkpt>
      <trkpt lat="59.256096063182" lon="17.735196333379">
        <ele>25.4</ele>
        <time>2026-08-30T13:56:55Z</time>
      </trkpt>
      <trkpt lat="59.256123220548" lon="17.735046800226">
        <ele>25.2</ele>
        <time>2026-08-30T13:56:56Z</time>
      </trkpt>
      <trkpt lat="59.256152138114" lon="17.734898691997">
        <ele>24.6</ele>
        <time>2026-08-30T13:56:57Z</time>
      </trkpt>
      <trkpt lat="59.256180385128" lon="17.734746560454">
        <ele>23.4</ele>
        <time>2026-08-30T13:56:58Z</time>
      </trkpt>
      <trkpt lat="59.256237801164" lon="17.734452020377">
        <ele>22</ele>
        <time>2026-08-30T13:57:00Z</time>
      </trkpt>
      <trkpt lat="59.25629965961" lon="17.734168376774">
        <ele>21</ele>
        <time>2026-08-30T13:57:02Z</time>
      </trkpt>
      <trkpt lat="59.256337545812" lon="17.734033931047">
        <ele>20.6</ele>
        <time>2026-08-30T13:57:03Z</time>
      </trkpt>
      <trkpt lat="59.256422035396" lon="17.733779875562">
        <ele>20.4</ele>
        <time>2026-08-30T13:57:05Z</time>
      </trkpt>
      <trkpt lat="59.256544830278" lon="17.733429679647">
        <ele>20</ele>
        <time>2026-08-30T13:57:08Z</time>
      </trkpt>
      <trkpt lat="59.256615405902" lon="17.733178641647">
        <ele>20</ele>
        <time>2026-08-30T13:57:10Z</time>
      </trkpt>
      <trkpt lat="59.25681732595" lon="17.732501216233">
        <ele>19.8</ele>
        <time>2026-08-30T13:57:15Z</time>
      </trkpt>
      <trkpt lat="59.256863594055" lon="17.732357634231">
        <ele>19.8</ele>
        <time>2026-08-30T13:57:16Z</time>
      </trkpt>
      <trkpt lat="59.257007678971" lon="17.731935437769">
        <ele>19.6</ele>
        <time>2026-08-30T13:57:19Z</time>
      </trkpt>
      <trkpt lat="59.257242791355" lon="17.731240745634">
        <ele>18.6</ele>
        <time>2026-08-30T13:57:24Z</time>
      </trkpt>
      <trkpt lat="59.257291825488" lon="17.73111040704">
        <ele>18.4</ele>
        <time>2026-08-30T13:57:25Z</time>
      </trkpt>
      <trkpt lat="59.257585862651" lon="17.730418480933">
        <ele>18</ele>
        <time>2026-08-30T13:57:31Z</time>
      </trkpt>
      <trkpt lat="59.257701700553" lon="17.730206502602">
        <ele>17.6</ele>
        <time>2026-08-30T13:57:33Z</time>
      </trkpt>
      <trkpt lat="59.257890963927" lon="17.7298880741">
        <ele>17.2</ele>
        <time>2026-08-30T13:57:36Z</time>
      </trkpt>
      <trkpt lat="59.257956761867" lon="17.729798974469">
        <ele>17.2</ele>
        <time>2026-08-30T13:57:37Z</time>
      </trkpt>
      <trkpt lat="59.258098667488" lon="17.729646004736">
        <ele>17.2</ele>
        <time>2026-08-30T13:57:39Z</time>
      </trkpt>
      <trkpt lat="59.258254151791" lon="17.729484234005">
        <ele>17.2</ele>
        <time>2026-08-30T13:57:41Z</time>
      </trkpt>
      <trkpt lat="59.258326906711" lon="17.729384321719">
        <ele>17</ele>
        <time>2026-08-30T13:57:42Z</time>
      </trkpt>
      <trkpt lat="59.258497226983" lon="17.729039825499">
        <ele>16.4</ele>
        <time>2026-08-30T13:57:45Z</time>
      </trkpt>
      <trkpt lat="59.258626811206" lon="17.728684768081">
        <ele>15.4</ele>
        <time>2026-08-30T13:57:48Z</time>
      </trkpt>
      <trkpt lat="59.258763939142" lon="17.728331889957">
        <ele>14.4</ele>
        <time>2026-08-30T13:57:51Z</time>
      </trkpt>
      <trkpt lat="59.258994273841" lon="17.727658990771">
        <ele>13.4</ele>
        <time>2026-08-30T13:57:56Z</time>
      </trkpt>
      <trkpt lat="59.259215472266" lon="17.726877545938">
        <ele>13</ele>
        <time>2026-08-30T13:58:02Z</time>
      </trkpt>
      <trkpt lat="59.259315300733" lon="17.726553501561">
        <ele>13.2</ele>
        <time>2026-08-30T13:58:05Z</time>
      </trkpt>
      <trkpt lat="59.259358467534" lon="17.726342864335">
        <ele>13.2</ele>
        <time>2026-08-30T13:58:07Z</time>
      </trkpt>
      <trkpt lat="59.259381769225" lon="17.726125856861">
        <ele>13.2</ele>
        <time>2026-08-30T13:58:09Z</time>
      </trkpt>
      <trkpt lat="59.259415380657" lon="17.725799465552">
        <ele>14.2</ele>
        <time>2026-08-30T13:58:12Z</time>
      </trkpt>
      <trkpt lat="59.259432228282" lon="17.725690081716">
        <ele>14.4</ele>
        <time>2026-08-30T13:58:13Z</time>
      </trkpt>
      <trkpt lat="59.2595155444" lon="17.725381208584">
        <ele>15.4</ele>
        <time>2026-08-30T13:58:16Z</time>
      </trkpt>
      <trkpt lat="59.259549994022" lon="17.725284900516">
        <ele>15.6</ele>
        <time>2026-08-30T13:58:17Z</time>
      </trkpt>
      <trkpt lat="59.259725175798" lon="17.724838647991">
        <ele>16.4</ele>
        <time>2026-08-30T13:58:22Z</time>
      </trkpt>
      <trkpt lat="59.259867919609" lon="17.724544359371">
        <ele>17</ele>
        <time>2026-08-30T13:58:26Z</time>
      </trkpt>
      <trkpt lat="59.259935645387" lon="17.724387114868">
        <ele>17.6</ele>
        <time>2026-08-30T13:58:28Z</time>
      </trkpt>
      <trkpt lat="59.260001694784" lon="17.724223164842">
        <ele>18</ele>
        <time>2026-08-30T13:58:30Z</time>
      </trkpt>
      <trkpt lat="59.26006263122" lon="17.724033901468">
        <ele>18.2</ele>
        <time>2026-08-30T13:58:32Z</time>
      </trkpt>
      <trkpt lat="59.260147036985" lon="17.723752688617">
        <ele>19.2</ele>
        <time>2026-08-30T13:58:35Z</time>
      </trkpt>
      <trkpt lat="59.260337222368" lon="17.722981553525">
        <ele>20.2</ele>
        <time>2026-08-30T13:58:43Z</time>
      </trkpt>
      <trkpt lat="59.260456329212" lon="17.722379732877">
        <ele>21.4</ele>
        <time>2026-08-30T13:58:49Z</time>
      </trkpt>
      <trkpt lat="59.260478541255" lon="17.722268756479">
        <ele>21.6</ele>
        <time>2026-08-30T13:58:50Z</time>
      </trkpt>
      <trkpt lat="59.260627655312" lon="17.721685543656">
        <ele>21.8</ele>
        <time>2026-08-30T13:58:55Z</time>
      </trkpt>
      <trkpt lat="59.260911047459" lon="17.720807790756">
        <ele>21.2</ele>
        <time>2026-08-30T13:59:02Z</time>
      </trkpt>
      <trkpt lat="59.261009031907" lon="17.720344858244">
        <ele>20.4</ele>
        <time>2026-08-30T13:59:05Z</time>
      </trkpt>
      <trkpt lat="59.261031160131" lon="17.720180237666">
        <ele>20</ele>
        <time>2026-08-30T13:59:06Z</time>
      </trkpt>
      <trkpt lat="59.261121936142" lon="17.719343220815">
        <ele>19.2</ele>
        <time>2026-08-30T13:59:11Z</time>
      </trkpt>
      <trkpt lat="59.261139286682" lon="17.719178684056">
        <ele>18.8</ele>
        <time>2026-08-30T13:59:12Z</time>
      </trkpt>
      <trkpt lat="59.261154877022" lon="17.719017080963">
        <ele>18.2</ele>
        <time>2026-08-30T13:59:13Z</time>
      </trkpt>
      <trkpt lat="59.261185387149" lon="17.718709800392">
        <ele>17.6</ele>
        <time>2026-08-30T13:59:15Z</time>
      </trkpt>
      <trkpt lat="59.261230649427" lon="17.718283161521">
        <ele>16.6</ele>
        <time>2026-08-30T13:59:18Z</time>
      </trkpt>
      <trkpt lat="59.261247580871" lon="17.718146117404">
        <ele>16.4</ele>
        <time>2026-08-30T13:59:19Z</time>
      </trkpt>
      <trkpt lat="59.26133508794" lon="17.717622499913">
        <ele>16.2</ele>
        <time>2026-08-30T13:59:23Z</time>
      </trkpt>
      <trkpt lat="59.261405495927" lon="17.717274986207">
        <ele>16.2</ele>
        <time>2026-08-30T13:59:26Z</time>
      </trkpt>
      <trkpt lat="59.261467102915" lon="17.716966364533">
        <ele>16.6</ele>
        <time>2026-08-30T13:59:29Z</time>
      </trkpt>
      <trkpt lat="59.261546982452" lon="17.716544670984">
        <ele>17.2</ele>
        <time>2026-08-30T13:59:33Z</time>
      </trkpt>
      <trkpt lat="59.261612864211" lon="17.716232025996">
        <ele>17.4</ele>
        <time>2026-08-30T13:59:36Z</time>
      </trkpt>
      <trkpt lat="59.26167698577" lon="17.715926421806">
        <ele>17.4</ele>
        <time>2026-08-30T13:59:39Z</time>
      </trkpt>
      <trkpt lat="59.261762145907" lon="17.715496513993">
        <ele>17.2</ele>
        <time>2026-08-30T13:59:43Z</time>
      </trkpt>
      <trkpt lat="59.261827776209" lon="17.715149084106">
        <ele>16.8</ele>
        <time>2026-08-30T13:59:46Z</time>
      </trkpt>
      <trkpt lat="59.261882761493" lon="17.714900979772">
        <ele>16.2</ele>
        <time>2026-08-30T13:59:48Z</time>
      </trkpt>
      <trkpt lat="59.261929364875" lon="17.714640554041">
        <ele>16</ele>
        <time>2026-08-30T13:59:50Z</time>
      </trkpt>
      <trkpt lat="59.261937998235" lon="17.714509461075">
        <ele>15.6</ele>
        <time>2026-08-30T13:59:51Z</time>
      </trkpt>
      <trkpt lat="59.261903632432" lon="17.71426060237">
        <ele>15.2</ele>
        <time>2026-08-30T13:59:53Z</time>
      </trkpt>
      <trkpt lat="59.261867338791" lon="17.71412900649">
        <ele>14.6</ele>
        <time>2026-08-30T13:59:54Z</time>
      </trkpt>
      <trkpt lat="59.261775473133" lon="17.713849302381">
        <ele>14</ele>
        <time>2026-08-30T13:59:56Z</time>
      </trkpt>
      <trkpt lat="59.261684026569" lon="17.713555851951">
        <ele>13.8</ele>
        <time>2026-08-30T13:59:58Z</time>
      </trkpt>
      <trkpt lat="59.261592580006" lon="17.713272962719">
        <ele>13</ele>
        <time>2026-08-30T14:00:00Z</time>
      </trkpt>
      <trkpt lat="59.261465342715" lon="17.712868871167">
        <ele>11</ele>
        <time>2026-08-30T14:00:03Z</time>
      </trkpt>
      <trkpt lat="59.261428713799" lon="17.712745573372">
        <ele>10.4</ele>
        <time>2026-08-30T14:00:04Z</time>
      </trkpt>
      <trkpt lat="59.261337434873" lon="17.712428402156">
        <ele>10</ele>
        <time>2026-08-30T14:00:07Z</time>
      </trkpt>
      <trkpt lat="59.261327125132" lon="17.712332177907">
        <ele>10</ele>
        <time>2026-08-30T14:00:08Z</time>
      </trkpt>
      <trkpt lat="59.261350845918" lon="17.712140819058">
        <ele>10</ele>
        <time>2026-08-30T14:00:10Z</time>
      </trkpt>
      <trkpt lat="59.261387307197" lon="17.712056748569">
        <ele>10</ele>
        <time>2026-08-30T14:00:11Z</time>
      </trkpt>
      <trkpt lat="59.261483028531" lon="17.711901767179">
        <ele>10</ele>
        <time>2026-08-30T14:00:13Z</time>
      </trkpt>
      <trkpt lat="59.26153767854" lon="17.711831945926">
        <ele>10</ele>
        <time>2026-08-30T14:00:14Z</time>
      </trkpt>
      <trkpt lat="59.261593669653" lon="17.711757514626">
        <ele>10</ele>
        <time>2026-08-30T14:00:15Z</time>
      </trkpt>
      <trkpt lat="59.261649744585" lon="17.711688028648">
        <ele>10</ele>
        <time>2026-08-30T14:00:16Z</time>
      </trkpt>
      <trkpt lat="59.261881420389" lon="17.711421232671">
        <ele>10</ele>
        <time>2026-08-30T14:00:20Z</time>
      </trkpt>
      <trkpt lat="59.262051070109" lon="17.711203806102">
        <ele>9.8</ele>
        <time>2026-08-30T14:00:23Z</time>
      </trkpt>
      <trkpt lat="59.262293223292" lon="17.710907505825">
        <ele>9</ele>
        <time>2026-08-30T14:00:27Z</time>
      </trkpt>
      <trkpt lat="59.262356003746" lon="17.710840366781">
        <ele>8.8</ele>
        <time>2026-08-30T14:00:28Z</time>
      </trkpt>
      <trkpt lat="59.262619446963" lon="17.710539959371">
        <ele>8.4</ele>
        <time>2026-08-30T14:00:32Z</time>
      </trkpt>
      <trkpt lat="59.262817846611" lon="17.710268301889">
        <ele>7.6</ele>
        <time>2026-08-30T14:00:35Z</time>
      </trkpt>
      <trkpt lat="59.262937707826" lon="17.710058586672">
        <ele>7.4</ele>
        <time>2026-08-30T14:00:37Z</time>
      </trkpt>
      <trkpt lat="59.263105513528" lon="17.709724819288">
        <ele>7</ele>
        <time>2026-08-30T14:00:40Z</time>
      </trkpt>
      <trkpt lat="59.263202575967" lon="17.709479229525">
        <ele>6.4</ele>
        <time>2026-08-30T14:00:42Z</time>
      </trkpt>
      <trkpt lat="59.263285556808" lon="17.709236070514">
        <ele>5.4</ele>
        <time>2026-08-30T14:00:44Z</time>
      </trkpt>
      <trkpt lat="59.263373734429" lon="17.709000287578">
        <ele>5.4</ele>
        <time>2026-08-30T14:00:46Z</time>
      </trkpt>
      <trkpt lat="59.263419331983" lon="17.708881767467">
        <ele>5.2</ele>
        <time>2026-08-30T14:00:47Z</time>
      </trkpt>
      <trkpt lat="59.263505665585" lon="17.708623772487">
        <ele>5</ele>
        <time>2026-08-30T14:00:49Z</time>
      </trkpt>
      <trkpt lat="59.263540366665" lon="17.708486560732">
        <ele>5.2</ele>
        <time>2026-08-30T14:00:50Z</time>
      </trkpt>
      <trkpt lat="59.263567524031" lon="17.708345744759">
        <ele>5</ele>
        <time>2026-08-30T14:00:51Z</time>
      </trkpt>
      <trkpt lat="59.263599207625" lon="17.708068052307">
        <ele>4.8</ele>
        <time>2026-08-30T14:00:53Z</time>
      </trkpt>
      <trkpt lat="59.263601806015" lon="17.707935031503">
        <ele>4.8</ele>
        <time>2026-08-30T14:00:54Z</time>
      </trkpt>
      <trkpt lat="59.263586550951" lon="17.707692794502">
        <ele>4.8</ele>
        <time>2026-08-30T14:00:56Z</time>
      </trkpt>
      <trkpt lat="59.26355025731" lon="17.707504956052">
        <ele>4.8</ele>
        <time>2026-08-30T14:00:58Z</time>
      </trkpt>
      <trkpt lat="59.26352947019" lon="17.707435553893">
        <ele>5</ele>
        <time>2026-08-30T14:00:59Z</time>
      </trkpt>
      <trkpt lat="59.263478508219" lon="17.707264060155">
        <ele>5.4</ele>
        <time>2026-08-30T14:01:02Z</time>
      </trkpt>
      <trkpt lat="59.263461241499" lon="17.707212343812">
        <ele>5.4</ele>
        <time>2026-08-30T14:01:03Z</time>
      </trkpt>
      <trkpt lat="59.263420337811" lon="17.707119975239">
        <ele>6.4</ele>
        <time>2026-08-30T14:01:05Z</time>
      </trkpt>
      <trkpt lat="59.263374824077" lon="17.707034396008">
        <ele>8.2</ele>
        <time>2026-08-30T14:01:07Z</time>
      </trkpt>
      <trkpt lat="59.263320174068" lon="17.706942278892">
        <ele>9.8</ele>
        <time>2026-08-30T14:01:09Z</time>
      </trkpt>
      <trkpt lat="59.263210790232" lon="17.706811018288">
        <ele>11.4</ele>
        <time>2026-08-30T14:01:12Z</time>
      </trkpt>
      <trkpt lat="59.263137951493" lon="17.70673038438">
        <ele>12.4</ele>
        <time>2026-08-30T14:01:14Z</time>
      </trkpt>
      <trkpt lat="59.26310190931" lon="17.706687804312">
        <ele>12.8</ele>
        <time>2026-08-30T14:01:15Z</time>
      </trkpt>
      <trkpt lat="59.262989759445" lon="17.706562997773">
        <ele>13.2</ele>
        <time>2026-08-30T14:01:18Z</time>
      </trkpt>
      <trkpt lat="59.262911640108" lon="17.706471970305">
        <ele>13.4</ele>
        <time>2026-08-30T14:01:20Z</time>
      </trkpt>
      <trkpt lat="59.262830587104" lon="17.706361413002">
        <ele>13.8</ele>
        <time>2026-08-30T14:01:22Z</time>
      </trkpt>
      <trkpt lat="59.262581393123" lon="17.70604818128">
        <ele>14.2</ele>
        <time>2026-08-30T14:01:28Z</time>
      </trkpt>
      <trkpt lat="59.262504028156" lon="17.705950615928">
        <ele>14.4</ele>
        <time>2026-08-30T14:01:30Z</time>
      </trkpt>
      <trkpt lat="59.262428758666" lon="17.705853804946">
        <ele>14.8</ele>
        <time>2026-08-30T14:01:32Z</time>
      </trkpt>
      <trkpt lat="59.262221893296" lon="17.705560438335">
        <ele>15.8</ele>
        <time>2026-08-30T14:01:38Z</time>
      </trkpt>
      <trkpt lat="59.262127932161" lon="17.70539036952">
        <ele>17</ele>
        <time>2026-08-30T14:01:41Z</time>
      </trkpt>
      <trkpt lat="59.262070348486" lon="17.705252235755">
        <ele>17.6</ele>
        <time>2026-08-30T14:01:43Z</time>
      </trkpt>
      <trkpt lat="59.26204319112" lon="17.705173529685">
        <ele>18</ele>
        <time>2026-08-30T14:01:44Z</time>
      </trkpt>
      <trkpt lat="59.261967837811" lon="17.704866081476">
        <ele>18.6</ele>
        <time>2026-08-30T14:01:48Z</time>
      </trkpt>
      <trkpt lat="59.261956103146" lon="17.704706573859">
        <ele>18.6</ele>
        <time>2026-08-30T14:01:50Z</time>
      </trkpt>
      <trkpt lat="59.261933639646" lon="17.704342212528">
        <ele>19</ele>
        <time>2026-08-30T14:01:55Z</time>
      </trkpt>
      <trkpt lat="59.261861639097" lon="17.703908449039">
        <ele>19.8</ele>
        <time>2026-08-30T14:02:00Z</time>
      </trkpt>
      <trkpt lat="59.261755608022" lon="17.703377120197">
        <ele>19.8</ele>
        <time>2026-08-30T14:02:04Z</time>
      </trkpt>
      <trkpt lat="59.261641865596" lon="17.70274495706">
        <ele>19.8</ele>
        <time>2026-08-30T14:02:08Z</time>
      </trkpt>
      <trkpt lat="59.26157657057" lon="17.702416218817">
        <ele>17.4</ele>
        <time>2026-08-30T14:02:10Z</time>
      </trkpt>
      <trkpt lat="59.261541618034" lon="17.702241288498">
        <ele>16</ele>
        <time>2026-08-30T14:02:11Z</time>
      </trkpt>
      <trkpt lat="59.261506581679" lon="17.702060909942">
        <ele>15</ele>
        <time>2026-08-30T14:02:12Z</time>
      </trkpt>
      <trkpt lat="59.261434916407" lon="17.701701074839">
        <ele>13.8</ele>
        <time>2026-08-30T14:02:14Z</time>
      </trkpt>
      <trkpt lat="59.261364340782" lon="17.701362194493">
        <ele>13.2</ele>
        <time>2026-08-30T14:02:16Z</time>
      </trkpt>
      <trkpt lat="59.261286137626" lon="17.701054494828">
        <ele>12</ele>
        <time>2026-08-30T14:02:18Z</time>
      </trkpt>
      <trkpt lat="59.261197205633" lon="17.700752746314">
        <ele>9.8</ele>
        <time>2026-08-30T14:02:20Z</time>
      </trkpt>
      <trkpt lat="59.261147920042" lon="17.700600614771">
        <ele>8.6</ele>
        <time>2026-08-30T14:02:21Z</time>
      </trkpt>
      <trkpt lat="59.261003667489" lon="17.700144723058">
        <ele>7.4</ele>
        <time>2026-08-30T14:02:24Z</time>
      </trkpt>
      <trkpt lat="59.260829156265" lon="17.699587997049">
        <ele>6.4</ele>
        <time>2026-08-30T14:02:28Z</time>
      </trkpt>
      <trkpt lat="59.260793784633" lon="17.699458999559">
        <ele>6.2</ele>
        <time>2026-08-30T14:02:29Z</time>
      </trkpt>
      <trkpt lat="59.260631762445" lon="17.698848545551">
        <ele>6</ele>
        <time>2026-08-30T14:02:34Z</time>
      </trkpt>
      <trkpt lat="59.260591696948" lon="17.698739077896">
        <ele>6</ele>
        <time>2026-08-30T14:02:35Z</time>
      </trkpt>
      <trkpt lat="59.26049455069" lon="17.69854394719">
        <ele>6</ele>
        <time>2026-08-30T14:02:37Z</time>
      </trkpt>
      <trkpt lat="59.260443253443" lon="17.698460211977">
        <ele>6.2</ele>
        <time>2026-08-30T14:02:38Z</time>
      </trkpt>
      <trkpt lat="59.260388184339" lon="17.698386283591">
        <ele>6.4</ele>
        <time>2026-08-30T14:02:39Z</time>
      </trkpt>
      <trkpt lat="59.260215014219" lon="17.698202719912">
        <ele>6.8</ele>
        <time>2026-08-30T14:02:42Z</time>
      </trkpt>
      <trkpt lat="59.260047962889" lon="17.698055114597">
        <ele>7</ele>
        <time>2026-08-30T14:02:45Z</time>
      </trkpt>
      <trkpt lat="59.259995659813" lon="17.698020664975">
        <ele>7</ele>
        <time>2026-08-30T14:02:46Z</time>
      </trkpt>
      <trkpt lat="59.259771276265" lon="17.697950843722">
        <ele>7</ele>
        <time>2026-08-30T14:02:50Z</time>
      </trkpt>
      <trkpt lat="59.259611433372" lon="17.697933325544">
        <ele>7.2</ele>
        <time>2026-08-30T14:02:53Z</time>
      </trkpt>
      <trkpt lat="59.259502217174" lon="17.697981437668">
        <ele>7.2</ele>
        <time>2026-08-30T14:02:55Z</time>
      </trkpt>
      <trkpt lat="59.259435245767" lon="17.698033656925">
        <ele>7.4</ele>
        <time>2026-08-30T14:02:56Z</time>
      </trkpt>
      <trkpt lat="59.259266769513" lon="17.698151925579">
        <ele>8.6</ele>
        <time>2026-08-30T14:02:59Z</time>
      </trkpt>
      <trkpt lat="59.259214885533" lon="17.698182351887">
        <ele>9</ele>
        <time>2026-08-30T14:03:00Z</time>
      </trkpt>
      <trkpt lat="59.259162247181" lon="17.698224345222">
        <ele>9.2</ele>
        <time>2026-08-30T14:03:01Z</time>
      </trkpt>
      <trkpt lat="59.259006930515" lon="17.698374213651">
        <ele>9.6</ele>
        <time>2026-08-30T14:03:04Z</time>
      </trkpt>
      <trkpt lat="59.258960243315" lon="17.698428360745">
        <ele>9.6</ele>
        <time>2026-08-30T14:03:05Z</time>
      </trkpt>
      <trkpt lat="59.258709121495" lon="17.698749303818">
        <ele>10.4</ele>
        <time>2026-08-30T14:03:11Z</time>
      </trkpt>
      <trkpt lat="59.258565455675" lon="17.698979051784">
        <ele>10.4</ele>
        <time>2026-08-30T14:03:14Z</time>
      </trkpt>
      <trkpt lat="59.258510218933" lon="17.699067145586">
        <ele>10.4</ele>
        <time>2026-08-30T14:03:15Z</time>
      </trkpt>
      <trkpt lat="59.258174858987" lon="17.699554972351">
        <ele>10.6</ele>
        <time>2026-08-30T14:03:21Z</time>
      </trkpt>
      <trkpt lat="59.258117191494" lon="17.699613310397">
        <ele>10.6</ele>
        <time>2026-08-30T14:03:22Z</time>
      </trkpt>
      <trkpt lat="59.257926000282" lon="17.699728561565">
        <ele>10.2</ele>
        <time>2026-08-30T14:03:25Z</time>
      </trkpt>
      <trkpt lat="59.257745957002" lon="17.699686903507">
        <ele>10</ele>
        <time>2026-08-30T14:03:28Z</time>
      </trkpt>
      <trkpt lat="59.257549904287" lon="17.6994191017">
        <ele>10</ele>
        <time>2026-08-30T14:03:32Z</time>
      </trkpt>
      <trkpt lat="59.257512940094" lon="17.699342239648">
        <ele>10</ele>
        <time>2026-08-30T14:03:33Z</time>
      </trkpt>
      <trkpt lat="59.257394587621" lon="17.699082568288">
        <ele>10.8</ele>
        <time>2026-08-30T14:03:37Z</time>
      </trkpt>
      <trkpt lat="59.257336501032" lon="17.698942758143">
        <ele>11.6</ele>
        <time>2026-08-30T14:03:40Z</time>
      </trkpt>
      <trkpt lat="59.257278246805" lon="17.698830692098">
        <ele>12.6</ele>
        <time>2026-08-30T14:03:43Z</time>
      </trkpt>
      <trkpt lat="59.257207587361" lon="17.698730779812">
        <ele>14</ele>
        <time>2026-08-30T14:03:46Z</time>
      </trkpt>
      <trkpt lat="59.257127959281" lon="17.698632795364">
        <ele>15.2</ele>
        <time>2026-08-30T14:03:49Z</time>
      </trkpt>
      <trkpt lat="59.257101723924" lon="17.698605051264">
        <ele>15.6</ele>
        <time>2026-08-30T14:03:50Z</time>
      </trkpt>
      <trkpt lat="59.2570518516" lon="17.698548473418">
        <ele>16.2</ele>
        <time>2026-08-30T14:03:52Z</time>
      </trkpt>
      <trkpt lat="59.257028130814" lon="17.698523411527">
        <ele>16.4</ele>
        <time>2026-08-30T14:03:53Z</time>
      </trkpt>
      <trkpt lat="59.256974151358" lon="17.698503546417">
        <ele>16.8</ele>
        <time>2026-08-30T14:03:55Z</time>
      </trkpt>
      <trkpt lat="59.256949340925" lon="17.698493907228">
        <ele>17.2</ele>
        <time>2026-08-30T14:03:56Z</time>
      </trkpt>
      <trkpt lat="59.256923357025" lon="17.698483597487">
        <ele>17.6</ele>
        <time>2026-08-30T14:03:57Z</time>
      </trkpt>
      <trkpt lat="59.256863594055" lon="17.698457445949">
        <ele>18.6</ele>
        <time>2026-08-30T14:03:59Z</time>
      </trkpt>
      <trkpt lat="59.256835011765" lon="17.698459206149">
        <ele>19</ele>
        <time>2026-08-30T14:04:00Z</time>
      </trkpt>
      <trkpt lat="59.256803328171" lon="17.698450908065">
        <ele>19.4</ele>
        <time>2026-08-30T14:04:01Z</time>
      </trkpt>
      <trkpt lat="59.256728561595" lon="17.698458032683">
        <ele>20.2</ele>
        <time>2026-08-30T14:04:03Z</time>
      </trkpt>
      <trkpt lat="59.256592942402" lon="17.698506563902">
        <ele>20.6</ele>
        <time>2026-08-30T14:04:06Z</time>
      </trkpt>
      <trkpt lat="59.256283650175" lon="17.698667831719">
        <ele>20.6</ele>
        <time>2026-08-30T14:04:12Z</time>
      </trkpt>
      <trkpt lat="59.256024900824" lon="17.698845025152">
        <ele>19.8</ele>
        <time>2026-08-30T14:04:18Z</time>
      </trkpt>
      <trkpt lat="59.255769504234" lon="17.699013836682">
        <ele>19.6</ele>
        <time>2026-08-30T14:04:24Z</time>
      </trkpt>
      <trkpt lat="59.255551993847" lon="17.699138559401">
        <ele>20</ele>
        <time>2026-08-30T14:04:29Z</time>
      </trkpt>
      <trkpt lat="59.255503965542" lon="17.699150713161">
        <ele>20</ele>
        <time>2026-08-30T14:04:30Z</time>
      </trkpt>
      <trkpt lat="59.255360048264" lon="17.699146186933">
        <ele>20.2</ele>
        <time>2026-08-30T14:04:33Z</time>
      </trkpt>
      <trkpt lat="59.255312187597" lon="17.699132692069">
        <ele>20.2</ele>
        <time>2026-08-30T14:04:34Z</time>
      </trkpt>
      <trkpt lat="59.255267009139" lon="17.699103606865">
        <ele>20.2</ele>
        <time>2026-08-30T14:04:35Z</time>
      </trkpt>
      <trkpt lat="59.25522107631" lon="17.699067732319">
        <ele>20.2</ele>
        <time>2026-08-30T14:04:36Z</time>
      </trkpt>
      <trkpt lat="59.255050001666" lon="17.699007634073">
        <ele>20.2</ele>
        <time>2026-08-30T14:04:40Z</time>
      </trkpt>
      <trkpt lat="59.254964003339" lon="17.699032528326">
        <ele>20.2</ele>
        <time>2026-08-30T14:04:43Z</time>
      </trkpt>
      <trkpt lat="59.254894601181" lon="17.699088938534">
        <ele>19.8</ele>
        <time>2026-08-30T14:04:45Z</time>
      </trkpt>
      <trkpt lat="59.254848416895" lon="17.699119029567">
        <ele>19.4</ele>
        <time>2026-08-30T14:04:46Z</time>
      </trkpt>
      <trkpt lat="59.25468522124" lon="17.699188515544">
        <ele>19.2</ele>
        <time>2026-08-30T14:04:49Z</time>
      </trkpt>
      <trkpt lat="59.254573406652" lon="17.699248529971">
        <ele>18.8</ele>
        <time>2026-08-30T14:04:51Z</time>
      </trkpt>
      <trkpt lat="59.254346843809" lon="17.699396386743">
        <ele>17.8</ele>
        <time>2026-08-30T14:04:55Z</time>
      </trkpt>
      <trkpt lat="59.254226647317" lon="17.699475092813">
        <ele>16.2</ele>
        <time>2026-08-30T14:04:57Z</time>
      </trkpt>
      <trkpt lat="59.254105528817" lon="17.699557989836">
        <ele>15</ele>
        <time>2026-08-30T14:04:59Z</time>
      </trkpt>
      <trkpt lat="59.253712836653" lon="17.699825372547">
        <ele>14.4</ele>
        <time>2026-08-30T14:05:05Z</time>
      </trkpt>
      <trkpt lat="59.253572607413" lon="17.699918914586">
        <ele>14</ele>
        <time>2026-08-30T14:05:07Z</time>
      </trkpt>
      <trkpt lat="59.253290472552" lon="17.700110692531">
        <ele>12.8</ele>
        <time>2026-08-30T14:05:11Z</time>
      </trkpt>
      <trkpt lat="59.253080422059" lon="17.700253101066">
        <ele>11.6</ele>
        <time>2026-08-30T14:05:14Z</time>
      </trkpt>
      <trkpt lat="59.252942539752" lon="17.700342871249">
        <ele>11</ele>
        <time>2026-08-30T14:05:16Z</time>
      </trkpt>
      <trkpt lat="59.252812201157" lon="17.700427696109">
        <ele>10.4</ele>
        <time>2026-08-30T14:05:18Z</time>
      </trkpt>
      <trkpt lat="59.252628386021" lon="17.700546802953">
        <ele>9</ele>
        <time>2026-08-30T14:05:21Z</time>
      </trkpt>
      <trkpt lat="59.252513637766" lon="17.70062844269">
        <ele>8.4</ele>
        <time>2026-08-30T14:05:23Z</time>
      </trkpt>
      <trkpt lat="59.252346502617" lon="17.700740592554">
        <ele>8</ele>
        <time>2026-08-30T14:05:26Z</time>
      </trkpt>
      <trkpt lat="59.252291182056" lon="17.700777472928">
        <ele>8</ele>
        <time>2026-08-30T14:05:27Z</time>
      </trkpt>
      <trkpt lat="59.251976273954" lon="17.70096950233">
        <ele>8</ele>
        <time>2026-08-30T14:05:33Z</time>
      </trkpt>
      <trkpt lat="59.251664802432" lon="17.701164046302">
        <ele>8.4</ele>
        <time>2026-08-30T14:05:40Z</time>
      </trkpt>
      <trkpt lat="59.251533038914" lon="17.701246021315">
        <ele>8.8</ele>
        <time>2026-08-30T14:05:43Z</time>
      </trkpt>
      <trkpt lat="59.251490877941" lon="17.701274938881">
        <ele>9.4</ele>
        <time>2026-08-30T14:05:44Z</time>
      </trkpt>
      <trkpt lat="59.251449052244" lon="17.701301090419">
        <ele>9.6</ele>
        <time>2026-08-30T14:05:45Z</time>
      </trkpt>
      <trkpt lat="59.251333968714" lon="17.701375018805">
        <ele>9.8</ele>
        <time>2026-08-30T14:05:48Z</time>
      </trkpt>
      <trkpt lat="59.25122785382" lon="17.701446684077">
        <ele>10.2</ele>
        <time>2026-08-30T14:05:51Z</time>
      </trkpt>
      <trkpt lat="59.251188961789" lon="17.701468477026">
        <ele>10.6</ele>
        <time>2026-08-30T14:05:52Z</time>
      </trkpt>
      <trkpt lat="59.251149650663" lon="17.701502926648">
        <ele>10.8</ele>
        <time>2026-08-30T14:05:53Z</time>
      </trkpt>
      <trkpt lat="59.251073459163" lon="17.701574843377">
        <ele>11.4</ele>
        <time>2026-08-30T14:05:55Z</time>
      </trkpt>
      <trkpt lat="59.251035070047" lon="17.701611639932">
        <ele>11.6</ele>
        <time>2026-08-30T14:05:56Z</time>
      </trkpt>
      <trkpt lat="59.250946892425" lon="17.701736781746">
        <ele>12</ele>
        <time>2026-08-30T14:05:59Z</time>
      </trkpt>
      <trkpt lat="59.250927362591" lon="17.701782882214">
        <ele>12</ele>
        <time>2026-08-30T14:06:00Z</time>
      </trkpt>
      <trkpt lat="59.25087899901" lon="17.701939372346">
        <ele>12.8</ele>
        <time>2026-08-30T14:06:03Z</time>
      </trkpt>
      <trkpt lat="59.250839604065" lon="17.702092844993">
        <ele>13.8</ele>
        <time>2026-08-30T14:06:06Z</time>
      </trkpt>
      <trkpt lat="59.250746732578" lon="17.702409680933">
        <ele>14.6</ele>
        <time>2026-08-30T14:06:12Z</time>
      </trkpt>
      <trkpt lat="59.25062100403" lon="17.702793572098">
        <ele>14.6</ele>
        <time>2026-08-30T14:06:17Z</time>
      </trkpt>
      <trkpt lat="59.250378431752" lon="17.703426992521">
        <ele>14.2</ele>
        <time>2026-08-30T14:06:24Z</time>
      </trkpt>
      <trkpt lat="59.250174416229" lon="17.70394817926">
        <ele>13</ele>
        <time>2026-08-30T14:06:30Z</time>
      </trkpt>
      <trkpt lat="59.250142648816" lon="17.704035099596">
        <ele>12.8</ele>
        <time>2026-08-30T14:06:31Z</time>
      </trkpt>
      <trkpt lat="59.250086992979" lon="17.704217070714">
        <ele>12</ele>
        <time>2026-08-30T14:06:33Z</time>
      </trkpt>
      <trkpt lat="59.250041227788" lon="17.704411447048">
        <ele>11.6</ele>
        <time>2026-08-30T14:06:35Z</time>
      </trkpt>
      <trkpt lat="59.249908123165" lon="17.704960796982">
        <ele>11.2</ele>
        <time>2026-08-30T14:06:41Z</time>
      </trkpt>
      <trkpt lat="59.249815000221" lon="17.705323984846">
        <ele>11.4</ele>
        <time>2026-08-30T14:06:45Z</time>
      </trkpt>
      <trkpt lat="59.24974325113" lon="17.705691112205">
        <ele>12.8</ele>
        <time>2026-08-30T14:06:49Z</time>
      </trkpt>
      <trkpt lat="59.249701760709" lon="17.705979952589">
        <ele>13.2</ele>
        <time>2026-08-30T14:06:52Z</time>
      </trkpt>
      <trkpt lat="59.249681141227" lon="17.70621011965">
        <ele>13.4</ele>
        <time>2026-08-30T14:06:55Z</time>
      </trkpt>
      <trkpt lat="59.249671334401" lon="17.706435928121">
        <ele>14</ele>
        <time>2026-08-30T14:07:00Z</time>
      </trkpt>
      <trkpt lat="59.249663036317" lon="17.706485632807">
        <ele>14.4</ele>
        <time>2026-08-30T14:07:01Z</time>
      </trkpt>
      <trkpt lat="59.249639818445" lon="17.706607757136">
        <ele>15.4</ele>
        <time>2026-08-30T14:07:03Z</time>
      </trkpt>
      <trkpt lat="59.249616349116" lon="17.706787046045">
        <ele>16.6</ele>
        <time>2026-08-30T14:07:06Z</time>
      </trkpt>
      <trkpt lat="59.249602351338" lon="17.706908416003">
        <ele>17</ele>
        <time>2026-08-30T14:07:08Z</time>
      </trkpt>
      <trkpt lat="59.249576535076" lon="17.707085022703">
        <ele>17.6</ele>
        <time>2026-08-30T14:07:11Z</time>
      </trkpt>
      <trkpt lat="59.249520292506" lon="17.70725056529">
        <ele>18</ele>
        <time>2026-08-30T14:07:14Z</time>
      </trkpt>
      <trkpt lat="59.249382074922" lon="17.707621715963">
        <ele>18</ele>
        <time>2026-08-30T14:07:18Z</time>
      </trkpt>
      <trkpt lat="59.24916590564" lon="17.708233762532">
        <ele>16.4</ele>
        <time>2026-08-30T14:07:24Z</time>
      </trkpt>
      <trkpt lat="59.24909231253" lon="17.708432246">
        <ele>15.2</ele>
        <time>2026-08-30T14:07:26Z</time>
      </trkpt>
      <trkpt lat="59.248948898166" lon="17.708808174357">
        <ele>14.4</ele>
        <time>2026-08-30T14:07:30Z</time>
      </trkpt>
      <trkpt lat="59.248783942312" lon="17.709264736623">
        <ele>14.2</ele>
        <time>2026-08-30T14:07:35Z</time>
      </trkpt>
      <trkpt lat="59.248748067766" lon="17.709356099367">
        <ele>14.2</ele>
        <time>2026-08-30T14:07:36Z</time>
      </trkpt>
      <trkpt lat="59.248614711687" lon="17.709621721879">
        <ele>14</ele>
        <time>2026-08-30T14:07:39Z</time>
      </trkpt>
      <trkpt lat="59.248563749716" lon="17.70971425809">
        <ele>14</ele>
        <time>2026-08-30T14:07:40Z</time>
      </trkpt>
      <trkpt lat="59.248500298709" lon="17.709810566157">
        <ele>13.8</ele>
        <time>2026-08-30T14:07:41Z</time>
      </trkpt>
      <trkpt lat="59.24808816053" lon="17.710373746231">
        <ele>13</ele>
        <time>2026-08-30T14:07:48Z</time>
      </trkpt>
      <trkpt lat="59.247664622962" lon="17.71094430238">
        <ele>12.4</ele>
        <time>2026-08-30T14:07:56Z</time>
      </trkpt>
      <trkpt lat="59.247285006568" lon="17.711499771103">
        <ele>12</ele>
        <time>2026-08-30T14:08:03Z</time>
      </trkpt>
      <trkpt lat="59.247130276635" lon="17.711726920679">
        <ele>12</ele>
        <time>2026-08-30T14:08:06Z</time>
      </trkpt>
      <trkpt lat="59.247026927769" lon="17.71183420904">
        <ele>11.8</ele>
        <time>2026-08-30T14:08:08Z</time>
      </trkpt>
      <trkpt lat="59.246812351048" lon="17.711957758293">
        <ele>11</ele>
        <time>2026-08-30T14:08:12Z</time>
      </trkpt>
      <trkpt lat="59.246697602794" lon="17.712018694729">
        <ele>10.8</ele>
        <time>2026-08-30T14:08:14Z</time>
      </trkpt>
      <trkpt lat="59.246396608651" lon="17.712139897048">
        <ele>10.4</ele>
        <time>2026-08-30T14:08:19Z</time>
      </trkpt>
      <trkpt lat="59.246134087443" lon="17.712210891768">
        <ele>10</ele>
        <time>2026-08-30T14:08:23Z</time>
      </trkpt>
      <trkpt lat="59.246070552617" lon="17.712209131569">
        <ele>9.8</ele>
        <time>2026-08-30T14:08:24Z</time>
      </trkpt>
      <trkpt lat="59.24594482407" lon="17.712203264236">
        <ele>8.4</ele>
        <time>2026-08-30T14:08:26Z</time>
      </trkpt>
      <trkpt lat="59.245634777471" lon="17.712178789079">
        <ele>7.6</ele>
        <time>2026-08-30T14:08:31Z</time>
      </trkpt>
      <trkpt lat="59.245571577922" lon="17.712172586471">
        <ele>7.6</ele>
        <time>2026-08-30T14:08:32Z</time>
      </trkpt>
      <trkpt lat="59.245322803035" lon="17.712146267295">
        <ele>7.6</ele>
        <time>2026-08-30T14:08:36Z</time>
      </trkpt>
      <trkpt lat="59.244958274066" lon="17.712107207626">
        <ele>8.2</ele>
        <time>2026-08-30T14:08:42Z</time>
      </trkpt>
      <trkpt lat="59.244898175821" lon="17.712104190141">
        <ele>8.2</ele>
        <time>2026-08-30T14:08:43Z</time>
      </trkpt>
      <trkpt lat="59.24458402209" lon="17.71206881851">
        <ele>8.8</ele>
        <time>2026-08-30T14:08:49Z</time>
      </trkpt>
      <trkpt lat="59.244452677667" lon="17.712062112987">
        <ele>9.6</ele>
        <time>2026-08-30T14:08:52Z</time>
      </trkpt>
      <trkpt lat="59.244294762611" lon="17.712040068582">
        <ele>10.8</ele>
        <time>2026-08-30T14:08:56Z</time>
      </trkpt>
      <trkpt lat="59.244160484523" lon="17.712050545961">
        <ele>11.6</ele>
        <time>2026-08-30T14:09:01Z</time>
      </trkpt>
      <trkpt lat="59.244135841727" lon="17.712057586759">
        <ele>11.8</ele>
        <time>2026-08-30T14:09:02Z</time>
      </trkpt>
      <trkpt lat="59.244024027139" lon="17.7121198643">
        <ele>12.8</ele>
        <time>2026-08-30T14:09:06Z</time>
      </trkpt>
      <trkpt lat="59.243971472606" lon="17.712180297822">
        <ele>14.2</ele>
        <time>2026-08-30T14:09:08Z</time>
      </trkpt>
      <trkpt lat="59.243896873668" lon="17.712281467393">
        <ele>14.8</ele>
        <time>2026-08-30T14:09:11Z</time>
      </trkpt>
      <trkpt lat="59.243872985244" lon="17.712319353595">
        <ele>15</ele>
        <time>2026-08-30T14:09:12Z</time>
      </trkpt>
      <trkpt lat="59.243835518137" lon="17.71240208298">
        <ele>15.4</ele>
        <time>2026-08-30T14:09:14Z</time>
      </trkpt>
      <trkpt lat="59.243807941675" lon="17.712543066591">
        <ele>15.4</ele>
        <time>2026-08-30T14:09:17Z</time>
      </trkpt>
      <trkpt lat="59.243790004402" lon="17.712752362713">
        <ele>15.8</ele>
        <time>2026-08-30T14:09:21Z</time>
      </trkpt>
      <trkpt lat="59.243769552559" lon="17.712856633589">
        <ele>16.4</ele>
        <time>2026-08-30T14:09:23Z</time>
      </trkpt>
      <trkpt lat="59.243756644428" lon="17.71290843375">
        <ele>16.6</ele>
        <time>2026-08-30T14:09:24Z</time>
      </trkpt>
      <trkpt lat="59.243702497333" lon="17.713013123721">
        <ele>17.6</ele>
        <time>2026-08-30T14:09:27Z</time>
      </trkpt>
      <trkpt lat="59.243675004691" lon="17.713037012145">
        <ele>17.8</ele>
        <time>2026-08-30T14:09:28Z</time>
      </trkpt>
      <trkpt lat="59.243644075468" lon="17.713041622192">
        <ele>18</ele>
        <time>2026-08-30T14:09:29Z</time>
      </trkpt>
      <trkpt lat="59.243576517329" lon="17.712976746261">
        <ele>18.4</ele>
        <time>2026-08-30T14:09:31Z</time>
      </trkpt>
      <trkpt lat="59.24354265444" lon="17.712922850624">
        <ele>18.6</ele>
        <time>2026-08-30T14:09:32Z</time>
      </trkpt>
      <trkpt lat="59.243509126827" lon="17.712861243635">
        <ele>18.6</ele>
        <time>2026-08-30T14:09:33Z</time>
      </trkpt>
      <trkpt lat="59.243339393288" lon="17.712549939752">
        <ele>18.6</ele>
        <time>2026-08-30T14:09:38Z</time>
      </trkpt>
      <trkpt lat="59.243305278942" lon="17.712498558685">
        <ele>18.6</ele>
        <time>2026-08-30T14:09:39Z</time>
      </trkpt>
      <trkpt lat="59.243160523474" lon="17.712398897856">
        <ele>17.6</ele>
        <time>2026-08-30T14:09:43Z</time>
      </trkpt>
      <trkpt lat="59.24312800169" lon="17.712396802381">
        <ele>17.4</ele>
        <time>2026-08-30T14:09:44Z</time>
      </trkpt>
      <trkpt lat="59.242977211252" lon="17.712459918112">
        <ele>17.2</ele>
        <time>2026-08-30T14:09:48Z</time>
      </trkpt>
      <trkpt lat="59.242881657556" lon="17.712509622797">
        <ele>17</ele>
        <time>2026-08-30T14:09:50Z</time>
      </trkpt>
      <trkpt lat="59.242829103023" lon="17.712521776557">
        <ele>16.8</ele>
        <time>2026-08-30T14:09:51Z</time>
      </trkpt>
      <trkpt lat="59.242771770805" lon="17.712517669424">
        <ele>16.8</ele>
        <time>2026-08-30T14:09:52Z</time>
      </trkpt>
      <trkpt lat="59.24263715744" lon="17.712467126548">
        <ele>16.4</ele>
        <time>2026-08-30T14:09:54Z</time>
      </trkpt>
      <trkpt lat="59.242562977597" lon="17.712427396327">
        <ele>16.4</ele>
        <time>2026-08-30T14:09:55Z</time>
      </trkpt>
      <trkpt lat="59.24248829484" lon="17.712380709127">
        <ele>16.2</ele>
        <time>2026-08-30T14:09:56Z</time>
      </trkpt>
      <trkpt lat="59.242336414754" lon="17.712298650295">
        <ele>15.2</ele>
        <time>2026-08-30T14:09:58Z</time>
      </trkpt>
      <trkpt lat="59.242190066725" lon="17.712227487937">
        <ele>13.8</ele>
        <time>2026-08-30T14:10:00Z</time>
      </trkpt>
      <trkpt lat="59.242049250752" lon="17.712167808786">
        <ele>12</ele>
        <time>2026-08-30T14:10:02Z</time>
      </trkpt>
      <trkpt lat="59.241980267689" lon="17.712144507095">
        <ele>10.8</ele>
        <time>2026-08-30T14:10:03Z</time>
      </trkpt>
      <trkpt lat="59.241847498342" lon="17.71211642772">
        <ele>9.4</ele>
        <time>2026-08-30T14:10:05Z</time>
      </trkpt>
      <trkpt lat="59.241603082046" lon="17.712107039988">
        <ele>8.6</ele>
        <time>2026-08-30T14:10:09Z</time>
      </trkpt>
      <trkpt lat="59.241544157267" lon="17.71210771054">
        <ele>8.4</ele>
        <time>2026-08-30T14:10:10Z</time>
      </trkpt>
      <trkpt lat="59.241314828396" lon="17.712117349729">
        <ele>8.2</ele>
        <time>2026-08-30T14:10:14Z</time>
      </trkpt>
      <trkpt lat="59.241079464555" lon="17.712120199576">
        <ele>7.8</ele>
        <time>2026-08-30T14:10:18Z</time>
      </trkpt>
      <trkpt lat="59.240886764601" lon="17.712124809623">
        <ele>7.6</ele>
        <time>2026-08-30T14:10:21Z</time>
      </trkpt>
      <trkpt lat="59.240686520934" lon="17.712133945897">
        <ele>7.4</ele>
        <time>2026-08-30T14:10:24Z</time>
      </trkpt>
      <trkpt lat="59.240623489022" lon="17.712132940069">
        <ele>7.2</ele>
        <time>2026-08-30T14:10:25Z</time>
      </trkpt>
      <trkpt lat="59.240502119064" lon="17.712120367214">
        <ele>7.2</ele>
        <time>2026-08-30T14:10:27Z</time>
      </trkpt>
      <trkpt lat="59.240399105474" lon="17.712017185986">
        <ele>7.2</ele>
        <time>2026-08-30T14:10:29Z</time>
      </trkpt>
      <trkpt lat="59.240356441587" lon="17.711708312854">
        <ele>7.2</ele>
        <time>2026-08-30T14:10:32Z</time>
      </trkpt>
      <trkpt lat="59.240350406617" lon="17.711507482454">
        <ele>7.2</ele>
        <time>2026-08-30T14:10:34Z</time>
      </trkpt>
      <trkpt lat="59.240344455466" lon="17.711412934586">
        <ele>7.4</ele>
        <time>2026-08-30T14:10:35Z</time>
      </trkpt>
      <trkpt lat="59.240301959217" lon="17.711274214089">
        <ele>7.6</ele>
        <time>2026-08-30T14:10:37Z</time>
      </trkpt>
      <trkpt lat="59.240236412734" lon="17.711208667606">
        <ele>8.4</ele>
        <time>2026-08-30T14:10:39Z</time>
      </trkpt>
      <trkpt lat="59.240166675299" lon="17.711182767525">
        <ele>9.4</ele>
        <time>2026-08-30T14:10:41Z</time>
      </trkpt>
      <trkpt lat="59.240131303668" lon="17.711175978184">
        <ele>10</ele>
        <time>2026-08-30T14:10:42Z</time>
      </trkpt>
      <trkpt lat="59.24005578272" lon="17.711167093366">
        <ele>10.6</ele>
        <time>2026-08-30T14:10:44Z</time>
      </trkpt>
      <trkpt lat="59.239931060001" lon="17.711155610159">
        <ele>11</ele>
        <time>2026-08-30T14:10:47Z</time>
      </trkpt>
      <trkpt lat="59.23989049159" lon="17.711138343439">
        <ele>11.2</ele>
        <time>2026-08-30T14:10:48Z</time>
      </trkpt>
      <trkpt lat="59.239763841033" lon="17.710924521089">
        <ele>11.4</ele>
        <time>2026-08-30T14:10:52Z</time>
      </trkpt>
      <trkpt lat="59.239745736122" lon="17.710639787838">
        <ele>11.4</ele>
        <time>2026-08-30T14:10:55Z</time>
      </trkpt>
      <trkpt lat="59.239749507979" lon="17.710537109524">
        <ele>11.4</ele>
        <time>2026-08-30T14:10:56Z</time>
      </trkpt>
      <trkpt lat="59.239800805226" lon="17.709858175367">
        <ele>11.2</ele>
        <time>2026-08-30T14:11:03Z</time>
      </trkpt>
      <trkpt lat="59.239819999784" lon="17.709775613621">
        <ele>11.2</ele>
        <time>2026-08-30T14:11:04Z</time>
      </trkpt>
      <trkpt lat="59.239885210991" lon="17.709603114054">
        <ele>11.2</ele>
        <time>2026-08-30T14:11:07Z</time>
      </trkpt>
      <trkpt lat="59.239970454946" lon="17.709452072158">
        <ele>11.6</ele>
        <time>2026-08-30T14:11:11Z</time>
      </trkpt>
      <trkpt lat="59.240055698901" lon="17.709304969758">
        <ele>12.8</ele>
        <time>2026-08-30T14:11:15Z</time>
      </trkpt>
      <trkpt lat="59.240158377215" lon="17.709111096337">
        <ele>14</ele>
        <time>2026-08-30T14:11:20Z</time>
      </trkpt>
      <trkpt lat="59.240195509046" lon="17.709023924544">
        <ele>14</ele>
        <time>2026-08-30T14:11:22Z</time>
      </trkpt>
      <trkpt lat="59.240278238431" lon="17.708774730563">
        <ele>15</ele>
        <time>2026-08-30T14:11:27Z</time>
      </trkpt>
      <trkpt lat="59.240308078006" lon="17.708660233766">
        <ele>15.2</ele>
        <time>2026-08-30T14:11:29Z</time>
      </trkpt>
      <trkpt lat="59.240353256464" lon="17.708260249346">
        <ele>15.6</ele>
        <time>2026-08-30T14:11:34Z</time>
      </trkpt>
      <trkpt lat="59.24037521705" lon="17.707965038717">
        <ele>15.8</ele>
        <time>2026-08-30T14:11:37Z</time>
      </trkpt>
      <trkpt lat="59.240388963372" lon="17.707858001813">
        <ele>15.8</ele>
        <time>2026-08-30T14:11:38Z</time>
      </trkpt>
      <trkpt lat="59.240429531783" lon="17.707626158372">
        <ele>15.8</ele>
        <time>2026-08-30T14:11:40Z</time>
      </trkpt>
      <trkpt lat="59.240461383015" lon="17.70750596188">
        <ele>15.8</ele>
        <time>2026-08-30T14:11:41Z</time>
      </trkpt>
      <trkpt lat="59.240588285029" lon="17.70716926083">
        <ele>15.8</ele>
        <time>2026-08-30T14:11:44Z</time>
      </trkpt>
      <trkpt lat="59.240756928921" lon="17.706665676087">
        <ele>13.6</ele>
        <time>2026-08-30T14:11:48Z</time>
      </trkpt>
      <trkpt lat="59.240807387978" lon="17.706524692476">
        <ele>12.6</ele>
        <time>2026-08-30T14:11:49Z</time>
      </trkpt>
      <trkpt lat="59.240921046585" lon="17.706231325865">
        <ele>11.2</ele>
        <time>2026-08-30T14:11:51Z</time>
      </trkpt>
      <trkpt lat="59.241089103743" lon="17.705812230706">
        <ele>9.8</ele>
        <time>2026-08-30T14:11:54Z</time>
      </trkpt>
      <trkpt lat="59.241142999381" lon="17.705678539351">
        <ele>8.6</ele>
        <time>2026-08-30T14:11:55Z</time>
      </trkpt>
      <trkpt lat="59.241249030456" lon="17.705416353419">
        <ele>6.8</ele>
        <time>2026-08-30T14:11:57Z</time>
      </trkpt>
      <trkpt lat="59.241491686553" lon="17.704804139212">
        <ele>5.8</ele>
        <time>2026-08-30T14:12:02Z</time>
      </trkpt>
      <trkpt lat="59.241829980165" lon="17.704057982191">
        <ele>6.4</ele>
        <time>2026-08-30T14:12:09Z</time>
      </trkpt>
      <trkpt lat="59.241937352344" lon="17.703732931986">
        <ele>6.8</ele>
        <time>2026-08-30T14:12:12Z</time>
      </trkpt>
      <trkpt lat="59.242032403126" lon="17.703416934237">
        <ele>6.8</ele>
        <time>2026-08-30T14:12:15Z</time>
      </trkpt>
      <trkpt lat="59.242208255455" lon="17.702941931784">
        <ele>7</ele>
        <time>2026-08-30T14:12:20Z</time>
      </trkpt>
      <trkpt lat="59.24225284718" lon="17.702859789133">
        <ele>7</ele>
        <time>2026-08-30T14:12:21Z</time>
      </trkpt>
      <trkpt lat="59.242576723918" lon="17.702271463349">
        <ele>7</ele>
        <time>2026-08-30T14:12:28Z</time>
      </trkpt>
      <trkpt lat="59.242822313681" lon="17.701868964359">
        <ele>7</ele>
        <time>2026-08-30T14:12:33Z</time>
      </trkpt>
      <trkpt lat="59.242925159633" lon="17.701723705977">
        <ele>7</ele>
        <time>2026-08-30T14:12:35Z</time>
      </trkpt>
      <trkpt lat="59.243165468797" lon="17.701393794268">
        <ele>7.2</ele>
        <time>2026-08-30T14:12:40Z</time>
      </trkpt>
      <trkpt lat="59.24331843853" lon="17.70118416287">
        <ele>7.6</ele>
        <time>2026-08-30T14:12:44Z</time>
      </trkpt>
      <trkpt lat="59.243356743827" lon="17.701142253354">
        <ele>7.6</ele>
        <time>2026-08-30T14:12:45Z</time>
      </trkpt>
      <trkpt lat="59.243523292243" lon="17.700908230618">
        <ele>9.6</ele>
        <time>2026-08-30T14:12:50Z</time>
      </trkpt>
      <trkpt lat="59.243553802371" lon="17.700851988047">
        <ele>10</ele>
        <time>2026-08-30T14:12:51Z</time>
      </trkpt>
      <trkpt lat="59.243619181216" lon="17.700741263106">
        <ele>10.6</ele>
        <time>2026-08-30T14:12:53Z</time>
      </trkpt>
      <trkpt lat="59.243673747405" lon="17.700596256182">
        <ele>11.2</ele>
        <time>2026-08-30T14:12:55Z</time>
      </trkpt>
      <trkpt lat="59.243703000247" lon="17.700515957549">
        <ele>11.4</ele>
        <time>2026-08-30T14:12:56Z</time>
      </trkpt>
      <trkpt lat="59.243829734623" lon="17.700037267059">
        <ele>11.4</ele>
        <time>2026-08-30T14:13:01Z</time>
      </trkpt>
      <trkpt lat="59.243948757648" lon="17.69937149249">
        <ele>10.2</ele>
        <time>2026-08-30T14:13:07Z</time>
      </trkpt>
      <trkpt lat="59.243994355202" lon="17.698760032654">
        <ele>9.6</ele>
        <time>2026-08-30T14:13:12Z</time>
      </trkpt>
      <trkpt lat="59.24400575459" lon="17.698398688808">
        <ele>9.4</ele>
        <time>2026-08-30T14:13:15Z</time>
      </trkpt>
      <trkpt lat="59.243998462334" lon="17.697560247034">
        <ele>8.8</ele>
        <time>2026-08-30T14:13:22Z</time>
      </trkpt>
      <trkpt lat="59.24399536103" lon="17.69744114019">
        <ele>8.8</ele>
        <time>2026-08-30T14:13:23Z</time>
      </trkpt>
      <trkpt lat="59.243988152593" lon="17.69720049575">
        <ele>8.4</ele>
        <time>2026-08-30T14:13:25Z</time>
      </trkpt>
      <trkpt lat="59.243965269998" lon="17.696346128359">
        <ele>8.2</ele>
        <time>2026-08-30T14:13:32Z</time>
      </trkpt>
      <trkpt lat="59.243942303583" lon="17.695359578356">
        <ele>8.2</ele>
        <time>2026-08-30T14:13:40Z</time>
      </trkpt>
      <trkpt lat="59.243934256956" lon="17.694987254217">
        <ele>8.4</ele>
        <time>2026-08-30T14:13:43Z</time>
      </trkpt>
      <trkpt lat="59.243924031034" lon="17.694483501837">
        <ele>8.6</ele>
        <time>2026-08-30T14:13:47Z</time>
      </trkpt>
      <trkpt lat="59.243915900588" lon="17.694135736674">
        <ele>8.8</ele>
        <time>2026-08-30T14:13:50Z</time>
      </trkpt>
      <trkpt lat="59.243913553655" lon="17.694034650922">
        <ele>9</ele>
        <time>2026-08-30T14:13:51Z</time>
      </trkpt>
      <trkpt lat="59.243909027427" lon="17.693851506338">
        <ele>9.6</ele>
        <time>2026-08-30T14:13:53Z</time>
      </trkpt>
      <trkpt lat="59.243899639696" lon="17.693545315415">
        <ele>10.4</ele>
        <time>2026-08-30T14:13:57Z</time>
      </trkpt>
      <trkpt lat="59.243896873668" lon="17.693477505818">
        <ele>11</ele>
        <time>2026-08-30T14:13:58Z</time>
      </trkpt>
      <trkpt lat="59.243894191459" lon="17.693352447823">
        <ele>12.2</ele>
        <time>2026-08-30T14:14:00Z</time>
      </trkpt>
      <trkpt lat="59.243884971365" lon="17.6931206882">
        <ele>13.8</ele>
        <time>2026-08-30T14:14:04Z</time>
      </trkpt>
      <trkpt lat="59.243882205337" lon="17.693014489487">
        <ele>14.6</ele>
        <time>2026-08-30T14:14:06Z</time>
      </trkpt>
      <trkpt lat="59.243880445138" lon="17.692966125906">
        <ele>14.8</ele>
        <time>2026-08-30T14:14:07Z</time>
      </trkpt>
      <trkpt lat="59.243869716302" lon="17.692753393203">
        <ele>16</ele>
        <time>2026-08-30T14:14:11Z</time>
      </trkpt>
      <trkpt lat="59.243867788464" lon="17.692594304681">
        <ele>17.6</ele>
        <time>2026-08-30T14:14:14Z</time>
      </trkpt>
      <trkpt lat="59.243865357712" lon="17.692459691316">
        <ele>18.2</ele>
        <time>2026-08-30T14:14:17Z</time>
      </trkpt>
      <trkpt lat="59.24386292696" lon="17.692361371592">
        <ele>18.6</ele>
        <time>2026-08-30T14:14:19Z</time>
      </trkpt>
      <trkpt lat="59.243864100426" lon="17.692164396867">
        <ele>19.4</ele>
        <time>2026-08-30T14:14:23Z</time>
      </trkpt>
      <trkpt lat="59.24386292696" lon="17.692113770172">
        <ele>19.6</ele>
        <time>2026-08-30T14:14:24Z</time>
      </trkpt>
      <trkpt lat="59.243859993294" lon="17.692062724382">
        <ele>19.8</ele>
        <time>2026-08-30T14:14:25Z</time>
      </trkpt>
      <trkpt lat="59.243865357712" lon="17.691903384402">
        <ele>20.8</ele>
        <time>2026-08-30T14:14:28Z</time>
      </trkpt>
      <trkpt lat="59.243857813999" lon="17.691795006394">
        <ele>21</ele>
        <time>2026-08-30T14:14:30Z</time>
      </trkpt>
      <trkpt lat="59.243881367147" lon="17.691609179601">
        <ele>21.4</ele>
        <time>2026-08-30T14:14:34Z</time>
      </trkpt>
      <trkpt lat="59.243905087933" lon="17.691321596503">
        <ele>21.4</ele>
        <time>2026-08-30T14:14:39Z</time>
      </trkpt>
      <trkpt lat="59.243910368532" lon="17.691063769162">
        <ele>21.8</ele>
        <time>2026-08-30T14:14:43Z</time>
      </trkpt>
      <trkpt lat="59.243912464008" lon="17.690887916833">
        <ele>21.8</ele>
        <time>2026-08-30T14:14:46Z</time>
      </trkpt>
      <trkpt lat="59.243906009942" lon="17.690578959882">
        <ele>22</ele>
        <time>2026-08-30T14:14:50Z</time>
      </trkpt>
      <trkpt lat="59.243899891153" lon="17.690493799746">
        <ele>22</ele>
        <time>2026-08-30T14:14:51Z</time>
      </trkpt>
      <trkpt lat="59.243889497593" lon="17.690405035391">
        <ele>22</ele>
        <time>2026-08-30T14:14:52Z</time>
      </trkpt>
      <trkpt lat="59.243859741837" lon="17.690221052617">
        <ele>22</ele>
        <time>2026-08-30T14:14:54Z</time>
      </trkpt>
      <trkpt lat="59.243777766824" lon="17.689856523648">
        <ele>22</ele>
        <time>2026-08-30T14:14:58Z</time>
      </trkpt>
      <trkpt lat="59.243718506768" lon="17.689586207271">
        <ele>21.6</ele>
        <time>2026-08-30T14:15:01Z</time>
      </trkpt>
      <trkpt lat="59.243689589202" lon="17.689393591136">
        <ele>21.6</ele>
        <time>2026-08-30T14:15:03Z</time>
      </trkpt>
      <trkpt lat="59.243682213128" lon="17.689290912822">
        <ele>21.6</ele>
        <time>2026-08-30T14:15:04Z</time>
      </trkpt>
      <trkpt lat="59.243687326089" lon="17.689076084644">
        <ele>21.6</ele>
        <time>2026-08-30T14:15:06Z</time>
      </trkpt>
      <trkpt lat="59.243697971106" lon="17.688961587846">
        <ele>21.4</ele>
        <time>2026-08-30T14:15:07Z</time>
      </trkpt>
      <trkpt lat="59.243706604466" lon="17.688837870955">
        <ele>21.4</ele>
        <time>2026-08-30T14:15:08Z</time>
      </trkpt>
      <trkpt lat="59.243711885065" lon="17.68857174553">
        <ele>21.4</ele>
        <time>2026-08-30T14:15:10Z</time>
      </trkpt>
      <trkpt lat="59.243716327474" lon="17.688293717802">
        <ele>21.2</ele>
        <time>2026-08-30T14:15:12Z</time>
      </trkpt>
      <trkpt lat="59.24372269772" lon="17.688018623739">
        <ele>20.6</ele>
        <time>2026-08-30T14:15:14Z</time>
      </trkpt>
      <trkpt lat="59.243725044653" lon="17.687643701211">
        <ele>19.2</ele>
        <time>2026-08-30T14:15:17Z</time>
      </trkpt>
      <trkpt lat="59.24372353591" lon="17.687320662662">
        <ele>19</ele>
        <time>2026-08-30T14:15:20Z</time>
      </trkpt>
      <trkpt lat="59.243716243654" lon="17.686842810363">
        <ele>19</ele>
        <time>2026-08-30T14:15:25Z</time>
      </trkpt>
      <trkpt lat="59.243710041046" lon="17.68675304018">
        <ele>19</ele>
        <time>2026-08-30T14:15:26Z</time>
      </trkpt>
      <trkpt lat="59.243691265583" lon="17.686486830935">
        <ele>19.2</ele>
        <time>2026-08-30T14:15:29Z</time>
      </trkpt>
      <trkpt lat="59.243677938357" lon="17.686238978058">
        <ele>19.6</ele>
        <time>2026-08-30T14:15:32Z</time>
      </trkpt>
      <trkpt lat="59.243657318875" lon="17.685916861519">
        <ele>20.4</ele>
        <time>2026-08-30T14:15:36Z</time>
      </trkpt>
      <trkpt lat="59.243642734364" lon="17.685682084411">
        <ele>21</ele>
        <time>2026-08-30T14:15:39Z</time>
      </trkpt>
      <trkpt lat="59.243612224236" lon="17.685305317864">
        <ele>21.2</ele>
        <time>2026-08-30T14:15:44Z</time>
      </trkpt>
      <trkpt lat="59.243603590876" lon="17.685150420293">
        <ele>21.4</ele>
        <time>2026-08-30T14:15:46Z</time>
      </trkpt>
      <trkpt lat="59.243599148467" lon="17.685075988993">
        <ele>21.6</ele>
        <time>2026-08-30T14:15:47Z</time>
      </trkpt>
      <trkpt lat="59.243570063263" lon="17.684685727581">
        <ele>22.4</ele>
        <time>2026-08-30T14:15:52Z</time>
      </trkpt>
      <trkpt lat="59.243564615026" lon="17.684603752568">
        <ele>22.6</ele>
        <time>2026-08-30T14:15:53Z</time>
      </trkpt>
      <trkpt lat="59.243549108505" lon="17.684340057895">
        <ele>23</ele>
        <time>2026-08-30T14:15:56Z</time>
      </trkpt>
      <trkpt lat="59.243518346921" lon="17.683949628845">
        <ele>23.4</ele>
        <time>2026-08-30T14:16:00Z</time>
      </trkpt>
      <trkpt lat="59.243462607265" lon="17.68318997696">
        <ele>23.6</ele>
        <time>2026-08-30T14:16:07Z</time>
      </trkpt>
      <trkpt lat="59.243410052732" lon="17.682359162718">
        <ele>22.4</ele>
        <time>2026-08-30T14:16:14Z</time>
      </trkpt>
      <trkpt lat="59.243375686929" lon="17.681793216616">
        <ele>22</ele>
        <time>2026-08-30T14:16:19Z</time>
      </trkpt>
      <trkpt lat="59.243361270055" lon="17.681570257992">
        <ele>21.8</ele>
        <time>2026-08-30T14:16:21Z</time>
      </trkpt>
      <trkpt lat="59.243341991678" lon="17.681122329086">
        <ele>21.6</ele>
        <time>2026-08-30T14:16:25Z</time>
      </trkpt>
      <trkpt lat="59.24334090203" lon="17.681007161736">
        <ele>21.6</ele>
        <time>2026-08-30T14:16:26Z</time>
      </trkpt>
      <trkpt lat="59.243351966143" lon="17.680768445134">
        <ele>21.6</ele>
        <time>2026-08-30T14:16:28Z</time>
      </trkpt>
      <trkpt lat="59.243406448513" lon="17.680238038301">
        <ele>21.4</ele>
        <time>2026-08-30T14:16:32Z</time>
      </trkpt>
      <trkpt lat="59.243425140157" lon="17.680091271177">
        <ele>21.4</ele>
        <time>2026-08-30T14:16:33Z</time>
      </trkpt>
      <trkpt lat="59.243470653892" lon="17.679787427187">
        <ele>20.4</ele>
        <time>2026-08-30T14:16:35Z</time>
      </trkpt>
      <trkpt lat="59.243525220081" lon="17.679473524913">
        <ele>19.4</ele>
        <time>2026-08-30T14:16:37Z</time>
      </trkpt>
      <trkpt lat="59.243555981666" lon="17.679315526038">
        <ele>19</ele>
        <time>2026-08-30T14:16:38Z</time>
      </trkpt>
      <trkpt lat="59.243590515107" lon="17.67915694043">
        <ele>18.6</ele>
        <time>2026-08-30T14:16:39Z</time>
      </trkpt>
      <trkpt lat="59.243629574776" lon="17.678999109194">
        <ele>18</ele>
        <time>2026-08-30T14:16:40Z</time>
      </trkpt>
      <trkpt lat="59.243717920035" lon="17.678692499176">
        <ele>16.8</ele>
        <time>2026-08-30T14:16:42Z</time>
      </trkpt>
      <trkpt lat="59.243810791522" lon="17.678394690156">
        <ele>15.6</ele>
        <time>2026-08-30T14:16:44Z</time>
      </trkpt>
      <trkpt lat="59.243856808171" lon="17.678251191974">
        <ele>15.2</ele>
        <time>2026-08-30T14:16:45Z</time>
      </trkpt>
      <trkpt lat="59.244001396" lon="17.677845759317">
        <ele>14.2</ele>
        <time>2026-08-30T14:16:48Z</time>
      </trkpt>
      <trkpt lat="59.244094854221" lon="17.677583657205">
        <ele>12.6</ele>
        <time>2026-08-30T14:16:50Z</time>
      </trkpt>
      <trkpt lat="59.244233239442" lon="17.677195658907">
        <ele>11.6</ele>
        <time>2026-08-30T14:16:53Z</time>
      </trkpt>
      <trkpt lat="59.244441362098" lon="17.676566513255">
        <ele>11.4</ele>
        <time>2026-08-30T14:16:58Z</time>
      </trkpt>
      <trkpt lat="59.24455803819" lon="17.676214976236">
        <ele>11.4</ele>
        <time>2026-08-30T14:17:01Z</time>
      </trkpt>
      <trkpt lat="59.24488007091" lon="17.6753022708">
        <ele>12</ele>
        <time>2026-08-30T14:17:09Z</time>
      </trkpt>
      <trkpt lat="59.24491812475" lon="17.675183163956">
        <ele>12.4</ele>
        <time>2026-08-30T14:17:10Z</time>
      </trkpt>
      <trkpt lat="59.244952155277" lon="17.675061039627">
        <ele>12.6</ele>
        <time>2026-08-30T14:17:11Z</time>
      </trkpt>
      <trkpt lat="59.244990041479" lon="17.674943273887">
        <ele>13</ele>
        <time>2026-08-30T14:17:12Z</time>
      </trkpt>
      <trkpt lat="59.245033711195" lon="17.674828357995">
        <ele>13</ele>
        <time>2026-08-30T14:17:13Z</time>
      </trkpt>
      <trkpt lat="59.245287515223" lon="17.674103407189">
        <ele>13.2</ele>
        <time>2026-08-30T14:17:19Z</time>
      </trkpt>
      <trkpt lat="59.245367478579" lon="17.67372504808">
        <ele>13.4</ele>
        <time>2026-08-30T14:17:22Z</time>
      </trkpt>
      <trkpt lat="59.245410310104" lon="17.673493539914">
        <ele>13.8</ele>
        <time>2026-08-30T14:17:24Z</time>
      </trkpt>
      <trkpt lat="59.245422380045" lon="17.673397064209">
        <ele>13.6</ele>
        <time>2026-08-30T14:17:25Z</time>
      </trkpt>
      <trkpt lat="59.245392624289" lon="17.67324979417">
        <ele>13.8</ele>
        <time>2026-08-30T14:17:27Z</time>
      </trkpt>
      <trkpt lat="59.245304949582" lon="17.673213835806">
        <ele>13.8</ele>
        <time>2026-08-30T14:17:29Z</time>
      </trkpt>
      <trkpt lat="59.245254741982" lon="17.673211237416">
        <ele>13.8</ele>
        <time>2026-08-30T14:17:30Z</time>
      </trkpt>
      <trkpt lat="59.245149046183" lon="17.673215847462">
        <ele>13.8</ele>
        <time>2026-08-30T14:17:32Z</time>
      </trkpt>
      <trkpt lat="59.244862636551" lon="17.673189779744">
        <ele>12.6</ele>
        <time>2026-08-30T14:17:37Z</time>
      </trkpt>
      <trkpt lat="59.244803292677" lon="17.67317452468">
        <ele>11.8</ele>
        <time>2026-08-30T14:17:38Z</time>
      </trkpt>
      <trkpt lat="59.24474411644" lon="17.673155162483">
        <ele>11.4</ele>
        <time>2026-08-30T14:17:39Z</time>
      </trkpt>
      <trkpt lat="59.244501963258" lon="17.673028009012">
        <ele>10.8</ele>
        <time>2026-08-30T14:17:43Z</time>
      </trkpt>
      <trkpt lat="59.244439266622" lon="17.6729944814">
        <ele>10.8</ele>
        <time>2026-08-30T14:17:44Z</time>
      </trkpt>
      <trkpt lat="59.24431303516" lon="17.67291745171">
        <ele>10.6</ele>
        <time>2026-08-30T14:17:46Z</time>
      </trkpt>
      <trkpt lat="59.244117820635" lon="17.67282994464">
        <ele>10.4</ele>
        <time>2026-08-30T14:17:49Z</time>
      </trkpt>
      <trkpt lat="59.24393475987" lon="17.672883085907">
        <ele>10.2</ele>
        <time>2026-08-30T14:17:52Z</time>
      </trkpt>
      <trkpt lat="59.243880445138" lon="17.672934550792">
        <ele>10.4</ele>
        <time>2026-08-30T14:17:53Z</time>
      </trkpt>
      <trkpt lat="59.243671819568" lon="17.673164382577">
        <ele>11.2</ele>
        <time>2026-08-30T14:17:57Z</time>
      </trkpt>
      <trkpt lat="59.243395719677" lon="17.673348281533">
        <ele>12</ele>
        <time>2026-08-30T14:18:02Z</time>
      </trkpt>
      <trkpt lat="59.24321978353" lon="17.673424389213">
        <ele>12</ele>
        <time>2026-08-30T14:18:05Z</time>
      </trkpt>
      <trkpt lat="59.242977127433" lon="17.673530587927">
        <ele>12.2</ele>
        <time>2026-08-30T14:18:09Z</time>
      </trkpt>
      <trkpt lat="59.24272810109" lon="17.673637038097">
        <ele>12.4</ele>
        <time>2026-08-30T14:18:13Z</time>
      </trkpt>
      <trkpt lat="59.242552081123" lon="17.67373804003">
        <ele>12.6</ele>
        <time>2026-08-30T14:18:16Z</time>
      </trkpt>
      <trkpt lat="59.242416126654" lon="17.673915987834">
        <ele>12.6</ele>
        <time>2026-08-30T14:18:19Z</time>
      </trkpt>
      <trkpt lat="59.242285452783" lon="17.674297196791">
        <ele>13</ele>
        <time>2026-08-30T14:18:23Z</time>
      </trkpt>
      <trkpt lat="59.242248069495" lon="17.674401886761">
        <ele>13</ele>
        <time>2026-08-30T14:18:24Z</time>
      </trkpt>
      <trkpt lat="59.242108091712" lon="17.674852330238">
        <ele>13.2</ele>
        <time>2026-08-30T14:18:28Z</time>
      </trkpt>
      <trkpt lat="59.241965264082" lon="17.675290536135">
        <ele>13</ele>
        <time>2026-08-30T14:18:32Z</time>
      </trkpt>
      <trkpt lat="59.241764685139" lon="17.675910964608">
        <ele>12</ele>
        <time>2026-08-30T14:18:38Z</time>
      </trkpt>
      <trkpt lat="59.24153694883" lon="17.676622420549">
        <ele>11.6</ele>
        <time>2026-08-30T14:18:45Z</time>
      </trkpt>
      <trkpt lat="59.241297058761" lon="17.677424987778">
        <ele>11.8</ele>
        <time>2026-08-30T14:18:53Z</time>
      </trkpt>
      <trkpt lat="59.241203265265" lon="17.677828827873">
        <ele>11.8</ele>
        <time>2026-08-30T14:18:57Z</time>
      </trkpt>
      <trkpt lat="59.24115087837" lon="17.678029658273">
        <ele>12</ele>
        <time>2026-08-30T14:18:59Z</time>
      </trkpt>
      <trkpt lat="59.241113578901" lon="17.678128229454">
        <ele>12</ele>
        <time>2026-08-30T14:19:00Z</time>
      </trkpt>
      <trkpt lat="59.241018528119" lon="17.67828178592">
        <ele>12</ele>
        <time>2026-08-30T14:19:02Z</time>
      </trkpt>
      <trkpt lat="59.240842843428" lon="17.678348170593">
        <ele>12</ele>
        <time>2026-08-30T14:19:05Z</time>
      </trkpt>
      <trkpt lat="59.240783164278" lon="17.678345488384">
        <ele>12</ele>
        <time>2026-08-30T14:19:06Z</time>
      </trkpt>
      <trkpt lat="59.240630865097" lon="17.678279690444">
        <ele>11.8</ele>
        <time>2026-08-30T14:19:09Z</time>
      </trkpt>
      <trkpt lat="59.240482756868" lon="17.678079949692">
        <ele>11.8</ele>
        <time>2026-08-30T14:19:13Z</time>
      </trkpt>
      <trkpt lat="59.240426430479" lon="17.677966877818">
        <ele>11.6</ele>
        <time>2026-08-30T14:19:15Z</time>
      </trkpt>
      <trkpt lat="59.240345545113" lon="17.677803011611">
        <ele>11.6</ele>
        <time>2026-08-30T14:19:18Z</time>
      </trkpt>
      <trkpt lat="59.240268683061" lon="17.677638139576">
        <ele>12.8</ele>
        <time>2026-08-30T14:19:21Z</time>
      </trkpt>
      <trkpt lat="59.240241860971" lon="17.677573934197">
        <ele>13.2</ele>
        <time>2026-08-30T14:19:22Z</time>
      </trkpt>
      <trkpt lat="59.240167178214" lon="17.677369248122">
        <ele>14.4</ele>
        <time>2026-08-30T14:19:25Z</time>
      </trkpt>
      <trkpt lat="59.240147983655" lon="17.677295403555">
        <ele>15</ele>
        <time>2026-08-30T14:19:26Z</time>
      </trkpt>
      <trkpt lat="59.240133147687" lon="17.677221307531">
        <ele>15.4</ele>
        <time>2026-08-30T14:19:27Z</time>
      </trkpt>
      <trkpt lat="59.24012074247" lon="17.677147714421">
        <ele>15.8</ele>
        <time>2026-08-30T14:19:28Z</time>
      </trkpt>
      <trkpt lat="59.240062236786" lon="17.676765667275">
        <ele>16.6</ele>
        <time>2026-08-30T14:19:34Z</time>
      </trkpt>
      <trkpt lat="59.240048406646" lon="17.676701713353">
        <ele>16.8</ele>
        <time>2026-08-30T14:19:35Z</time>
      </trkpt>
      <trkpt lat="59.240031978115" lon="17.676634239033">
        <ele>17</ele>
        <time>2026-08-30T14:19:36Z</time>
      </trkpt>
      <trkpt lat="59.239990822971" lon="17.676513036713">
        <ele>18</ele>
        <time>2026-08-30T14:19:38Z</time>
      </trkpt>
      <trkpt lat="59.239961989224" lon="17.676465092227">
        <ele>18.4</ele>
        <time>2026-08-30T14:19:39Z</time>
      </trkpt>
      <trkpt lat="59.239821340889" lon="17.676328718662">
        <ele>18.8</ele>
        <time>2026-08-30T14:19:43Z</time>
      </trkpt>
      <trkpt lat="59.239781359211" lon="17.676302315667">
        <ele>18.8</ele>
        <time>2026-08-30T14:19:44Z</time>
      </trkpt>
      <trkpt lat="59.239700641483" lon="17.676248336211">
        <ele>19.2</ele>
        <time>2026-08-30T14:19:46Z</time>
      </trkpt>
      <trkpt lat="59.239577511325" lon="17.676175832748">
        <ele>19.6</ele>
        <time>2026-08-30T14:19:49Z</time>
      </trkpt>
      <trkpt lat="59.239481287077" lon="17.676124367863">
        <ele>19.6</ele>
        <time>2026-08-30T14:19:51Z</time>
      </trkpt>
      <trkpt lat="59.239430995658" lon="17.67609260045">
        <ele>19.6</ele>
        <time>2026-08-30T14:19:52Z</time>
      </trkpt>
      <trkpt lat="59.23923083581" lon="17.675982378423">
        <ele>19.6</ele>
        <time>2026-08-30T14:19:56Z</time>
      </trkpt>
      <trkpt lat="59.238915173337" lon="17.675840556622">
        <ele>19.6</ele>
        <time>2026-08-30T14:20:02Z</time>
      </trkpt>
      <trkpt lat="59.238659609109" lon="17.675769813359">
        <ele>19.4</ele>
        <time>2026-08-30T14:20:07Z</time>
      </trkpt>
      <trkpt lat="59.238510578871" lon="17.675722707063">
        <ele>19.4</ele>
        <time>2026-08-30T14:20:10Z</time>
      </trkpt>
      <trkpt lat="59.238275801763" lon="17.675584740937">
        <ele>19.2</ele>
        <time>2026-08-30T14:20:15Z</time>
      </trkpt>
      <trkpt lat="59.238188378513" lon="17.675499496982">
        <ele>19.2</ele>
        <time>2026-08-30T14:20:17Z</time>
      </trkpt>
      <trkpt lat="59.2380544357" lon="17.675343342125">
        <ele>19</ele>
        <time>2026-08-30T14:20:20Z</time>
      </trkpt>
      <trkpt lat="59.237880595028" lon="17.675111582503">
        <ele>19</ele>
        <time>2026-08-30T14:20:24Z</time>
      </trkpt>
      <trkpt lat="59.237621342763" lon="17.674682261422">
        <ele>19</ele>
        <time>2026-08-30T14:20:31Z</time>
      </trkpt>
      <trkpt lat="59.237371729687" lon="17.674271883443">
        <ele>20</ele>
        <time>2026-08-30T14:20:38Z</time>
      </trkpt>
      <trkpt lat="59.237332334742" lon="17.674212036654">
        <ele>20.2</ele>
        <time>2026-08-30T14:20:39Z</time>
      </trkpt>
      <trkpt lat="59.237051540986" lon="17.673760838807">
        <ele>20.8</ele>
        <time>2026-08-30T14:20:46Z</time>
      </trkpt>
      <trkpt lat="59.236887423322" lon="17.673429669812">
        <ele>21.2</ele>
        <time>2026-08-30T14:20:51Z</time>
      </trkpt>
      <trkpt lat="59.236768400297" lon="17.673180308193">
        <ele>21.4</ele>
        <time>2026-08-30T14:20:55Z</time>
      </trkpt>
      <trkpt lat="59.236617777497" lon="17.672875626013">
        <ele>22</ele>
        <time>2026-08-30T14:21:00Z</time>
      </trkpt>
      <trkpt lat="59.236588776112" lon="17.672814521939">
        <ele>22.2</ele>
        <time>2026-08-30T14:21:01Z</time>
      </trkpt>
      <trkpt lat="59.236505292356" lon="17.672634227201">
        <ele>22.4</ele>
        <time>2026-08-30T14:21:04Z</time>
      </trkpt>
      <trkpt lat="59.236404374242" lon="17.672407999635">
        <ele>22.8</ele>
        <time>2026-08-30T14:21:08Z</time>
      </trkpt>
      <trkpt lat="59.236359195784" lon="17.672290820628">
        <ele>23.4</ele>
        <time>2026-08-30T14:21:10Z</time>
      </trkpt>
      <trkpt lat="59.236290547997" lon="17.672099713236">
        <ele>24.8</ele>
        <time>2026-08-30T14:21:13Z</time>
      </trkpt>
      <trkpt lat="59.236199185252" lon="17.671811459586">
        <ele>26</ele>
        <time>2026-08-30T14:21:17Z</time>
      </trkpt>
      <trkpt lat="59.236010424793" lon="17.671104529873">
        <ele>26.6</ele>
        <time>2026-08-30T14:21:26Z</time>
      </trkpt>
      <trkpt lat="59.235991146415" lon="17.671032110229">
        <ele>26.6</ele>
        <time>2026-08-30T14:21:27Z</time>
      </trkpt>
      <trkpt lat="59.235865836963" lon="17.670421488583">
        <ele>26.8</ele>
        <time>2026-08-30T14:21:35Z</time>
      </trkpt>
      <trkpt lat="59.235815377906" lon="17.67000968568">
        <ele>28</ele>
        <time>2026-08-30T14:21:40Z</time>
      </trkpt>
      <trkpt lat="59.235804062337" lon="17.66985646449">
        <ele>28.4</ele>
        <time>2026-08-30T14:21:42Z</time>
      </trkpt>
      <trkpt lat="59.235782185569" lon="17.669651107863">
        <ele>29</ele>
        <time>2026-08-30T14:21:45Z</time>
      </trkpt>
      <trkpt lat="59.235759722069" lon="17.669467711821">
        <ele>29.6</ele>
        <time>2026-08-30T14:21:48Z</time>
      </trkpt>
      <trkpt lat="59.235741784796" lon="17.669271910563">
        <ele>30.2</ele>
        <time>2026-08-30T14:21:51Z</time>
      </trkpt>
      <trkpt lat="59.235715297982" lon="17.669020621106">
        <ele>31.2</ele>
        <time>2026-08-30T14:21:55Z</time>
      </trkpt>
      <trkpt lat="59.235619325191" lon="17.668509325013">
        <ele>32</ele>
        <time>2026-08-30T14:22:02Z</time>
      </trkpt>
      <trkpt lat="59.235494183376" lon="17.668141275644">
        <ele>32</ele>
        <time>2026-08-30T14:22:07Z</time>
      </trkpt>
      <trkpt lat="59.235439281911" lon="17.667999453843">
        <ele>32</ele>
        <time>2026-08-30T14:22:09Z</time>
      </trkpt>
      <trkpt lat="59.235279103741" lon="17.667646324262">
        <ele>30.2</ele>
        <time>2026-08-30T14:22:14Z</time>
      </trkpt>
      <trkpt lat="59.235214060172" lon="17.667493103072">
        <ele>29.8</ele>
        <time>2026-08-30T14:22:16Z</time>
      </trkpt>
      <trkpt lat="59.235115321353" lon="17.667257236317">
        <ele>29.4</ele>
        <time>2026-08-30T14:22:19Z</time>
      </trkpt>
      <trkpt lat="59.235014989972" lon="17.667013071477">
        <ele>29.4</ele>
        <time>2026-08-30T14:22:22Z</time>
      </trkpt>
      <trkpt lat="59.234914658591" lon="17.666773349047">
        <ele>29.4</ele>
        <time>2026-08-30T14:22:25Z</time>
      </trkpt>
      <trkpt lat="59.234843915328" lon="17.666622642428">
        <ele>29.2</ele>
        <time>2026-08-30T14:22:27Z</time>
      </trkpt>
      <trkpt lat="59.234766969457" lon="17.666482497007">
        <ele>29</ele>
        <time>2026-08-30T14:22:29Z</time>
      </trkpt>
      <trkpt lat="59.234682898968" lon="17.666364731267">
        <ele>29</ele>
        <time>2026-08-30T14:22:31Z</time>
      </trkpt>
      <trkpt lat="59.234638977796" lon="17.666305722669">
        <ele>28.8</ele>
        <time>2026-08-30T14:22:32Z</time>
      </trkpt>
      <trkpt lat="59.234454408288" lon="17.666103551164">
        <ele>28.8</ele>
        <time>2026-08-30T14:22:36Z</time>
      </trkpt>
      <trkpt lat="59.234306300059" lon="17.665970446542">
        <ele>28.8</ele>
        <time>2026-08-30T14:22:39Z</time>
      </trkpt>
      <trkpt lat="59.233850659803" lon="17.665594182909">
        <ele>28.8</ele>
        <time>2026-08-30T14:22:48Z</time>
      </trkpt>
      <trkpt lat="59.233807744458" lon="17.665531653911">
        <ele>28.8</ele>
        <time>2026-08-30T14:22:49Z</time>
      </trkpt>
      <trkpt lat="59.233700959012" lon="17.665335517377">
        <ele>29.4</ele>
        <time>2026-08-30T14:22:52Z</time>
      </trkpt>
      <trkpt lat="59.233671454713" lon="17.66527030617">
        <ele>29.6</ele>
        <time>2026-08-30T14:22:53Z</time>
      </trkpt>
      <trkpt lat="59.233646728098" lon="17.665202245116">
        <ele>29.6</ele>
        <time>2026-08-30T14:22:54Z</time>
      </trkpt>
      <trkpt lat="59.233604734764" lon="17.665058327839">
        <ele>30</ele>
        <time>2026-08-30T14:22:56Z</time>
      </trkpt>
      <trkpt lat="59.233564250171" lon="17.664903011173">
        <ele>30.6</ele>
        <time>2026-08-30T14:22:58Z</time>
      </trkpt>
      <trkpt lat="59.233524436131" lon="17.664729170501">
        <ele>31.4</ele>
        <time>2026-08-30T14:23:00Z</time>
      </trkpt>
      <trkpt lat="59.233453441411" lon="17.664423147216">
        <ele>31.6</ele>
        <time>2026-08-30T14:23:03Z</time>
      </trkpt>
      <trkpt lat="59.233367443085" lon="17.663734573871">
        <ele>31</ele>
        <time>2026-08-30T14:23:09Z</time>
      </trkpt>
      <trkpt lat="59.233361994848" lon="17.663498790935">
        <ele>30.2</ele>
        <time>2026-08-30T14:23:11Z</time>
      </trkpt>
      <trkpt lat="59.233380015939" lon="17.662998139858">
        <ele>29.6</ele>
        <time>2026-08-30T14:23:15Z</time>
      </trkpt>
      <trkpt lat="59.233403569087" lon="17.662616847083">
        <ele>29.2</ele>
        <time>2026-08-30T14:23:18Z</time>
      </trkpt>
      <trkpt lat="59.23343969509" lon="17.661999268457">
        <ele>28.6</ele>
        <time>2026-08-30T14:23:23Z</time>
      </trkpt>
      <trkpt lat="59.233447909355" lon="17.661745799705">
        <ele>28.6</ele>
        <time>2026-08-30T14:23:25Z</time>
      </trkpt>
      <trkpt lat="59.233445897698" lon="17.661356292665">
        <ele>28.2</ele>
        <time>2026-08-30T14:23:28Z</time>
      </trkpt>
      <trkpt lat="59.233428044245" lon="17.660834016278">
        <ele>28</ele>
        <time>2026-08-30T14:23:32Z</time>
      </trkpt>
      <trkpt lat="59.233407173306" lon="17.659815279767">
        <ele>28</ele>
        <time>2026-08-30T14:23:40Z</time>
      </trkpt>
      <trkpt lat="59.233459727839" lon="17.659051436931">
        <ele>28</ele>
        <time>2026-08-30T14:23:46Z</time>
      </trkpt>
      <trkpt lat="59.233513874933" lon="17.658544331789">
        <ele>28</ele>
        <time>2026-08-30T14:23:50Z</time>
      </trkpt>
      <trkpt lat="59.233571793884" lon="17.65804560855">
        <ele>28</ele>
        <time>2026-08-30T14:23:54Z</time>
      </trkpt>
      <trkpt lat="59.233679585159" lon="17.657309090719">
        <ele>28</ele>
        <time>2026-08-30T14:24:00Z</time>
      </trkpt>
      <trkpt lat="59.233710849658" lon="17.65719383955">
        <ele>28</ele>
        <time>2026-08-30T14:24:01Z</time>
      </trkpt>
      <trkpt lat="59.233915871009" lon="17.656714981422">
        <ele>28.2</ele>
        <time>2026-08-30T14:24:06Z</time>
      </trkpt>
      <trkpt lat="59.233990469947" lon="17.656528567895">
        <ele>28.2</ele>
        <time>2026-08-30T14:24:08Z</time>
      </trkpt>
      <trkpt lat="59.234092226252" lon="17.656402839348">
        <ele>28.4</ele>
        <time>2026-08-30T14:24:10Z</time>
      </trkpt>
      <trkpt lat="59.234423646703" lon="17.656126739457">
        <ele>28.6</ele>
        <time>2026-08-30T14:24:16Z</time>
      </trkpt>
      <trkpt lat="59.234727909788" lon="17.655764808878">
        <ele>29</ele>
        <time>2026-08-30T14:24:22Z</time>
      </trkpt>
      <trkpt lat="59.234808459878" lon="17.65549717471">
        <ele>29</ele>
        <time>2026-08-30T14:24:25Z</time>
      </trkpt>
      <trkpt lat="59.234822038561" lon="17.65529550612">
        <ele>29.2</ele>
        <time>2026-08-30T14:24:27Z</time>
      </trkpt>
      <trkpt lat="59.234825810418" lon="17.65508688055">
        <ele>29.2</ele>
        <time>2026-08-30T14:24:29Z</time>
      </trkpt>
      <trkpt lat="59.23482731916" lon="17.65486786142">
        <ele>29.4</ele>
        <time>2026-08-30T14:24:31Z</time>
      </trkpt>
      <trkpt lat="59.2348446697" lon="17.654115920886">
        <ele>29.6</ele>
        <time>2026-08-30T14:24:38Z</time>
      </trkpt>
      <trkpt lat="59.234861852601" lon="17.653368171304">
        <ele>29.6</ele>
        <time>2026-08-30T14:24:44Z</time>
      </trkpt>
      <trkpt lat="59.234897643328" lon="17.652458231896">
        <ele>29</ele>
        <time>2026-08-30T14:24:51Z</time>
      </trkpt>
      <trkpt lat="59.235051870346" lon="17.651630435139">
        <ele>29</ele>
        <time>2026-08-30T14:24:58Z</time>
      </trkpt>
      <trkpt lat="59.235235434026" lon="17.650750922039">
        <ele>29</ele>
        <time>2026-08-30T14:25:06Z</time>
      </trkpt>
      <trkpt lat="59.235260663554" lon="17.650639945641">
        <ele>29</ele>
        <time>2026-08-30T14:25:07Z</time>
      </trkpt>
      <trkpt lat="59.235343812034" lon="17.650155806914">
        <ele>28.8</ele>
        <time>2026-08-30T14:25:11Z</time>
      </trkpt>
      <trkpt lat="59.235349763185" lon="17.650032257661">
        <ele>28.8</ele>
        <time>2026-08-30T14:25:12Z</time>
      </trkpt>
      <trkpt lat="59.235338866711" lon="17.649562871084">
        <ele>28.4</ele>
        <time>2026-08-30T14:25:16Z</time>
      </trkpt>
      <trkpt lat="59.235341800377" lon="17.649447452277">
        <ele>28</ele>
        <time>2026-08-30T14:25:17Z</time>
      </trkpt>
      <trkpt lat="59.235414639115" lon="17.649166826159">
        <ele>27.6</ele>
        <time>2026-08-30T14:25:20Z</time>
      </trkpt>
      <trkpt lat="59.235583953559" lon="17.648920230567">
        <ele>27.6</ele>
        <time>2026-08-30T14:25:24Z</time>
      </trkpt>
      <trkpt lat="59.23562888056" lon="17.648727027699">
        <ele>27.6</ele>
        <time>2026-08-30T14:25:26Z</time>
      </trkpt>
      <trkpt lat="59.235688894987" lon="17.648423435166">
        <ele>28.8</ele>
        <time>2026-08-30T14:25:29Z</time>
      </trkpt>
      <trkpt lat="59.235707083717" lon="17.648314638063">
        <ele>29</ele>
        <time>2026-08-30T14:25:30Z</time>
      </trkpt>
      <trkpt lat="59.235721416771" lon="17.648203494027">
        <ele>29.2</ele>
        <time>2026-08-30T14:25:31Z</time>
      </trkpt>
      <trkpt lat="59.235721249133" lon="17.647986989468">
        <ele>29.4</ele>
        <time>2026-08-30T14:25:33Z</time>
      </trkpt>
      <trkpt lat="59.235691912472" lon="17.647765791044">
        <ele>29.4</ele>
        <time>2026-08-30T14:25:35Z</time>
      </trkpt>
      <trkpt lat="59.235638268292" lon="17.647437388077">
        <ele>29.4</ele>
        <time>2026-08-30T14:25:38Z</time>
      </trkpt>
      <trkpt lat="59.23562284559" lon="17.647329345345">
        <ele>29.4</ele>
        <time>2026-08-30T14:25:39Z</time>
      </trkpt>
      <trkpt lat="59.235587557778" lon="17.647126670927">
        <ele>29.4</ele>
        <time>2026-08-30T14:25:41Z</time>
      </trkpt>
      <trkpt lat="59.235530057922" lon="17.646722579375">
        <ele>29.4</ele>
        <time>2026-08-30T14:25:45Z</time>
      </trkpt>
      <trkpt lat="59.235518742353" lon="17.646622164175">
        <ele>29.4</ele>
        <time>2026-08-30T14:25:46Z</time>
      </trkpt>
      <trkpt lat="59.235420757905" lon="17.645993689075">
        <ele>29.8</ele>
        <time>2026-08-30T14:25:52Z</time>
      </trkpt>
      <trkpt lat="59.235404664651" lon="17.645890340209">
        <ele>30</ele>
        <time>2026-08-30T14:25:53Z</time>
      </trkpt>
      <trkpt lat="59.235303075984" lon="17.645159857348">
        <ele>30.2</ele>
        <time>2026-08-30T14:26:00Z</time>
      </trkpt>
      <trkpt lat="59.235225208104" lon="17.644603131339">
        <ele>30.2</ele>
        <time>2026-08-30T14:26:06Z</time>
      </trkpt>
      <trkpt lat="59.23515798524" lon="17.64414941892">
        <ele>31.2</ele>
        <time>2026-08-30T14:26:12Z</time>
      </trkpt>
      <trkpt lat="59.235120601952" lon="17.643833085895">
        <ele>31.8</ele>
        <time>2026-08-30T14:26:16Z</time>
      </trkpt>
      <trkpt lat="59.23510610126" lon="17.643555393443">
        <ele>32.2</ele>
        <time>2026-08-30T14:26:19Z</time>
      </trkpt>
      <trkpt lat="59.235103335232" lon="17.643460929394">
        <ele>32.2</ele>
        <time>2026-08-30T14:26:20Z</time>
      </trkpt>
      <trkpt lat="59.235091181472" lon="17.643100759014">
        <ele>33</ele>
        <time>2026-08-30T14:26:24Z</time>
      </trkpt>
      <trkpt lat="59.235082129017" lon="17.642735056579">
        <ele>33.4</ele>
        <time>2026-08-30T14:26:28Z</time>
      </trkpt>
      <trkpt lat="59.235055726022" lon="17.642048411071">
        <ele>34.2</ele>
        <time>2026-08-30T14:26:36Z</time>
      </trkpt>
      <trkpt lat="59.235051702708" lon="17.641955371946">
        <ele>34.4</ele>
        <time>2026-08-30T14:26:37Z</time>
      </trkpt>
      <trkpt lat="59.235026473179" lon="17.641412224621">
        <ele>34.8</ele>
        <time>2026-08-30T14:26:43Z</time>
      </trkpt>
      <trkpt lat="59.234988754615" lon="17.640752317384">
        <ele>35.4</ele>
        <time>2026-08-30T14:26:51Z</time>
      </trkpt>
      <trkpt lat="59.234953466803" lon="17.640236243606">
        <ele>36.2</ele>
        <time>2026-08-30T14:26:58Z</time>
      </trkpt>
      <trkpt lat="59.234937625006" lon="17.639797450975">
        <ele>37.4</ele>
        <time>2026-08-30T14:27:04Z</time>
      </trkpt>
      <trkpt lat="59.234934104607" lon="17.639726456255">
        <ele>37.4</ele>
        <time>2026-08-30T14:27:05Z</time>
      </trkpt>
      <trkpt lat="59.234915915877" lon="17.639371817932">
        <ele>38.6</ele>
        <time>2026-08-30T14:27:10Z</time>
      </trkpt>
      <trkpt lat="59.234900744632" lon="17.639154391363">
        <ele>39.2</ele>
        <time>2026-08-30T14:27:13Z</time>
      </trkpt>
      <trkpt lat="59.234876520932" lon="17.63868978247">
        <ele>39.4</ele>
        <time>2026-08-30T14:27:19Z</time>
      </trkpt>
      <trkpt lat="59.234876269475" lon="17.638603867963">
        <ele>39.4</ele>
        <time>2026-08-30T14:27:20Z</time>
      </trkpt>
      <trkpt lat="59.234868641943" lon="17.638215366751">
        <ele>39.4</ele>
        <time>2026-08-30T14:27:24Z</time>
      </trkpt>
      <trkpt lat="59.234835449606" lon="17.637611450627">
        <ele>38</ele>
        <time>2026-08-30T14:27:30Z</time>
      </trkpt>
      <trkpt lat="59.23481348902" lon="17.63697149232">
        <ele>37.6</ele>
        <time>2026-08-30T14:27:37Z</time>
      </trkpt>
      <trkpt lat="59.234802676365" lon="17.636789940298">
        <ele>37.6</ele>
        <time>2026-08-30T14:27:39Z</time>
      </trkpt>
      <trkpt lat="59.234796557575" lon="17.636607130989">
        <ele>37.6</ele>
        <time>2026-08-30T14:27:41Z</time>
      </trkpt>
      <trkpt lat="59.234789432958" lon="17.636521132663">
        <ele>38</ele>
        <time>2026-08-30T14:27:42Z</time>
      </trkpt>
      <trkpt lat="59.234760850668" lon="17.636074796319">
        <ele>39</ele>
        <time>2026-08-30T14:27:47Z</time>
      </trkpt>
      <trkpt lat="59.23474685289" lon="17.635925263166">
        <ele>39.2</ele>
        <time>2026-08-30T14:27:49Z</time>
      </trkpt>
      <trkpt lat="59.234711648896" lon="17.635740023106">
        <ele>39.6</ele>
        <time>2026-08-30T14:27:52Z</time>
      </trkpt>
      <trkpt lat="59.234669571742" lon="17.63561588712">
        <ele>40</ele>
        <time>2026-08-30T14:27:54Z</time>
      </trkpt>
      <trkpt lat="59.234605366364" lon="17.635383792222">
        <ele>40.8</ele>
        <time>2026-08-30T14:27:58Z</time>
      </trkpt>
      <trkpt lat="59.234591787681" lon="17.635335177183">
        <ele>41.2</ele>
        <time>2026-08-30T14:27:59Z</time>
      </trkpt>
      <trkpt lat="59.234515763819" lon="17.635065950453">
        <ele>42</ele>
        <time>2026-08-30T14:28:05Z</time>
      </trkpt>
      <trkpt lat="59.234502268955" lon="17.63502730988">
        <ele>42.4</ele>
        <time>2026-08-30T14:28:06Z</time>
      </trkpt>
      <trkpt lat="59.234448373318" lon="17.634857324883">
        <ele>43</ele>
        <time>2026-08-30T14:28:10Z</time>
      </trkpt>
      <trkpt lat="59.234434878454" lon="17.634809799492">
        <ele>43.2</ele>
        <time>2026-08-30T14:28:11Z</time>
      </trkpt>
      <trkpt lat="59.234348544851" lon="17.634551301599">
        <ele>44.2</ele>
        <time>2026-08-30T14:28:17Z</time>
      </trkpt>
      <trkpt lat="59.234335888177" lon="17.63450444676">
        <ele>44.2</ele>
        <time>2026-08-30T14:28:18Z</time>
      </trkpt>
      <trkpt lat="59.234285177663" lon="17.634345777333">
        <ele>45.2</ele>
        <time>2026-08-30T14:28:22Z</time>
      </trkpt>
      <trkpt lat="59.234220637009" lon="17.63418501243">
        <ele>45.6</ele>
        <time>2026-08-30T14:28:26Z</time>
      </trkpt>
      <trkpt lat="59.234143272042" lon="17.633985439315">
        <ele>46.4</ele>
        <time>2026-08-30T14:28:30Z</time>
      </trkpt>
      <trkpt lat="59.234122065827" lon="17.633933303878">
        <ele>46.6</ele>
        <time>2026-08-30T14:28:31Z</time>
      </trkpt>
      <trkpt lat="59.234088286757" lon="17.633828781545">
        <ele>47</ele>
        <time>2026-08-30T14:28:33Z</time>
      </trkpt>
      <trkpt lat="59.233999522403" lon="17.633587298915">
        <ele>47.4</ele>
        <time>2026-08-30T14:28:37Z</time>
      </trkpt>
      <trkpt lat="59.233973538503" lon="17.633512951434">
        <ele>47.4</ele>
        <time>2026-08-30T14:28:38Z</time>
      </trkpt>
      <trkpt lat="59.233919391409" lon="17.633354952559">
        <ele>47.4</ele>
        <time>2026-08-30T14:28:40Z</time>
      </trkpt>
      <trkpt lat="59.233871866018" lon="17.633174154907">
        <ele>47.6</ele>
        <time>2026-08-30T14:28:42Z</time>
      </trkpt>
      <trkpt lat="59.23385694623" lon="17.633064687252">
        <ele>47.6</ele>
        <time>2026-08-30T14:28:43Z</time>
      </trkpt>
      <trkpt lat="59.233848061413" lon="17.632937533781">
        <ele>47.6</ele>
        <time>2026-08-30T14:28:44Z</time>
      </trkpt>
      <trkpt lat="59.233851162717" lon="17.632655315101">
        <ele>47.4</ele>
        <time>2026-08-30T14:28:46Z</time>
      </trkpt>
      <trkpt lat="59.233883013949" lon="17.632366977632">
        <ele>46.6</ele>
        <time>2026-08-30T14:28:48Z</time>
      </trkpt>
      <trkpt lat="59.233907489106" lon="17.632221467793">
        <ele>46.2</ele>
        <time>2026-08-30T14:28:49Z</time>
      </trkpt>
      <trkpt lat="59.233961552382" lon="17.631932208315">
        <ele>45.2</ele>
        <time>2026-08-30T14:28:51Z</time>
      </trkpt>
      <trkpt lat="59.233984267339" lon="17.631797343493">
        <ele>44.4</ele>
        <time>2026-08-30T14:28:52Z</time>
      </trkpt>
      <trkpt lat="59.233997762203" lon="17.631675554439">
        <ele>43.8</ele>
        <time>2026-08-30T14:28:53Z</time>
      </trkpt>
      <trkpt lat="59.234003126621" lon="17.631570361555">
        <ele>43</ele>
        <time>2026-08-30T14:28:54Z</time>
      </trkpt>
      <trkpt lat="59.233990637586" lon="17.631397107616">
        <ele>42.2</ele>
        <time>2026-08-30T14:28:56Z</time>
      </trkpt>
      <trkpt lat="59.233978819102" lon="17.631316054612">
        <ele>42</ele>
        <time>2026-08-30T14:28:57Z</time>
      </trkpt>
      <trkpt lat="59.233959876001" lon="17.63123399578">
        <ele>42</ele>
        <time>2026-08-30T14:28:58Z</time>
      </trkpt>
      <trkpt lat="59.233886953443" lon="17.630970468745">
        <ele>41.6</ele>
        <time>2026-08-30T14:29:01Z</time>
      </trkpt>
      <trkpt lat="59.233862059191" lon="17.630890002474">
        <ele>41.4</ele>
        <time>2026-08-30T14:29:02Z</time>
      </trkpt>
      <trkpt lat="59.233756614849" lon="17.630715742707">
        <ele>41.2</ele>
        <time>2026-08-30T14:29:05Z</time>
      </trkpt>
      <trkpt lat="59.233668185771" lon="17.630634941161">
        <ele>41.2</ele>
        <time>2026-08-30T14:29:07Z</time>
      </trkpt>
      <trkpt lat="59.233622755855" lon="17.630597306415">
        <ele>41.2</ele>
        <time>2026-08-30T14:29:08Z</time>
      </trkpt>
      <trkpt lat="59.23352887854" lon="17.630534190685">
        <ele>41.2</ele>
        <time>2026-08-30T14:29:10Z</time>
      </trkpt>
      <trkpt lat="59.23348646611" lon="17.630489850417">
        <ele>41.2</ele>
        <time>2026-08-30T14:29:11Z</time>
      </trkpt>
      <trkpt lat="59.233420500532" lon="17.630358422175">
        <ele>41</ele>
        <time>2026-08-30T14:29:13Z</time>
      </trkpt>
      <trkpt lat="59.233371885493" lon="17.63020914048">
        <ele>41</ele>
        <time>2026-08-30T14:29:15Z</time>
      </trkpt>
      <trkpt lat="59.233346907422" lon="17.630140492693">
        <ele>41</ele>
        <time>2026-08-30T14:29:16Z</time>
      </trkpt>
      <trkpt lat="59.233277002349" lon="17.62993815355">
        <ele>41</ele>
        <time>2026-08-30T14:29:19Z</time>
      </trkpt>
      <trkpt lat="59.233211707324" lon="17.629759451374">
        <ele>41</ele>
        <time>2026-08-30T14:29:22Z</time>
      </trkpt>
      <trkpt lat="59.23317826353" lon="17.629660461098">
        <ele>41.2</ele>
        <time>2026-08-30T14:29:26Z</time>
      </trkpt>
      <trkpt lat="59.233161583543" lon="17.629623832181">
        <ele>41.4</ele>
        <time>2026-08-30T14:29:28Z</time>
      </trkpt>
      <trkpt lat="59.233137527481" lon="17.629570188001">
        <ele>41.4</ele>
        <time>2026-08-30T14:29:30Z</time>
      </trkpt>
      <trkpt lat="59.233097964898" lon="17.629468850791">
        <ele>41.8</ele>
        <time>2026-08-30T14:29:33Z</time>
      </trkpt>
      <trkpt lat="59.233055887744" lon="17.629362232983">
        <ele>41.8</ele>
        <time>2026-08-30T14:29:36Z</time>
      </trkpt>
      <trkpt lat="59.232980953529" lon="17.629143213853">
        <ele>42</ele>
        <time>2026-08-30T14:29:42Z</time>
      </trkpt>
      <trkpt lat="59.23297659494" lon="17.629089988768">
        <ele>42</ele>
        <time>2026-08-30T14:29:44Z</time>
      </trkpt>
      <trkpt lat="59.232991682366" lon="17.629036428407">
        <ele>42</ele>
        <time>2026-08-30T14:29:46Z</time>
      </trkpt>
      <trkpt lat="59.232996795326" lon="17.629012372345">
        <ele>42</ele>
        <time>2026-08-30T14:29:47Z</time>
      </trkpt>
      <trkpt lat="59.232994532213" lon="17.628918327391">
        <ele>42.2</ele>
        <time>2026-08-30T14:29:51Z</time>
      </trkpt>
      <trkpt lat="59.23299562186" lon="17.628905670717">
        <ele>42.4</ele>
        <time>2026-08-30T14:29:53Z</time>
      </trkpt>
      <trkpt lat="59.233010541648" lon="17.629085965455">
        <ele>42.4</ele>
        <time>2026-08-30T14:30:04Z</time>
      </trkpt>
      <trkpt lat="59.233020180836" lon="17.629110859707">
        <ele>42.4</ele>
        <time>2026-08-30T14:30:05Z</time>
      </trkpt>
      <trkpt lat="59.233079189435" lon="17.629277156666">
        <ele>42.4</ele>
        <time>2026-08-30T14:30:09Z</time>
      </trkpt>
      <trkpt lat="59.23310383223" lon="17.629367597401">
        <ele>42.4</ele>
        <time>2026-08-30T14:30:11Z</time>
      </trkpt>
      <trkpt lat="59.233177006245" lon="17.629571361467">
        <ele>42.2</ele>
        <time>2026-08-30T14:30:16Z</time>
      </trkpt>
      <trkpt lat="59.233189830557" lon="17.629605224356">
        <ele>42.2</ele>
        <time>2026-08-30T14:30:18Z</time>
      </trkpt>
      <trkpt lat="59.233251772821" lon="17.629759619012">
        <ele>42.4</ele>
        <time>2026-08-30T14:30:34Z</time>
      </trkpt>
      <trkpt lat="59.233268704265" lon="17.6297987625">
        <ele>42.4</ele>
        <time>2026-08-30T14:30:35Z</time>
      </trkpt>
      <trkpt lat="59.233354618773" lon="17.630079807714">
        <ele>42.4</ele>
        <time>2026-08-30T14:30:40Z</time>
      </trkpt>
      <trkpt lat="59.233429888263" lon="17.630324894562">
        <ele>42</ele>
        <time>2026-08-30T14:30:44Z</time>
      </trkpt>
      <trkpt lat="59.23347691074" lon="17.630427572876">
        <ele>41.8</ele>
        <time>2026-08-30T14:30:46Z</time>
      </trkpt>
      <trkpt lat="59.233671119437" lon="17.630629409105">
        <ele>41.6</ele>
        <time>2026-08-30T14:30:52Z</time>
      </trkpt>
      <trkpt lat="59.233842948452" lon="17.630841219798">
        <ele>41.6</ele>
        <time>2026-08-30T14:30:58Z</time>
      </trkpt>
      <trkpt lat="59.233849653974" lon="17.630899306387">
        <ele>41.6</ele>
        <time>2026-08-30T14:30:59Z</time>
      </trkpt>
      <trkpt lat="59.233785616234" lon="17.631021514535">
        <ele>41.8</ele>
        <time>2026-08-30T14:31:02Z</time>
      </trkpt>
      <trkpt lat="59.233746472746" lon="17.631043056026">
        <ele>41.8</ele>
        <time>2026-08-30T14:31:03Z</time>
      </trkpt>
      <trkpt lat="59.233702803031" lon="17.631070297211">
        <ele>41.8</ele>
        <time>2026-08-30T14:31:04Z</time>
      </trkpt>
      <trkpt lat="59.233569949865" lon="17.63117691502">
        <ele>41.8</ele>
        <time>2026-08-30T14:31:07Z</time>
      </trkpt>
      <trkpt lat="59.233263256028" lon="17.631437927485">
        <ele>41.8</ele>
        <time>2026-08-30T14:31:13Z</time>
      </trkpt>
      <trkpt lat="59.232886992395" lon="17.63176289387">
        <ele>41.2</ele>
        <time>2026-08-30T14:31:20Z</time>
      </trkpt>
      <trkpt lat="59.232722204179" lon="17.631903961301">
        <ele>41</ele>
        <time>2026-08-30T14:31:23Z</time>
      </trkpt>
      <trkpt lat="59.232556158677" lon="17.632047291845">
        <ele>41</ele>
        <time>2026-08-30T14:31:26Z</time>
      </trkpt>
      <trkpt lat="59.232272431254" lon="17.632286092266">
        <ele>40.8</ele>
        <time>2026-08-30T14:31:31Z</time>
      </trkpt>
      <trkpt lat="59.231935394928" lon="17.632583482191">
        <ele>40.4</ele>
        <time>2026-08-30T14:31:37Z</time>
      </trkpt>
      <trkpt lat="59.231497943401" lon="17.633015904576">
        <ele>40.4</ele>
        <time>2026-08-30T14:31:45Z</time>
      </trkpt>
      <trkpt lat="59.231223100796" lon="17.63326912187">
        <ele>40.8</ele>
        <time>2026-08-30T14:31:50Z</time>
      </trkpt>
      <trkpt lat="59.230845998973" lon="17.633533068001">
        <ele>41</ele>
        <time>2026-08-30T14:31:57Z</time>
      </trkpt>
      <trkpt lat="59.230680456385" lon="17.633621748537">
        <ele>41.2</ele>
        <time>2026-08-30T14:32:00Z</time>
      </trkpt>
      <trkpt lat="59.230507118627" lon="17.633684864268">
        <ele>41.2</ele>
        <time>2026-08-30T14:32:03Z</time>
      </trkpt>
      <trkpt lat="59.230106715113" lon="17.633743202314">
        <ele>41.4</ele>
        <time>2026-08-30T14:32:10Z</time>
      </trkpt>
      <trkpt lat="59.22999096103" lon="17.633742531762">
        <ele>41.4</ele>
        <time>2026-08-30T14:32:12Z</time>
      </trkpt>
      <trkpt lat="59.229820640758" lon="17.633710093796">
        <ele>41.6</ele>
        <time>2026-08-30T14:32:15Z</time>
      </trkpt>
      <trkpt lat="59.229491399601" lon="17.633641781285">
        <ele>41.8</ele>
        <time>2026-08-30T14:32:21Z</time>
      </trkpt>
      <trkpt lat="59.229437587783" lon="17.633630046621">
        <ele>42</ele>
        <time>2026-08-30T14:32:22Z</time>
      </trkpt>
      <trkpt lat="59.229070628062" lon="17.633577240631">
        <ele>42.2</ele>
        <time>2026-08-30T14:32:29Z</time>
      </trkpt>
      <trkpt lat="59.228961579502" lon="17.633576821536">
        <ele>42.4</ele>
        <time>2026-08-30T14:32:31Z</time>
      </trkpt>
      <trkpt lat="59.228743733838" lon="17.633598782122">
        <ele>43</ele>
        <time>2026-08-30T14:32:35Z</time>
      </trkpt>
      <trkpt lat="59.228527899832" lon="17.633647229522">
        <ele>43.8</ele>
        <time>2026-08-30T14:32:39Z</time>
      </trkpt>
      <trkpt lat="59.228423461318" lon="17.633679332212">
        <ele>44.2</ele>
        <time>2026-08-30T14:32:41Z</time>
      </trkpt>
      <trkpt lat="59.228371577337" lon="17.633695844561">
        <ele>44.4</ele>
        <time>2026-08-30T14:32:42Z</time>
      </trkpt>
      <trkpt lat="59.227966396138" lon="17.633913103491">
        <ele>45.2</ele>
        <time>2026-08-30T14:32:50Z</time>
      </trkpt>
      <trkpt lat="59.227916272357" lon="17.633945457637">
        <ele>45.2</ele>
        <time>2026-08-30T14:32:51Z</time>
      </trkpt>
      <trkpt lat="59.227567752823" lon="17.634181827307">
        <ele>46</ele>
        <time>2026-08-30T14:32:58Z</time>
      </trkpt>
      <trkpt lat="59.227377148345" lon="17.634307555854">
        <ele>46.4</ele>
        <time>2026-08-30T14:33:02Z</time>
      </trkpt>
      <trkpt lat="59.227282600477" lon="17.634378634393">
        <ele>46.4</ele>
        <time>2026-08-30T14:33:04Z</time>
      </trkpt>
      <trkpt lat="59.2272390984" lon="17.634422807023">
        <ele>46.4</ele>
        <time>2026-08-30T14:33:05Z</time>
      </trkpt>
      <trkpt lat="59.22719316557" lon="17.634463291615">
        <ele>46.6</ele>
        <time>2026-08-30T14:33:06Z</time>
      </trkpt>
      <trkpt lat="59.226946569979" lon="17.634645346552">
        <ele>46.6</ele>
        <time>2026-08-30T14:33:11Z</time>
      </trkpt>
      <trkpt lat="59.226638451219" lon="17.634904431179">
        <ele>46.2</ele>
        <time>2026-08-30T14:33:17Z</time>
      </trkpt>
      <trkpt lat="59.226226732135" lon="17.635256554931">
        <ele>45.2</ele>
        <time>2026-08-30T14:33:24Z</time>
      </trkpt>
      <trkpt lat="59.226105445996" lon="17.63535537757">
        <ele>45.2</ele>
        <time>2026-08-30T14:33:26Z</time>
      </trkpt>
      <trkpt lat="59.225987931713" lon="17.635472137481">
        <ele>45</ele>
        <time>2026-08-30T14:33:28Z</time>
      </trkpt>
      <trkpt lat="59.225924648345" lon="17.635527960956">
        <ele>45</ele>
        <time>2026-08-30T14:33:29Z</time>
      </trkpt>
      <trkpt lat="59.225534219295" lon="17.635848401114">
        <ele>44</ele>
        <time>2026-08-30T14:33:35Z</time>
      </trkpt>
      <trkpt lat="59.225403377786" lon="17.63595267199">
        <ele>43.8</ele>
        <time>2026-08-30T14:33:37Z</time>
      </trkpt>
      <trkpt lat="59.225144041702" lon="17.636166242883">
        <ele>42.4</ele>
        <time>2026-08-30T14:33:41Z</time>
      </trkpt>
      <trkpt lat="59.224945893511" lon="17.636307980865">
        <ele>41.4</ele>
        <time>2026-08-30T14:33:44Z</time>
      </trkpt>
      <trkpt lat="59.224881520495" lon="17.636356092989">
        <ele>41.2</ele>
        <time>2026-08-30T14:33:45Z</time>
      </trkpt>
      <trkpt lat="59.224754283205" lon="17.636444438249">
        <ele>41</ele>
        <time>2026-08-30T14:33:47Z</time>
      </trkpt>
      <trkpt lat="59.224431244656" lon="17.636643843725">
        <ele>40.8</ele>
        <time>2026-08-30T14:33:52Z</time>
      </trkpt>
      <trkpt lat="59.224365614355" lon="17.636684076861">
        <ele>40.8</ele>
        <time>2026-08-30T14:33:53Z</time>
      </trkpt>
      <trkpt lat="59.224168052897" lon="17.63679488562">
        <ele>40.4</ele>
        <time>2026-08-30T14:33:56Z</time>
      </trkpt>
      <trkpt lat="59.224039809778" lon="17.636857498437">
        <ele>40.2</ele>
        <time>2026-08-30T14:33:58Z</time>
      </trkpt>
      <trkpt lat="59.223976945505" lon="17.636887757108">
        <ele>39.8</ele>
        <time>2026-08-30T14:33:59Z</time>
      </trkpt>
      <trkpt lat="59.223915254697" lon="17.636916842312">
        <ele>39.6</ele>
        <time>2026-08-30T14:34:00Z</time>
      </trkpt>
      <trkpt lat="59.223854318261" lon="17.636944083497">
        <ele>39.2</ele>
        <time>2026-08-30T14:34:01Z</time>
      </trkpt>
      <trkpt lat="59.223793717101" lon="17.636970570311">
        <ele>39</ele>
        <time>2026-08-30T14:34:02Z</time>
      </trkpt>
      <trkpt lat="59.223551815376" lon="17.637023543939">
        <ele>38.8</ele>
        <time>2026-08-30T14:34:06Z</time>
      </trkpt>
      <trkpt lat="59.223497165367" lon="17.637006193399">
        <ele>38.8</ele>
        <time>2026-08-30T14:34:07Z</time>
      </trkpt>
      <trkpt lat="59.223379483446" lon="17.636886080727">
        <ele>38.8</ele>
        <time>2026-08-30T14:34:10Z</time>
      </trkpt>
      <trkpt lat="59.223280744627" lon="17.636908795685">
        <ele>38.8</ele>
        <time>2026-08-30T14:34:13Z</time>
      </trkpt>
      <trkpt lat="59.22322508879" lon="17.637095963582">
        <ele>38.8</ele>
        <time>2026-08-30T14:34:16Z</time>
      </trkpt>
      <trkpt lat="59.223234476522" lon="17.637355048209">
        <ele>39.6</ele>
        <time>2026-08-30T14:34:19Z</time>
      </trkpt>
      <trkpt lat="59.223293820396" lon="17.637633914128">
        <ele>39.8</ele>
        <time>2026-08-30T14:34:22Z</time>
      </trkpt>
      <trkpt lat="59.223309746012" lon="17.637732904404">
        <ele>40</ele>
        <time>2026-08-30T14:34:23Z</time>
      </trkpt>
      <trkpt lat="59.223317541182" lon="17.637830385938">
        <ele>40</ele>
        <time>2026-08-30T14:34:24Z</time>
      </trkpt>
      <trkpt lat="59.223324917257" lon="17.638121908531">
        <ele>40</ele>
        <time>2026-08-30T14:34:27Z</time>
      </trkpt>
      <trkpt lat="59.223326425999" lon="17.638579141349">
        <ele>40.2</ele>
        <time>2026-08-30T14:34:32Z</time>
      </trkpt>
      <trkpt lat="59.223322486505" lon="17.638757675886">
        <ele>40.4</ele>
        <time>2026-08-30T14:34:34Z</time>
      </trkpt>
      <trkpt lat="59.223322989419" lon="17.639124551788">
        <ele>40.6</ele>
        <time>2026-08-30T14:34:38Z</time>
      </trkpt>
      <trkpt lat="59.223313098773" lon="17.639497378841">
        <ele>41.2</ele>
        <time>2026-08-30T14:34:42Z</time>
      </trkpt>
      <trkpt lat="59.223313601688" lon="17.639783201739">
        <ele>41.4</ele>
        <time>2026-08-30T14:34:45Z</time>
      </trkpt>
      <trkpt lat="59.223394151777" lon="17.640001466498">
        <ele>41.6</ele>
        <time>2026-08-30T14:34:48Z</time>
      </trkpt>
      <trkpt lat="59.223512671888" lon="17.640114622191">
        <ele>41.8</ele>
        <time>2026-08-30T14:34:51Z</time>
      </trkpt>
      <trkpt lat="59.223549300805" lon="17.64015359804">
        <ele>41.8</ele>
        <time>2026-08-30T14:34:52Z</time>
      </trkpt>
      <trkpt lat="59.223646530882" lon="17.640322325751">
        <ele>42.4</ele>
        <time>2026-08-30T14:34:56Z</time>
      </trkpt>
      <trkpt lat="59.223737809807" lon="17.640498597175">
        <ele>43.6</ele>
        <time>2026-08-30T14:35:00Z</time>
      </trkpt>
      <trkpt lat="59.223794136196" lon="17.640592558309">
        <ele>44.4</ele>
        <time>2026-08-30T14:35:02Z</time>
      </trkpt>
      <trkpt lat="59.223822718486" lon="17.640642849728">
        <ele>44.8</ele>
        <time>2026-08-30T14:35:03Z</time>
      </trkpt>
      <trkpt lat="59.223931515589" lon="17.640872765332">
        <ele>45.8</ele>
        <time>2026-08-30T14:35:07Z</time>
      </trkpt>
      <trkpt lat="59.223988512531" lon="17.641005199403">
        <ele>46.2</ele>
        <time>2026-08-30T14:35:09Z</time>
      </trkpt>
      <trkpt lat="59.224022543058" lon="17.641064878553">
        <ele>46.2</ele>
        <time>2026-08-30T14:35:10Z</time>
      </trkpt>
      <trkpt lat="59.224176099524" lon="17.641348689795">
        <ele>46.4</ele>
        <time>2026-08-30T14:35:15Z</time>
      </trkpt>
      <trkpt lat="59.224272575229" lon="17.641516244039">
        <ele>46.4</ele>
        <time>2026-08-30T14:35:18Z</time>
      </trkpt>
      <trkpt lat="59.224384557456" lon="17.641675667837">
        <ele>46.8</ele>
        <time>2026-08-30T14:35:21Z</time>
      </trkpt>
      <trkpt lat="59.224425293505" lon="17.641730485484">
        <ele>47</ele>
        <time>2026-08-30T14:35:22Z</time>
      </trkpt>
      <trkpt lat="59.224652862176" lon="17.641998119652">
        <ele>47.6</ele>
        <time>2026-08-30T14:35:27Z</time>
      </trkpt>
      <trkpt lat="59.224805328995" lon="17.642154442146">
        <ele>47.6</ele>
        <time>2026-08-30T14:35:30Z</time>
      </trkpt>
      <trkpt lat="59.224916892126" lon="17.642228789628">
        <ele>47.6</ele>
        <time>2026-08-30T14:35:32Z</time>
      </trkpt>
      <trkpt lat="59.225163906813" lon="17.64242249541">
        <ele>46.8</ele>
        <time>2026-08-30T14:35:36Z</time>
      </trkpt>
      <trkpt lat="59.225288629532" lon="17.642556522042">
        <ele>46.4</ele>
        <time>2026-08-30T14:35:38Z</time>
      </trkpt>
      <trkpt lat="59.22534596175" lon="17.642632881179">
        <ele>46.4</ele>
        <time>2026-08-30T14:35:39Z</time>
      </trkpt>
      <trkpt lat="59.225529609248" lon="17.642828682438">
        <ele>45.6</ele>
        <time>2026-08-30T14:35:42Z</time>
      </trkpt>
      <trkpt lat="59.225717363879" lon="17.642866401002">
        <ele>44.4</ele>
        <time>2026-08-30T14:35:45Z</time>
      </trkpt>
      <trkpt lat="59.225884918123" lon="17.642706893384">
        <ele>43.4</ele>
        <time>2026-08-30T14:35:48Z</time>
      </trkpt>
      <trkpt lat="59.226014418527" lon="17.642472870648">
        <ele>43.2</ele>
        <time>2026-08-30T14:35:51Z</time>
      </trkpt>
      <trkpt lat="59.226092537865" lon="17.642332976684">
        <ele>43.2</ele>
        <time>2026-08-30T14:35:53Z</time>
      </trkpt>
      <trkpt lat="59.226215500385" lon="17.642165087163">
        <ele>43.4</ele>
        <time>2026-08-30T14:35:56Z</time>
      </trkpt>
      <trkpt lat="59.226301331073" lon="17.642094679177">
        <ele>43.6</ele>
        <time>2026-08-30T14:35:58Z</time>
      </trkpt>
      <trkpt lat="59.226524457335" lon="17.642148993909">
        <ele>44</ele>
        <time>2026-08-30T14:36:02Z</time>
      </trkpt>
      <trkpt lat="59.226652281359" lon="17.642280841246">
        <ele>44</ele>
        <time>2026-08-30T14:36:04Z</time>
      </trkpt>
      <trkpt lat="59.226781362668" lon="17.642413526773">
        <ele>44</ele>
        <time>2026-08-30T14:36:06Z</time>
      </trkpt>
      <trkpt lat="59.227183526382" lon="17.642889283597">
        <ele>43.4</ele>
        <time>2026-08-30T14:36:12Z</time>
      </trkpt>
      <trkpt lat="59.227549144998" lon="17.643246017396">
        <ele>42.4</ele>
        <time>2026-08-30T14:36:17Z</time>
      </trkpt>
      <trkpt lat="59.227696834132" lon="17.643382810056">
        <ele>42</ele>
        <time>2026-08-30T14:36:19Z</time>
      </trkpt>
      <trkpt lat="59.227846451104" lon="17.643538545817">
        <ele>40.4</ele>
        <time>2026-08-30T14:36:21Z</time>
      </trkpt>
      <trkpt lat="59.228008976206" lon="17.643700735644">
        <ele>39.4</ele>
        <time>2026-08-30T14:36:23Z</time>
      </trkpt>
      <trkpt lat="59.228097153828" lon="17.643779190257">
        <ele>39</ele>
        <time>2026-08-30T14:36:24Z</time>
      </trkpt>
      <trkpt lat="59.228289518505" lon="17.643895447254">
        <ele>38.4</ele>
        <time>2026-08-30T14:36:26Z</time>
      </trkpt>
      <trkpt lat="59.228390101343" lon="17.643928471953">
        <ele>38</ele>
        <time>2026-08-30T14:36:27Z</time>
      </trkpt>
      <trkpt lat="59.228486577049" lon="17.643939619884">
        <ele>37.8</ele>
        <time>2026-08-30T14:36:28Z</time>
      </trkpt>
      <trkpt lat="59.228685814887" lon="17.64391832985">
        <ele>36.6</ele>
        <time>2026-08-30T14:36:30Z</time>
      </trkpt>
      <trkpt lat="59.228781871498" lon="17.643907349557">
        <ele>35.8</ele>
        <time>2026-08-30T14:36:31Z</time>
      </trkpt>
      <trkpt lat="59.228874826804" lon="17.643897710368">
        <ele>35</ele>
        <time>2026-08-30T14:36:32Z</time>
      </trkpt>
      <trkpt lat="59.229051265866" lon="17.643905254081">
        <ele>33.4</ele>
        <time>2026-08-30T14:36:34Z</time>
      </trkpt>
      <trkpt lat="59.229289647192" lon="17.643934255466">
        <ele>32.4</ele>
        <time>2026-08-30T14:36:37Z</time>
      </trkpt>
      <trkpt lat="59.229363072664" lon="17.643935848027">
        <ele>32.4</ele>
        <time>2026-08-30T14:36:38Z</time>
      </trkpt>
      <trkpt lat="59.229499362409" lon="17.643941044807">
        <ele>32.4</ele>
        <time>2026-08-30T14:36:40Z</time>
      </trkpt>
      <trkpt lat="59.229620900005" lon="17.6439573057">
        <ele>32.4</ele>
        <time>2026-08-30T14:36:42Z</time>
      </trkpt>
      <trkpt lat="59.229774959385" lon="17.643994018435">
        <ele>32.4</ele>
        <time>2026-08-30T14:36:45Z</time>
      </trkpt>
      <trkpt lat="59.229819634929" lon="17.643993934616">
        <ele>32.6</ele>
        <time>2026-08-30T14:36:46Z</time>
      </trkpt>
      <trkpt lat="59.229863891378" lon="17.643986474723">
        <ele>32.8</ele>
        <time>2026-08-30T14:36:47Z</time>
      </trkpt>
      <trkpt lat="59.229905549437" lon="17.64397197403">
        <ele>33.4</ele>
        <time>2026-08-30T14:36:48Z</time>
      </trkpt>
      <trkpt lat="59.229986937717" lon="17.643933584914">
        <ele>34.6</ele>
        <time>2026-08-30T14:36:50Z</time>
      </trkpt>
      <trkpt lat="59.230067906901" lon="17.643895614892">
        <ele>35.6</ele>
        <time>2026-08-30T14:36:52Z</time>
      </trkpt>
      <trkpt lat="59.23010696657" lon="17.643893603235">
        <ele>36.2</ele>
        <time>2026-08-30T14:36:53Z</time>
      </trkpt>
      <trkpt lat="59.230141667649" lon="17.643903829157">
        <ele>36.8</ele>
        <time>2026-08-30T14:36:54Z</time>
      </trkpt>
      <trkpt lat="59.23020821996" lon="17.643985971808">
        <ele>37.8</ele>
        <time>2026-08-30T14:36:57Z</time>
      </trkpt>
      <trkpt lat="59.230223055929" lon="17.64416073449">
        <ele>39.2</ele>
        <time>2026-08-30T14:37:01Z</time>
      </trkpt>
      <trkpt lat="59.230226660147" lon="17.644289564341">
        <ele>40.6</ele>
        <time>2026-08-30T14:37:04Z</time>
      </trkpt>
      <trkpt lat="59.230231856927" lon="17.644436163828">
        <ele>41.8</ele>
        <time>2026-08-30T14:37:07Z</time>
      </trkpt>
      <trkpt lat="59.230239903554" lon="17.644651411101">
        <ele>42.8</ele>
        <time>2026-08-30T14:37:11Z</time>
      </trkpt>
      <trkpt lat="59.230242753401" lon="17.644761800766">
        <ele>43.4</ele>
        <time>2026-08-30T14:37:13Z</time>
      </trkpt>
      <trkpt lat="59.230242669582" lon="17.644873447716">
        <ele>43.8</ele>
        <time>2026-08-30T14:37:15Z</time>
      </trkpt>
      <trkpt lat="59.230242501944" lon="17.644932372496">
        <ele>44</ele>
        <time>2026-08-30T14:37:16Z</time>
      </trkpt>
      <trkpt lat="59.230238730088" lon="17.645050473511">
        <ele>44.8</ele>
        <time>2026-08-30T14:37:18Z</time>
      </trkpt>
      <trkpt lat="59.230237221345" lon="17.645172011107">
        <ele>45.2</ele>
        <time>2026-08-30T14:37:20Z</time>
      </trkpt>
      <trkpt lat="59.230256834999" lon="17.645299499854">
        <ele>45.4</ele>
        <time>2026-08-30T14:37:22Z</time>
      </trkpt>
      <trkpt lat="59.230330428109" lon="17.645555064082">
        <ele>45.4</ele>
        <time>2026-08-30T14:37:26Z</time>
      </trkpt>
      <trkpt lat="59.230356831104" lon="17.645617006347">
        <ele>45.4</ele>
        <time>2026-08-30T14:37:27Z</time>
      </trkpt>
      <trkpt lat="59.230389101431" lon="17.645675931126">
        <ele>45.4</ele>
        <time>2026-08-30T14:37:28Z</time>
      </trkpt>
      <trkpt lat="59.230565708131" lon="17.645886652172">
        <ele>45.4</ele>
        <time>2026-08-30T14:37:32Z</time>
      </trkpt>
      <trkpt lat="59.230790594593" lon="17.646142551675">
        <ele>45</ele>
        <time>2026-08-30T14:37:36Z</time>
      </trkpt>
      <trkpt lat="59.230831582099" lon="17.646252689883">
        <ele>44.8</ele>
        <time>2026-08-30T14:37:37Z</time>
      </trkpt>
      <trkpt lat="59.230854129419" lon="17.64666759409">
        <ele>43.8</ele>
        <time>2026-08-30T14:37:40Z</time>
      </trkpt>
      <trkpt lat="59.230813980103" lon="17.64695417136">
        <ele>42.8</ele>
        <time>2026-08-30T14:37:42Z</time>
      </trkpt>
      <trkpt lat="59.230750696734" lon="17.647279053926">
        <ele>41.6</ele>
        <time>2026-08-30T14:37:44Z</time>
      </trkpt>
      <trkpt lat="59.230715241283" lon="17.64745356515">
        <ele>40.4</ele>
        <time>2026-08-30T14:37:45Z</time>
      </trkpt>
      <trkpt lat="59.230642654002" lon="17.64781717211">
        <ele>39.4</ele>
        <time>2026-08-30T14:37:47Z</time>
      </trkpt>
      <trkpt lat="59.230605857447" lon="17.648002244532">
        <ele>39</ele>
        <time>2026-08-30T14:37:48Z</time>
      </trkpt>
      <trkpt lat="59.230525642633" lon="17.648380268365">
        <ele>37.2</ele>
        <time>2026-08-30T14:37:50Z</time>
      </trkpt>
      <trkpt lat="59.230485158041" lon="17.648568358272">
        <ele>36</ele>
        <time>2026-08-30T14:37:51Z</time>
      </trkpt>
      <trkpt lat="59.230444338173" lon="17.648754939437">
        <ele>34.8</ele>
        <time>2026-08-30T14:37:52Z</time>
      </trkpt>
      <trkpt lat="59.230406535789" lon="17.648937832564">
        <ele>33.2</ele>
        <time>2026-08-30T14:37:53Z</time>
      </trkpt>
      <trkpt lat="59.230371918529" lon="17.649117037654">
        <ele>31.6</ele>
        <time>2026-08-30T14:37:54Z</time>
      </trkpt>
      <trkpt lat="59.230335038155" lon="17.64928702265">
        <ele>30.6</ele>
        <time>2026-08-30T14:37:55Z</time>
      </trkpt>
      <trkpt lat="59.230289189145" lon="17.649441333488">
        <ele>29.6</ele>
        <time>2026-08-30T14:37:56Z</time>
      </trkpt>
      <trkpt lat="59.23023680225" lon="17.649572510272">
        <ele>28.8</ele>
        <time>2026-08-30T14:37:57Z</time>
      </trkpt>
      <trkpt lat="59.230113504454" lon="17.649754397571">
        <ele>27.4</ele>
        <time>2026-08-30T14:37:59Z</time>
      </trkpt>
      <trkpt lat="59.229980064556" lon="17.649856908247">
        <ele>27</ele>
        <time>2026-08-30T14:38:01Z</time>
      </trkpt>
      <trkpt lat="59.229780156165" lon="17.650009710342">
        <ele>26.8</ele>
        <time>2026-08-30T14:38:04Z</time>
      </trkpt>
      <trkpt lat="59.229534650221" lon="17.650233507156">
        <ele>27.2</ele>
        <time>2026-08-30T14:38:08Z</time>
      </trkpt>
      <trkpt lat="59.229477737099" lon="17.650290839374">
        <ele>27.8</ele>
        <time>2026-08-30T14:38:09Z</time>
      </trkpt>
      <trkpt lat="59.229373633862" lon="17.650413047522">
        <ele>28.4</ele>
        <time>2026-08-30T14:38:11Z</time>
      </trkpt>
      <trkpt lat="59.22913315706" lon="17.65071362257">
        <ele>29.8</ele>
        <time>2026-08-30T14:38:16Z</time>
      </trkpt>
      <trkpt lat="59.228992760181" lon="17.650890480727">
        <ele>30.4</ele>
        <time>2026-08-30T14:38:19Z</time>
      </trkpt>
      <trkpt lat="59.228850267828" lon="17.651058286428">
        <ele>30.8</ele>
        <time>2026-08-30T14:38:22Z</time>
      </trkpt>
      <trkpt lat="59.228657651693" lon="17.651293734089">
        <ele>31.4</ele>
        <time>2026-08-30T14:38:26Z</time>
      </trkpt>
      <trkpt lat="59.228408457711" lon="17.651741746813">
        <ele>31.6</ele>
        <time>2026-08-30T14:38:32Z</time>
      </trkpt>
      <trkpt lat="59.22827610746" lon="17.652085740119">
        <ele>31.8</ele>
        <time>2026-08-30T14:38:36Z</time>
      </trkpt>
      <trkpt lat="59.228190276772" lon="17.652331413701">
        <ele>31.8</ele>
        <time>2026-08-30T14:38:39Z</time>
      </trkpt>
      <trkpt lat="59.228163035586" lon="17.65240685083">
        <ele>31.8</ele>
        <time>2026-08-30T14:38:40Z</time>
      </trkpt>
      <trkpt lat="59.228112157434" lon="17.6525635086">
        <ele>31.8</ele>
        <time>2026-08-30T14:38:42Z</time>
      </trkpt>
      <trkpt lat="59.228087011725" lon="17.65264137648">
        <ele>32</ele>
        <time>2026-08-30T14:38:43Z</time>
      </trkpt>
      <trkpt lat="59.228006210178" lon="17.652880176902">
        <ele>33.2</ele>
        <time>2026-08-30T14:38:46Z</time>
      </trkpt>
      <trkpt lat="59.227927923203" lon="17.653126437217">
        <ele>34.2</ele>
        <time>2026-08-30T14:38:49Z</time>
      </trkpt>
      <trkpt lat="59.227879140526" lon="17.653283094987">
        <ele>34.6</ele>
        <time>2026-08-30T14:38:51Z</time>
      </trkpt>
      <trkpt lat="59.227812504396" lon="17.653508065268">
        <ele>35.4</ele>
        <time>2026-08-30T14:38:54Z</time>
      </trkpt>
      <trkpt lat="59.227749723941" lon="17.653726413846">
        <ele>35.8</ele>
        <time>2026-08-30T14:38:57Z</time>
      </trkpt>
      <trkpt lat="59.227686440572" lon="17.653950881213">
        <ele>36.6</ele>
        <time>2026-08-30T14:39:00Z</time>
      </trkpt>
      <trkpt lat="59.227604297921" lon="17.654269980267">
        <ele>37.4</ele>
        <time>2026-08-30T14:39:04Z</time>
      </trkpt>
      <trkpt lat="59.227582085878" lon="17.654354972765">
        <ele>37.6</ele>
        <time>2026-08-30T14:39:05Z</time>
      </trkpt>
      <trkpt lat="59.227557107806" lon="17.654436277226">
        <ele>37.8</ele>
        <time>2026-08-30T14:39:06Z</time>
      </trkpt>
      <trkpt lat="59.227457363158" lon="17.65476224944">
        <ele>38</ele>
        <time>2026-08-30T14:39:10Z</time>
      </trkpt>
      <trkpt lat="59.227267010137" lon="17.655321992934">
        <ele>38.2</ele>
        <time>2026-08-30T14:39:17Z</time>
      </trkpt>
      <trkpt lat="59.227084200829" lon="17.655835719779">
        <ele>38.4</ele>
        <time>2026-08-30T14:39:24Z</time>
      </trkpt>
      <trkpt lat="59.227051762864" lon="17.65603470616">
        <ele>38.6</ele>
        <time>2026-08-30T14:39:27Z</time>
      </trkpt>
      <trkpt lat="59.227021588013" lon="17.656250623986">
        <ele>39.2</ele>
        <time>2026-08-30T14:39:30Z</time>
      </trkpt>
      <trkpt lat="59.227012367919" lon="17.656324468553">
        <ele>39.8</ele>
        <time>2026-08-30T14:39:31Z</time>
      </trkpt>
      <trkpt lat="59.226982779801" lon="17.656547427177">
        <ele>40.8</ele>
        <time>2026-08-30T14:39:34Z</time>
      </trkpt>
      <trkpt lat="59.226941373199" lon="17.656801650301">
        <ele>41.2</ele>
        <time>2026-08-30T14:39:37Z</time>
      </trkpt>
      <trkpt lat="59.226837940514" lon="17.657403387129">
        <ele>41.2</ele>
        <time>2026-08-30T14:39:43Z</time>
      </trkpt>
      <trkpt lat="59.226755881682" lon="17.657809406519">
        <ele>40.6</ele>
        <time>2026-08-30T14:39:47Z</time>
      </trkpt>
      <trkpt lat="59.226713133976" lon="17.658019457012">
        <ele>40.2</ele>
        <time>2026-08-30T14:39:49Z</time>
      </trkpt>
      <trkpt lat="59.226643061265" lon="17.658334616572">
        <ele>40.2</ele>
        <time>2026-08-30T14:39:52Z</time>
      </trkpt>
      <trkpt lat="59.226628560573" lon="17.658441318199">
        <ele>40</ele>
        <time>2026-08-30T14:39:53Z</time>
      </trkpt>
      <trkpt lat="59.226617496461" lon="17.65853988938">
        <ele>40</ele>
        <time>2026-08-30T14:39:54Z</time>
      </trkpt>
      <trkpt lat="59.226602744311" lon="17.65862731263">
        <ele>39.8</ele>
        <time>2026-08-30T14:39:55Z</time>
      </trkpt>
      <trkpt lat="59.226555889472" lon="17.658796627074">
        <ele>39.8</ele>
        <time>2026-08-30T14:39:57Z</time>
      </trkpt>
      <trkpt lat="59.226526804268" lon="17.658896874636">
        <ele>39.6</ele>
        <time>2026-08-30T14:39:58Z</time>
      </trkpt>
      <trkpt lat="59.226340809837" lon="17.659441782162">
        <ele>39</ele>
        <time>2026-08-30T14:40:03Z</time>
      </trkpt>
      <trkpt lat="59.226297643036" lon="17.659546555951">
        <ele>38.8</ele>
        <time>2026-08-30T14:40:04Z</time>
      </trkpt>
      <trkpt lat="59.226246932521" lon="17.659639846534">
        <ele>38.6</ele>
        <time>2026-08-30T14:40:05Z</time>
      </trkpt>
      <trkpt lat="59.226125981659" lon="17.659789631143">
        <ele>38</ele>
        <time>2026-08-30T14:40:07Z</time>
      </trkpt>
      <trkpt lat="59.226064290851" lon="17.659847550094">
        <ele>37.8</ele>
        <time>2026-08-30T14:40:08Z</time>
      </trkpt>
      <trkpt lat="59.225941328332" lon="17.659937152639">
        <ele>37.6</ele>
        <time>2026-08-30T14:40:10Z</time>
      </trkpt>
      <trkpt lat="59.225814091042" lon="17.660014433786">
        <ele>37.2</ele>
        <time>2026-08-30T14:40:12Z</time>
      </trkpt>
      <trkpt lat="59.225423494354" lon="17.66024434939">
        <ele>36.4</ele>
        <time>2026-08-30T14:40:18Z</time>
      </trkpt>
      <trkpt lat="59.225300615653" lon="17.660305453464">
        <ele>36</ele>
        <time>2026-08-30T14:40:20Z</time>
      </trkpt>
      <trkpt lat="59.225047146901" lon="17.660428332165">
        <ele>35.4</ele>
        <time>2026-08-30T14:40:24Z</time>
      </trkpt>
      <trkpt lat="59.224857799709" lon="17.66052313149">
        <ele>35.4</ele>
        <time>2026-08-30T14:40:27Z</time>
      </trkpt>
      <trkpt lat="59.22479887493" lon="17.660560179502">
        <ele>35.4</ele>
        <time>2026-08-30T14:40:28Z</time>
      </trkpt>
      <trkpt lat="59.22468890436" lon="17.660650117323">
        <ele>35.2</ele>
        <time>2026-08-30T14:40:30Z</time>
      </trkpt>
      <trkpt lat="59.224594356492" lon="17.660809876397">
        <ele>35.2</ele>
        <time>2026-08-30T14:40:32Z</time>
      </trkpt>
      <trkpt lat="59.224545322359" lon="17.661166191101">
        <ele>35</ele>
        <time>2026-08-30T14:40:35Z</time>
      </trkpt>
      <trkpt lat="59.224528642371" lon="17.661532983184">
        <ele>34.8</ele>
        <time>2026-08-30T14:40:38Z</time>
      </trkpt>
      <trkpt lat="59.224512381479" lon="17.661649491638">
        <ele>34.8</ele>
        <time>2026-08-30T14:40:39Z</time>
      </trkpt>
      <trkpt lat="59.224457480013" lon="17.661872031167">
        <ele>34.2</ele>
        <time>2026-08-30T14:40:41Z</time>
      </trkpt>
      <trkpt lat="59.224383719265" lon="17.662090547383">
        <ele>33.8</ele>
        <time>2026-08-30T14:40:43Z</time>
      </trkpt>
      <trkpt lat="59.22419806011" lon="17.662617014721">
        <ele>33.2</ele>
        <time>2026-08-30T14:40:48Z</time>
      </trkpt>
      <trkpt lat="59.224177524447" lon="17.66272271052">
        <ele>33</ele>
        <time>2026-08-30T14:40:49Z</time>
      </trkpt>
      <trkpt lat="59.224088005722" lon="17.663280693814">
        <ele>32.8</ele>
        <time>2026-08-30T14:40:54Z</time>
      </trkpt>
      <trkpt lat="59.224067721516" lon="17.663395525888">
        <ele>32.6</ele>
        <time>2026-08-30T14:40:55Z</time>
      </trkpt>
      <trkpt lat="59.224006198347" lon="17.663668692112">
        <ele>32.6</ele>
        <time>2026-08-30T14:40:58Z</time>
      </trkpt>
      <trkpt lat="59.223937299103" lon="17.6639051456">
        <ele>32.8</ele>
        <time>2026-08-30T14:41:01Z</time>
      </trkpt>
      <trkpt lat="59.22384317033" lon="17.664136486128">
        <ele>33.4</ele>
        <time>2026-08-30T14:41:04Z</time>
      </trkpt>
      <trkpt lat="59.223763039336" lon="17.664286857471">
        <ele>34.4</ele>
        <time>2026-08-30T14:41:06Z</time>
      </trkpt>
      <trkpt lat="59.223647201434" lon="17.664489867166">
        <ele>35.2</ele>
        <time>2026-08-30T14:41:09Z</time>
      </trkpt>
      <trkpt lat="59.223581235856" lon="17.664633113891">
        <ele>35.4</ele>
        <time>2026-08-30T14:41:11Z</time>
      </trkpt>
      <trkpt lat="59.223553575575" lon="17.664709808305">
        <ele>35.4</ele>
        <time>2026-08-30T14:41:12Z</time>
      </trkpt>
      <trkpt lat="59.223530525342" lon="17.664791112766">
        <ele>35.6</ele>
        <time>2026-08-30T14:41:13Z</time>
      </trkpt>
      <trkpt lat="59.223492387682" lon="17.664930671453">
        <ele>35.8</ele>
        <time>2026-08-30T14:41:15Z</time>
      </trkpt>
      <trkpt lat="59.223404712975" lon="17.665278688073">
        <ele>36.8</ele>
        <time>2026-08-30T14:41:21Z</time>
      </trkpt>
      <trkpt lat="59.223375795409" lon="17.665394777432">
        <ele>37.8</ele>
        <time>2026-08-30T14:41:23Z</time>
      </trkpt>
      <trkpt lat="59.223344111815" lon="17.665518159047">
        <ele>39</ele>
        <time>2026-08-30T14:41:25Z</time>
      </trkpt>
      <trkpt lat="59.223327180371" lon="17.665585465729">
        <ele>39.2</ele>
        <time>2026-08-30T14:41:26Z</time>
      </trkpt>
      <trkpt lat="59.223291892558" lon="17.665748829022">
        <ele>40</ele>
        <time>2026-08-30T14:41:28Z</time>
      </trkpt>
      <trkpt lat="59.223190220073" lon="17.666216623038">
        <ele>40.2</ele>
        <time>2026-08-30T14:41:32Z</time>
      </trkpt>
      <trkpt lat="59.223076058552" lon="17.666822299361">
        <ele>39.8</ele>
        <time>2026-08-30T14:41:37Z</time>
      </trkpt>
      <trkpt lat="59.223021073267" lon="17.667155228555">
        <ele>38.2</ele>
        <time>2026-08-30T14:41:40Z</time>
      </trkpt>
      <trkpt lat="59.222973631695" lon="17.667446583509">
        <ele>37.8</ele>
        <time>2026-08-30T14:41:43Z</time>
      </trkpt>
      <trkpt lat="59.222880257294" lon="17.667975313962">
        <ele>38.2</ele>
        <time>2026-08-30T14:41:49Z</time>
      </trkpt>
      <trkpt lat="59.222844047472" lon="17.66820397228">
        <ele>38.4</ele>
        <time>2026-08-30T14:41:51Z</time>
      </trkpt>
      <trkpt lat="59.222838683054" lon="17.668463559821">
        <ele>38.4</ele>
        <time>2026-08-30T14:41:53Z</time>
      </trkpt>
      <trkpt lat="59.222890902311" lon="17.668877374381">
        <ele>38.4</ele>
        <time>2026-08-30T14:41:56Z</time>
      </trkpt>
      <trkpt lat="59.222914539278" lon="17.66900905408">
        <ele>38.4</ele>
        <time>2026-08-30T14:41:57Z</time>
      </trkpt>
      <trkpt lat="59.222933817655" lon="17.669136961922">
        <ele>38.4</ele>
        <time>2026-08-30T14:41:58Z</time>
      </trkpt>
      <trkpt lat="59.222935494035" lon="17.669485397637">
        <ele>37.6</ele>
        <time>2026-08-30T14:42:01Z</time>
      </trkpt>
      <trkpt lat="59.222877658904" lon="17.669693268836">
        <ele>37.4</ele>
        <time>2026-08-30T14:42:03Z</time>
      </trkpt>
      <trkpt lat="59.222834492102" lon="17.669787397608">
        <ele>37.2</ele>
        <time>2026-08-30T14:42:04Z</time>
      </trkpt>
      <trkpt lat="59.222781769931" lon="17.669875826687">
        <ele>37</ele>
        <time>2026-08-30T14:42:05Z</time>
      </trkpt>
      <trkpt lat="59.222655789927" lon="17.670027958229">
        <ele>36.8</ele>
        <time>2026-08-30T14:42:07Z</time>
      </trkpt>
      <trkpt lat="59.222584795207" lon="17.670089649037">
        <ele>36.6</ele>
        <time>2026-08-30T14:42:08Z</time>
      </trkpt>
      <trkpt lat="59.222429897636" lon="17.6701793354">
        <ele>36.2</ele>
        <time>2026-08-30T14:42:10Z</time>
      </trkpt>
      <trkpt lat="59.222275838256" lon="17.670280924067">
        <ele>36</ele>
        <time>2026-08-30T14:42:12Z</time>
      </trkpt>
      <trkpt lat="59.222205262631" lon="17.670337250456">
        <ele>35.8</ele>
        <time>2026-08-30T14:42:13Z</time>
      </trkpt>
      <trkpt lat="59.222078695893" lon="17.670463817194">
        <ele>34.8</ele>
        <time>2026-08-30T14:42:15Z</time>
      </trkpt>
      <trkpt lat="59.221966797486" lon="17.670599352568">
        <ele>33.8</ele>
        <time>2026-08-30T14:42:17Z</time>
      </trkpt>
      <trkpt lat="59.22191021964" lon="17.67066238448">
        <ele>33.4</ele>
        <time>2026-08-30T14:42:18Z</time>
      </trkpt>
      <trkpt lat="59.221793711185" lon="17.670778809115">
        <ele>33.2</ele>
        <time>2026-08-30T14:42:20Z</time>
      </trkpt>
      <trkpt lat="59.221735205501" lon="17.670837398618">
        <ele>33.2</ele>
        <time>2026-08-30T14:42:21Z</time>
      </trkpt>
      <trkpt lat="59.221525574103" lon="17.671072343364">
        <ele>32.8</ele>
        <time>2026-08-30T14:42:25Z</time>
      </trkpt>
      <trkpt lat="59.221473271027" lon="17.671235119924">
        <ele>32.8</ele>
        <time>2026-08-30T14:42:27Z</time>
      </trkpt>
      <trkpt lat="59.221462458372" lon="17.671324973926">
        <ele>32.8</ele>
        <time>2026-08-30T14:42:28Z</time>
      </trkpt>
      <trkpt lat="59.221438150853" lon="17.671493282542">
        <ele>33</ele>
        <time>2026-08-30T14:42:30Z</time>
      </trkpt>
      <trkpt lat="59.221406718716" lon="17.671595038846">
        <ele>33.2</ele>
        <time>2026-08-30T14:42:32Z</time>
      </trkpt>
      <trkpt lat="59.221409903839" lon="17.671733507887">
        <ele>33.6</ele>
        <time>2026-08-30T14:42:35Z</time>
      </trkpt>
      <trkpt lat="59.221364473924" lon="17.671900894493">
        <ele>33.8</ele>
        <time>2026-08-30T14:42:38Z</time>
      </trkpt>
      <trkpt lat="59.221331868321" lon="17.672024695203">
        <ele>34</ele>
        <time>2026-08-30T14:42:40Z</time>
      </trkpt>
      <trkpt lat="59.221226256341" lon="17.672323677689">
        <ele>34</ele>
        <time>2026-08-30T14:42:45Z</time>
      </trkpt>
      <trkpt lat="59.221171354875" lon="17.672370867804">
        <ele>34.2</ele>
        <time>2026-08-30T14:42:47Z</time>
      </trkpt>
      <trkpt lat="59.22114579007" lon="17.672347063199">
        <ele>34.2</ele>
        <time>2026-08-30T14:42:48Z</time>
      </trkpt>
      <trkpt lat="59.221078399569" lon="17.672152016312">
        <ele>34.2</ele>
        <time>2026-08-30T14:42:51Z</time>
      </trkpt>
      <trkpt lat="59.220926184207" lon="17.67164315097">
        <ele>34</ele>
        <time>2026-08-30T14:42:57Z</time>
      </trkpt>
      <trkpt lat="59.220871031284" lon="17.671455144882">
        <ele>34</ele>
        <time>2026-08-30T14:42:59Z</time>
      </trkpt>
      <trkpt lat="59.2208142858" lon="17.671263031662">
        <ele>34</ele>
        <time>2026-08-30T14:43:01Z</time>
      </trkpt>
      <trkpt lat="59.220729377121" lon="17.670976705849">
        <ele>33.8</ele>
        <time>2026-08-30T14:43:04Z</time>
      </trkpt>
      <trkpt lat="59.22064463608" lon="17.670701276511">
        <ele>33.8</ele>
        <time>2026-08-30T14:43:07Z</time>
      </trkpt>
      <trkpt lat="59.22061949037" lon="17.670610249043">
        <ele>33.8</ele>
        <time>2026-08-30T14:43:08Z</time>
      </trkpt>
      <trkpt lat="59.22046543099" lon="17.670087302104">
        <ele>33.8</ele>
        <time>2026-08-30T14:43:14Z</time>
      </trkpt>
      <trkpt lat="59.220443135127" lon="17.670002225786">
        <ele>34</ele>
        <time>2026-08-30T14:43:15Z</time>
      </trkpt>
      <trkpt lat="59.220366943628" lon="17.669742135331">
        <ele>34.8</ele>
        <time>2026-08-30T14:43:18Z</time>
      </trkpt>
      <trkpt lat="59.220284046605" lon="17.669474165887">
        <ele>35.4</ele>
        <time>2026-08-30T14:43:21Z</time>
      </trkpt>
      <trkpt lat="59.220255631953" lon="17.669384647161">
        <ele>35.8</ele>
        <time>2026-08-30T14:43:22Z</time>
      </trkpt>
      <trkpt lat="59.220226546749" lon="17.669298062101">
        <ele>35.8</ele>
        <time>2026-08-30T14:43:23Z</time>
      </trkpt>
      <trkpt lat="59.22014423646" lon="17.669043503702">
        <ele>36.4</ele>
        <time>2026-08-30T14:43:26Z</time>
      </trkpt>
      <trkpt lat="59.220091849566" lon="17.668867232278">
        <ele>36.6</ele>
        <time>2026-08-30T14:43:28Z</time>
      </trkpt>
      <trkpt lat="59.220060920343" lon="17.668785257265">
        <ele>36.8</ele>
        <time>2026-08-30T14:43:29Z</time>
      </trkpt>
      <trkpt lat="59.220027560368" lon="17.668702276424">
        <ele>37</ele>
        <time>2026-08-30T14:43:30Z</time>
      </trkpt>
      <trkpt lat="59.219960169867" lon="17.668532291427">
        <ele>37.4</ele>
        <time>2026-08-30T14:43:32Z</time>
      </trkpt>
      <trkpt lat="59.219889426604" lon="17.668369766325">
        <ele>37.8</ele>
        <time>2026-08-30T14:43:34Z</time>
      </trkpt>
      <trkpt lat="59.219856066629" lon="17.66829055734">
        <ele>38</ele>
        <time>2026-08-30T14:43:35Z</time>
      </trkpt>
      <trkpt lat="59.219782473519" lon="17.668145634234">
        <ele>38.6</ele>
        <time>2026-08-30T14:43:37Z</time>
      </trkpt>
      <trkpt lat="59.219746263698" lon="17.668076902628">
        <ele>39</ele>
        <time>2026-08-30T14:43:38Z</time>
      </trkpt>
      <trkpt lat="59.21966906637" lon="17.66795117408">
        <ele>39.4</ele>
        <time>2026-08-30T14:43:40Z</time>
      </trkpt>
      <trkpt lat="59.219628497958" lon="17.667887220159">
        <ele>39.4</ele>
        <time>2026-08-30T14:43:41Z</time>
      </trkpt>
      <trkpt lat="59.219549121335" lon="17.667760569602">
        <ele>39.8</ele>
        <time>2026-08-30T14:43:43Z</time>
      </trkpt>
      <trkpt lat="59.219465302303" lon="17.667633164674">
        <ele>40.2</ele>
        <time>2026-08-30T14:43:45Z</time>
      </trkpt>
      <trkpt lat="59.219419788569" lon="17.667576083913">
        <ele>40.6</ele>
        <time>2026-08-30T14:43:46Z</time>
      </trkpt>
      <trkpt lat="59.219374442473" lon="17.667520344257">
        <ele>40.8</ele>
        <time>2026-08-30T14:43:47Z</time>
      </trkpt>
      <trkpt lat="59.219118375331" lon="17.66724399291">
        <ele>41.2</ele>
        <time>2026-08-30T14:43:52Z</time>
      </trkpt>
      <trkpt lat="59.219011506066" lon="17.667140476406">
        <ele>41.2</ele>
        <time>2026-08-30T14:43:54Z</time>
      </trkpt>
      <trkpt lat="59.218648988754" lon="17.666910896078">
        <ele>41</ele>
        <time>2026-08-30T14:44:00Z</time>
      </trkpt>
      <trkpt lat="59.218381270766" lon="17.666771756485">
        <ele>40.6</ele>
        <time>2026-08-30T14:44:04Z</time>
      </trkpt>
      <trkpt lat="59.218237185851" lon="17.666698917747">
        <ele>40.4</ele>
        <time>2026-08-30T14:44:06Z</time>
      </trkpt>
      <trkpt lat="59.217922864482" lon="17.666535638273">
        <ele>39.2</ele>
        <time>2026-08-30T14:44:10Z</time>
      </trkpt>
      <trkpt lat="59.217764949426" lon="17.666444610804">
        <ele>38.8</ele>
        <time>2026-08-30T14:44:12Z</time>
      </trkpt>
      <trkpt lat="59.217609129846" lon="17.66634545289">
        <ele>38</ele>
        <time>2026-08-30T14:44:14Z</time>
      </trkpt>
      <trkpt lat="59.217356750742" lon="17.666203798726">
        <ele>36.6</ele>
        <time>2026-08-30T14:44:17Z</time>
      </trkpt>
      <trkpt lat="59.217270836234" lon="17.666151579469">
        <ele>36.2</ele>
        <time>2026-08-30T14:44:18Z</time>
      </trkpt>
      <trkpt lat="59.217099677771" lon="17.66603297554">
        <ele>35.4</ele>
        <time>2026-08-30T14:44:20Z</time>
      </trkpt>
      <trkpt lat="59.216936398298" lon="17.665909426287">
        <ele>33.8</ele>
        <time>2026-08-30T14:44:22Z</time>
      </trkpt>
      <trkpt lat="59.216779069975" lon="17.665780344978">
        <ele>32.8</ele>
        <time>2026-08-30T14:44:24Z</time>
      </trkpt>
      <trkpt lat="59.216704638675" lon="17.665711445734">
        <ele>32.6</ele>
        <time>2026-08-30T14:44:25Z</time>
      </trkpt>
      <trkpt lat="59.216567091644" lon="17.665558056906">
        <ele>32.2</ele>
        <time>2026-08-30T14:44:27Z</time>
      </trkpt>
      <trkpt lat="59.216437255964" lon="17.665387568995">
        <ele>31.8</ele>
        <time>2026-08-30T14:44:29Z</time>
      </trkpt>
      <trkpt lat="59.21624975279" lon="17.665163101628">
        <ele>31.6</ele>
        <time>2026-08-30T14:44:32Z</time>
      </trkpt>
      <trkpt lat="59.216184373945" lon="17.665113816038">
        <ele>31.6</ele>
        <time>2026-08-30T14:44:33Z</time>
      </trkpt>
      <trkpt lat="59.216118743643" lon="17.66507207416">
        <ele>31.6</ele>
        <time>2026-08-30T14:44:34Z</time>
      </trkpt>
      <trkpt lat="59.215866615996" lon="17.665022369474">
        <ele>31.6</ele>
        <time>2026-08-30T14:44:38Z</time>
      </trkpt>
      <trkpt lat="59.215685566887" lon="17.665009545162">
        <ele>31.6</ele>
        <time>2026-08-30T14:44:41Z</time>
      </trkpt>
      <trkpt lat="59.215461602435" lon="17.664979705587">
        <ele>32.2</ele>
        <time>2026-08-30T14:44:45Z</time>
      </trkpt>
      <trkpt lat="59.215357918292" lon="17.664948692545">
        <ele>32.6</ele>
        <time>2026-08-30T14:44:47Z</time>
      </trkpt>
      <trkpt lat="59.215210396796" lon="17.664918182418">
        <ele>33.8</ele>
        <time>2026-08-30T14:44:50Z</time>
      </trkpt>
      <trkpt lat="59.215121464804" lon="17.664904939011">
        <ele>33.8</ele>
        <time>2026-08-30T14:44:52Z</time>
      </trkpt>
      <trkpt lat="59.215078633279" lon="17.664905609563">
        <ele>34.2</ele>
        <time>2026-08-30T14:44:53Z</time>
      </trkpt>
      <trkpt lat="59.214970003814" lon="17.664970736951">
        <ele>34.6</ele>
        <time>2026-08-30T14:44:56Z</time>
      </trkpt>
      <trkpt lat="59.214929519221" lon="17.665057657287">
        <ele>35.2</ele>
        <time>2026-08-30T14:44:58Z</time>
      </trkpt>
      <trkpt lat="59.214917281643" lon="17.66515606083">
        <ele>35.6</ele>
        <time>2026-08-30T14:45:00Z</time>
      </trkpt>
      <trkpt lat="59.214924573898" lon="17.665230156854">
        <ele>35.8</ele>
        <time>2026-08-30T14:45:01Z</time>
      </trkpt>
      <trkpt lat="59.214930273592" lon="17.665308779106">
        <ele>36</ele>
        <time>2026-08-30T14:45:02Z</time>
      </trkpt>
      <trkpt lat="59.214965393767" lon="17.665465185419">
        <ele>36.6</ele>
        <time>2026-08-30T14:45:04Z</time>
      </trkpt>
      <trkpt lat="59.215013422072" lon="17.665588986129">
        <ele>36.8</ele>
        <time>2026-08-30T14:45:06Z</time>
      </trkpt>
      <trkpt lat="59.215038232505" lon="17.665644809604">
        <ele>37</ele>
        <time>2026-08-30T14:45:07Z</time>
      </trkpt>
      <trkpt lat="59.21511224471" lon="17.665815213695">
        <ele>37.2</ele>
        <time>2026-08-30T14:45:10Z</time>
      </trkpt>
      <trkpt lat="59.215153735131" lon="17.665922753513">
        <ele>37.4</ele>
        <time>2026-08-30T14:45:12Z</time>
      </trkpt>
      <trkpt lat="59.215229423717" lon="17.66611168161">
        <ele>37.8</ele>
        <time>2026-08-30T14:45:16Z</time>
      </trkpt>
      <trkpt lat="59.215246522799" lon="17.666164236143">
        <ele>38.2</ele>
        <time>2026-08-30T14:45:17Z</time>
      </trkpt>
      <trkpt lat="59.215279212222" lon="17.66629180871">
        <ele>39.2</ele>
        <time>2026-08-30T14:45:19Z</time>
      </trkpt>
      <trkpt lat="59.215279966593" lon="17.666446287185">
        <ele>39.8</ele>
        <time>2026-08-30T14:45:21Z</time>
      </trkpt>
      <trkpt lat="59.215271333233" lon="17.666528429836">
        <ele>40.2</ele>
        <time>2026-08-30T14:45:22Z</time>
      </trkpt>
      <trkpt lat="59.21518583782" lon="17.666870160028">
        <ele>40.6</ele>
        <time>2026-08-30T14:45:26Z</time>
      </trkpt>
      <trkpt lat="59.215146359056" lon="17.66706478782">
        <ele>40.6</ele>
        <time>2026-08-30T14:45:28Z</time>
      </trkpt>
      <trkpt lat="59.215130768716" lon="17.66728548333">
        <ele>40.6</ele>
        <time>2026-08-30T14:45:30Z</time>
      </trkpt>
      <trkpt lat="59.215136636049" lon="17.6675236132">
        <ele>40.6</ele>
        <time>2026-08-30T14:45:32Z</time>
      </trkpt>
      <trkpt lat="59.215154238045" lon="17.667886633426">
        <ele>40.2</ele>
        <time>2026-08-30T14:45:35Z</time>
      </trkpt>
      <trkpt lat="59.215126242489" lon="17.668336154893">
        <ele>40</ele>
        <time>2026-08-30T14:45:39Z</time>
      </trkpt>
      <trkpt lat="59.215111657977" lon="17.668436402455">
        <ele>39.8</ele>
        <time>2026-08-30T14:45:40Z</time>
      </trkpt>
      <trkpt lat="59.215074609965" lon="17.668604459614">
        <ele>39.8</ele>
        <time>2026-08-30T14:45:42Z</time>
      </trkpt>
      <trkpt lat="59.215037142858" lon="17.668737480417">
        <ele>39.8</ele>
        <time>2026-08-30T14:45:44Z</time>
      </trkpt>
      <trkpt lat="59.214913006872" lon="17.669023387134">
        <ele>39.8</ele>
        <time>2026-08-30T14:45:49Z</time>
      </trkpt>
      <trkpt lat="59.214882161468" lon="17.66907996498">
        <ele>40.2</ele>
        <time>2026-08-30T14:45:50Z</time>
      </trkpt>
      <trkpt lat="59.21481451951" lon="17.669202173129">
        <ele>41</ele>
        <time>2026-08-30T14:45:52Z</time>
      </trkpt>
      <trkpt lat="59.214784596115" lon="17.669268054888">
        <ele>41.2</ele>
        <time>2026-08-30T14:45:53Z</time>
      </trkpt>
      <trkpt lat="59.214724665508" lon="17.669392274693">
        <ele>41.8</ele>
        <time>2026-08-30T14:45:55Z</time>
      </trkpt>
      <trkpt lat="59.21469851397" lon="17.669455977157">
        <ele>42</ele>
        <time>2026-08-30T14:45:56Z</time>
      </trkpt>
      <trkpt lat="59.214644702151" lon="17.669563181698">
        <ele>42.4</ele>
        <time>2026-08-30T14:45:58Z</time>
      </trkpt>
      <trkpt lat="59.214572366327" lon="17.669726964086">
        <ele>43</ele>
        <time>2026-08-30T14:46:01Z</time>
      </trkpt>
      <trkpt lat="59.214504221454" lon="17.669904241338">
        <ele>43.4</ele>
        <time>2026-08-30T14:46:04Z</time>
      </trkpt>
      <trkpt lat="59.214447559789" lon="17.670016139746">
        <ele>44</ele>
        <time>2026-08-30T14:46:06Z</time>
      </trkpt>
      <trkpt lat="59.214373379946" lon="17.670181514695">
        <ele>44.4</ele>
        <time>2026-08-30T14:46:09Z</time>
      </trkpt>
      <trkpt lat="59.214264415205" lon="17.67039575614">
        <ele>45</ele>
        <time>2026-08-30T14:46:13Z</time>
      </trkpt>
      <trkpt lat="59.214187469333" lon="17.670545121655">
        <ele>45.4</ele>
        <time>2026-08-30T14:46:16Z</time>
      </trkpt>
      <trkpt lat="59.214071379974" lon="17.670743940398">
        <ele>45.8</ele>
        <time>2026-08-30T14:46:20Z</time>
      </trkpt>
      <trkpt lat="59.213884044439" lon="17.671010233462">
        <ele>46.2</ele>
        <time>2026-08-30T14:46:25Z</time>
      </trkpt>
      <trkpt lat="59.213672652841" lon="17.671294128522">
        <ele>46.4</ele>
        <time>2026-08-30T14:46:30Z</time>
      </trkpt>
      <trkpt lat="59.213547846302" lon="17.671436537057">
        <ele>46.4</ele>
        <time>2026-08-30T14:46:33Z</time>
      </trkpt>
      <trkpt lat="59.213276691735" lon="17.671687994152">
        <ele>46.4</ele>
        <time>2026-08-30T14:46:39Z</time>
      </trkpt>
      <trkpt lat="59.213234446943" lon="17.671734848991">
        <ele>46.4</ele>
        <time>2026-08-30T14:46:40Z</time>
      </trkpt>
      <trkpt lat="59.213095810264" lon="17.672005249187">
        <ele>46.8</ele>
        <time>2026-08-30T14:46:44Z</time>
      </trkpt>
      <trkpt lat="59.212950635701" lon="17.672307752073">
        <ele>47.4</ele>
        <time>2026-08-30T14:46:48Z</time>
      </trkpt>
      <trkpt lat="59.212873438373" lon="17.672453178093">
        <ele>47.8</ele>
        <time>2026-08-30T14:46:50Z</time>
      </trkpt>
      <trkpt lat="59.212773442268" lon="17.672671861947">
        <ele>48.2</ele>
        <time>2026-08-30T14:46:53Z</time>
      </trkpt>
      <trkpt lat="59.212701693177" lon="17.672883169726">
        <ele>48.6</ele>
        <time>2026-08-30T14:46:56Z</time>
      </trkpt>
      <trkpt lat="59.212569259107" lon="17.673220038414">
        <ele>49.4</ele>
        <time>2026-08-30T14:47:02Z</time>
      </trkpt>
      <trkpt lat="59.212520811707" lon="17.673326907679">
        <ele>49.6</ele>
        <time>2026-08-30T14:47:04Z</time>
      </trkpt>
      <trkpt lat="59.212415199727" lon="17.673564618453">
        <ele>50.8</ele>
        <time>2026-08-30T14:47:08Z</time>
      </trkpt>
      <trkpt lat="59.212297266349" lon="17.673849267885">
        <ele>51.6</ele>
        <time>2026-08-30T14:47:12Z</time>
      </trkpt>
      <trkpt lat="59.212226523086" lon="17.674029478803">
        <ele>51.6</ele>
        <time>2026-08-30T14:47:14Z</time>
      </trkpt>
      <trkpt lat="59.212151924148" lon="17.674231315032">
        <ele>51.6</ele>
        <time>2026-08-30T14:47:16Z</time>
      </trkpt>
      <trkpt lat="59.212115714327" lon="17.67434748821">
        <ele>51.6</ele>
        <time>2026-08-30T14:47:17Z</time>
      </trkpt>
      <trkpt lat="59.212080929428" lon="17.674619313329">
        <ele>51.2</ele>
        <time>2026-08-30T14:47:19Z</time>
      </trkpt>
      <trkpt lat="59.212087467313" lon="17.675105966628">
        <ele>50</ele>
        <time>2026-08-30T14:47:22Z</time>
      </trkpt>
      <trkpt lat="59.212088389322" lon="17.675269413739">
        <ele>49.6</ele>
        <time>2026-08-30T14:47:23Z</time>
      </trkpt>
      <trkpt lat="59.212072798982" lon="17.675430262461">
        <ele>49.2</ele>
        <time>2026-08-30T14:47:24Z</time>
      </trkpt>
      <trkpt lat="59.211991913617" lon="17.675756402314">
        <ele>47.8</ele>
        <time>2026-08-30T14:47:26Z</time>
      </trkpt>
      <trkpt lat="59.211933407933" lon="17.675914317369">
        <ele>46.6</ele>
        <time>2026-08-30T14:47:27Z</time>
      </trkpt>
      <trkpt lat="59.211868867278" lon="17.676071980968">
        <ele>45.6</ele>
        <time>2026-08-30T14:47:28Z</time>
      </trkpt>
      <trkpt lat="59.211804326624" lon="17.676235344261">
        <ele>44.4</ele>
        <time>2026-08-30T14:47:29Z</time>
      </trkpt>
      <trkpt lat="59.211739366874" lon="17.676397534087">
        <ele>43</ele>
        <time>2026-08-30T14:47:30Z</time>
      </trkpt>
      <trkpt lat="59.211672479287" lon="17.676552934572">
        <ele>41.8</ele>
        <time>2026-08-30T14:47:31Z</time>
      </trkpt>
      <trkpt lat="59.211540548131" lon="17.676847307011">
        <ele>40.2</ele>
        <time>2026-08-30T14:47:33Z</time>
      </trkpt>
      <trkpt lat="59.211390763521" lon="17.677109241486">
        <ele>39.2</ele>
        <time>2026-08-30T14:47:35Z</time>
      </trkpt>
      <trkpt lat="59.211322953925" lon="17.677239328623">
        <ele>38</ele>
        <time>2026-08-30T14:47:36Z</time>
      </trkpt>
      <trkpt lat="59.211188843474" lon="17.677499586716">
        <ele>36</ele>
        <time>2026-08-30T14:47:38Z</time>
      </trkpt>
      <trkpt lat="59.210997568443" lon="17.677900660783">
        <ele>35</ele>
        <time>2026-08-30T14:47:41Z</time>
      </trkpt>
      <trkpt lat="59.210734041408" lon="17.678492423147">
        <ele>34</ele>
        <time>2026-08-30T14:47:45Z</time>
      </trkpt>
      <trkpt lat="59.210584340617" lon="17.678791824728">
        <ele>34</ele>
        <time>2026-08-30T14:47:47Z</time>
      </trkpt>
      <trkpt lat="59.210450481623" lon="17.679102038965">
        <ele>32.8</ele>
        <time>2026-08-30T14:47:49Z</time>
      </trkpt>
      <trkpt lat="59.210269432515" lon="17.679560948163">
        <ele>31.6</ele>
        <time>2026-08-30T14:47:52Z</time>
      </trkpt>
      <trkpt lat="59.210222996771" lon="17.679716097191">
        <ele>31</ele>
        <time>2026-08-30T14:47:53Z</time>
      </trkpt>
      <trkpt lat="59.21018586494" lon="17.67986596562">
        <ele>30.4</ele>
        <time>2026-08-30T14:47:54Z</time>
      </trkpt>
      <trkpt lat="59.210136244074" lon="17.680130749941">
        <ele>29.6</ele>
        <time>2026-08-30T14:47:56Z</time>
      </trkpt>
      <trkpt lat="59.210119144991" lon="17.680254885927">
        <ele>29.4</ele>
        <time>2026-08-30T14:47:57Z</time>
      </trkpt>
      <trkpt lat="59.210150493309" lon="17.680427804589">
        <ele>29</ele>
        <time>2026-08-30T14:47:59Z</time>
      </trkpt>
      <trkpt lat="59.210239257663" lon="17.680486477911">
        <ele>28.8</ele>
        <time>2026-08-30T14:48:01Z</time>
      </trkpt>
      <trkpt lat="59.210292901844" lon="17.680473821238">
        <ele>28.8</ele>
        <time>2026-08-30T14:48:02Z</time>
      </trkpt>
      <trkpt lat="59.210461294279" lon="17.680256478488">
        <ele>28.6</ele>
        <time>2026-08-30T14:48:05Z</time>
      </trkpt>
      <trkpt lat="59.210669249296" lon="17.679869318381">
        <ele>28</ele>
        <time>2026-08-30T14:48:09Z</time>
      </trkpt>
      <trkpt lat="59.210724234581" lon="17.679793294519">
        <ele>27</ele>
        <time>2026-08-30T14:48:10Z</time>
      </trkpt>
      <trkpt lat="59.210784835741" lon="17.679736800492">
        <ele>26.4</ele>
        <time>2026-08-30T14:48:11Z</time>
      </trkpt>
      <trkpt lat="59.210903942585" lon="17.679644096643">
        <ele>25.8</ele>
        <time>2026-08-30T14:48:13Z</time>
      </trkpt>
      <trkpt lat="59.21103076078" lon="17.679593805224">
        <ele>25.4</ele>
        <time>2026-08-30T14:48:15Z</time>
      </trkpt>
      <trkpt lat="59.211242152378" lon="17.67970494926">
        <ele>25.2</ele>
        <time>2026-08-30T14:48:18Z</time>
      </trkpt>
      <trkpt lat="59.211313147098" lon="17.679779883474">
        <ele>25.2</ele>
        <time>2026-08-30T14:48:19Z</time>
      </trkpt>
      <trkpt lat="59.211386237293" lon="17.679868144915">
        <ele>25.2</ele>
        <time>2026-08-30T14:48:20Z</time>
      </trkpt>
      <trkpt lat="59.211459159851" lon="17.679975349456">
        <ele>25</ele>
        <time>2026-08-30T14:48:21Z</time>
      </trkpt>
      <trkpt lat="59.211519425735" lon="17.680103927851">
        <ele>25</ele>
        <time>2026-08-30T14:48:22Z</time>
      </trkpt>
      <trkpt lat="59.211596623063" lon="17.680453453213">
        <ele>24.4</ele>
        <time>2026-08-30T14:48:24Z</time>
      </trkpt>
      <trkpt lat="59.211620176211" lon="17.680646823719">
        <ele>23.6</ele>
        <time>2026-08-30T14:48:25Z</time>
      </trkpt>
      <trkpt lat="59.211640628055" lon="17.680839607492">
        <ele>23</ele>
        <time>2026-08-30T14:48:26Z</time>
      </trkpt>
      <trkpt lat="59.211676251143" lon="17.681220900267">
        <ele>21.6</ele>
        <time>2026-08-30T14:48:28Z</time>
      </trkpt>
      <trkpt lat="59.211712460965" lon="17.68159205094">
        <ele>19.6</ele>
        <time>2026-08-30T14:48:30Z</time>
      </trkpt>
      <trkpt lat="59.211746575311" lon="17.681947695091">
        <ele>17.8</ele>
        <time>2026-08-30T14:48:32Z</time>
      </trkpt>
      <trkpt lat="59.211778007448" lon="17.68228800036">
        <ele>16.4</ele>
        <time>2026-08-30T14:48:34Z</time>
      </trkpt>
      <trkpt lat="59.211875991896" lon="17.683072965592">
        <ele>15.4</ele>
        <time>2026-08-30T14:48:39Z</time>
      </trkpt>
      <trkpt lat="59.211898371577" lon="17.683207495138">
        <ele>15.4</ele>
        <time>2026-08-30T14:48:40Z</time>
      </trkpt>
      <trkpt lat="59.211970791221" lon="17.683620136231">
        <ele>15.4</ele>
        <time>2026-08-30T14:48:44Z</time>
      </trkpt>
      <trkpt lat="59.212006414309" lon="17.683808393776">
        <ele>15.6</ele>
        <time>2026-08-30T14:48:46Z</time>
      </trkpt>
      <trkpt lat="59.212084533647" lon="17.684216843918">
        <ele>17.6</ele>
        <time>2026-08-30T14:48:50Z</time>
      </trkpt>
      <trkpt lat="59.212171873078" lon="17.68470400013">
        <ele>18.4</ele>
        <time>2026-08-30T14:48:55Z</time>
      </trkpt>
      <trkpt lat="59.212196432054" lon="17.684878343716">
        <ele>18.6</ele>
        <time>2026-08-30T14:48:57Z</time>
      </trkpt>
      <trkpt lat="59.212203305215" lon="17.685176990926">
        <ele>18.8</ele>
        <time>2026-08-30T14:49:00Z</time>
      </trkpt>
      <trkpt lat="59.212106578052" lon="17.685568509623">
        <ele>18.8</ele>
        <time>2026-08-30T14:49:04Z</time>
      </trkpt>
      <trkpt lat="59.211937766522" lon="17.68574796617">
        <ele>18.8</ele>
        <time>2026-08-30T14:49:07Z</time>
      </trkpt>
      <trkpt lat="59.211879512295" lon="17.685786439106">
        <ele>18.8</ele>
        <time>2026-08-30T14:49:08Z</time>
      </trkpt>
      <trkpt lat="59.211601819843" lon="17.685919459909">
        <ele>18.4</ele>
        <time>2026-08-30T14:49:13Z</time>
      </trkpt>
      <trkpt lat="59.211245169863" lon="17.685967739671">
        <ele>18</ele>
        <time>2026-08-30T14:49:19Z</time>
      </trkpt>
      <trkpt lat="59.211118770763" lon="17.685953238979">
        <ele>17.8</ele>
        <time>2026-08-30T14:49:21Z</time>
      </trkpt>
      <trkpt lat="59.2108767014" lon="17.685933541507">
        <ele>17.8</ele>
        <time>2026-08-30T14:49:25Z</time>
      </trkpt>
      <trkpt lat="59.210821464658" lon="17.685942091048">
        <ele>17.8</ele>
        <time>2026-08-30T14:49:26Z</time>
      </trkpt>
      <trkpt lat="59.210661202669" lon="17.686016522348">
        <ele>17.6</ele>
        <time>2026-08-30T14:49:29Z</time>
      </trkpt>
      <trkpt lat="59.21061174944" lon="17.686051558703">
        <ele>17.6</ele>
        <time>2026-08-30T14:49:30Z</time>
      </trkpt>
      <trkpt lat="59.210517201573" lon="17.686143340543">
        <ele>17.6</ele>
        <time>2026-08-30T14:49:32Z</time>
      </trkpt>
      <trkpt lat="59.210413601249" lon="17.686240822077">
        <ele>17.6</ele>
        <time>2026-08-30T14:49:34Z</time>
      </trkpt>
      <trkpt lat="59.210243616253" lon="17.686414076015">
        <ele>17.6</ele>
        <time>2026-08-30T14:49:37Z</time>
      </trkpt>
      <trkpt lat="59.210135238245" lon="17.686573499814">
        <ele>17.8</ele>
        <time>2026-08-30T14:49:39Z</time>
      </trkpt>
      <trkpt lat="59.210053514689" lon="17.686738790944">
        <ele>18</ele>
        <time>2026-08-30T14:49:41Z</time>
      </trkpt>
      <trkpt lat="59.209987968206" lon="17.68687851727">
        <ele>18.4</ele>
        <time>2026-08-30T14:49:43Z</time>
      </trkpt>
      <trkpt lat="59.209941532463" lon="17.687004245818">
        <ele>18.8</ele>
        <time>2026-08-30T14:49:45Z</time>
      </trkpt>
      <trkpt lat="59.209862407297" lon="17.687186468393">
        <ele>19.2</ele>
        <time>2026-08-30T14:49:48Z</time>
      </trkpt>
      <trkpt lat="59.209798537195" lon="17.687322003767">
        <ele>19.6</ele>
        <time>2026-08-30T14:49:50Z</time>
      </trkpt>
      <trkpt lat="59.209738103673" lon="17.687468435615">
        <ele>21.2</ele>
        <time>2026-08-30T14:49:52Z</time>
      </trkpt>
      <trkpt lat="59.209711197764" lon="17.687542196363">
        <ele>21.8</ele>
        <time>2026-08-30T14:49:53Z</time>
      </trkpt>
      <trkpt lat="59.209687896073" lon="17.687620650977">
        <ele>22.4</ele>
        <time>2026-08-30T14:49:54Z</time>
      </trkpt>
      <trkpt lat="59.209662247449" lon="17.68769742921">
        <ele>23</ele>
        <time>2026-08-30T14:49:55Z</time>
      </trkpt>
      <trkpt lat="59.209634000435" lon="17.687777392566">
        <ele>23.4</ele>
        <time>2026-08-30T14:49:56Z</time>
      </trkpt>
      <trkpt lat="59.209496453404" lon="17.688126666471">
        <ele>24</ele>
        <time>2026-08-30T14:50:00Z</time>
      </trkpt>
      <trkpt lat="59.209280703217" lon="17.688724128529">
        <ele>23.6</ele>
        <time>2026-08-30T14:50:06Z</time>
      </trkpt>
      <trkpt lat="59.209144245833" lon="17.689136601985">
        <ele>22.4</ele>
        <time>2026-08-30T14:50:10Z</time>
      </trkpt>
      <trkpt lat="59.209050787613" lon="17.689413372427">
        <ele>22.2</ele>
        <time>2026-08-30T14:50:13Z</time>
      </trkpt>
      <trkpt lat="59.208991108462" lon="17.689574640244">
        <ele>22</ele>
        <time>2026-08-30T14:50:15Z</time>
      </trkpt>
      <trkpt lat="59.208859009668" lon="17.689739260823">
        <ele>22</ele>
        <time>2026-08-30T14:50:18Z</time>
      </trkpt>
      <trkpt lat="59.208691958338" lon="17.68975510262">
        <ele>22.4</ele>
        <time>2026-08-30T14:50:21Z</time>
      </trkpt>
      <trkpt lat="59.208639487624" lon="17.689753510058">
        <ele>22.6</ele>
        <time>2026-08-30T14:50:22Z</time>
      </trkpt>
      <trkpt lat="59.208538737148" lon="17.689771112055">
        <ele>22.8</ele>
        <time>2026-08-30T14:50:24Z</time>
      </trkpt>
      <trkpt lat="59.208467155695" lon="17.689826264977">
        <ele>23.2</ele>
        <time>2026-08-30T14:50:26Z</time>
      </trkpt>
      <trkpt lat="59.208440333605" lon="17.689856439829">
        <ele>23.6</ele>
        <time>2026-08-30T14:50:27Z</time>
      </trkpt>
      <trkpt lat="59.208360370249" lon="17.690015360713">
        <ele>24.6</ele>
        <time>2026-08-30T14:50:31Z</time>
      </trkpt>
      <trkpt lat="59.208315527067" lon="17.690162714571">
        <ele>26</ele>
        <time>2026-08-30T14:50:34Z</time>
      </trkpt>
      <trkpt lat="59.20827713795" lon="17.690350553021">
        <ele>27</ele>
        <time>2026-08-30T14:50:37Z</time>
      </trkpt>
      <trkpt lat="59.208200694993" lon="17.690696138889">
        <ele>28</ele>
        <time>2026-08-30T14:50:43Z</time>
      </trkpt>
      <trkpt lat="59.208171023056" lon="17.690810551867">
        <ele>28.2</ele>
        <time>2026-08-30T14:50:45Z</time>
      </trkpt>
      <trkpt lat="59.208104219288" lon="17.691047675908">
        <ele>28.6</ele>
        <time>2026-08-30T14:50:49Z</time>
      </trkpt>
      <trkpt lat="59.208018640056" lon="17.691254289821">
        <ele>28.8</ele>
        <time>2026-08-30T14:50:53Z</time>
      </trkpt>
      <trkpt lat="59.207924762741" lon="17.691400721669">
        <ele>29.2</ele>
        <time>2026-08-30T14:50:58Z</time>
      </trkpt>
      <trkpt lat="59.207907244563" lon="17.69141966477">
        <ele>29.2</ele>
        <time>2026-08-30T14:50:59Z</time>
      </trkpt>
      <trkpt lat="59.207792244852" lon="17.691508261487">
        <ele>30.2</ele>
        <time>2026-08-30T14:51:04Z</time>
      </trkpt>
      <trkpt lat="59.207736505195" lon="17.691549081355">
        <ele>30.6</ele>
        <time>2026-08-30T14:51:06Z</time>
      </trkpt>
      <trkpt lat="59.207665510476" lon="17.691598115489">
        <ele>31.2</ele>
        <time>2026-08-30T14:51:09Z</time>
      </trkpt>
      <trkpt lat="59.207583284006" lon="17.691636001691">
        <ele>32.2</ele>
        <time>2026-08-30T14:51:12Z</time>
      </trkpt>
      <trkpt lat="59.207553276792" lon="17.691645137966">
        <ele>32.4</ele>
        <time>2026-08-30T14:51:13Z</time>
      </trkpt>
      <trkpt lat="59.207408772781" lon="17.691688388586">
        <ele>33.2</ele>
        <time>2026-08-30T14:51:17Z</time>
      </trkpt>
      <trkpt lat="59.207366276532" lon="17.691703895107">
        <ele>33.2</ele>
        <time>2026-08-30T14:51:18Z</time>
      </trkpt>
      <trkpt lat="59.20719419606" lon="17.691740104929">
        <ele>33.2</ele>
        <time>2026-08-30T14:51:22Z</time>
      </trkpt>
      <trkpt lat="59.207115070894" lon="17.691731136292">
        <ele>33.2</ele>
        <time>2026-08-30T14:51:24Z</time>
      </trkpt>
      <trkpt lat="59.206953719258" lon="17.691712612286">
        <ele>33</ele>
        <time>2026-08-30T14:51:29Z</time>
      </trkpt>
      <trkpt lat="59.206930417567" lon="17.691745469347">
        <ele>33</ele>
        <time>2026-08-30T14:51:30Z</time>
      </trkpt>
      <trkpt lat="59.206875348464" lon="17.69185770303">
        <ele>33.2</ele>
        <time>2026-08-30T14:51:33Z</time>
      </trkpt>
      <trkpt lat="59.206856740639" lon="17.691959207878">
        <ele>33.8</ele>
        <time>2026-08-30T14:51:35Z</time>
      </trkpt>
      <trkpt lat="59.206875180826" lon="17.6921425201">
        <ele>34.4</ele>
        <time>2026-08-30T14:51:38Z</time>
      </trkpt>
      <trkpt lat="59.206910720095" lon="17.692300351337">
        <ele>34.6</ele>
        <time>2026-08-30T14:51:40Z</time>
      </trkpt>
      <trkpt lat="59.206966208294" lon="17.692571422085">
        <ele>34.6</ele>
        <time>2026-08-30T14:51:43Z</time>
      </trkpt>
      <trkpt lat="59.207039047033" lon="17.692912649363">
        <ele>34.8</ele>
        <time>2026-08-30T14:51:47Z</time>
      </trkpt>
      <trkpt lat="59.207062264904" lon="17.693046927452">
        <ele>35</ele>
        <time>2026-08-30T14:51:49Z</time>
      </trkpt>
      <trkpt lat="59.207038879395" lon="17.69325488247">
        <ele>35</ele>
        <time>2026-08-30T14:51:54Z</time>
      </trkpt>
      <trkpt lat="59.207007195801" lon="17.693387484178">
        <ele>35.2</ele>
        <time>2026-08-30T14:51:56Z</time>
      </trkpt>
      <trkpt lat="59.206950701773" lon="17.693534167483">
        <ele>36.2</ele>
        <time>2026-08-30T14:51:58Z</time>
      </trkpt>
      <trkpt lat="59.206871492788" lon="17.693686885759">
        <ele>37.2</ele>
        <time>2026-08-30T14:52:01Z</time>
      </trkpt>
      <trkpt lat="59.206825224683" lon="17.693730052561">
        <ele>37.6</ele>
        <time>2026-08-30T14:52:03Z</time>
      </trkpt>
      <trkpt lat="59.206706788391" lon="17.693762658164">
        <ele>38.2</ele>
        <time>2026-08-30T14:52:07Z</time>
      </trkpt>
      <trkpt lat="59.206666639075" lon="17.693773051724">
        <ele>38.4</ele>
        <time>2026-08-30T14:52:08Z</time>
      </trkpt>
      <trkpt lat="59.206517944112" lon="17.693790486082">
        <ele>39.4</ele>
        <time>2026-08-30T14:52:12Z</time>
      </trkpt>
      <trkpt lat="59.206439573318" lon="17.693790402263">
        <ele>39.8</ele>
        <time>2026-08-30T14:52:14Z</time>
      </trkpt>
      <trkpt lat="59.206275958568" lon="17.693772632629">
        <ele>40.6</ele>
        <time>2026-08-30T14:52:18Z</time>
      </trkpt>
      <trkpt lat="59.20623505488" lon="17.693782607093">
        <ele>40.6</ele>
        <time>2026-08-30T14:52:19Z</time>
      </trkpt>
      <trkpt lat="59.206076972187" lon="17.693951921538">
        <ele>41</ele>
        <time>2026-08-30T14:52:24Z</time>
      </trkpt>
      <trkpt lat="59.205936910585" lon="17.694236068055">
        <ele>41.6</ele>
        <time>2026-08-30T14:52:30Z</time>
      </trkpt>
      <trkpt lat="59.205834986642" lon="17.694415943697">
        <ele>42.4</ele>
        <time>2026-08-30T14:52:34Z</time>
      </trkpt>
      <trkpt lat="59.20575812459" lon="17.694554496557">
        <ele>42.8</ele>
        <time>2026-08-30T14:52:37Z</time>
      </trkpt>
      <trkpt lat="59.205679167062" lon="17.694735629484">
        <ele>44</ele>
        <time>2026-08-30T14:52:41Z</time>
      </trkpt>
      <trkpt lat="59.205631809309" lon="17.694888096303">
        <ele>45.2</ele>
        <time>2026-08-30T14:52:44Z</time>
      </trkpt>
      <trkpt lat="59.205615799874" lon="17.694945009425">
        <ele>45.4</ele>
        <time>2026-08-30T14:52:45Z</time>
      </trkpt>
      <trkpt lat="59.205576991662" lon="17.695165621117">
        <ele>45.8</ele>
        <time>2026-08-30T14:52:48Z</time>
      </trkpt>
      <trkpt lat="59.205579422414" lon="17.695347340778">
        <ele>45.8</ele>
        <time>2026-08-30T14:52:50Z</time>
      </trkpt>
      <trkpt lat="59.205651339144" lon="17.695619501173">
        <ele>45.8</ele>
        <time>2026-08-30T14:52:53Z</time>
      </trkpt>
      <trkpt lat="59.205806739628" lon="17.695879675448">
        <ele>45.6</ele>
        <time>2026-08-30T14:52:56Z</time>
      </trkpt>
      <trkpt lat="59.205874884501" lon="17.695960057899">
        <ele>45.4</ele>
        <time>2026-08-30T14:52:57Z</time>
      </trkpt>
      <trkpt lat="59.205939089879" lon="17.696047648787">
        <ele>44.8</ele>
        <time>2026-08-30T14:52:58Z</time>
      </trkpt>
      <trkpt lat="59.206016454846" lon="17.696273121983">
        <ele>43.8</ele>
        <time>2026-08-30T14:53:00Z</time>
      </trkpt>
      <trkpt lat="59.206042271107" lon="17.696558274329">
        <ele>42.2</ele>
        <time>2026-08-30T14:53:02Z</time>
      </trkpt>
      <trkpt lat="59.206049395725" lon="17.696716273203">
        <ele>41</ele>
        <time>2026-08-30T14:53:03Z</time>
      </trkpt>
      <trkpt lat="59.206053838134" lon="17.69687410444">
        <ele>39.6</ele>
        <time>2026-08-30T14:53:04Z</time>
      </trkpt>
      <trkpt lat="59.206049982458" lon="17.697020284832">
        <ele>38.6</ele>
        <time>2026-08-30T14:53:05Z</time>
      </trkpt>
      <trkpt lat="59.206007905304" lon="17.697303928435">
        <ele>37.2</ele>
        <time>2026-08-30T14:53:07Z</time>
      </trkpt>
      <trkpt lat="59.205867256969" lon="17.697731908411">
        <ele>36.2</ele>
        <time>2026-08-30T14:53:10Z</time>
      </trkpt>
      <trkpt lat="59.205745300278" lon="17.698001721874">
        <ele>34</ele>
        <time>2026-08-30T14:53:12Z</time>
      </trkpt>
      <trkpt lat="59.205631306395" lon="17.698258208111">
        <ele>31.8</ele>
        <time>2026-08-30T14:53:14Z</time>
      </trkpt>
      <trkpt lat="59.205576069653" lon="17.698385026306">
        <ele>30.6</ele>
        <time>2026-08-30T14:53:15Z</time>
      </trkpt>
      <trkpt lat="59.205525442958" lon="17.698507821187">
        <ele>29.4</ele>
        <time>2026-08-30T14:53:16Z</time>
      </trkpt>
      <trkpt lat="59.205473056063" lon="17.698618462309">
        <ele>28</ele>
        <time>2026-08-30T14:53:17Z</time>
      </trkpt>
      <trkpt lat="59.205422345549" lon="17.698729438707">
        <ele>26.8</ele>
        <time>2026-08-30T14:53:18Z</time>
      </trkpt>
      <trkpt lat="59.205316985026" lon="17.698920294642">
        <ele>25.6</ele>
        <time>2026-08-30T14:53:20Z</time>
      </trkpt>
      <trkpt lat="59.20526644215" lon="17.698993133381">
        <ele>25.4</ele>
        <time>2026-08-30T14:53:21Z</time>
      </trkpt>
      <trkpt lat="59.205165859312" lon="17.699121041223">
        <ele>25.4</ele>
        <time>2026-08-30T14:53:23Z</time>
      </trkpt>
      <trkpt lat="59.205017667264" lon="17.699294630438">
        <ele>25.2</ele>
        <time>2026-08-30T14:53:26Z</time>
      </trkpt>
      <trkpt lat="59.204919934273" lon="17.699398146942">
        <ele>25.6</ele>
        <time>2026-08-30T14:53:28Z</time>
      </trkpt>
      <trkpt lat="59.204778280109" lon="17.699531922117">
        <ele>26.6</ele>
        <time>2026-08-30T14:53:31Z</time>
      </trkpt>
      <trkpt lat="59.204736370593" lon="17.699570730329">
        <ele>26.8</ele>
        <time>2026-08-30T14:53:32Z</time>
      </trkpt>
      <trkpt lat="59.204522464424" lon="17.699849177152">
        <ele>27.8</ele>
        <time>2026-08-30T14:53:37Z</time>
      </trkpt>
      <trkpt lat="59.204482566565" lon="17.699916986749">
        <ele>28</ele>
        <time>2026-08-30T14:53:38Z</time>
      </trkpt>
      <trkpt lat="59.204446272925" lon="17.699993764982">
        <ele>28.2</ele>
        <time>2026-08-30T14:53:39Z</time>
      </trkpt>
      <trkpt lat="59.204376870766" lon="17.700251927599">
        <ele>28.6</ele>
        <time>2026-08-30T14:53:42Z</time>
      </trkpt>
      <trkpt lat="59.204369075596" lon="17.700339015573">
        <ele>28.6</ele>
        <time>2026-08-30T14:53:43Z</time>
      </trkpt>
      <trkpt lat="59.204366644844" lon="17.700421158224">
        <ele>28.6</ele>
        <time>2026-08-30T14:53:44Z</time>
      </trkpt>
      <trkpt lat="59.204360358417" lon="17.700600866228">
        <ele>28.6</ele>
        <time>2026-08-30T14:53:46Z</time>
      </trkpt>
      <trkpt lat="59.20436790213" lon="17.700712596998">
        <ele>28.6</ele>
        <time>2026-08-30T14:53:47Z</time>
      </trkpt>
      <trkpt lat="59.204399334267" lon="17.701335120946">
        <ele>28.2</ele>
        <time>2026-08-30T14:53:52Z</time>
      </trkpt>
      <trkpt lat="59.204427246004" lon="17.70164122805">
        <ele>27</ele>
        <time>2026-08-30T14:53:54Z</time>
      </trkpt>
      <trkpt lat="59.204452056438" lon="17.701804172248">
        <ele>26.4</ele>
        <time>2026-08-30T14:53:55Z</time>
      </trkpt>
      <trkpt lat="59.20447778888" lon="17.701949095353">
        <ele>25.8</ele>
        <time>2026-08-30T14:53:56Z</time>
      </trkpt>
      <trkpt lat="59.20451072976" lon="17.702075997368">
        <ele>25</ele>
        <time>2026-08-30T14:53:57Z</time>
      </trkpt>
      <trkpt lat="59.204603936523" lon="17.702353773639">
        <ele>24.4</ele>
        <time>2026-08-30T14:53:59Z</time>
      </trkpt>
      <trkpt lat="59.204718265682" lon="17.702600033954">
        <ele>24</ele>
        <time>2026-08-30T14:54:01Z</time>
      </trkpt>
      <trkpt lat="59.204857656732" lon="17.702804887667">
        <ele>23.8</ele>
        <time>2026-08-30T14:54:03Z</time>
      </trkpt>
      <trkpt lat="59.204935524613" lon="17.702903877944">
        <ele>23.8</ele>
        <time>2026-08-30T14:54:04Z</time>
      </trkpt>
      <trkpt lat="59.205078938976" lon="17.703051986173">
        <ele>22.8</ele>
        <time>2026-08-30T14:54:06Z</time>
      </trkpt>
      <trkpt lat="59.205145072192" lon="17.703103367239">
        <ele>22.2</ele>
        <time>2026-08-30T14:54:07Z</time>
      </trkpt>
      <trkpt lat="59.205209612846" lon="17.703138068318">
        <ele>21.8</ele>
        <time>2026-08-30T14:54:08Z</time>
      </trkpt>
      <trkpt lat="59.205327713862" lon="17.703146701679">
        <ele>21.6</ele>
        <time>2026-08-30T14:54:10Z</time>
      </trkpt>
      <trkpt lat="59.205430811271" lon="17.703114179894">
        <ele>21.6</ele>
        <time>2026-08-30T14:54:12Z</time>
      </trkpt>
      <trkpt lat="59.205585205927" lon="17.703033629805">
        <ele>21.6</ele>
        <time>2026-08-30T14:54:15Z</time>
      </trkpt>
      <trkpt lat="59.205845212564" lon="17.702833721414">
        <ele>22.8</ele>
        <time>2026-08-30T14:54:20Z</time>
      </trkpt>
      <trkpt lat="59.205900197849" lon="17.702767588198">
        <ele>22.8</ele>
        <time>2026-08-30T14:54:21Z</time>
      </trkpt>
      <trkpt lat="59.206139249727" lon="17.702311780304">
        <ele>23</ele>
        <time>2026-08-30T14:54:26Z</time>
      </trkpt>
      <trkpt lat="59.206227175891" lon="17.702090162784">
        <ele>22.6</ele>
        <time>2026-08-30T14:54:28Z</time>
      </trkpt>
      <trkpt lat="59.206363381818" lon="17.701756143942">
        <ele>21.8</ele>
        <time>2026-08-30T14:54:31Z</time>
      </trkpt>
      <trkpt lat="59.206413757056" lon="17.701662434265">
        <ele>21.6</ele>
        <time>2026-08-30T14:54:32Z</time>
      </trkpt>
      <trkpt lat="59.206645935774" lon="17.70140661858">
        <ele>21</ele>
        <time>2026-08-30T14:54:36Z</time>
      </trkpt>
      <trkpt lat="59.206699579954" lon="17.701344508678">
        <ele>20.6</ele>
        <time>2026-08-30T14:54:37Z</time>
      </trkpt>
      <trkpt lat="59.206874594092" lon="17.701156670228">
        <ele>19.8</ele>
        <time>2026-08-30T14:54:40Z</time>
      </trkpt>
      <trkpt lat="59.206921113655" lon="17.701064636931">
        <ele>19.6</ele>
        <time>2026-08-30T14:54:41Z</time>
      </trkpt>
      <trkpt lat="59.207064528018" lon="17.700609080493">
        <ele>19.2</ele>
        <time>2026-08-30T14:54:45Z</time>
      </trkpt>
      <trkpt lat="59.207157315686" lon="17.700228206813">
        <ele>19.2</ele>
        <time>2026-08-30T14:54:48Z</time>
      </trkpt>
      <trkpt lat="59.207252031192" lon="17.700001476333">
        <ele>19</ele>
        <time>2026-08-30T14:54:50Z</time>
      </trkpt>
      <trkpt lat="59.207361498848" lon="17.699843393639">
        <ele>19</ele>
        <time>2026-08-30T14:54:52Z</time>
      </trkpt>
      <trkpt lat="59.207412209362" lon="17.699774242938">
        <ele>19</ele>
        <time>2026-08-30T14:54:53Z</time>
      </trkpt>
      <trkpt lat="59.207457304001" lon="17.699718000367">
        <ele>19</ele>
        <time>2026-08-30T14:54:54Z</time>
      </trkpt>
      <trkpt lat="59.207500470802" lon="17.69967449829">
        <ele>19</ele>
        <time>2026-08-30T14:54:55Z</time>
      </trkpt>
      <trkpt lat="59.20757079497" lon="17.699634516612">
        <ele>19</ele>
        <time>2026-08-30T14:54:57Z</time>
      </trkpt>
      <trkpt lat="59.207727033645" lon="17.699718922377">
        <ele>19.6</ele>
        <time>2026-08-30T14:55:01Z</time>
      </trkpt>
      <trkpt lat="59.207765674219" lon="17.699768207967">
        <ele>20.2</ele>
        <time>2026-08-30T14:55:02Z</time>
      </trkpt>
      <trkpt lat="59.207804230973" lon="17.699821013957">
        <ele>21.2</ele>
        <time>2026-08-30T14:55:03Z</time>
      </trkpt>
      <trkpt lat="59.207868184894" lon="17.699927296489">
        <ele>22.6</ele>
        <time>2026-08-30T14:55:05Z</time>
      </trkpt>
      <trkpt lat="59.207927612588" lon="17.700059982017">
        <ele>23.8</ele>
        <time>2026-08-30T14:55:07Z</time>
      </trkpt>
      <trkpt lat="59.208003720269" lon="17.700295010582">
        <ele>24.6</ele>
        <time>2026-08-30T14:55:10Z</time>
      </trkpt>
      <trkpt lat="59.208045462146" lon="17.70045787096">
        <ele>25</ele>
        <time>2026-08-30T14:55:12Z</time>
      </trkpt>
      <trkpt lat="59.208082677796" lon="17.700598938391">
        <ele>25.8</ele>
        <time>2026-08-30T14:55:14Z</time>
      </trkpt>
      <trkpt lat="59.208102878183" lon="17.700647721067">
        <ele>26.2</ele>
        <time>2026-08-30T14:55:15Z</time>
      </trkpt>
      <trkpt lat="59.208147805184" lon="17.700746878982">
        <ele>26.8</ele>
        <time>2026-08-30T14:55:17Z</time>
      </trkpt>
      <trkpt lat="59.208171106875" lon="17.700799601153">
        <ele>27.2</ele>
        <time>2026-08-30T14:55:18Z</time>
      </trkpt>
      <trkpt lat="59.208245621994" lon="17.700924826786">
        <ele>28.4</ele>
        <time>2026-08-30T14:55:21Z</time>
      </trkpt>
      <trkpt lat="59.208315275609" lon="17.70096774213">
        <ele>29</ele>
        <time>2026-08-30T14:55:23Z</time>
      </trkpt>
      <trkpt lat="59.208387695253" lon="17.700986098498">
        <ele>29.6</ele>
        <time>2026-08-30T14:55:25Z</time>
      </trkpt>
      <trkpt lat="59.208524907008" lon="17.700985763222">
        <ele>30</ele>
        <time>2026-08-30T14:55:28Z</time>
      </trkpt>
      <trkpt lat="59.20868483372" lon="17.701109312475">
        <ele>30</ele>
        <time>2026-08-30T14:55:31Z</time>
      </trkpt>
      <trkpt lat="59.208775022998" lon="17.701334450394">
        <ele>30</ele>
        <time>2026-08-30T14:55:34Z</time>
      </trkpt>
      <trkpt lat="59.208928160369" lon="17.701737200841">
        <ele>30.2</ele>
        <time>2026-08-30T14:55:40Z</time>
      </trkpt>
      <trkpt lat="59.209056152031" lon="17.701934510842">
        <ele>30.4</ele>
        <time>2026-08-30T14:55:45Z</time>
      </trkpt>
      <trkpt lat="59.209074508399" lon="17.701954543591">
        <ele>30.6</ele>
        <time>2026-08-30T14:55:46Z</time>
      </trkpt>
      <trkpt lat="59.209161764011" lon="17.702013133094">
        <ele>31</ele>
        <time>2026-08-30T14:55:50Z</time>
      </trkpt>
      <trkpt lat="59.20920769684" lon="17.702019754797">
        <ele>31.6</ele>
        <time>2026-08-30T14:55:52Z</time>
      </trkpt>
      <trkpt lat="59.209280284122" lon="17.702020006254">
        <ele>32.8</ele>
        <time>2026-08-30T14:55:55Z</time>
      </trkpt>
      <trkpt lat="59.209316326305" lon="17.702019168064">
        <ele>33.4</ele>
        <time>2026-08-30T14:55:56Z</time>
      </trkpt>
      <trkpt lat="59.209387907758" lon="17.702022269368">
        <ele>34.2</ele>
        <time>2026-08-30T14:55:58Z</time>
      </trkpt>
      <trkpt lat="59.20951589942" lon="17.702052863315">
        <ele>35.4</ele>
        <time>2026-08-30T14:56:02Z</time>
      </trkpt>
      <trkpt lat="59.209660319611" lon="17.702167946845">
        <ele>36.6</ele>
        <time>2026-08-30T14:56:07Z</time>
      </trkpt>
      <trkpt lat="59.209769451991" lon="17.702352097258">
        <ele>37</ele>
        <time>2026-08-30T14:56:13Z</time>
      </trkpt>
      <trkpt lat="59.209802895784" lon="17.702504228801">
        <ele>37.6</ele>
        <time>2026-08-30T14:56:16Z</time>
      </trkpt>
      <trkpt lat="59.209802895784" lon="17.702609421685">
        <ele>38.2</ele>
        <time>2026-08-30T14:56:18Z</time>
      </trkpt>
      <trkpt lat="59.209773726761" lon="17.702782843262">
        <ele>39</ele>
        <time>2026-08-30T14:56:21Z</time>
      </trkpt>
      <trkpt lat="59.209762997925" lon="17.70285836421">
        <ele>39.2</ele>
        <time>2026-08-30T14:56:22Z</time>
      </trkpt>
      <trkpt lat="59.209725698456" lon="17.703229263425">
        <ele>39.4</ele>
        <time>2026-08-30T14:56:26Z</time>
      </trkpt>
      <trkpt lat="59.209726620466" lon="17.703342083842">
        <ele>39.4</ele>
        <time>2026-08-30T14:56:27Z</time>
      </trkpt>
      <trkpt lat="59.209835166112" lon="17.70384516567">
        <ele>39.4</ele>
        <time>2026-08-30T14:56:31Z</time>
      </trkpt>
      <trkpt lat="59.210008587688" lon="17.704118415713">
        <ele>39</ele>
        <time>2026-08-30T14:56:34Z</time>
      </trkpt>
      <trkpt lat="59.210116798058" lon="17.704268367961">
        <ele>38</ele>
        <time>2026-08-30T14:56:36Z</time>
      </trkpt>
      <trkpt lat="59.21019718051" lon="17.704473724589">
        <ele>35.8</ele>
        <time>2026-08-30T14:56:38Z</time>
      </trkpt>
      <trkpt lat="59.210247807205" lon="17.704720906913">
        <ele>34.6</ele>
        <time>2026-08-30T14:56:40Z</time>
      </trkpt>
      <trkpt lat="59.210302373394" lon="17.70499910228">
        <ele>34.4</ele>
        <time>2026-08-30T14:56:42Z</time>
      </trkpt>
      <trkpt lat="59.210382336751" lon="17.705295654014">
        <ele>34.2</ele>
        <time>2026-08-30T14:56:44Z</time>
      </trkpt>
      <trkpt lat="59.210519380867" lon="17.705782223493">
        <ele>33.8</ele>
        <time>2026-08-30T14:56:47Z</time>
      </trkpt>
      <trkpt lat="59.210637398064" lon="17.70629670471">
        <ele>33</ele>
        <time>2026-08-30T14:56:50Z</time>
      </trkpt>
      <trkpt lat="59.210668997839" lon="17.706454871222">
        <ele>31.6</ele>
        <time>2026-08-30T14:56:51Z</time>
      </trkpt>
      <trkpt lat="59.210700681433" lon="17.706605996937">
        <ele>30.6</ele>
        <time>2026-08-30T14:56:52Z</time>
      </trkpt>
      <trkpt lat="59.21073555015" lon="17.706756368279">
        <ele>29.4</ele>
        <time>2026-08-30T14:56:53Z</time>
      </trkpt>
      <trkpt lat="59.210806796327" lon="17.70706624724">
        <ele>27.4</ele>
        <time>2026-08-30T14:56:55Z</time>
      </trkpt>
      <trkpt lat="59.210874689743" lon="17.707371348515">
        <ele>26</ele>
        <time>2026-08-30T14:56:57Z</time>
      </trkpt>
      <trkpt lat="59.21090612188" lon="17.707522893324">
        <ele>25.6</ele>
        <time>2026-08-30T14:56:58Z</time>
      </trkpt>
      <trkpt lat="59.210930177942" lon="17.707688519731">
        <ele>25.4</ele>
        <time>2026-08-30T14:56:59Z</time>
      </trkpt>
      <trkpt lat="59.210969069973" lon="17.708044834435">
        <ele>25</ele>
        <time>2026-08-30T14:57:01Z</time>
      </trkpt>
      <trkpt lat="59.210977032781" lon="17.708238791674">
        <ele>24.8</ele>
        <time>2026-08-30T14:57:02Z</time>
      </trkpt>
      <trkpt lat="59.210981810465" lon="17.708438783884">
        <ele>24.8</ele>
        <time>2026-08-30T14:57:03Z</time>
      </trkpt>
      <trkpt lat="59.210952222347" lon="17.709218384698">
        <ele>22.6</ele>
        <time>2026-08-30T14:57:07Z</time>
      </trkpt>
      <trkpt lat="59.210905870423" lon="17.709547793493">
        <ele>21.2</ele>
        <time>2026-08-30T14:57:09Z</time>
      </trkpt>
      <trkpt lat="59.210874689743" lon="17.70969514735">
        <ele>20.8</ele>
        <time>2026-08-30T14:57:10Z</time>
      </trkpt>
      <trkpt lat="59.210832864046" lon="17.709833867848">
        <ele>20.6</ele>
        <time>2026-08-30T14:57:11Z</time>
      </trkpt>
      <trkpt lat="59.210716774687" lon="17.710311384872">
        <ele>19.6</ele>
        <time>2026-08-30T14:57:14Z</time>
      </trkpt>
      <trkpt lat="59.210686599836" lon="17.71049503237">
        <ele>19.4</ele>
        <time>2026-08-30T14:57:15Z</time>
      </trkpt>
      <trkpt lat="59.210669333115" lon="17.710687480867">
        <ele>19.2</ele>
        <time>2026-08-30T14:57:16Z</time>
      </trkpt>
      <trkpt lat="59.210661705583" lon="17.711069528013">
        <ele>18.4</ele>
        <time>2026-08-30T14:57:18Z</time>
      </trkpt>
      <trkpt lat="59.210686516017" lon="17.711803698912">
        <ele>17.4</ele>
        <time>2026-08-30T14:57:22Z</time>
      </trkpt>
      <trkpt lat="59.210689365864" lon="17.7119710017">
        <ele>16.6</ele>
        <time>2026-08-30T14:57:23Z</time>
      </trkpt>
      <trkpt lat="59.210690958425" lon="17.712135203183">
        <ele>16</ele>
        <time>2026-08-30T14:57:24Z</time>
      </trkpt>
      <trkpt lat="59.210699591786" lon="17.713093506172">
        <ele>15.4</ele>
        <time>2026-08-30T14:57:30Z</time>
      </trkpt>
      <trkpt lat="59.210725324228" lon="17.713678814471">
        <ele>15.4</ele>
        <time>2026-08-30T14:57:34Z</time>
      </trkpt>
      <trkpt lat="59.210742255673" lon="17.713813260198">
        <ele>15.4</ele>
        <time>2026-08-30T14:57:35Z</time>
      </trkpt>
      <trkpt lat="59.210793385282" lon="17.714043427259">
        <ele>15.6</ele>
        <time>2026-08-30T14:57:37Z</time>
      </trkpt>
      <trkpt lat="59.210812747478" lon="17.71414895542">
        <ele>15.6</ele>
        <time>2026-08-30T14:57:38Z</time>
      </trkpt>
      <trkpt lat="59.210822721943" lon="17.71454885602">
        <ele>15.8</ele>
        <time>2026-08-30T14:57:42Z</time>
      </trkpt>
      <trkpt lat="59.210753822699" lon="17.714797044173">
        <ele>16.8</ele>
        <time>2026-08-30T14:57:45Z</time>
      </trkpt>
      <trkpt lat="59.210727000609" lon="17.714875331149">
        <ele>16.8</ele>
        <time>2026-08-30T14:57:46Z</time>
      </trkpt>
      <trkpt lat="59.210697747767" lon="17.714945822954">
        <ele>17</ele>
        <time>2026-08-30T14:57:47Z</time>
      </trkpt>
      <trkpt lat="59.21066631563" lon="17.7150059212">
        <ele>17.2</ele>
        <time>2026-08-30T14:57:48Z</time>
      </trkpt>
      <trkpt lat="59.210585765541" lon="17.715228628367">
        <ele>18.2</ele>
        <time>2026-08-30T14:57:52Z</time>
      </trkpt>
      <trkpt lat="59.210584172979" lon="17.715293839574">
        <ele>18.4</ele>
        <time>2026-08-30T14:57:53Z</time>
      </trkpt>
      <trkpt lat="59.210604289547" lon="17.715542530641">
        <ele>18.8</ele>
        <time>2026-08-30T14:57:57Z</time>
      </trkpt>
      <trkpt lat="59.210662376136" lon="17.7157330513">
        <ele>19.4</ele>
        <time>2026-08-30T14:58:00Z</time>
      </trkpt>
      <trkpt lat="59.210697915405" lon="17.715882668272">
        <ele>19.8</ele>
        <time>2026-08-30T14:58:02Z</time>
      </trkpt>
      <trkpt lat="59.210744770244" lon="17.716030273587">
        <ele>20</ele>
        <time>2026-08-30T14:58:04Z</time>
      </trkpt>
      <trkpt lat="59.210814423859" lon="17.716263541952">
        <ele>20</ele>
        <time>2026-08-30T14:58:07Z</time>
      </trkpt>
      <trkpt lat="59.210834205151" lon="17.716656988487">
        <ele>20.2</ele>
        <time>2026-08-30T14:58:12Z</time>
      </trkpt>
      <trkpt lat="59.210802102461" lon="17.716948343441">
        <ele>20.2</ele>
        <time>2026-08-30T14:58:15Z</time>
      </trkpt>
      <trkpt lat="59.210765557364" lon="17.717111790553">
        <ele>20.4</ele>
        <time>2026-08-30T14:58:17Z</time>
      </trkpt>
      <trkpt lat="59.210741166025" lon="17.717180857435">
        <ele>20.6</ele>
        <time>2026-08-30T14:58:18Z</time>
      </trkpt>
      <trkpt lat="59.21070872806" lon="17.717237100005">
        <ele>21</ele>
        <time>2026-08-30T14:58:19Z</time>
      </trkpt>
      <trkpt lat="59.210600936785" lon="17.717395685613">
        <ele>22</ele>
        <time>2026-08-30T14:58:22Z</time>
      </trkpt>
      <trkpt lat="59.210491133854" lon="17.717576986179">
        <ele>23</ele>
        <time>2026-08-30T14:58:26Z</time>
      </trkpt>
      <trkpt lat="59.210378564894" lon="17.717815451324">
        <ele>23.6</ele>
        <time>2026-08-30T14:58:31Z</time>
      </trkpt>
      <trkpt lat="59.210325758904" lon="17.71791703999">
        <ele>24</ele>
        <time>2026-08-30T14:58:33Z</time>
      </trkpt>
      <trkpt lat="59.21024126932" lon="17.718103956431">
        <ele>25.2</ele>
        <time>2026-08-30T14:58:37Z</time>
      </trkpt>
      <trkpt lat="59.210226181895" lon="17.718135723844">
        <ele>25.4</ele>
        <time>2026-08-30T14:58:38Z</time>
      </trkpt>
      <trkpt lat="59.210167927667" lon="17.718277629465">
        <ele>26.4</ele>
        <time>2026-08-30T14:58:41Z</time>
      </trkpt>
      <trkpt lat="59.210099698976" lon="17.718434119597">
        <ele>26.8</ele>
        <time>2026-08-30T14:58:43Z</time>
      </trkpt>
      <trkpt lat="59.209990482777" lon="17.718672500923">
        <ele>27</ele>
        <time>2026-08-30T14:58:46Z</time>
      </trkpt>
      <trkpt lat="59.209912028164" lon="17.718806695193">
        <ele>27.2</ele>
        <time>2026-08-30T14:58:48Z</time>
      </trkpt>
      <trkpt lat="59.209870453924" lon="17.718873247504">
        <ele>27.2</ele>
        <time>2026-08-30T14:58:49Z</time>
      </trkpt>
      <trkpt lat="59.209813456982" lon="17.719015907496">
        <ele>27.4</ele>
        <time>2026-08-30T14:58:51Z</time>
      </trkpt>
      <trkpt lat="59.209784790874" lon="17.719088578597">
        <ele>27.8</ele>
        <time>2026-08-30T14:58:52Z</time>
      </trkpt>
      <trkpt lat="59.209721339867" lon="17.719233920798">
        <ele>28.2</ele>
        <time>2026-08-30T14:58:54Z</time>
      </trkpt>
      <trkpt lat="59.209618074819" lon="17.719517480582">
        <ele>28.4</ele>
        <time>2026-08-30T14:58:58Z</time>
      </trkpt>
      <trkpt lat="59.20955998823" lon="17.719750246033">
        <ele>28.6</ele>
        <time>2026-08-30T14:59:01Z</time>
      </trkpt>
      <trkpt lat="59.209548253566" lon="17.719827024266">
        <ele>28.6</ele>
        <time>2026-08-30T14:59:02Z</time>
      </trkpt>
      <trkpt lat="59.209586391225" lon="17.720132460818">
        <ele>28.8</ele>
        <time>2026-08-30T14:59:06Z</time>
      </trkpt>
      <trkpt lat="59.209691081196" lon="17.720456086099">
        <ele>29.4</ele>
        <time>2026-08-30T14:59:11Z</time>
      </trkpt>
      <trkpt lat="59.209716646001" lon="17.720509814098">
        <ele>29.6</ele>
        <time>2026-08-30T14:59:12Z</time>
      </trkpt>
      <trkpt lat="59.209818150848" lon="17.72068021819">
        <ele>30.8</ele>
        <time>2026-08-30T14:59:16Z</time>
      </trkpt>
      <trkpt lat="59.209841284901" lon="17.720725899562">
        <ele>31</ele>
        <time>2026-08-30T14:59:17Z</time>
      </trkpt>
      <trkpt lat="59.209951842204" lon="17.720896136016">
        <ele>31.8</ele>
        <time>2026-08-30T14:59:21Z</time>
      </trkpt>
      <trkpt lat="59.209986459464" lon="17.720938799903">
        <ele>32</ele>
        <time>2026-08-30T14:59:22Z</time>
      </trkpt>
      <trkpt lat="59.210021328181" lon="17.720979955047">
        <ele>32.2</ele>
        <time>2026-08-30T14:59:23Z</time>
      </trkpt>
      <trkpt lat="59.210087796673" lon="17.721061678603">
        <ele>32.8</ele>
        <time>2026-08-30T14:59:25Z</time>
      </trkpt>
      <trkpt lat="59.210119396448" lon="17.72111129947">
        <ele>33</ele>
        <time>2026-08-30T14:59:26Z</time>
      </trkpt>
      <trkpt lat="59.210179997608" lon="17.721226885915">
        <ele>33.4</ele>
        <time>2026-08-30T14:59:28Z</time>
      </trkpt>
      <trkpt lat="59.210256189108" lon="17.721419082955">
        <ele>34</ele>
        <time>2026-08-30T14:59:31Z</time>
      </trkpt>
      <trkpt lat="59.210286699235" lon="17.721549924463">
        <ele>34.6</ele>
        <time>2026-08-30T14:59:33Z</time>
      </trkpt>
      <trkpt lat="59.210303546861" lon="17.721722004935">
        <ele>35</ele>
        <time>2026-08-30T14:59:36Z</time>
      </trkpt>
      <trkpt lat="59.21030539088" lon="17.721777409315">
        <ele>35.2</ele>
        <time>2026-08-30T14:59:37Z</time>
      </trkpt>
      <trkpt lat="59.210307318717" lon="17.7219310496">
        <ele>36</ele>
        <time>2026-08-30T14:59:40Z</time>
      </trkpt>
      <trkpt lat="59.210310252383" lon="17.722121067345">
        <ele>37.2</ele>
        <time>2026-08-30T14:59:43Z</time>
      </trkpt>
      <trkpt lat="59.210304552689" lon="17.722189715132">
        <ele>37.6</ele>
        <time>2026-08-30T14:59:44Z</time>
      </trkpt>
      <trkpt lat="59.210274796933" lon="17.722362801433">
        <ele>38.2</ele>
        <time>2026-08-30T14:59:47Z</time>
      </trkpt>
      <trkpt lat="59.210260631517" lon="17.722461456433">
        <ele>39</ele>
        <time>2026-08-30T14:59:49Z</time>
      </trkpt>
      <trkpt lat="59.210247723386" lon="17.722543431446">
        <ele>39.4</ele>
        <time>2026-08-30T14:59:51Z</time>
      </trkpt>
      <trkpt lat="59.210211765021" lon="17.722640410066">
        <ele>40.6</ele>
        <time>2026-08-30T14:59:54Z</time>
      </trkpt>
      <trkpt lat="59.21018938534" lon="17.722695562989">
        <ele>41</ele>
        <time>2026-08-30T14:59:56Z</time>
      </trkpt>
      <trkpt lat="59.210145883262" lon="17.722776951268">
        <ele>41.6</ele>
        <time>2026-08-30T14:59:59Z</time>
      </trkpt>
      <trkpt lat="59.210087964311" lon="17.722876444459">
        <ele>42.4</ele>
        <time>2026-08-30T15:00:03Z</time>
      </trkpt>
      <trkpt lat="59.210043540224" lon="17.72293000482">
        <ele>42.8</ele>
        <time>2026-08-30T15:00:06Z</time>
      </trkpt>
      <trkpt lat="59.209994841367" lon="17.723010638729">
        <ele>43.6</ele>
        <time>2026-08-30T15:00:10Z</time>
      </trkpt>
      <trkpt lat="59.209967264906" lon="17.723051458597">
        <ele>43.8</ele>
        <time>2026-08-30T15:00:12Z</time>
      </trkpt>
      <trkpt lat="59.209915632382" lon="17.723135026172">
        <ele>44.8</ele>
        <time>2026-08-30T15:00:16Z</time>
      </trkpt>
      <trkpt lat="59.209901383147" lon="17.723158998415">
        <ele>45.2</ele>
        <time>2026-08-30T15:00:17Z</time>
      </trkpt>
      <trkpt lat="59.209871962667" lon="17.723210882396">
        <ele>46</ele>
        <time>2026-08-30T15:00:19Z</time>
      </trkpt>
      <trkpt lat="59.209796022624" lon="17.723388578743">
        <ele>46.6</ele>
        <time>2026-08-30T15:00:24Z</time>
      </trkpt>
      <trkpt lat="59.20976174064" lon="17.72347281687">
        <ele>47.2</ele>
        <time>2026-08-30T15:00:26Z</time>
      </trkpt>
      <trkpt lat="59.209686890244" lon="17.723718825728">
        <ele>47.4</ele>
        <time>2026-08-30T15:00:30Z</time>
      </trkpt>
      <trkpt lat="59.209580691531" lon="17.724088802934">
        <ele>47.4</ele>
        <time>2026-08-30T15:00:34Z</time>
      </trkpt>
      <trkpt lat="59.209547163919" lon="17.724186871201">
        <ele>47.4</ele>
        <time>2026-08-30T15:00:35Z</time>
      </trkpt>
      <trkpt lat="59.209491759539" lon="17.724366663024">
        <ele>47.2</ele>
        <time>2026-08-30T15:00:37Z</time>
      </trkpt>
      <trkpt lat="59.209444737062" lon="17.724510831758">
        <ele>46.6</ele>
        <time>2026-08-30T15:00:39Z</time>
      </trkpt>
      <trkpt lat="59.209393691272" lon="17.724641505629">
        <ele>46</ele>
        <time>2026-08-30T15:00:41Z</time>
      </trkpt>
      <trkpt lat="59.2093444895" lon="17.724774861708">
        <ele>45.6</ele>
        <time>2026-08-30T15:00:43Z</time>
      </trkpt>
      <trkpt lat="59.209297383204" lon="17.724918695167">
        <ele>45.2</ele>
        <time>2026-08-30T15:00:45Z</time>
      </trkpt>
      <trkpt lat="59.20927265659" lon="17.724997736514">
        <ele>45</ele>
        <time>2026-08-30T15:00:46Z</time>
      </trkpt>
      <trkpt lat="59.209221694618" lon="17.725174175575">
        <ele>44.6</ele>
        <time>2026-08-30T15:00:48Z</time>
      </trkpt>
      <trkpt lat="59.209169643" lon="17.725375257432">
        <ele>44.4</ele>
        <time>2026-08-30T15:00:50Z</time>
      </trkpt>
      <trkpt lat="59.209146173671" lon="17.725487742573">
        <ele>44.2</ele>
        <time>2026-08-30T15:00:51Z</time>
      </trkpt>
      <trkpt lat="59.209071071818" lon="17.725841542706">
        <ele>44.2</ele>
        <time>2026-08-30T15:00:54Z</time>
      </trkpt>
      <trkpt lat="59.209011644125" lon="17.726092915982">
        <ele>43.8</ele>
        <time>2026-08-30T15:00:56Z</time>
      </trkpt>
      <trkpt lat="59.208896644413" lon="17.726655676961">
        <ele>42.6</ele>
        <time>2026-08-30T15:01:00Z</time>
      </trkpt>
      <trkpt lat="59.2088441737" lon="17.726941667497">
        <ele>41.6</ele>
        <time>2026-08-30T15:01:02Z</time>
      </trkpt>
      <trkpt lat="59.208821123466" lon="17.727079549804">
        <ele>41</ele>
        <time>2026-08-30T15:01:03Z</time>
      </trkpt>
      <trkpt lat="59.208783823997" lon="17.727342909202">
        <ele>39.4</ele>
        <time>2026-08-30T15:01:05Z</time>
      </trkpt>
      <trkpt lat="59.208760438487" lon="17.727595120668">
        <ele>38.2</ele>
        <time>2026-08-30T15:01:07Z</time>
      </trkpt>
      <trkpt lat="59.208752475679" lon="17.72771967575">
        <ele>37.8</ele>
        <time>2026-08-30T15:01:08Z</time>
      </trkpt>
      <trkpt lat="59.208737807348" lon="17.727961409837">
        <ele>37</ele>
        <time>2026-08-30T15:01:10Z</time>
      </trkpt>
      <trkpt lat="59.208706626669" lon="17.728193672374">
        <ele>36.6</ele>
        <time>2026-08-30T15:01:12Z</time>
      </trkpt>
      <trkpt lat="59.208635464311" lon="17.728400956839">
        <ele>36.4</ele>
        <time>2026-08-30T15:01:14Z</time>
      </trkpt>
      <trkpt lat="59.208378810436" lon="17.728917868808">
        <ele>36.2</ele>
        <time>2026-08-30T15:01:20Z</time>
      </trkpt>
      <trkpt lat="59.208344360813" lon="17.72900168784">
        <ele>36.2</ele>
        <time>2026-08-30T15:01:21Z</time>
      </trkpt>
      <trkpt lat="59.208278227597" lon="17.729286504909">
        <ele>36.4</ele>
        <time>2026-08-30T15:01:24Z</time>
      </trkpt>
      <trkpt lat="59.208295410499" lon="17.72958766669">
        <ele>36.6</ele>
        <time>2026-08-30T15:01:27Z</time>
      </trkpt>
      <trkpt lat="59.208313263953" lon="17.729681041092">
        <ele>36.6</ele>
        <time>2026-08-30T15:01:28Z</time>
      </trkpt>
      <trkpt lat="59.208414601162" lon="17.730155959725">
        <ele>37</ele>
        <time>2026-08-30T15:01:33Z</time>
      </trkpt>
      <trkpt lat="59.208536390215" lon="17.730735484511">
        <ele>37.4</ele>
        <time>2026-08-30T15:01:39Z</time>
      </trkpt>
      <trkpt lat="59.208670333028" lon="17.731230100617">
        <ele>37.4</ele>
        <time>2026-08-30T15:01:45Z</time>
      </trkpt>
      <trkpt lat="59.208729760721" lon="17.731344765052">
        <ele>37.4</ele>
        <time>2026-08-30T15:01:47Z</time>
      </trkpt>
      <trkpt lat="59.208817016333" lon="17.731412658468">
        <ele>37.4</ele>
        <time>2026-08-30T15:01:49Z</time>
      </trkpt>
      <trkpt lat="59.209020277485" lon="17.731374269351">
        <ele>37.2</ele>
        <time>2026-08-30T15:01:52Z</time>
      </trkpt>
      <trkpt lat="59.209385560825" lon="17.731214761734">
        <ele>36.4</ele>
        <time>2026-08-30T15:01:57Z</time>
      </trkpt>
      <trkpt lat="59.209445994347" lon="17.731195567176">
        <ele>35.8</ele>
        <time>2026-08-30T15:01:58Z</time>
      </trkpt>
      <trkpt lat="59.209554707631" lon="17.731207050383">
        <ele>35.4</ele>
        <time>2026-08-30T15:02:00Z</time>
      </trkpt>
      <trkpt lat="59.209658391774" lon="17.731361780316">
        <ele>35.2</ele>
        <time>2026-08-30T15:02:03Z</time>
      </trkpt>
      <trkpt lat="59.209706755355" lon="17.731518605724">
        <ele>35.2</ele>
        <time>2026-08-30T15:02:05Z</time>
      </trkpt>
      <trkpt lat="59.209735170007" lon="17.731598317623">
        <ele>35</ele>
        <time>2026-08-30T15:02:06Z</time>
      </trkpt>
      <trkpt lat="59.209774397314" lon="17.731671659276">
        <ele>34.6</ele>
        <time>2026-08-30T15:02:07Z</time>
      </trkpt>
      <trkpt lat="59.209876237437" lon="17.731715999544">
        <ele>34</ele>
        <time>2026-08-30T15:02:09Z</time>
      </trkpt>
      <trkpt lat="59.210034823045" lon="17.731493460014">
        <ele>33.8</ele>
        <time>2026-08-30T15:02:12Z</time>
      </trkpt>
      <trkpt lat="59.210096094757" lon="17.731167906895">
        <ele>33.8</ele>
        <time>2026-08-30T15:02:15Z</time>
      </trkpt>
      <trkpt lat="59.210105817765" lon="17.731076208875">
        <ele>33.8</ele>
        <time>2026-08-30T15:02:16Z</time>
      </trkpt>
      <trkpt lat="59.210116043687" lon="17.730899099261">
        <ele>33.8</ele>
        <time>2026-08-30T15:02:19Z</time>
      </trkpt>
      <trkpt lat="59.210072541609" lon="17.730720061809">
        <ele>33.8</ele>
        <time>2026-08-30T15:02:24Z</time>
      </trkpt>
      <trkpt lat="59.210047228262" lon="17.73069659248">
        <ele>33.8</ele>
        <time>2026-08-30T15:02:25Z</time>
      </trkpt>
      <trkpt lat="59.209954189137" lon="17.730682343245">
        <ele>35.8</ele>
        <time>2026-08-30T15:02:28Z</time>
      </trkpt>
      <trkpt lat="59.209891408682" lon="17.730670105666">
        <ele>36.8</ele>
        <time>2026-08-30T15:02:30Z</time>
      </trkpt>
      <trkpt lat="59.20982753858" lon="17.7306169644">
        <ele>37.2</ele>
        <time>2026-08-30T15:02:32Z</time>
      </trkpt>
      <trkpt lat="59.209798453376" lon="17.730561392382">
        <ele>37.2</ele>
        <time>2026-08-30T15:02:33Z</time>
      </trkpt>
      <trkpt lat="59.209774984047" lon="17.73031915538">
        <ele>37.2</ele>
        <time>2026-08-30T15:02:36Z</time>
      </trkpt>
      <trkpt lat="59.209887553006" lon="17.730058981106">
        <ele>36.8</ele>
        <time>2026-08-30T15:02:40Z</time>
      </trkpt>
      <trkpt lat="59.209917811677" lon="17.729981029406">
        <ele>36</ele>
        <time>2026-08-30T15:02:41Z</time>
      </trkpt>
      <trkpt lat="59.209944801405" lon="17.729896958917">
        <ele>35.2</ele>
        <time>2026-08-30T15:02:42Z</time>
      </trkpt>
      <trkpt lat="59.209964163601" lon="17.729741055518">
        <ele>34.6</ele>
        <time>2026-08-30T15:02:44Z</time>
      </trkpt>
      <trkpt lat="59.209936335683" lon="17.729634856805">
        <ele>34.4</ele>
        <time>2026-08-30T15:02:46Z</time>
      </trkpt>
      <trkpt lat="59.20991236344" lon="17.729590181261">
        <ele>34.4</ele>
        <time>2026-08-30T15:02:47Z</time>
      </trkpt>
      <trkpt lat="59.209847655147" lon="17.729521701112">
        <ele>34.4</ele>
        <time>2026-08-30T15:02:49Z</time>
      </trkpt>
      <trkpt lat="59.209755286574" lon="17.729452382773">
        <ele>34.4</ele>
        <time>2026-08-30T15:02:52Z</time>
      </trkpt>
      <trkpt lat="59.209676161408" lon="17.729392200708">
        <ele>35.8</ele>
        <time>2026-08-30T15:02:55Z</time>
      </trkpt>
      <trkpt lat="59.209664426744" lon="17.729333108291">
        <ele>36</ele>
        <time>2026-08-30T15:02:56Z</time>
      </trkpt>
      <trkpt lat="59.209652021527" lon="17.729177121073">
        <ele>36.4</ele>
        <time>2026-08-30T15:02:58Z</time>
      </trkpt>
      <trkpt lat="59.209666773677" lon="17.728975368664">
        <ele>36.6</ele>
        <time>2026-08-30T15:03:00Z</time>
      </trkpt>
      <trkpt lat="59.209687560797" lon="17.728876462206">
        <ele>36.8</ele>
        <time>2026-08-30T15:03:01Z</time>
      </trkpt>
      <trkpt lat="59.209757465869" lon="17.728740423918">
        <ele>36.8</ele>
        <time>2026-08-30T15:03:03Z</time>
      </trkpt>
      <trkpt lat="59.209795771167" lon="17.728688875213">
        <ele>36.8</ele>
        <time>2026-08-30T15:03:04Z</time>
      </trkpt>
      <trkpt lat="59.20990196988" lon="17.72852467373">
        <ele>36.6</ele>
        <time>2026-08-30T15:03:07Z</time>
      </trkpt>
      <trkpt lat="59.209933402017" lon="17.728454181924">
        <ele>36</ele>
        <time>2026-08-30T15:03:08Z</time>
      </trkpt>
      <trkpt lat="59.210048988461" lon="17.728180596605">
        <ele>35.6</ele>
        <time>2026-08-30T15:03:11Z</time>
      </trkpt>
      <trkpt lat="59.210069440305" lon="17.728099292144">
        <ele>35.6</ele>
        <time>2026-08-30T15:03:12Z</time>
      </trkpt>
      <trkpt lat="59.210081342608" lon="17.72796811536">
        <ele>35.4</ele>
        <time>2026-08-30T15:03:14Z</time>
      </trkpt>
      <trkpt lat="59.210033314303" lon="17.727773822844">
        <ele>35.4</ele>
        <time>2026-08-30T15:03:18Z</time>
      </trkpt>
      <trkpt lat="59.209937509149" lon="17.727581541985">
        <ele>35.8</ele>
        <time>2026-08-30T15:03:22Z</time>
      </trkpt>
      <trkpt lat="59.209890235215" lon="17.727541560307">
        <ele>35.8</ele>
        <time>2026-08-30T15:03:23Z</time>
      </trkpt>
      <trkpt lat="59.2096959427" lon="17.727431170642">
        <ele>35.8</ele>
        <time>2026-08-30T15:03:26Z</time>
      </trkpt>
      <trkpt lat="59.209627294913" lon="17.727400325239">
        <ele>35.8</ele>
        <time>2026-08-30T15:03:27Z</time>
      </trkpt>
      <trkpt lat="59.209563424811" lon="17.727355817333">
        <ele>35.8</ele>
        <time>2026-08-30T15:03:28Z</time>
      </trkpt>
      <trkpt lat="59.209459824488" lon="17.727218018845">
        <ele>35.8</ele>
        <time>2026-08-30T15:03:30Z</time>
      </trkpt>
      <trkpt lat="59.209381956607" lon="17.727077035233">
        <ele>34.8</ele>
        <time>2026-08-30T15:03:32Z</time>
      </trkpt>
      <trkpt lat="59.209348428994" lon="17.727013751864">
        <ele>34.4</ele>
        <time>2026-08-30T15:03:33Z</time>
      </trkpt>
      <trkpt lat="59.209290510044" lon="17.726919287816">
        <ele>34</ele>
        <time>2026-08-30T15:03:35Z</time>
      </trkpt>
      <trkpt lat="59.209235021845" lon="17.72678123787">
        <ele>34</ele>
        <time>2026-08-30T15:03:39Z</time>
      </trkpt>
      <trkpt lat="59.209257652983" lon="17.726481584832">
        <ele>36.2</ele>
        <time>2026-08-30T15:03:44Z</time>
      </trkpt>
      <trkpt lat="59.209284055978" lon="17.72638653405">
        <ele>37.6</ele>
        <time>2026-08-30T15:03:46Z</time>
      </trkpt>
      <trkpt lat="59.20929771848" lon="17.726325849071">
        <ele>38.2</ele>
        <time>2026-08-30T15:03:48Z</time>
      </trkpt>
      <trkpt lat="59.209300484508" lon="17.726165503263">
        <ele>38.6</ele>
        <time>2026-08-30T15:03:53Z</time>
      </trkpt>
      <trkpt lat="59.209307106212" lon="17.726119989529">
        <ele>38.8</ele>
        <time>2026-08-30T15:03:54Z</time>
      </trkpt>
      <trkpt lat="59.209337700158" lon="17.726035499945">
        <ele>39.8</ele>
        <time>2026-08-30T15:03:56Z</time>
      </trkpt>
      <trkpt lat="59.209372568876" lon="17.725986717269">
        <ele>40.6</ele>
        <time>2026-08-30T15:03:58Z</time>
      </trkpt>
      <trkpt lat="59.209388243034" lon="17.725971126929">
        <ele>40.8</ele>
        <time>2026-08-30T15:03:59Z</time>
      </trkpt>
      <trkpt lat="59.209476169199" lon="17.725923769176">
        <ele>41.2</ele>
        <time>2026-08-30T15:04:03Z</time>
      </trkpt>
      <trkpt lat="59.209552779794" lon="17.72587062791">
        <ele>41.8</ele>
        <time>2026-08-30T15:04:06Z</time>
      </trkpt>
      <trkpt lat="59.209622265771" lon="17.725768787786">
        <ele>42.4</ele>
        <time>2026-08-30T15:04:09Z</time>
      </trkpt>
      <trkpt lat="59.209690410644" lon="17.725646328181">
        <ele>42.8</ele>
        <time>2026-08-30T15:04:12Z</time>
      </trkpt>
      <trkpt lat="59.209827790037" lon="17.725432505831">
        <ele>43.2</ele>
        <time>2026-08-30T15:04:17Z</time>
      </trkpt>
      <trkpt lat="59.209972461686" lon="17.72519538179">
        <ele>43.6</ele>
        <time>2026-08-30T15:04:22Z</time>
      </trkpt>
      <trkpt lat="59.210029710084" lon="17.725043250248">
        <ele>43.8</ele>
        <time>2026-08-30T15:04:25Z</time>
      </trkpt>
      <trkpt lat="59.210075223818" lon="17.724879635498">
        <ele>44</ele>
        <time>2026-08-30T15:04:28Z</time>
      </trkpt>
      <trkpt lat="59.21011839062" lon="17.724731862545">
        <ele>45</ele>
        <time>2026-08-30T15:04:31Z</time>
      </trkpt>
      <trkpt lat="59.210172537714" lon="17.724544778466">
        <ele>45.6</ele>
        <time>2026-08-30T15:04:34Z</time>
      </trkpt>
      <trkpt lat="59.210230540484" lon="17.724265241995">
        <ele>45.6</ele>
        <time>2026-08-30T15:04:37Z</time>
      </trkpt>
      <trkpt lat="59.210237329826" lon="17.724153259769">
        <ele>45.6</ele>
        <time>2026-08-30T15:04:38Z</time>
      </trkpt>
      <trkpt lat="59.210220063105" lon="17.723947819322">
        <ele>45.6</ele>
        <time>2026-08-30T15:04:40Z</time>
      </trkpt>
      <trkpt lat="59.210191229358" lon="17.723884284496">
        <ele>45.6</ele>
        <time>2026-08-30T15:04:41Z</time>
      </trkpt>
      <trkpt lat="59.210069105029" lon="17.72383634001">
        <ele>44.4</ele>
        <time>2026-08-30T15:04:44Z</time>
      </trkpt>
      <trkpt lat="59.210030296817" lon="17.723847404122">
        <ele>44.2</ele>
        <time>2026-08-30T15:04:45Z</time>
      </trkpt>
      <trkpt lat="59.20995393768" lon="17.723882691935">
        <ele>43.6</ele>
        <time>2026-08-30T15:04:47Z</time>
      </trkpt>
      <trkpt lat="59.209873890504" lon="17.723924014717">
        <ele>43.4</ele>
        <time>2026-08-30T15:04:49Z</time>
      </trkpt>
      <trkpt lat="59.209652021527" lon="17.723949411884">
        <ele>43.4</ele>
        <time>2026-08-30T15:04:55Z</time>
      </trkpt>
      <trkpt lat="59.209519503638" lon="17.723823683336">
        <ele>43.6</ele>
        <time>2026-08-30T15:04:59Z</time>
      </trkpt>
      <trkpt lat="59.209367623553" lon="17.723676497117">
        <ele>44.4</ele>
        <time>2026-08-30T15:05:05Z</time>
      </trkpt>
      <trkpt lat="59.209332754835" lon="17.723541799933">
        <ele>45.4</ele>
        <time>2026-08-30T15:05:07Z</time>
      </trkpt>
      <trkpt lat="59.209304507822" lon="17.723360415548">
        <ele>45.8</ele>
        <time>2026-08-30T15:05:09Z</time>
      </trkpt>
      <trkpt lat="59.209298472852" lon="17.723105270416">
        <ele>46</ele>
        <time>2026-08-30T15:05:11Z</time>
      </trkpt>
      <trkpt lat="59.209299981594" lon="17.722957162187">
        <ele>46</ele>
        <time>2026-08-30T15:05:12Z</time>
      </trkpt>
      <trkpt lat="59.209320014343" lon="17.72266077809">
        <ele>46</ele>
        <time>2026-08-30T15:05:14Z</time>
      </trkpt>
      <trkpt lat="59.209368210286" lon="17.722383085638">
        <ele>46</ele>
        <time>2026-08-30T15:05:16Z</time>
      </trkpt>
      <trkpt lat="59.209435097873" lon="17.722121402621">
        <ele>44.8</ele>
        <time>2026-08-30T15:05:18Z</time>
      </trkpt>
      <trkpt lat="59.209477594122" lon="17.721983436495">
        <ele>43.6</ele>
        <time>2026-08-30T15:05:19Z</time>
      </trkpt>
      <trkpt lat="59.209522018209" lon="17.721864162013">
        <ele>42.6</ele>
        <time>2026-08-30T15:05:20Z</time>
      </trkpt>
      <trkpt lat="59.209564514458" lon="17.721755113453">
        <ele>41.4</ele>
        <time>2026-08-30T15:05:21Z</time>
      </trkpt>
      <trkpt lat="59.209626791999" lon="17.721554450691">
        <ele>40.2</ele>
        <time>2026-08-30T15:05:23Z</time>
      </trkpt>
      <trkpt lat="59.209641879424" lon="17.721458058804">
        <ele>40</ele>
        <time>2026-08-30T15:05:24Z</time>
      </trkpt>
      <trkpt lat="59.209561664611" lon="17.721204003319">
        <ele>39</ele>
        <time>2026-08-30T15:05:27Z</time>
      </trkpt>
      <trkpt lat="59.209431242198" lon="17.721150023863">
        <ele>37.2</ele>
        <time>2026-08-30T15:05:29Z</time>
      </trkpt>
      <trkpt lat="59.209360331297" lon="17.721154466271">
        <ele>37.2</ele>
        <time>2026-08-30T15:05:30Z</time>
      </trkpt>
      <trkpt lat="59.209290007129" lon="17.721165530384">
        <ele>36.8</ele>
        <time>2026-08-30T15:05:31Z</time>
      </trkpt>
      <trkpt lat="59.209161344916" lon="17.721215570346">
        <ele>35.4</ele>
        <time>2026-08-30T15:05:33Z</time>
      </trkpt>
      <trkpt lat="59.20910728164" lon="17.721268376336">
        <ele>34.4</ele>
        <time>2026-08-30T15:05:34Z</time>
      </trkpt>
      <trkpt lat="59.209060175344" lon="17.721331324428">
        <ele>34</ele>
        <time>2026-08-30T15:05:35Z</time>
      </trkpt>
      <trkpt lat="59.209003513679" lon="17.721447246149">
        <ele>33.6</ele>
        <time>2026-08-30T15:05:37Z</time>
      </trkpt>
      <trkpt lat="59.208978703246" lon="17.72158479318">
        <ele>33.4</ele>
        <time>2026-08-30T15:05:40Z</time>
      </trkpt>
      <trkpt lat="59.208974596113" lon="17.72162720561">
        <ele>33.4</ele>
        <time>2026-08-30T15:05:41Z</time>
      </trkpt>
      <trkpt lat="59.208973757923" lon="17.721750503406">
        <ele>33.4</ele>
        <time>2026-08-30T15:05:44Z</time>
      </trkpt>
      <trkpt lat="59.20897224918" lon="17.721866760403">
        <ele>35.4</ele>
        <time>2026-08-30T15:05:47Z</time>
      </trkpt>
      <trkpt lat="59.208971159533" lon="17.721931384876">
        <ele>36.6</ele>
        <time>2026-08-30T15:05:49Z</time>
      </trkpt>
      <trkpt lat="59.208960933611" lon="17.722041774541">
        <ele>37.8</ele>
        <time>2026-08-30T15:05:52Z</time>
      </trkpt>
      <trkpt lat="59.20894199051" lon="17.722158282995">
        <ele>38.8</ele>
        <time>2026-08-30T15:05:55Z</time>
      </trkpt>
      <trkpt lat="59.208862362429" lon="17.722310833633">
        <ele>40.2</ele>
        <time>2026-08-30T15:06:00Z</time>
      </trkpt>
      <trkpt lat="59.208814837039" lon="17.722349809483">
        <ele>40.4</ele>
        <time>2026-08-30T15:06:03Z</time>
      </trkpt>
      <trkpt lat="59.208781057969" lon="17.722377637401">
        <ele>41.2</ele>
        <time>2026-08-30T15:06:05Z</time>
      </trkpt>
      <trkpt lat="59.208763707429" lon="17.722392724827">
        <ele>41.4</ele>
        <time>2026-08-30T15:06:06Z</time>
      </trkpt>
      <trkpt lat="59.208724480122" lon="17.722416529432">
        <ele>42.2</ele>
        <time>2026-08-30T15:06:08Z</time>
      </trkpt>
      <trkpt lat="59.208701262251" lon="17.722428096458">
        <ele>42.6</ele>
        <time>2026-08-30T15:06:09Z</time>
      </trkpt>
      <trkpt lat="59.208639739081" lon="17.722447793931">
        <ele>43.6</ele>
        <time>2026-08-30T15:06:12Z</time>
      </trkpt>
      <trkpt lat="59.208620209247" lon="17.722457852215">
        <ele>43.6</ele>
        <time>2026-08-30T15:06:13Z</time>
      </trkpt>
      <trkpt lat="59.208571845666" lon="17.722490122542">
        <ele>44.2</ele>
        <time>2026-08-30T15:06:16Z</time>
      </trkpt>
      <trkpt lat="59.20853077434" lon="17.722515435889">
        <ele>44.6</ele>
        <time>2026-08-30T15:06:18Z</time>
      </trkpt>
      <trkpt lat="59.208445614204" lon="17.72255608812">
        <ele>45.6</ele>
        <time>2026-08-30T15:06:22Z</time>
      </trkpt>
      <trkpt lat="59.20841041021" lon="17.722574779764">
        <ele>46</ele>
        <time>2026-08-30T15:06:24Z</time>
      </trkpt>
      <trkpt lat="59.208351317793" lon="17.722594561055">
        <ele>46.8</ele>
        <time>2026-08-30T15:06:27Z</time>
      </trkpt>
      <trkpt lat="59.20832214877" lon="17.72259850055">
        <ele>47</ele>
        <time>2026-08-30T15:06:29Z</time>
      </trkpt>
      <trkpt lat="59.208253836259" lon="17.722643176094">
        <ele>47.6</ele>
        <time>2026-08-30T15:06:34Z</time>
      </trkpt>
      <trkpt lat="59.208220643923" lon="17.722657928243">
        <ele>48.6</ele>
        <time>2026-08-30T15:06:36Z</time>
      </trkpt>
      <trkpt lat="59.208208071068" lon="17.722666980699">
        <ele>48.8</ele>
        <time>2026-08-30T15:06:37Z</time>
      </trkpt>
      <trkpt lat="59.20815425925" lon="17.722691874951">
        <ele>49.8</ele>
        <time>2026-08-30T15:06:41Z</time>
      </trkpt>
      <trkpt lat="59.208141015843" lon="17.722703274339">
        <ele>50</ele>
        <time>2026-08-30T15:06:42Z</time>
      </trkpt>
      <trkpt lat="59.208086449653" lon="17.722747782245">
        <ele>51</ele>
        <time>2026-08-30T15:06:46Z</time>
      </trkpt>
      <trkpt lat="59.208060801029" lon="17.722772341222">
        <ele>51.8</ele>
        <time>2026-08-30T15:06:48Z</time>
      </trkpt>
      <trkpt lat="59.208034146577" lon="17.722811317071">
        <ele>52.2</ele>
        <time>2026-08-30T15:06:50Z</time>
      </trkpt>
      <trkpt lat="59.208011180162" lon="17.722889520228">
        <ele>52.8</ele>
        <time>2026-08-30T15:06:53Z</time>
      </trkpt>
      <trkpt lat="59.208009084687" lon="17.722919443622">
        <ele>53.2</ele>
        <time>2026-08-30T15:06:54Z</time>
      </trkpt>
      <trkpt lat="59.208022328094" lon="17.723060259596">
        <ele>54</ele>
        <time>2026-08-30T15:06:58Z</time>
      </trkpt>
      <trkpt lat="59.208039259538" lon="17.72321566008">
        <ele>54.4</ele>
        <time>2026-08-30T15:07:03Z</time>
      </trkpt>
      <trkpt lat="59.208035320044" lon="17.723249271512">
        <ele>54.6</ele>
        <time>2026-08-30T15:07:04Z</time>
      </trkpt>
      <trkpt lat="59.207959212363" lon="17.723479187116">
        <ele>54.8</ele>
        <time>2026-08-30T15:07:09Z</time>
      </trkpt>
      <trkpt lat="59.207780594006" lon="17.723744474351">
        <ele>55</ele>
        <time>2026-08-30T15:07:15Z</time>
      </trkpt>
      <trkpt lat="59.207708677277" lon="17.72385276854">
        <ele>55</ele>
        <time>2026-08-30T15:07:17Z</time>
      </trkpt>
      <trkpt lat="59.207576327026" lon="17.724067429081">
        <ele>54.8</ele>
        <time>2026-08-30T15:07:21Z</time>
      </trkpt>
      <trkpt lat="59.207416400313" lon="17.724211011082">
        <ele>54.2</ele>
        <time>2026-08-30T15:07:25Z</time>
      </trkpt>
      <trkpt lat="59.20733962208" lon="17.724266750738">
        <ele>54</ele>
        <time>2026-08-30T15:07:27Z</time>
      </trkpt>
      <trkpt lat="59.207252617925" lon="17.72429424338">
        <ele>53.8</ele>
        <time>2026-08-30T15:07:29Z</time>
      </trkpt>
      <trkpt lat="59.207209618762" lon="17.724296674132">
        <ele>53.6</ele>
        <time>2026-08-30T15:07:30Z</time>
      </trkpt>
      <trkpt lat="59.207123452798" lon="17.724255016074">
        <ele>53.4</ele>
        <time>2026-08-30T15:07:32Z</time>
      </trkpt>
      <trkpt lat="59.206998143345" lon="17.724214196205">
        <ele>53.4</ele>
        <time>2026-08-30T15:07:35Z</time>
      </trkpt>
      <trkpt lat="59.206886244938" lon="17.724212184548">
        <ele>53.2</ele>
        <time>2026-08-30T15:07:37Z</time>
      </trkpt>
      <trkpt lat="59.206825140864" lon="17.724220063537">
        <ele>53.2</ele>
        <time>2026-08-30T15:07:38Z</time>
      </trkpt>
      <trkpt lat="59.206691365689" lon="17.724235150963">
        <ele>53</ele>
        <time>2026-08-30T15:07:40Z</time>
      </trkpt>
      <trkpt lat="59.206554405391" lon="17.724239341915">
        <ele>53</ele>
        <time>2026-08-30T15:07:42Z</time>
      </trkpt>
      <trkpt lat="59.206425659359" lon="17.724260967225">
        <ele>53</ele>
        <time>2026-08-30T15:07:44Z</time>
      </trkpt>
      <trkpt lat="59.20631476678" lon="17.724286699668">
        <ele>52.2</ele>
        <time>2026-08-30T15:07:46Z</time>
      </trkpt>
      <trkpt lat="59.206193480641" lon="17.724341768771">
        <ele>51</ele>
        <time>2026-08-30T15:07:48Z</time>
      </trkpt>
      <trkpt lat="59.206131454557" lon="17.724385103211">
        <ele>50.8</ele>
        <time>2026-08-30T15:07:49Z</time>
      </trkpt>
      <trkpt lat="59.206065908074" lon="17.724426593632">
        <ele>50.2</ele>
        <time>2026-08-30T15:07:50Z</time>
      </trkpt>
      <trkpt lat="59.205938503146" lon="17.724499851465">
        <ele>50</ele>
        <time>2026-08-30T15:07:52Z</time>
      </trkpt>
      <trkpt lat="59.205827191472" lon="17.724566571414">
        <ele>49.8</ele>
        <time>2026-08-30T15:07:54Z</time>
      </trkpt>
      <trkpt lat="59.205769440159" lon="17.724596243352">
        <ele>49.4</ele>
        <time>2026-08-30T15:07:55Z</time>
      </trkpt>
      <trkpt lat="59.205582858995" lon="17.724748039618">
        <ele>49.2</ele>
        <time>2026-08-30T15:07:59Z</time>
      </trkpt>
      <trkpt lat="59.205501638353" lon="17.72490628995">
        <ele>49.2</ele>
        <time>2026-08-30T15:08:01Z</time>
      </trkpt>
      <trkpt lat="59.205406503752" lon="17.725078705698">
        <ele>48.8</ele>
        <time>2026-08-30T15:08:03Z</time>
      </trkpt>
      <trkpt lat="59.20518849045" lon="17.725433763117">
        <ele>48.4</ele>
        <time>2026-08-30T15:08:07Z</time>
      </trkpt>
      <trkpt lat="59.205127973109" lon="17.725516492501">
        <ele>48.2</ele>
        <time>2026-08-30T15:08:08Z</time>
      </trkpt>
      <trkpt lat="59.205063935369" lon="17.725585643202">
        <ele>48</ele>
        <time>2026-08-30T15:08:09Z</time>
      </trkpt>
      <trkpt lat="59.204924209043" lon="17.725674323738">
        <ele>47</ele>
        <time>2026-08-30T15:08:11Z</time>
      </trkpt>
      <trkpt lat="59.204853465781" lon="17.725716484711">
        <ele>46.2</ele>
        <time>2026-08-30T15:08:12Z</time>
      </trkpt>
      <trkpt lat="59.204785823822" lon="17.725768284872">
        <ele>45.4</ele>
        <time>2026-08-30T15:08:13Z</time>
      </trkpt>
      <trkpt lat="59.204660179093" lon="17.725889319554">
        <ele>44.8</ele>
        <time>2026-08-30T15:08:15Z</time>
      </trkpt>
      <trkpt lat="59.204605193809" lon="17.725941706449">
        <ele>44.6</ele>
        <time>2026-08-30T15:08:16Z</time>
      </trkpt>
      <trkpt lat="59.204565715045" lon="17.726003397256">
        <ele>44.6</ele>
        <time>2026-08-30T15:08:17Z</time>
      </trkpt>
      <trkpt lat="59.204538809136" lon="17.726080762222">
        <ele>44.4</ele>
        <time>2026-08-30T15:08:18Z</time>
      </trkpt>
      <trkpt lat="59.204533947632" lon="17.726176315919">
        <ele>44.4</ele>
        <time>2026-08-30T15:08:19Z</time>
      </trkpt>
      <trkpt lat="59.20460510999" lon="17.726445458829">
        <ele>44.2</ele>
        <time>2026-08-30T15:08:22Z</time>
      </trkpt>
      <trkpt lat="59.204756235704" lon="17.726611001417">
        <ele>44.2</ele>
        <time>2026-08-30T15:08:26Z</time>
      </trkpt>
      <trkpt lat="59.204811472446" lon="17.726677218452">
        <ele>44.4</ele>
        <time>2026-08-30T15:08:28Z</time>
      </trkpt>
      <trkpt lat="59.204939967021" lon="17.726781070232">
        <ele>45</ele>
        <time>2026-08-30T15:08:32Z</time>
      </trkpt>
      <trkpt lat="59.205133002251" lon="17.72684016265">
        <ele>45.6</ele>
        <time>2026-08-30T15:08:36Z</time>
      </trkpt>
      <trkpt lat="59.205174241215" lon="17.726862374693">
        <ele>45.8</ele>
        <time>2026-08-30T15:08:37Z</time>
      </trkpt>
      <trkpt lat="59.20520843938" lon="17.726909313351">
        <ele>46</ele>
        <time>2026-08-30T15:08:38Z</time>
      </trkpt>
      <trkpt lat="59.20529586263" lon="17.727072928101">
        <ele>46.6</ele>
        <time>2026-08-30T15:08:41Z</time>
      </trkpt>
      <trkpt lat="59.205315141007" lon="17.727122884244">
        <ele>46.8</ele>
        <time>2026-08-30T15:08:42Z</time>
      </trkpt>
      <trkpt lat="59.205368869007" lon="17.727239392698">
        <ele>47</ele>
        <time>2026-08-30T15:08:44Z</time>
      </trkpt>
      <trkpt lat="59.205419328064" lon="17.727355817333">
        <ele>47</ele>
        <time>2026-08-30T15:08:46Z</time>
      </trkpt>
      <trkpt lat="59.20553910546" lon="17.727536195889">
        <ele>47.2</ele>
        <time>2026-08-30T15:08:50Z</time>
      </trkpt>
      <trkpt lat="59.205626277253" lon="17.727895444259">
        <ele>47.4</ele>
        <time>2026-08-30T15:08:53Z</time>
      </trkpt>
      <trkpt lat="59.20570875518" lon="17.728353347629">
        <ele>47.4</ele>
        <time>2026-08-30T15:08:56Z</time>
      </trkpt>
      <trkpt lat="59.205744042993" lon="17.728492151946">
        <ele>47.4</ele>
        <time>2026-08-30T15:08:57Z</time>
      </trkpt>
      <trkpt lat="59.20579877682" lon="17.728743357584">
        <ele>46</ele>
        <time>2026-08-30T15:08:59Z</time>
      </trkpt>
      <trkpt lat="59.20580917038" lon="17.728845449165">
        <ele>45</ele>
        <time>2026-08-30T15:09:00Z</time>
      </trkpt>
      <trkpt lat="59.205788299441" lon="17.729052314535">
        <ele>43.8</ele>
        <time>2026-08-30T15:09:03Z</time>
      </trkpt>
      <trkpt lat="59.205756783485" lon="17.729123225436">
        <ele>43.8</ele>
        <time>2026-08-30T15:09:05Z</time>
      </trkpt>
      <trkpt lat="59.205729374662" lon="17.72917821072">
        <ele>43.8</ele>
        <time>2026-08-30T15:09:07Z</time>
      </trkpt>
      <trkpt lat="59.205712107942" lon="17.729188939556">
        <ele>43.8</ele>
        <time>2026-08-30T15:09:08Z</time>
      </trkpt>
      <trkpt lat="59.205633401871" lon="17.729205451906">
        <ele>45</ele>
        <time>2026-08-30T15:09:11Z</time>
      </trkpt>
      <trkpt lat="59.205601047724" lon="17.729235123843">
        <ele>45.8</ele>
        <time>2026-08-30T15:09:12Z</time>
      </trkpt>
      <trkpt lat="59.205569112673" lon="17.729278123006">
        <ele>46.6</ele>
        <time>2026-08-30T15:09:13Z</time>
      </trkpt>
      <trkpt lat="59.205511528999" lon="17.729392535985">
        <ele>48.2</ele>
        <time>2026-08-30T15:09:15Z</time>
      </trkpt>
      <trkpt lat="59.20548713766" lon="17.729457328096">
        <ele>48.4</ele>
        <time>2026-08-30T15:09:16Z</time>
      </trkpt>
      <trkpt lat="59.205458220094" lon="17.729508792982">
        <ele>48.6</ele>
        <time>2026-08-30T15:09:17Z</time>
      </trkpt>
      <trkpt lat="59.205268537626" lon="17.729767290875">
        <ele>48.8</ele>
        <time>2026-08-30T15:09:22Z</time>
      </trkpt>
      <trkpt lat="59.20511322096" lon="17.729966444895">
        <ele>48.8</ele>
        <time>2026-08-30T15:09:25Z</time>
      </trkpt>
      <trkpt lat="59.205069802701" lon="17.730047665536">
        <ele>48.8</ele>
        <time>2026-08-30T15:09:26Z</time>
      </trkpt>
      <trkpt lat="59.205006267875" lon="17.730193510652">
        <ele>47.8</ele>
        <time>2026-08-30T15:09:28Z</time>
      </trkpt>
      <trkpt lat="59.204992605373" lon="17.730273222551">
        <ele>47.2</ele>
        <time>2026-08-30T15:09:29Z</time>
      </trkpt>
      <trkpt lat="59.20499025844" lon="17.730358047411">
        <ele>46.8</ele>
        <time>2026-08-30T15:09:30Z</time>
      </trkpt>
      <trkpt lat="59.205031329766" lon="17.730513615534">
        <ele>45.6</ele>
        <time>2026-08-30T15:09:32Z</time>
      </trkpt>
      <trkpt lat="59.205179773271" lon="17.730674212798">
        <ele>44.4</ele>
        <time>2026-08-30T15:09:35Z</time>
      </trkpt>
      <trkpt lat="59.205336431041" lon="17.730808155611">
        <ele>43.4</ele>
        <time>2026-08-30T15:09:38Z</time>
      </trkpt>
      <trkpt lat="59.205388063565" lon="17.730837911367">
        <ele>42.6</ele>
        <time>2026-08-30T15:09:39Z</time>
      </trkpt>
      <trkpt lat="59.205440869555" lon="17.730851909146">
        <ele>41.4</ele>
        <time>2026-08-30T15:09:40Z</time>
      </trkpt>
      <trkpt lat="59.205490574241" lon="17.730833804235">
        <ele>40.4</ele>
        <time>2026-08-30T15:09:41Z</time>
      </trkpt>
      <trkpt lat="59.205539776012" lon="17.730817459524">
        <ele>39.2</ele>
        <time>2026-08-30T15:09:42Z</time>
      </trkpt>
      <trkpt lat="59.205593001097" lon="17.730801785365">
        <ele>38.2</ele>
        <time>2026-08-30T15:09:43Z</time>
      </trkpt>
      <trkpt lat="59.20564128086" lon="17.730778064579">
        <ele>36.6</ele>
        <time>2026-08-30T15:09:44Z</time>
      </trkpt>
      <trkpt lat="59.205737756565" lon="17.730743279681">
        <ele>36</ele>
        <time>2026-08-30T15:09:46Z</time>
      </trkpt>
      <trkpt lat="59.20583951287" lon="17.730751913041">
        <ele>35.8</ele>
        <time>2026-08-30T15:09:48Z</time>
      </trkpt>
      <trkpt lat="59.20592433773" lon="17.730769347399">
        <ele>35.8</ele>
        <time>2026-08-30T15:09:50Z</time>
      </trkpt>
      <trkpt lat="59.206029865891" lon="17.730845287442">
        <ele>35.8</ele>
        <time>2026-08-30T15:09:53Z</time>
      </trkpt>
      <trkpt lat="59.206180153415" lon="17.730976045132">
        <ele>36</ele>
        <time>2026-08-30T15:09:57Z</time>
      </trkpt>
      <trkpt lat="59.206302780658" lon="17.731087356806">
        <ele>37</ele>
        <time>2026-08-30T15:10:00Z</time>
      </trkpt>
      <trkpt lat="59.206372266635" lon="17.731149047613">
        <ele>37.8</ele>
        <time>2026-08-30T15:10:02Z</time>
      </trkpt>
      <trkpt lat="59.206422809511" lon="17.73117788136">
        <ele>38.4</ele>
        <time>2026-08-30T15:10:04Z</time>
      </trkpt>
      <trkpt lat="59.206469831988" lon="17.731187185273">
        <ele>39</ele>
        <time>2026-08-30T15:10:06Z</time>
      </trkpt>
      <trkpt lat="59.206552561373" lon="17.731125997379">
        <ele>40.2</ele>
        <time>2026-08-30T15:10:10Z</time>
      </trkpt>
      <trkpt lat="59.206590363756" lon="17.731082160026">
        <ele>41.8</ele>
        <time>2026-08-30T15:10:12Z</time>
      </trkpt>
      <trkpt lat="59.206686420366" lon="17.731012254953">
        <ele>43</ele>
        <time>2026-08-30T15:10:16Z</time>
      </trkpt>
      <trkpt lat="59.206711733714" lon="17.730995826423">
        <ele>43.2</ele>
        <time>2026-08-30T15:10:17Z</time>
      </trkpt>
      <trkpt lat="59.206808628514" lon="17.73093983531">
        <ele>44</ele>
        <time>2026-08-30T15:10:21Z</time>
      </trkpt>
      <trkpt lat="59.206860596314" lon="17.730924412608">
        <ele>44</ele>
        <time>2026-08-30T15:10:23Z</time>
      </trkpt>
      <trkpt lat="59.207032090053" lon="17.730904631317">
        <ele>44.4</ele>
        <time>2026-08-30T15:10:29Z</time>
      </trkpt>
      <trkpt lat="59.207151196897" lon="17.730880239978">
        <ele>44.8</ele>
        <time>2026-08-30T15:10:34Z</time>
      </trkpt>
      <trkpt lat="59.207201823592" lon="17.730873953551">
        <ele>45</ele>
        <time>2026-08-30T15:10:36Z</time>
      </trkpt>
      <trkpt lat="59.207292599604" lon="17.73086020723">
        <ele>46.4</ele>
        <time>2026-08-30T15:10:40Z</time>
      </trkpt>
      <trkpt lat="59.207479683682" lon="17.730938661844">
        <ele>47.2</ele>
        <time>2026-08-30T15:10:46Z</time>
      </trkpt>
      <trkpt lat="59.207637514919" lon="17.731002531946">
        <ele>47.2</ele>
        <time>2026-08-30T15:10:50Z</time>
      </trkpt>
      <trkpt lat="59.207750251517" lon="17.731064977124">
        <ele>46.8</ele>
        <time>2026-08-30T15:10:53Z</time>
      </trkpt>
      <trkpt lat="59.207813870162" lon="17.731101186946">
        <ele>46.6</ele>
        <time>2026-08-30T15:10:55Z</time>
      </trkpt>
      <trkpt lat="59.207956194878" lon="17.731133960187">
        <ele>46.6</ele>
        <time>2026-08-30T15:10:59Z</time>
      </trkpt>
      <trkpt lat="59.208005731925" lon="17.731125410646">
        <ele>46.6</ele>
        <time>2026-08-30T15:11:00Z</time>
      </trkpt>
      <trkpt lat="59.208058705553" lon="17.731095151976">
        <ele>46.6</ele>
        <time>2026-08-30T15:11:01Z</time>
      </trkpt>
      <trkpt lat="59.208141854033" lon="17.731012925506">
        <ele>46.4</ele>
        <time>2026-08-30T15:11:03Z</time>
      </trkpt>
      <trkpt lat="59.208235312253" lon="17.730898680165">
        <ele>46.4</ele>
        <time>2026-08-30T15:11:06Z</time>
      </trkpt>
      <trkpt lat="59.208272108808" lon="17.73087143898">
        <ele>46.4</ele>
        <time>2026-08-30T15:11:07Z</time>
      </trkpt>
      <trkpt lat="59.208312258124" lon="17.730852495879">
        <ele>46.2</ele>
        <time>2026-08-30T15:11:08Z</time>
      </trkpt>
      <trkpt lat="59.208399429917" lon="17.730867164209">
        <ele>45</ele>
        <time>2026-08-30T15:11:10Z</time>
      </trkpt>
      <trkpt lat="59.208446620032" lon="17.730915695429">
        <ele>44.4</ele>
        <time>2026-08-30T15:11:11Z</time>
      </trkpt>
      <trkpt lat="59.208499426022" lon="17.730977218598">
        <ele>44</ele>
        <time>2026-08-30T15:11:12Z</time>
      </trkpt>
      <trkpt lat="59.208550890908" lon="17.731051063165">
        <ele>43.6</ele>
        <time>2026-08-30T15:11:13Z</time>
      </trkpt>
      <trkpt lat="59.208587603644" lon="17.731149382889">
        <ele>43</ele>
        <time>2026-08-30T15:11:14Z</time>
      </trkpt>
      <trkpt lat="59.20863294974" lon="17.731397068128">
        <ele>41.8</ele>
        <time>2026-08-30T15:11:16Z</time>
      </trkpt>
      <trkpt lat="59.208656502888" lon="17.731544505805">
        <ele>41</ele>
        <time>2026-08-30T15:11:17Z</time>
      </trkpt>
      <trkpt lat="59.208680223674" lon="17.731708707288">
        <ele>40.2</ele>
        <time>2026-08-30T15:11:18Z</time>
      </trkpt>
      <trkpt lat="59.208715343848" lon="17.732048593462">
        <ele>38.4</ele>
        <time>2026-08-30T15:11:20Z</time>
      </trkpt>
      <trkpt lat="59.208744764328" lon="17.732394011691">
        <ele>36.6</ele>
        <time>2026-08-30T15:11:22Z</time>
      </trkpt>
      <trkpt lat="59.208770161495" lon="17.732720151544">
        <ele>35.6</ele>
        <time>2026-08-30T15:11:24Z</time>
      </trkpt>
      <trkpt lat="59.208798743784" lon="17.733014104888">
        <ele>34</ele>
        <time>2026-08-30T15:11:26Z</time>
      </trkpt>
      <trkpt lat="59.208806119859" lon="17.733159950003">
        <ele>33.2</ele>
        <time>2026-08-30T15:11:27Z</time>
      </trkpt>
      <trkpt lat="59.208806538954" lon="17.733313003555">
        <ele>32.4</ele>
        <time>2026-08-30T15:11:28Z</time>
      </trkpt>
      <trkpt lat="59.208766473457" lon="17.733867047355">
        <ele>31.6</ele>
        <time>2026-08-30T15:11:31Z</time>
      </trkpt>
      <trkpt lat="59.208733532578" lon="17.734046503901">
        <ele>31.4</ele>
        <time>2026-08-30T15:11:32Z</time>
      </trkpt>
      <trkpt lat="59.208588525653" lon="17.734553357586">
        <ele>31</ele>
        <time>2026-08-30T15:11:35Z</time>
      </trkpt>
      <trkpt lat="59.208552567288" lon="17.73471227847">
        <ele>30.4</ele>
        <time>2026-08-30T15:11:36Z</time>
      </trkpt>
      <trkpt lat="59.208522308618" lon="17.734867008403">
        <ele>29.4</ele>
        <time>2026-08-30T15:11:37Z</time>
      </trkpt>
      <trkpt lat="59.208498671651" lon="17.735002879053">
        <ele>27</ele>
        <time>2026-08-30T15:11:38Z</time>
      </trkpt>
      <trkpt lat="59.208481824026" lon="17.73511226289">
        <ele>26</ele>
        <time>2026-08-30T15:11:39Z</time>
      </trkpt>
      <trkpt lat="59.208467490971" lon="17.735198345035">
        <ele>25.6</ele>
        <time>2026-08-30T15:11:40Z</time>
      </trkpt>
      <trkpt lat="59.208458270878" lon="17.735294401646">
        <ele>25.2</ele>
        <time>2026-08-30T15:11:42Z</time>
      </trkpt>
      <trkpt lat="59.208468915895" lon="17.735336562619">
        <ele>25.2</ele>
        <time>2026-08-30T15:11:44Z</time>
      </trkpt>
      <trkpt lat="59.208467239514" lon="17.735368581489">
        <ele>25</ele>
        <time>2026-08-30T15:11:46Z</time>
      </trkpt>
      <trkpt lat="59.208462964743" lon="17.73539012298">
        <ele>25</ele>
        <time>2026-08-30T15:11:47Z</time>
      </trkpt>
      <trkpt lat="59.208458606154" lon="17.735450556502">
        <ele>25</ele>
        <time>2026-08-30T15:11:49Z</time>
      </trkpt>
      <trkpt lat="59.208452822641" lon="17.735532782972">
        <ele>25</ele>
        <time>2026-08-30T15:11:51Z</time>
      </trkpt>
      <trkpt lat="59.208522811532" lon="17.735703773797">
        <ele>25</ele>
        <time>2026-08-30T15:11:54Z</time>
      </trkpt>
      <trkpt lat="59.208673937246" lon="17.735776612535">
        <ele>25</ele>
        <time>2026-08-30T15:11:57Z</time>
      </trkpt>
      <trkpt lat="59.208804275841" lon="17.735766386613">
        <ele>25</ele>
        <time>2026-08-30T15:11:59Z</time>
      </trkpt>
      <trkpt lat="59.209017679095" lon="17.73574761115">
        <ele>24.6</ele>
        <time>2026-08-30T15:12:02Z</time>
      </trkpt>
      <trkpt lat="59.209161093459" lon="17.73577275686">
        <ele>24.2</ele>
        <time>2026-08-30T15:12:04Z</time>
      </trkpt>
      <trkpt lat="59.209302663803" lon="17.735857246444">
        <ele>23.2</ele>
        <time>2026-08-30T15:12:06Z</time>
      </trkpt>
      <trkpt lat="59.209371730685" lon="17.735916841775">
        <ele>22.8</ele>
        <time>2026-08-30T15:12:07Z</time>
      </trkpt>
      <trkpt lat="59.209440797567" lon="17.735984902829">
        <ele>22.4</ele>
        <time>2026-08-30T15:12:08Z</time>
      </trkpt>
      <trkpt lat="59.20950726606" lon="17.736060256138">
        <ele>22.2</ele>
        <time>2026-08-30T15:12:09Z</time>
      </trkpt>
      <trkpt lat="59.209570297971" lon="17.736145667732">
        <ele>22</ele>
        <time>2026-08-30T15:12:10Z</time>
      </trkpt>
      <trkpt lat="59.209686135873" lon="17.736333087087">
        <ele>21.6</ele>
        <time>2026-08-30T15:12:12Z</time>
      </trkpt>
      <trkpt lat="59.209858803079" lon="17.736621843651">
        <ele>21.2</ele>
        <time>2026-08-30T15:12:15Z</time>
      </trkpt>
      <trkpt lat="59.210035409778" lon="17.736908756196">
        <ele>20.8</ele>
        <time>2026-08-30T15:12:18Z</time>
      </trkpt>
      <trkpt lat="59.210099531338" lon="17.737002549693">
        <ele>20.8</ele>
        <time>2026-08-30T15:12:19Z</time>
      </trkpt>
      <trkpt lat="59.210359202698" lon="17.737383758649">
        <ele>20.6</ele>
        <time>2026-08-30T15:12:23Z</time>
      </trkpt>
      <trkpt lat="59.210523152724" lon="17.737677795812">
        <ele>20.6</ele>
        <time>2026-08-30T15:12:26Z</time>
      </trkpt>
      <trkpt lat="59.210614264011" lon="17.737880470231">
        <ele>20.6</ele>
        <time>2026-08-30T15:12:28Z</time>
      </trkpt>
      <trkpt lat="59.210687521845" lon="17.738094795495">
        <ele>20.6</ele>
        <time>2026-08-30T15:12:30Z</time>
      </trkpt>
      <trkpt lat="59.21071308665" lon="17.738210884854">
        <ele>20.6</ele>
        <time>2026-08-30T15:12:31Z</time>
      </trkpt>
      <trkpt lat="59.210737897083" lon="17.738694688305">
        <ele>21</ele>
        <time>2026-08-30T15:12:35Z</time>
      </trkpt>
      <trkpt lat="59.210732448846" lon="17.738815220073">
        <ele>21.2</ele>
        <time>2026-08-30T15:12:36Z</time>
      </trkpt>
      <trkpt lat="59.210673524067" lon="17.739628599957">
        <ele>21.8</ele>
        <time>2026-08-30T15:12:43Z</time>
      </trkpt>
      <trkpt lat="59.210589872673" lon="17.740109218284">
        <ele>21.8</ele>
        <time>2026-08-30T15:12:47Z</time>
      </trkpt>
      <trkpt lat="59.210555339232" lon="17.740217428654">
        <ele>21.8</ele>
        <time>2026-08-30T15:12:48Z</time>
      </trkpt>
      <trkpt lat="59.210412511602" lon="17.740483386442">
        <ele>21.8</ele>
        <time>2026-08-30T15:12:51Z</time>
      </trkpt>
      <trkpt lat="59.210360795259" lon="17.740561086684">
        <ele>21.8</ele>
        <time>2026-08-30T15:12:52Z</time>
      </trkpt>
      <trkpt lat="59.21015124768" lon="17.740877168253">
        <ele>21.8</ele>
        <time>2026-08-30T15:12:56Z</time>
      </trkpt>
      <trkpt lat="59.210104225203" lon="17.74097179994">
        <ele>21.6</ele>
        <time>2026-08-30T15:12:57Z</time>
      </trkpt>
      <trkpt lat="59.210011940449" lon="17.741413861513">
        <ele>21.2</ele>
        <time>2026-08-30T15:13:01Z</time>
      </trkpt>
      <trkpt lat="59.210025854409" lon="17.741639334708">
        <ele>21</ele>
        <time>2026-08-30T15:13:03Z</time>
      </trkpt>
      <trkpt lat="59.210074888542" lon="17.741974946111">
        <ele>21</ele>
        <time>2026-08-30T15:13:06Z</time>
      </trkpt>
      <trkpt lat="59.210185110569" lon="17.742651449516">
        <ele>21.8</ele>
        <time>2026-08-30T15:13:12Z</time>
      </trkpt>
      <trkpt lat="59.210238922387" lon="17.743023606017">
        <ele>22</ele>
        <time>2026-08-30T15:13:15Z</time>
      </trkpt>
      <trkpt lat="59.210251746699" lon="17.743284031749">
        <ele>22</ele>
        <time>2026-08-30T15:13:17Z</time>
      </trkpt>
      <trkpt lat="59.210205310956" lon="17.743659876287">
        <ele>22</ele>
        <time>2026-08-30T15:13:20Z</time>
      </trkpt>
      <trkpt lat="59.210175806656" lon="17.743773367256">
        <ele>22</ele>
        <time>2026-08-30T15:13:21Z</time>
      </trkpt>
      <trkpt lat="59.210004899651" lon="17.744485829026">
        <ele>21.8</ele>
        <time>2026-08-30T15:13:27Z</time>
      </trkpt>
      <trkpt lat="59.209955111146" lon="17.744967872277">
        <ele>21.6</ele>
        <time>2026-08-30T15:13:31Z</time>
      </trkpt>
      <trkpt lat="59.209971288219" lon="17.745693577453">
        <ele>21.6</ele>
        <time>2026-08-30T15:13:37Z</time>
      </trkpt>
      <trkpt lat="59.20999199152" lon="17.746696053073">
        <ele>21</ele>
        <time>2026-08-30T15:13:44Z</time>
      </trkpt>
      <trkpt lat="59.209999116138" lon="17.747121602297">
        <ele>20.2</ele>
        <time>2026-08-30T15:13:47Z</time>
      </trkpt>
      <trkpt lat="59.210013030097" lon="17.747658463195">
        <ele>20</ele>
        <time>2026-08-30T15:13:51Z</time>
      </trkpt>
      <trkpt lat="59.210036080331" lon="17.748255925253">
        <ele>20.4</ele>
        <time>2026-08-30T15:13:56Z</time>
      </trkpt>
      <trkpt lat="59.21004136093" lon="17.748366482556">
        <ele>20.6</ele>
        <time>2026-08-30T15:13:57Z</time>
      </trkpt>
      <trkpt lat="59.210033649579" lon="17.748576700687">
        <ele>20.8</ele>
        <time>2026-08-30T15:13:59Z</time>
      </trkpt>
      <trkpt lat="59.210008168593" lon="17.748970733956">
        <ele>21</ele>
        <time>2026-08-30T15:14:03Z</time>
      </trkpt>
      <trkpt lat="59.209993584082" lon="17.749155387282">
        <ele>21.2</ele>
        <time>2026-08-30T15:14:05Z</time>
      </trkpt>
      <trkpt lat="59.209960475564" lon="17.749544642866">
        <ele>22.6</ele>
        <time>2026-08-30T15:14:09Z</time>
      </trkpt>
      <trkpt lat="59.209931725636" lon="17.749842368066">
        <ele>23</ele>
        <time>2026-08-30T15:14:12Z</time>
      </trkpt>
      <trkpt lat="59.209860228002" lon="17.75025928393">
        <ele>23.6</ele>
        <time>2026-08-30T15:14:16Z</time>
      </trkpt>
      <trkpt lat="59.209808763117" lon="17.750500012189">
        <ele>23.6</ele>
        <time>2026-08-30T15:14:18Z</time>
      </trkpt>
      <trkpt lat="59.209635425359" lon="17.751347254962">
        <ele>23.6</ele>
        <time>2026-08-30T15:14:25Z</time>
      </trkpt>
      <trkpt lat="59.209564179182" lon="17.751680351794">
        <ele>22.4</ele>
        <time>2026-08-30T15:14:28Z</time>
      </trkpt>
      <trkpt lat="59.20952889137" lon="17.75189015083">
        <ele>22.2</ele>
        <time>2026-08-30T15:14:30Z</time>
      </trkpt>
      <trkpt lat="59.209518581629" lon="17.751987380907">
        <ele>22.2</ele>
        <time>2026-08-30T15:14:31Z</time>
      </trkpt>
      <trkpt lat="59.209533333778" lon="17.752264486626">
        <ele>22.2</ele>
        <time>2026-08-30T15:14:34Z</time>
      </trkpt>
      <trkpt lat="59.209496537223" lon="17.752560283989">
        <ele>22.2</ele>
        <time>2026-08-30T15:14:37Z</time>
      </trkpt>
      <trkpt lat="59.209479270503" lon="17.752661285922">
        <ele>22.2</ele>
        <time>2026-08-30T15:14:38Z</time>
      </trkpt>
      <trkpt lat="59.209439875558" lon="17.752853482962">
        <ele>22.2</ele>
        <time>2026-08-30T15:14:40Z</time>
      </trkpt>
      <trkpt lat="59.209363013506" lon="17.752999998629">
        <ele>22.2</ele>
        <time>2026-08-30T15:14:42Z</time>
      </trkpt>
      <trkpt lat="59.209215324372" lon="17.753136791289">
        <ele>22.2</ele>
        <time>2026-08-30T15:14:45Z</time>
      </trkpt>
      <trkpt lat="59.209165787324" lon="17.753183227032">
        <ele>22.2</ele>
        <time>2026-08-30T15:14:46Z</time>
      </trkpt>
      <trkpt lat="59.209124548361" lon="17.753242906183">
        <ele>22</ele>
        <time>2026-08-30T15:14:47Z</time>
      </trkpt>
      <trkpt lat="59.209064366296" lon="17.753439713269">
        <ele>22</ele>
        <time>2026-08-30T15:14:50Z</time>
      </trkpt>
      <trkpt lat="59.209064785391" lon="17.753588659689">
        <ele>22</ele>
        <time>2026-08-30T15:14:52Z</time>
      </trkpt>
      <trkpt lat="59.209069563076" lon="17.753873895854">
        <ele>22.2</ele>
        <time>2026-08-30T15:14:55Z</time>
      </trkpt>
      <trkpt lat="59.209061684087" lon="17.75418067351">
        <ele>22.2</ele>
        <time>2026-08-30T15:14:58Z</time>
      </trkpt>
      <trkpt lat="59.209030503407" lon="17.754508322105">
        <ele>22.2</ele>
        <time>2026-08-30T15:15:01Z</time>
      </trkpt>
      <trkpt lat="59.208935704082" lon="17.754819206893">
        <ele>22.2</ele>
        <time>2026-08-30T15:15:04Z</time>
      </trkpt>
      <trkpt lat="59.208854902536" lon="17.755013918504">
        <ele>22.2</ele>
        <time>2026-08-30T15:15:06Z</time>
      </trkpt>
      <trkpt lat="59.208810646087" lon="17.755101257935">
        <ele>22.2</ele>
        <time>2026-08-30T15:15:07Z</time>
      </trkpt>
      <trkpt lat="59.208588609472" lon="17.755512725562">
        <ele>22.2</ele>
        <time>2026-08-30T15:15:12Z</time>
      </trkpt>
      <trkpt lat="59.20847713016" lon="17.755801901221">
        <ele>22.2</ele>
        <time>2026-08-30T15:15:15Z</time>
      </trkpt>
      <trkpt lat="59.208403620869" lon="17.756004827097">
        <ele>22.2</ele>
        <time>2026-08-30T15:15:17Z</time>
      </trkpt>
      <trkpt lat="59.208273366094" lon="17.756391735747">
        <ele>22.2</ele>
        <time>2026-08-30T15:15:21Z</time>
      </trkpt>
      <trkpt lat="59.20817932114" lon="17.756666075438">
        <ele>22.4</ele>
        <time>2026-08-30T15:15:24Z</time>
      </trkpt>
      <trkpt lat="59.208055352792" lon="17.756998417899">
        <ele>22.8</ele>
        <time>2026-08-30T15:15:28Z</time>
      </trkpt>
      <trkpt lat="59.208039175719" lon="17.757084583864">
        <ele>22.8</ele>
        <time>2026-08-30T15:15:29Z</time>
      </trkpt>
      <trkpt lat="59.208099106327" lon="17.757246857509">
        <ele>23.2</ele>
        <time>2026-08-30T15:15:32Z</time>
      </trkpt>
      <trkpt lat="59.208139004186" lon="17.757280888036">
        <ele>23.4</ele>
        <time>2026-08-30T15:15:33Z</time>
      </trkpt>
      <trkpt lat="59.208181416616" lon="17.757312990725">
        <ele>23.6</ele>
        <time>2026-08-30T15:15:34Z</time>
      </trkpt>
      <trkpt lat="59.20827110298" lon="17.757372502238">
        <ele>23.8</ele>
        <time>2026-08-30T15:15:36Z</time>
      </trkpt>
      <trkpt lat="59.208360789344" lon="17.757435617968">
        <ele>24</ele>
        <time>2026-08-30T15:15:38Z</time>
      </trkpt>
      <trkpt lat="59.208403704688" lon="17.757458332926">
        <ele>24.4</ele>
        <time>2026-08-30T15:15:39Z</time>
      </trkpt>
      <trkpt lat="59.208492049947" lon="17.757477192208">
        <ele>24.8</ele>
        <time>2026-08-30T15:15:41Z</time>
      </trkpt>
      <trkpt lat="59.208572013304" lon="17.757504936308">
        <ele>24.8</ele>
        <time>2026-08-30T15:15:43Z</time>
      </trkpt>
      <trkpt lat="59.208726743236" lon="17.757667545229">
        <ele>25.4</ele>
        <time>2026-08-30T15:15:48Z</time>
      </trkpt>
      <trkpt lat="59.208781057969" lon="17.757741641253">
        <ele>26</ele>
        <time>2026-08-30T15:15:50Z</time>
      </trkpt>
      <trkpt lat="59.208875605837" lon="17.757848761976">
        <ele>27.4</ele>
        <time>2026-08-30T15:15:54Z</time>
      </trkpt>
      <trkpt lat="59.208896392956" lon="17.757857479155">
        <ele>27.8</ele>
        <time>2026-08-30T15:15:55Z</time>
      </trkpt>
      <trkpt lat="59.208952467889" lon="17.757899137214">
        <ele>28.6</ele>
        <time>2026-08-30T15:15:58Z</time>
      </trkpt>
      <trkpt lat="59.208964118734" lon="17.757927048951">
        <ele>28.8</ele>
        <time>2026-08-30T15:15:59Z</time>
      </trkpt>
      <trkpt lat="59.208968058228" lon="17.75796091184">
        <ele>29</ele>
        <time>2026-08-30T15:16:00Z</time>
      </trkpt>
      <trkpt lat="59.208957161754" lon="17.758045233786">
        <ele>29.8</ele>
        <time>2026-08-30T15:16:02Z</time>
      </trkpt>
      <trkpt lat="59.208936458454" lon="17.758137853816">
        <ele>30.2</ele>
        <time>2026-08-30T15:16:04Z</time>
      </trkpt>
      <trkpt lat="59.208929333836" lon="17.758190408349">
        <ele>30.4</ele>
        <time>2026-08-30T15:16:05Z</time>
      </trkpt>
      <trkpt lat="59.208909301087" lon="17.758341114968">
        <ele>31</ele>
        <time>2026-08-30T15:16:08Z</time>
      </trkpt>
      <trkpt lat="59.208893962204" lon="17.75848813355">
        <ele>31.2</ele>
        <time>2026-08-30T15:16:11Z</time>
      </trkpt>
      <trkpt lat="59.208888933063" lon="17.758633224294">
        <ele>31.6</ele>
        <time>2026-08-30T15:16:14Z</time>
      </trkpt>
      <trkpt lat="59.208886418492" lon="17.758776806295">
        <ele>32</ele>
        <time>2026-08-30T15:16:17Z</time>
      </trkpt>
      <trkpt lat="59.208875019103" lon="17.759032202885">
        <ele>33</ele>
        <time>2026-08-30T15:16:22Z</time>
      </trkpt>
      <trkpt lat="59.208872588351" lon="17.759082075208">
        <ele>33.2</ele>
        <time>2026-08-30T15:16:23Z</time>
      </trkpt>
      <trkpt lat="59.20887527056" lon="17.759401425719">
        <ele>33.8</ele>
        <time>2026-08-30T15:16:29Z</time>
      </trkpt>
      <trkpt lat="59.208876024932" lon="17.759620780125">
        <ele>34.2</ele>
        <time>2026-08-30T15:16:33Z</time>
      </trkpt>
      <trkpt lat="59.208887172863" lon="17.759870728478">
        <ele>34.6</ele>
        <time>2026-08-30T15:16:37Z</time>
      </trkpt>
      <trkpt lat="59.208930088207" lon="17.760285297409">
        <ele>35.4</ele>
        <time>2026-08-30T15:16:43Z</time>
      </trkpt>
      <trkpt lat="59.2089410685" lon="17.760417563841">
        <ele>35.4</ele>
        <time>2026-08-30T15:16:45Z</time>
      </trkpt>
      <trkpt lat="59.208968561143" lon="17.760919304565">
        <ele>36.2</ele>
        <time>2026-08-30T15:16:52Z</time>
      </trkpt>
      <trkpt lat="59.208969231695" lon="17.761081075296">
        <ele>36.4</ele>
        <time>2026-08-30T15:16:54Z</time>
      </trkpt>
      <trkpt lat="59.208969902247" lon="17.761335298419">
        <ele>36.6</ele>
        <time>2026-08-30T15:16:57Z</time>
      </trkpt>
      <trkpt lat="59.208976021037" lon="17.761420290917">
        <ele>36.6</ele>
        <time>2026-08-30T15:16:58Z</time>
      </trkpt>
      <trkpt lat="59.209063779563" lon="17.761682979763">
        <ele>37</ele>
        <time>2026-08-30T15:17:02Z</time>
      </trkpt>
      <trkpt lat="59.209093870595" lon="17.761728661135">
        <ele>37</ele>
        <time>2026-08-30T15:17:03Z</time>
      </trkpt>
      <trkpt lat="59.209247343242" lon="17.761921528727">
        <ele>37.6</ele>
        <time>2026-08-30T15:17:08Z</time>
      </trkpt>
      <trkpt lat="59.209279362112" lon="17.761959917843">
        <ele>37.8</ele>
        <time>2026-08-30T15:17:09Z</time>
      </trkpt>
      <trkpt lat="59.209383130074" lon="17.762069217861">
        <ele>38.4</ele>
        <time>2026-08-30T15:17:12Z</time>
      </trkpt>
      <trkpt lat="59.209417495877" lon="17.762104170397">
        <ele>38.6</ele>
        <time>2026-08-30T15:17:13Z</time>
      </trkpt>
      <trkpt lat="59.20952277258" lon="17.762204417959">
        <ele>39.2</ele>
        <time>2026-08-30T15:17:16Z</time>
      </trkpt>
      <trkpt lat="59.209594354033" lon="17.762263929471">
        <ele>40</ele>
        <time>2026-08-30T15:17:18Z</time>
      </trkpt>
      <trkpt lat="59.20970977284" lon="17.762340959162">
        <ele>41.2</ele>
        <time>2026-08-30T15:17:21Z</time>
      </trkpt>
      <trkpt lat="59.209747994319" lon="17.762364679947">
        <ele>41.4</ele>
        <time>2026-08-30T15:17:22Z</time>
      </trkpt>
      <trkpt lat="59.209822006524" lon="17.762411618605">
        <ele>42.4</ele>
        <time>2026-08-30T15:17:24Z</time>
      </trkpt>
      <trkpt lat="59.209922254086" lon="17.762471884489">
        <ele>43.6</ele>
        <time>2026-08-30T15:17:27Z</time>
      </trkpt>
      <trkpt lat="59.209976233542" lon="17.762511782348">
        <ele>44</ele>
        <time>2026-08-30T15:17:29Z</time>
      </trkpt>
      <trkpt lat="59.210025519133" lon="17.762557547539">
        <ele>44.8</ele>
        <time>2026-08-30T15:17:31Z</time>
      </trkpt>
      <trkpt lat="59.21011227183" lon="17.762637678534">
        <ele>45.8</ele>
        <time>2026-08-30T15:17:35Z</time>
      </trkpt>
      <trkpt lat="59.21019198373" lon="17.76275049895">
        <ele>46.8</ele>
        <time>2026-08-30T15:17:39Z</time>
      </trkpt>
      <trkpt lat="59.210227858275" lon="17.762817973271">
        <ele>47.4</ele>
        <time>2026-08-30T15:17:41Z</time>
      </trkpt>
      <trkpt lat="59.210269097239" lon="17.762884106487">
        <ele>48</ele>
        <time>2026-08-30T15:17:43Z</time>
      </trkpt>
      <trkpt lat="59.210328357294" lon="17.763036573306">
        <ele>49</ele>
        <time>2026-08-30T15:17:47Z</time>
      </trkpt>
      <trkpt lat="59.210340511054" lon="17.763076135889">
        <ele>49.4</ele>
        <time>2026-08-30T15:17:48Z</time>
      </trkpt>
      <trkpt lat="59.210409410298" lon="17.763324156404">
        <ele>50.4</ele>
        <time>2026-08-30T15:17:54Z</time>
      </trkpt>
      <trkpt lat="59.21041871421" lon="17.763367658481">
        <ele>50.6</ele>
        <time>2026-08-30T15:17:55Z</time>
      </trkpt>
      <trkpt lat="59.210465401411" lon="17.763619031757">
        <ele>51.4</ele>
        <time>2026-08-30T15:18:01Z</time>
      </trkpt>
      <trkpt lat="59.21046892181" lon="17.7636689879">
        <ele>51.4</ele>
        <time>2026-08-30T15:18:02Z</time>
      </trkpt>
      <trkpt lat="59.210469760001" lon="17.763919942081">
        <ele>52</ele>
        <time>2026-08-30T15:18:06Z</time>
      </trkpt>
      <trkpt lat="59.210447715595" lon="17.764435177669">
        <ele>52.4</ele>
        <time>2026-08-30T15:18:12Z</time>
      </trkpt>
      <trkpt lat="59.210438327864" lon="17.764526624233">
        <ele>52.4</ele>
        <time>2026-08-30T15:18:13Z</time>
      </trkpt>
      <trkpt lat="59.210387952626" lon="17.765053845942">
        <ele>52.6</ele>
        <time>2026-08-30T15:18:19Z</time>
      </trkpt>
      <trkpt lat="59.210297092795" lon="17.765570674092">
        <ele>52.6</ele>
        <time>2026-08-30T15:18:25Z</time>
      </trkpt>
      <trkpt lat="59.210254177451" lon="17.765742251649">
        <ele>52.6</ele>
        <time>2026-08-30T15:18:27Z</time>
      </trkpt>
      <trkpt lat="59.210102045909" lon="17.76625639759">
        <ele>53.2</ele>
        <time>2026-08-30T15:18:33Z</time>
      </trkpt>
      <trkpt lat="59.210070697591" lon="17.766343569383">
        <ele>53.4</ele>
        <time>2026-08-30T15:18:34Z</time>
      </trkpt>
      <trkpt lat="59.209935665131" lon="17.766676498577">
        <ele>53.4</ele>
        <time>2026-08-30T15:18:38Z</time>
      </trkpt>
      <trkpt lat="59.209849331528" lon="17.766839610413">
        <ele>53.4</ele>
        <time>2026-08-30T15:18:40Z</time>
      </trkpt>
      <trkpt lat="59.209698960185" lon="17.76707187295">
        <ele>52.6</ele>
        <time>2026-08-30T15:18:43Z</time>
      </trkpt>
      <trkpt lat="59.209523862228" lon="17.767291478813">
        <ele>52</ele>
        <time>2026-08-30T15:18:46Z</time>
      </trkpt>
      <trkpt lat="59.209388075396" lon="17.76743623428">
        <ele>51.4</ele>
        <time>2026-08-30T15:18:48Z</time>
      </trkpt>
      <trkpt lat="59.209169978276" lon="17.767598424107">
        <ele>50.4</ele>
        <time>2026-08-30T15:18:51Z</time>
      </trkpt>
      <trkpt lat="59.20909604989" lon="17.767640836537">
        <ele>50.2</ele>
        <time>2026-08-30T15:18:52Z</time>
      </trkpt>
      <trkpt lat="59.208686426282" lon="17.767831776291">
        <ele>49.8</ele>
        <time>2026-08-30T15:18:58Z</time>
      </trkpt>
      <trkpt lat="59.208280742168" lon="17.768045850098">
        <ele>50.2</ele>
        <time>2026-08-30T15:19:05Z</time>
      </trkpt>
      <trkpt lat="59.20808066614" lon="17.768255900592">
        <ele>51.4</ele>
        <time>2026-08-30T15:19:09Z</time>
      </trkpt>
      <trkpt lat="59.208032470196" lon="17.768321949989">
        <ele>51.8</ele>
        <time>2026-08-30T15:19:10Z</time>
      </trkpt>
      <trkpt lat="59.207988129929" lon="17.768390765414">
        <ele>52.4</ele>
        <time>2026-08-30T15:19:11Z</time>
      </trkpt>
      <trkpt lat="59.20789366588" lon="17.768518421799">
        <ele>53</ele>
        <time>2026-08-30T15:19:13Z</time>
      </trkpt>
      <trkpt lat="59.207764752209" lon="17.768725370988">
        <ele>53.6</ele>
        <time>2026-08-30T15:19:16Z</time>
      </trkpt>
      <trkpt lat="59.207681436092" lon="17.768870880827">
        <ele>54</ele>
        <time>2026-08-30T15:19:18Z</time>
      </trkpt>
      <trkpt lat="59.20756559819" lon="17.769130803645">
        <ele>54.8</ele>
        <time>2026-08-30T15:19:21Z</time>
      </trkpt>
      <trkpt lat="59.207465602085" lon="17.769396593794">
        <ele>55.2</ele>
        <time>2026-08-30T15:19:24Z</time>
      </trkpt>
      <trkpt lat="59.207379017025" lon="17.769667329267">
        <ele>56</ele>
        <time>2026-08-30T15:19:27Z</time>
      </trkpt>
      <trkpt lat="59.207352781668" lon="17.769758189097">
        <ele>56</ele>
        <time>2026-08-30T15:19:28Z</time>
      </trkpt>
      <trkpt lat="59.20729896985" lon="17.769936472178">
        <ele>56.4</ele>
        <time>2026-08-30T15:19:30Z</time>
      </trkpt>
      <trkpt lat="59.207165362313" lon="17.770356908441">
        <ele>57.6</ele>
        <time>2026-08-30T15:19:35Z</time>
      </trkpt>
      <trkpt lat="59.207064779475" lon="17.77069193311">
        <ele>58</ele>
        <time>2026-08-30T15:19:39Z</time>
      </trkpt>
      <trkpt lat="59.206880209967" lon="17.771379668266">
        <ele>58.4</ele>
        <time>2026-08-30T15:19:47Z</time>
      </trkpt>
      <trkpt lat="59.206827236339" lon="17.77155585587">
        <ele>58.6</ele>
        <time>2026-08-30T15:19:49Z</time>
      </trkpt>
      <trkpt lat="59.206773843616" lon="17.771733133122">
        <ele>58.8</ele>
        <time>2026-08-30T15:19:51Z</time>
      </trkpt>
      <trkpt lat="59.206666890532" lon="17.772079054266">
        <ele>59.2</ele>
        <time>2026-08-30T15:19:55Z</time>
      </trkpt>
      <trkpt lat="59.206639481708" lon="17.772165136412">
        <ele>59.2</ele>
        <time>2026-08-30T15:19:56Z</time>
      </trkpt>
      <trkpt lat="59.206526745111" lon="17.772509297356">
        <ele>59.8</ele>
        <time>2026-08-30T15:20:00Z</time>
      </trkpt>
      <trkpt lat="59.206438316032" lon="17.772791264579">
        <ele>60</ele>
        <time>2026-08-30T15:20:03Z</time>
      </trkpt>
      <trkpt lat="59.206309067085" lon="17.773405993357">
        <ele>60.6</ele>
        <time>2026-08-30T15:20:09Z</time>
      </trkpt>
      <trkpt lat="59.206290794536" lon="17.773516634479">
        <ele>60.6</ele>
        <time>2026-08-30T15:20:10Z</time>
      </trkpt>
      <trkpt lat="59.206255674362" lon="17.77385241352">
        <ele>60.6</ele>
        <time>2026-08-30T15:20:13Z</time>
      </trkpt>
      <trkpt lat="59.206254919991" lon="17.774077802896">
        <ele>60.4</ele>
        <time>2026-08-30T15:20:15Z</time>
      </trkpt>
      <trkpt lat="59.206262044609" lon="17.774301012978">
        <ele>60.2</ele>
        <time>2026-08-30T15:20:17Z</time>
      </trkpt>
      <trkpt lat="59.206322645769" lon="17.774727819487">
        <ele>59.6</ele>
        <time>2026-08-30T15:20:21Z</time>
      </trkpt>
      <trkpt lat="59.206387605518" lon="17.775036189705">
        <ele>59.4</ele>
        <time>2026-08-30T15:20:24Z</time>
      </trkpt>
      <trkpt lat="59.20646622777" lon="17.775337351486">
        <ele>59.4</ele>
        <time>2026-08-30T15:20:27Z</time>
      </trkpt>
      <trkpt lat="59.20664367266" lon="17.775793578476">
        <ele>59.2</ele>
        <time>2026-08-30T15:20:32Z</time>
      </trkpt>
      <trkpt lat="59.206770574674" lon="17.776065235958">
        <ele>59.2</ele>
        <time>2026-08-30T15:20:35Z</time>
      </trkpt>
      <trkpt lat="59.206872247159" lon="17.776215942577">
        <ele>59</ele>
        <time>2026-08-30T15:20:37Z</time>
      </trkpt>
      <trkpt lat="59.206928573549" lon="17.776286518201">
        <ele>59</ele>
        <time>2026-08-30T15:20:38Z</time>
      </trkpt>
      <trkpt lat="59.207172822207" lon="17.776527833194">
        <ele>58.8</ele>
        <time>2026-08-30T15:20:42Z</time>
      </trkpt>
      <trkpt lat="59.20723836869" lon="17.776567395777">
        <ele>58.6</ele>
        <time>2026-08-30T15:20:43Z</time>
      </trkpt>
      <trkpt lat="59.207508852705" lon="17.776732603088">
        <ele>58.2</ele>
        <time>2026-08-30T15:20:47Z</time>
      </trkpt>
      <trkpt lat="59.207726111636" lon="17.776869479567">
        <ele>58</ele>
        <time>2026-08-30T15:20:50Z</time>
      </trkpt>
      <trkpt lat="59.207878746092" lon="17.77696268633">
        <ele>57.8</ele>
        <time>2026-08-30T15:20:52Z</time>
      </trkpt>
      <trkpt lat="59.207956362516" lon="17.777007948607">
        <ele>57.4</ele>
        <time>2026-08-30T15:20:53Z</time>
      </trkpt>
      <trkpt lat="59.208114864305" lon="17.777105933055">
        <ele>56.6</ele>
        <time>2026-08-30T15:20:55Z</time>
      </trkpt>
      <trkpt lat="59.208193821833" lon="17.777160583064">
        <ele>56.2</ele>
        <time>2026-08-30T15:20:56Z</time>
      </trkpt>
      <trkpt lat="59.208269929513" lon="17.777220346034">
        <ele>55.8</ele>
        <time>2026-08-30T15:20:57Z</time>
      </trkpt>
      <trkpt lat="59.208411248401" lon="17.777377925813">
        <ele>55</ele>
        <time>2026-08-30T15:20:59Z</time>
      </trkpt>
      <trkpt lat="59.208536641672" lon="17.777596777305">
        <ele>54.2</ele>
        <time>2026-08-30T15:21:01Z</time>
      </trkpt>
      <trkpt lat="59.208591543138" lon="17.777720075101">
        <ele>53.8</ele>
        <time>2026-08-30T15:21:02Z</time>
      </trkpt>
      <trkpt lat="59.208709476516" lon="17.778150485829">
        <ele>52.4</ele>
        <time>2026-08-30T15:21:05Z</time>
      </trkpt>
      <trkpt lat="59.208736382425" lon="17.778306640685">
        <ele>52.4</ele>
        <time>2026-08-30T15:21:06Z</time>
      </trkpt>
      <trkpt lat="59.208757085726" lon="17.77846547775">
        <ele>52.2</ele>
        <time>2026-08-30T15:21:07Z</time>
      </trkpt>
      <trkpt lat="59.208773933351" lon="17.778789354488">
        <ele>51.8</ele>
        <time>2026-08-30T15:21:09Z</time>
      </trkpt>
      <trkpt lat="59.20870218426" lon="17.779406765476">
        <ele>51.6</ele>
        <time>2026-08-30T15:21:13Z</time>
      </trkpt>
      <trkpt lat="59.208663962781" lon="17.779553113505">
        <ele>51.4</ele>
        <time>2026-08-30T15:21:14Z</time>
      </trkpt>
      <trkpt lat="59.208446284756" lon="17.780230874196">
        <ele>51</ele>
        <time>2026-08-30T15:21:19Z</time>
      </trkpt>
      <trkpt lat="59.208321142942" lon="17.780461544171">
        <ele>50.8</ele>
        <time>2026-08-30T15:21:21Z</time>
      </trkpt>
      <trkpt lat="59.208248471841" lon="17.780558187515">
        <ele>50.6</ele>
        <time>2026-08-30T15:21:22Z</time>
      </trkpt>
      <trkpt lat="59.208169346675" lon="17.780641503632">
        <ele>50.4</ele>
        <time>2026-08-30T15:21:23Z</time>
      </trkpt>
      <trkpt lat="59.207908501849" lon="17.780808387324">
        <ele>49.6</ele>
        <time>2026-08-30T15:21:26Z</time>
      </trkpt>
      <trkpt lat="59.207816384733" lon="17.780831940472">
        <ele>49</ele>
        <time>2026-08-30T15:21:27Z</time>
      </trkpt>
      <trkpt lat="59.207722591236" lon="17.780835209414">
        <ele>48</ele>
        <time>2026-08-30T15:21:28Z</time>
      </trkpt>
      <trkpt lat="59.207530142739" lon="17.780783576891">
        <ele>46.6</ele>
        <time>2026-08-30T15:21:30Z</time>
      </trkpt>
      <trkpt lat="59.207344399765" lon="17.780631026253">
        <ele>45.2</ele>
        <time>2026-08-30T15:21:32Z</time>
      </trkpt>
      <trkpt lat="59.207256892696" lon="17.780527761206">
        <ele>44.6</ele>
        <time>2026-08-30T15:21:33Z</time>
      </trkpt>
      <trkpt lat="59.207168882713" lon="17.780413012952">
        <ele>44.2</ele>
        <time>2026-08-30T15:21:34Z</time>
      </trkpt>
      <trkpt lat="59.206909546629" lon="17.780044795945">
        <ele>42.4</ele>
        <time>2026-08-30T15:21:37Z</time>
      </trkpt>
      <trkpt lat="59.206737717614" lon="17.77981328778">
        <ele>40.8</ele>
        <time>2026-08-30T15:21:39Z</time>
      </trkpt>
      <trkpt lat="59.206651886925" lon="17.779707424343">
        <ele>40</ele>
        <time>2026-08-30T15:21:40Z</time>
      </trkpt>
      <trkpt lat="59.206566810608" lon="17.779612541199">
        <ele>39.2</ele>
        <time>2026-08-30T15:21:41Z</time>
      </trkpt>
      <trkpt lat="59.206387018785" lon="17.77946443297">
        <ele>37.4</ele>
        <time>2026-08-30T15:21:43Z</time>
      </trkpt>
      <trkpt lat="59.206291045994" lon="17.779420008883">
        <ele>36.4</ele>
        <time>2026-08-30T15:21:44Z</time>
      </trkpt>
      <trkpt lat="59.206197252497" lon="17.779390420765">
        <ele>36</ele>
        <time>2026-08-30T15:21:45Z</time>
      </trkpt>
      <trkpt lat="59.206022322178" lon="17.779367035255">
        <ele>35.6</ele>
        <time>2026-08-30T15:21:47Z</time>
      </trkpt>
      <trkpt lat="59.205936994404" lon="17.779370723292">
        <ele>35.4</ele>
        <time>2026-08-30T15:21:48Z</time>
      </trkpt>
      <trkpt lat="59.205700624734" lon="17.779444064945">
        <ele>35.2</ele>
        <time>2026-08-30T15:21:51Z</time>
      </trkpt>
      <trkpt lat="59.205624600872" lon="17.779486393556">
        <ele>35.2</ele>
        <time>2026-08-30T15:21:52Z</time>
      </trkpt>
      <trkpt lat="59.205338107422" lon="17.779747406021">
        <ele>35.2</ele>
        <time>2026-08-30T15:21:56Z</time>
      </trkpt>
      <trkpt lat="59.205272393301" lon="17.779830219224">
        <ele>35.2</ele>
        <time>2026-08-30T15:21:57Z</time>
      </trkpt>
      <trkpt lat="59.204762438312" lon="17.780469255522">
        <ele>35.6</ele>
        <time>2026-08-30T15:22:05Z</time>
      </trkpt>
      <trkpt lat="59.204412829131" lon="17.78061049059">
        <ele>35.6</ele>
        <time>2026-08-30T15:22:10Z</time>
      </trkpt>
      <trkpt lat="59.204130191356" lon="17.7805109974">
        <ele>35.6</ele>
        <time>2026-08-30T15:22:14Z</time>
      </trkpt>
      <trkpt lat="59.204003373161" lon="17.780403038487">
        <ele>35.4</ele>
        <time>2026-08-30T15:22:16Z</time>
      </trkpt>
      <trkpt lat="59.203837076202" lon="17.780197095126">
        <ele>35.6</ele>
        <time>2026-08-30T15:22:19Z</time>
      </trkpt>
      <trkpt lat="59.203786617145" lon="17.780138170347">
        <ele>35.4</ele>
        <time>2026-08-30T15:22:20Z</time>
      </trkpt>
      <trkpt lat="59.203675305471" lon="17.78010154143">
        <ele>35.4</ele>
        <time>2026-08-30T15:22:22Z</time>
      </trkpt>
      <trkpt lat="59.203547146171" lon="17.780271694064">
        <ele>35.2</ele>
        <time>2026-08-30T15:22:25Z</time>
      </trkpt>
      <trkpt lat="59.203544547781" lon="17.780622728169">
        <ele>35.2</ele>
        <time>2026-08-30T15:22:28Z</time>
      </trkpt>
      <trkpt lat="59.203659296036" lon="17.780952975154">
        <ele>35</ele>
        <time>2026-08-30T15:22:31Z</time>
      </trkpt>
      <trkpt lat="59.203944951296" lon="17.78155923821">
        <ele>34.8</ele>
        <time>2026-08-30T15:22:37Z</time>
      </trkpt>
      <trkpt lat="59.204025249928" lon="17.781770545989">
        <ele>34.2</ele>
        <time>2026-08-30T15:22:39Z</time>
      </trkpt>
      <trkpt lat="59.204057604074" lon="17.781891748309">
        <ele>33.8</ele>
        <time>2026-08-30T15:22:40Z</time>
      </trkpt>
      <trkpt lat="59.204087359831" lon="17.78201982379">
        <ele>33.6</ele>
        <time>2026-08-30T15:22:41Z</time>
      </trkpt>
      <trkpt lat="59.204121055081" lon="17.782148821279">
        <ele>33.6</ele>
        <time>2026-08-30T15:22:42Z</time>
      </trkpt>
      <trkpt lat="59.204213172197" lon="17.782368175685">
        <ele>33.4</ele>
        <time>2026-08-30T15:22:44Z</time>
      </trkpt>
      <trkpt lat="59.204481476918" lon="17.78284904547">
        <ele>33</ele>
        <time>2026-08-30T15:22:49Z</time>
      </trkpt>
      <trkpt lat="59.204535372555" lon="17.782944431528">
        <ele>32.8</ele>
        <time>2026-08-30T15:22:50Z</time>
      </trkpt>
      <trkpt lat="59.204585915431" lon="17.783050294966">
        <ele>32.4</ele>
        <time>2026-08-30T15:22:51Z</time>
      </trkpt>
      <trkpt lat="59.204646181315" lon="17.783294124529">
        <ele>32.2</ele>
        <time>2026-08-30T15:22:53Z</time>
      </trkpt>
      <trkpt lat="59.204715164378" lon="17.783609200269">
        <ele>32</ele>
        <time>2026-08-30T15:22:56Z</time>
      </trkpt>
      <trkpt lat="59.204788506031" lon="17.783753285185">
        <ele>31.6</ele>
        <time>2026-08-30T15:22:58Z</time>
      </trkpt>
      <trkpt lat="59.204824212939" lon="17.783820256591">
        <ele>31.2</ele>
        <time>2026-08-30T15:22:59Z</time>
      </trkpt>
      <trkpt lat="59.204849610105" lon="17.783883959055">
        <ele>30.6</ele>
        <time>2026-08-30T15:23:00Z</time>
      </trkpt>
      <trkpt lat="59.204873330891" lon="17.783947158605">
        <ele>30.2</ele>
        <time>2026-08-30T15:23:01Z</time>
      </trkpt>
      <trkpt lat="59.205019008368" lon="17.784291654825">
        <ele>30</ele>
        <time>2026-08-30T15:23:07Z</time>
      </trkpt>
      <trkpt lat="59.205149011686" lon="17.784403469414">
        <ele>29.6</ele>
        <time>2026-08-30T15:23:10Z</time>
      </trkpt>
      <trkpt lat="59.205201733857" lon="17.784439930692">
        <ele>29.6</ele>
        <time>2026-08-30T15:23:11Z</time>
      </trkpt>
      <trkpt lat="59.205496525392" lon="17.784613016993">
        <ele>29.6</ele>
        <time>2026-08-30T15:23:16Z</time>
      </trkpt>
      <trkpt lat="59.205562323332" lon="17.784642940387">
        <ele>29.4</ele>
        <time>2026-08-30T15:23:17Z</time>
      </trkpt>
      <trkpt lat="59.205692829564" lon="17.784701110795">
        <ele>29.2</ele>
        <time>2026-08-30T15:23:19Z</time>
      </trkpt>
      <trkpt lat="59.205900281668" lon="17.784799262881">
        <ele>28.8</ele>
        <time>2026-08-30T15:23:22Z</time>
      </trkpt>
      <trkpt lat="59.206248465925" lon="17.784985424951">
        <ele>28.4</ele>
        <time>2026-08-30T15:23:27Z</time>
      </trkpt>
      <trkpt lat="59.206318957731" lon="17.785013252869">
        <ele>28.4</ele>
        <time>2026-08-30T15:23:28Z</time>
      </trkpt>
      <trkpt lat="59.206462539732" lon="17.785071590915">
        <ele>28.2</ele>
        <time>2026-08-30T15:23:30Z</time>
      </trkpt>
      <trkpt lat="59.206533115357" lon="17.785092126578">
        <ele>27.8</ele>
        <time>2026-08-30T15:23:31Z</time>
      </trkpt>
      <trkpt lat="59.206741405651" lon="17.785128755495">
        <ele>27.4</ele>
        <time>2026-08-30T15:23:34Z</time>
      </trkpt>
      <trkpt lat="59.206956569105" lon="17.785134622827">
        <ele>27</ele>
        <time>2026-08-30T15:23:37Z</time>
      </trkpt>
      <trkpt lat="59.207024462521" lon="17.785120960325">
        <ele>26.6</ele>
        <time>2026-08-30T15:23:38Z</time>
      </trkpt>
      <trkpt lat="59.207096546888" lon="17.785093300045">
        <ele>26.6</ele>
        <time>2026-08-30T15:23:39Z</time>
      </trkpt>
      <trkpt lat="59.207295114174" lon="17.784936306998">
        <ele>26.4</ele>
        <time>2026-08-30T15:23:42Z</time>
      </trkpt>
      <trkpt lat="59.207427548245" lon="17.784821810201">
        <ele>26.4</ele>
        <time>2026-08-30T15:23:44Z</time>
      </trkpt>
      <trkpt lat="59.207493513823" lon="17.784753832966">
        <ele>26.4</ele>
        <time>2026-08-30T15:23:45Z</time>
      </trkpt>
      <trkpt lat="59.207700965926" lon="17.784529365599">
        <ele>26.2</ele>
        <time>2026-08-30T15:23:48Z</time>
      </trkpt>
      <trkpt lat="59.207772966474" lon="17.784455521032">
        <ele>26.2</ele>
        <time>2026-08-30T15:23:49Z</time>
      </trkpt>
      <trkpt lat="59.207977317274" lon="17.784219905734">
        <ele>26.2</ele>
        <time>2026-08-30T15:23:52Z</time>
      </trkpt>
      <trkpt lat="59.208229444921" lon="17.783883037046">
        <ele>25.8</ele>
        <time>2026-08-30T15:23:56Z</time>
      </trkpt>
      <trkpt lat="59.208540078253" lon="17.783298650756">
        <ele>25.8</ele>
        <time>2026-08-30T15:24:02Z</time>
      </trkpt>
      <trkpt lat="59.208639403805" lon="17.783096814528">
        <ele>26.2</ele>
        <time>2026-08-30T15:24:04Z</time>
      </trkpt>
      <trkpt lat="59.208839898929" lon="17.782736811787">
        <ele>26.4</ele>
        <time>2026-08-30T15:24:08Z</time>
      </trkpt>
      <trkpt lat="59.209062773734" lon="17.78233489953">
        <ele>26.8</ele>
        <time>2026-08-30T15:24:13Z</time>
      </trkpt>
      <trkpt lat="59.209106108174" lon="17.782260887325">
        <ele>26.8</ele>
        <time>2026-08-30T15:24:14Z</time>
      </trkpt>
      <trkpt lat="59.20914801769" lon="17.782186707482">
        <ele>26.8</ele>
        <time>2026-08-30T15:24:15Z</time>
      </trkpt>
      <trkpt lat="59.209400815889" lon="17.781695947051">
        <ele>27.2</ele>
        <time>2026-08-30T15:24:22Z</time>
      </trkpt>
      <trkpt lat="59.209438702092" lon="17.781653702259">
        <ele>27.2</ele>
        <time>2026-08-30T15:24:24Z</time>
      </trkpt>
      <trkpt lat="59.209457561374" lon="17.781660994515">
        <ele>27.2</ele>
        <time>2026-08-30T15:24:25Z</time>
      </trkpt>
      <trkpt lat="59.209541380405" lon="17.781741963699">
        <ele>27.2</ele>
        <time>2026-08-30T15:24:28Z</time>
      </trkpt>
      <trkpt lat="59.20957650058" lon="17.781775072217">
        <ele>27.2</ele>
        <time>2026-08-30T15:24:29Z</time>
      </trkpt>
      <trkpt lat="59.209696445614" lon="17.78187179938">
        <ele>27.2</ele>
        <time>2026-08-30T15:24:33Z</time>
      </trkpt>
      <trkpt lat="59.209746653214" lon="17.781923515722">
        <ele>27</ele>
        <time>2026-08-30T15:24:36Z</time>
      </trkpt>
      <trkpt lat="59.209756879136" lon="17.782015297562">
        <ele>26.8</ele>
        <time>2026-08-30T15:24:38Z</time>
      </trkpt>
      <trkpt lat="59.209747072309" lon="17.782177906483">
        <ele>26.6</ele>
        <time>2026-08-30T15:24:40Z</time>
      </trkpt>
      <trkpt lat="59.209749083966" lon="17.782379155979">
        <ele>26.4</ele>
        <time>2026-08-30T15:24:42Z</time>
      </trkpt>
      <trkpt lat="59.209751430899" lon="17.782594235614">
        <ele>26.4</ele>
        <time>2026-08-30T15:24:44Z</time>
      </trkpt>
      <trkpt lat="59.209757130593" lon="17.78294082731">
        <ele>26.2</ele>
        <time>2026-08-30T15:24:47Z</time>
      </trkpt>
      <trkpt lat="59.209748581052" lon="17.783064795658">
        <ele>26.2</ele>
        <time>2026-08-30T15:24:48Z</time>
      </trkpt>
      <trkpt lat="59.209700888023" lon="17.783310972154">
        <ele>25.6</ele>
        <time>2026-08-30T15:24:50Z</time>
      </trkpt>
      <trkpt lat="59.209665851668" lon="17.783562680706">
        <ele>25.4</ele>
        <time>2026-08-30T15:24:52Z</time>
      </trkpt>
      <trkpt lat="59.209685884416" lon="17.783851185814">
        <ele>25.4</ele>
        <time>2026-08-30T15:24:55Z</time>
      </trkpt>
      <trkpt lat="59.20970113948" lon="17.78392251581">
        <ele>25.4</ele>
        <time>2026-08-30T15:24:56Z</time>
      </trkpt>
      <trkpt lat="59.20974874869" lon="17.784136170521">
        <ele>25.4</ele>
        <time>2026-08-30T15:24:59Z</time>
      </trkpt>
      <trkpt lat="59.209805410355" lon="17.7844236698">
        <ele>25.4</ele>
        <time>2026-08-30T15:25:02Z</time>
      </trkpt>
      <trkpt lat="59.209887050092" lon="17.784798257053">
        <ele>25.4</ele>
        <time>2026-08-30T15:25:05Z</time>
      </trkpt>
      <trkpt lat="59.209952093661" lon="17.785066394135">
        <ele>25.4</ele>
        <time>2026-08-30T15:25:07Z</time>
      </trkpt>
      <trkpt lat="59.209974389523" lon="17.785205952823">
        <ele>25.4</ele>
        <time>2026-08-30T15:25:08Z</time>
      </trkpt>
      <trkpt lat="59.20998419635" lon="17.78551097028">
        <ele>25.4</ele>
        <time>2026-08-30T15:25:10Z</time>
      </trkpt>
      <trkpt lat="59.2098950129" lon="17.785973483697">
        <ele>24.4</ele>
        <time>2026-08-30T15:25:13Z</time>
      </trkpt>
      <trkpt lat="59.209802979603" lon="17.7862553671">
        <ele>22.8</ele>
        <time>2026-08-30T15:25:15Z</time>
      </trkpt>
      <trkpt lat="59.209754867479" lon="17.786390651017">
        <ele>21.6</ele>
        <time>2026-08-30T15:25:16Z</time>
      </trkpt>
      <trkpt lat="59.209709605202" lon="17.786530712619">
        <ele>20.2</ele>
        <time>2026-08-30T15:25:17Z</time>
      </trkpt>
      <trkpt lat="59.20966476202" lon="17.786677647382">
        <ele>18.6</ele>
        <time>2026-08-30T15:25:18Z</time>
      </trkpt>
      <trkpt lat="59.209626121446" lon="17.786822905764">
        <ele>16.8</ele>
        <time>2026-08-30T15:25:19Z</time>
      </trkpt>
      <trkpt lat="59.209523946047" lon="17.787238480523">
        <ele>15.6</ele>
        <time>2026-08-30T15:25:22Z</time>
      </trkpt>
      <trkpt lat="59.209404923022" lon="17.787623880431">
        <ele>15.4</ele>
        <time>2026-08-30T15:25:25Z</time>
      </trkpt>
      <trkpt lat="59.209260083735" lon="17.788173481822">
        <ele>15.2</ele>
        <time>2026-08-30T15:25:29Z</time>
      </trkpt>
      <trkpt lat="59.209240721539" lon="17.788311531767">
        <ele>15.2</ele>
        <time>2026-08-30T15:25:30Z</time>
      </trkpt>
      <trkpt lat="59.209232339635" lon="17.788768513128">
        <ele>15.4</ele>
        <time>2026-08-30T15:25:34Z</time>
      </trkpt>
      <trkpt lat="59.209288666025" lon="17.788990717381">
        <ele>15.6</ele>
        <time>2026-08-30T15:25:37Z</time>
      </trkpt>
      <trkpt lat="59.209307022393" lon="17.789051653817">
        <ele>15.6</ele>
        <time>2026-08-30T15:25:38Z</time>
      </trkpt>
      <trkpt lat="59.209382878616" lon="17.789267236367">
        <ele>17.4</ele>
        <time>2026-08-30T15:25:42Z</time>
      </trkpt>
      <trkpt lat="59.209421603009" lon="17.78934317641">
        <ele>18.6</ele>
        <time>2026-08-30T15:25:44Z</time>
      </trkpt>
      <trkpt lat="59.209458567202" lon="17.789414003491">
        <ele>19.8</ele>
        <time>2026-08-30T15:25:46Z</time>
      </trkpt>
      <trkpt lat="59.209480779245" lon="17.789445770904">
        <ele>20.8</ele>
        <time>2026-08-30T15:25:47Z</time>
      </trkpt>
      <trkpt lat="59.209537021816" lon="17.789481729269">
        <ele>21.8</ele>
        <time>2026-08-30T15:25:49Z</time>
      </trkpt>
      <trkpt lat="59.209633665159" lon="17.789484830573">
        <ele>23.4</ele>
        <time>2026-08-30T15:25:52Z</time>
      </trkpt>
      <trkpt lat="59.209726704285" lon="17.78948508203">
        <ele>23.8</ele>
        <time>2026-08-30T15:25:54Z</time>
      </trkpt>
      <trkpt lat="59.209779677913" lon="17.789477370679">
        <ele>23.8</ele>
        <time>2026-08-30T15:25:55Z</time>
      </trkpt>
      <trkpt lat="59.20998939313" lon="17.789429845288">
        <ele>24</ele>
        <time>2026-08-30T15:25:59Z</time>
      </trkpt>
      <trkpt lat="59.210203969851" lon="17.789425235242">
        <ele>23.8</ele>
        <time>2026-08-30T15:26:03Z</time>
      </trkpt>
      <trkpt lat="59.21031310223" lon="17.789423475042">
        <ele>23.4</ele>
        <time>2026-08-30T15:26:05Z</time>
      </trkpt>
      <trkpt lat="59.210362806916" lon="17.789439568296">
        <ele>23.4</ele>
        <time>2026-08-30T15:26:06Z</time>
      </trkpt>
      <trkpt lat="59.210448972881" lon="17.789516597986">
        <ele>23</ele>
        <time>2026-08-30T15:26:08Z</time>
      </trkpt>
      <trkpt lat="59.210541006178" lon="17.789600333199">
        <ele>22.8</ele>
        <time>2026-08-30T15:26:11Z</time>
      </trkpt>
      <trkpt lat="59.210570845753" lon="17.78960628435">
        <ele>22.8</ele>
        <time>2026-08-30T15:26:12Z</time>
      </trkpt>
      <trkpt lat="59.210664052516" lon="17.789610726759">
        <ele>22.8</ele>
        <time>2026-08-30T15:26:15Z</time>
      </trkpt>
      <trkpt lat="59.210678972304" lon="17.789635118097">
        <ele>22.8</ele>
        <time>2026-08-30T15:26:16Z</time>
      </trkpt>
      <trkpt lat="59.210660699755" lon="17.78982790187">
        <ele>23</ele>
        <time>2026-08-30T15:26:20Z</time>
      </trkpt>
      <trkpt lat="59.210644857958" lon="17.789889257401">
        <ele>23</ele>
        <time>2026-08-30T15:26:21Z</time>
      </trkpt>
      <trkpt lat="59.210592219606" lon="17.79006158933">
        <ele>23</ele>
        <time>2026-08-30T15:26:24Z</time>
      </trkpt>
      <trkpt lat="59.210538994521" lon="17.790153790265">
        <ele>23</ele>
        <time>2026-08-30T15:26:26Z</time>
      </trkpt>
      <trkpt lat="59.21048543416" lon="17.79031958431">
        <ele>22.4</ele>
        <time>2026-08-30T15:26:30Z</time>
      </trkpt>
      <trkpt lat="59.210482668132" lon="17.790329307318">
        <ele>22.2</ele>
        <time>2026-08-30T15:26:31Z</time>
      </trkpt>
      <trkpt lat="59.210454672575" lon="17.790354620665">
        <ele>21.6</ele>
        <time>2026-08-30T15:26:36Z</time>
      </trkpt>
      <trkpt lat="59.210399603471" lon="17.790478589013">
        <ele>21.2</ele>
        <time>2026-08-30T15:26:42Z</time>
      </trkpt>
      <trkpt lat="59.210380744189" lon="17.790500214323">
        <ele>21.2</ele>
        <time>2026-08-30T15:26:43Z</time>
      </trkpt>
      <trkpt lat="59.210352245718" lon="17.790511362255">
        <ele>21.2</ele>
        <time>2026-08-30T15:26:44Z</time>
      </trkpt>
      <trkpt lat="59.210249902681" lon="17.790507925674">
        <ele>21</ele>
        <time>2026-08-30T15:26:47Z</time>
      </trkpt>
      <trkpt lat="59.21017287299" lon="17.790538519621">
        <ele>20.8</ele>
        <time>2026-08-30T15:26:49Z</time>
      </trkpt>
      <trkpt lat="59.210091400892" lon="17.790619656444">
        <ele>20</ele>
        <time>2026-08-30T15:26:51Z</time>
      </trkpt>
      <trkpt lat="59.21000498347" lon="17.790712695569">
        <ele>18.6</ele>
        <time>2026-08-30T15:26:53Z</time>
      </trkpt>
      <trkpt lat="59.209935329854" lon="17.790793245658">
        <ele>17.6</ele>
        <time>2026-08-30T15:26:55Z</time>
      </trkpt>
      <trkpt lat="59.209900796413" lon="17.790826605633">
        <ele>17.4</ele>
        <time>2026-08-30T15:26:56Z</time>
      </trkpt>
      <trkpt lat="59.209774984047" lon="17.790927607566">
        <ele>17</ele>
        <time>2026-08-30T15:27:00Z</time>
      </trkpt>
      <trkpt lat="59.209655374289" lon="17.791020059958">
        <ele>17</ele>
        <time>2026-08-30T15:27:03Z</time>
      </trkpt>
      <trkpt lat="59.209592426196" lon="17.791075967252">
        <ele>17</ele>
        <time>2026-08-30T15:27:05Z</time>
      </trkpt>
      <trkpt lat="59.209437444806" lon="17.791186021641">
        <ele>17</ele>
        <time>2026-08-30T15:27:09Z</time>
      </trkpt>
      <trkpt lat="59.209277518094" lon="17.791344020516">
        <ele>17.2</ele>
        <time>2026-08-30T15:27:13Z</time>
      </trkpt>
      <trkpt lat="59.209042573348" lon="17.791862692684">
        <ele>17.8</ele>
        <time>2026-08-30T15:27:18Z</time>
      </trkpt>
      <trkpt lat="59.208972919732" lon="17.792145917192">
        <ele>18.6</ele>
        <time>2026-08-30T15:27:22Z</time>
      </trkpt>
      <trkpt lat="59.208960933611" lon="17.792229820043">
        <ele>18.6</ele>
        <time>2026-08-30T15:27:23Z</time>
      </trkpt>
      <trkpt lat="59.208956323564" lon="17.792319171131">
        <ele>18.8</ele>
        <time>2026-08-30T15:27:24Z</time>
      </trkpt>
      <trkpt lat="59.208953557536" lon="17.7924533654">
        <ele>19</ele>
        <time>2026-08-30T15:27:26Z</time>
      </trkpt>
      <trkpt lat="59.208954731002" lon="17.792570879683">
        <ele>19</ele>
        <time>2026-08-30T15:27:28Z</time>
      </trkpt>
      <trkpt lat="59.208961604163" lon="17.792742624879">
        <ele>19</ele>
        <time>2026-08-30T15:27:30Z</time>
      </trkpt>
      <trkpt lat="59.208943080157" lon="17.792982179672">
        <ele>19</ele>
        <time>2026-08-30T15:27:32Z</time>
      </trkpt>
      <trkpt lat="59.208908127621" lon="17.793085779995">
        <ele>19</ele>
        <time>2026-08-30T15:27:33Z</time>
      </trkpt>
      <trkpt lat="59.208864709362" lon="17.7931857761">
        <ele>19.2</ele>
        <time>2026-08-30T15:27:34Z</time>
      </trkpt>
      <trkpt lat="59.20873856172" lon="17.793259369209">
        <ele>19.2</ele>
        <time>2026-08-30T15:27:37Z</time>
      </trkpt>
      <trkpt lat="59.208625322208" lon="17.793257357553">
        <ele>19.2</ele>
        <time>2026-08-30T15:27:39Z</time>
      </trkpt>
      <trkpt lat="59.208499006927" lon="17.793295327574">
        <ele>19.2</ele>
        <time>2026-08-30T15:27:41Z</time>
      </trkpt>
      <trkpt lat="59.208321981132" lon="17.793359868228">
        <ele>19</ele>
        <time>2026-08-30T15:27:44Z</time>
      </trkpt>
      <trkpt lat="59.208110254258" lon="17.79346187599">
        <ele>18.8</ele>
        <time>2026-08-30T15:27:48Z</time>
      </trkpt>
      <trkpt lat="59.207862569019" lon="17.793653737754">
        <ele>19</ele>
        <time>2026-08-30T15:27:53Z</time>
      </trkpt>
      <trkpt lat="59.20776550658" lon="17.793738478795">
        <ele>19</ele>
        <time>2026-08-30T15:27:55Z</time>
      </trkpt>
      <trkpt lat="59.207615973428" lon="17.79385574162">
        <ele>19.8</ele>
        <time>2026-08-30T15:27:58Z</time>
      </trkpt>
      <trkpt lat="59.207436349243" lon="17.794008795172">
        <ele>21</ele>
        <time>2026-08-30T15:28:02Z</time>
      </trkpt>
      <trkpt lat="59.207392679527" lon="17.794047100469">
        <ele>21.4</ele>
        <time>2026-08-30T15:28:03Z</time>
      </trkpt>
      <trkpt lat="59.207174917683" lon="17.794212726876">
        <ele>21.8</ele>
        <time>2026-08-30T15:28:08Z</time>
      </trkpt>
      <trkpt lat="59.207091517746" lon="17.794304843992">
        <ele>22</ele>
        <time>2026-08-30T15:28:10Z</time>
      </trkpt>
      <trkpt lat="59.207014488056" lon="17.794405091554">
        <ele>22.4</ele>
        <time>2026-08-30T15:28:12Z</time>
      </trkpt>
      <trkpt lat="59.206877108663" lon="17.794674905017">
        <ele>23</ele>
        <time>2026-08-30T15:28:16Z</time>
      </trkpt>
      <trkpt lat="59.206846011803" lon="17.794748162851">
        <ele>23</ele>
        <time>2026-08-30T15:28:17Z</time>
      </trkpt>
      <trkpt lat="59.206713158637" lon="17.795050498098">
        <ele>23</ele>
        <time>2026-08-30T15:28:21Z</time>
      </trkpt>
      <trkpt lat="59.206481063738" lon="17.795556848869">
        <ele>23</ele>
        <time>2026-08-30T15:28:28Z</time>
      </trkpt>
      <trkpt lat="59.206277048215" lon="17.795997150242">
        <ele>23</ele>
        <time>2026-08-30T15:28:34Z</time>
      </trkpt>
      <trkpt lat="59.206163389608" lon="17.79630116187">
        <ele>23</ele>
        <time>2026-08-30T15:28:38Z</time>
      </trkpt>
      <trkpt lat="59.206137321889" lon="17.796390596777">
        <ele>23</ele>
        <time>2026-08-30T15:28:39Z</time>
      </trkpt>
      <trkpt lat="59.206101698801" lon="17.796568293124">
        <ele>23</ele>
        <time>2026-08-30T15:28:41Z</time>
      </trkpt>
      <trkpt lat="59.206090131775" lon="17.79666736722">
        <ele>23</ele>
        <time>2026-08-30T15:28:42Z</time>
      </trkpt>
      <trkpt lat="59.20606976375" lon="17.796975653619">
        <ele>23</ele>
        <time>2026-08-30T15:28:45Z</time>
      </trkpt>
      <trkpt lat="59.206064986065" lon="17.797091742977">
        <ele>23</ele>
        <time>2026-08-30T15:28:46Z</time>
      </trkpt>
      <trkpt lat="59.20603422448" lon="17.797820633277">
        <ele>22.6</ele>
        <time>2026-08-30T15:28:52Z</time>
      </trkpt>
      <trkpt lat="59.206028440967" lon="17.797934040427">
        <ele>22.4</ele>
        <time>2026-08-30T15:28:53Z</time>
      </trkpt>
      <trkpt lat="59.206006061286" lon="17.798276692629">
        <ele>21.6</ele>
        <time>2026-08-30T15:28:56Z</time>
      </trkpt>
      <trkpt lat="59.205985022709" lon="17.798507865518">
        <ele>21.4</ele>
        <time>2026-08-30T15:28:58Z</time>
      </trkpt>
      <trkpt lat="59.205973707139" lon="17.79873015359">
        <ele>21</ele>
        <time>2026-08-30T15:29:00Z</time>
      </trkpt>
      <trkpt lat="59.205965828151" lon="17.798836771399">
        <ele>21</ele>
        <time>2026-08-30T15:29:01Z</time>
      </trkpt>
      <trkpt lat="59.205952668563" lon="17.799033410847">
        <ele>21</ele>
        <time>2026-08-30T15:29:03Z</time>
      </trkpt>
      <trkpt lat="59.205942777917" lon="17.799201468006">
        <ele>21</ele>
        <time>2026-08-30T15:29:05Z</time>
      </trkpt>
      <trkpt lat="59.205939341336" lon="17.79926776886">
        <ele>21</ele>
        <time>2026-08-30T15:29:06Z</time>
      </trkpt>
      <trkpt lat="59.205933306366" lon="17.799315461889">
        <ele>21</ele>
        <time>2026-08-30T15:29:07Z</time>
      </trkpt>
      <trkpt lat="59.205930288881" lon="17.799385031685">
        <ele>21.2</ele>
        <time>2026-08-30T15:29:09Z</time>
      </trkpt>
      <trkpt lat="59.205949902534" lon="17.799473293126">
        <ele>21.4</ele>
        <time>2026-08-30T15:29:12Z</time>
      </trkpt>
      <trkpt lat="59.20595115982" lon="17.799628777429">
        <ele>22</ele>
        <time>2026-08-30T15:29:15Z</time>
      </trkpt>
      <trkpt lat="59.205941688269" lon="17.799694323912">
        <ele>22.2</ele>
        <time>2026-08-30T15:29:16Z</time>
      </trkpt>
      <trkpt lat="59.205928109586" lon="17.799768503755">
        <ele>22.2</ele>
        <time>2026-08-30T15:29:17Z</time>
      </trkpt>
      <trkpt lat="59.205833813176" lon="17.800064217299">
        <ele>22.2</ele>
        <time>2026-08-30T15:29:21Z</time>
      </trkpt>
      <trkpt lat="59.205698529258" lon="17.800485659391">
        <ele>22</ele>
        <time>2026-08-30T15:29:26Z</time>
      </trkpt>
      <trkpt lat="59.205664834008" lon="17.800572412089">
        <ele>22</ele>
        <time>2026-08-30T15:29:27Z</time>
      </trkpt>
      <trkpt lat="59.205598533154" lon="17.80073242262">
        <ele>22</ele>
        <time>2026-08-30T15:29:29Z</time>
      </trkpt>
      <trkpt lat="59.20551924035" lon="17.80094188638">
        <ele>22</ele>
        <time>2026-08-30T15:29:32Z</time>
      </trkpt>
      <trkpt lat="59.205448748544" lon="17.801163084805">
        <ele>22.2</ele>
        <time>2026-08-30T15:29:36Z</time>
      </trkpt>
      <trkpt lat="59.205386554822" lon="17.801394760609">
        <ele>23.4</ele>
        <time>2026-08-30T15:29:42Z</time>
      </trkpt>
      <trkpt lat="59.205352440476" lon="17.801517639309">
        <ele>24.4</ele>
        <time>2026-08-30T15:29:45Z</time>
      </trkpt>
      <trkpt lat="59.205328384414" lon="17.801600201055">
        <ele>24.8</ele>
        <time>2026-08-30T15:29:47Z</time>
      </trkpt>
      <trkpt lat="59.205300388858" lon="17.801696509123">
        <ele>25.6</ele>
        <time>2026-08-30T15:29:50Z</time>
      </trkpt>
      <trkpt lat="59.205243811011" lon="17.801761385053">
        <ele>26</ele>
        <time>2026-08-30T15:29:53Z</time>
      </trkpt>
      <trkpt lat="59.205201985314" lon="17.80180321075">
        <ele>26.6</ele>
        <time>2026-08-30T15:29:55Z</time>
      </trkpt>
      <trkpt lat="59.2051754985" lon="17.801814945415">
        <ele>27</ele>
        <time>2026-08-30T15:29:56Z</time>
      </trkpt>
      <trkpt lat="59.205118082464" lon="17.801841096953">
        <ele>27.6</ele>
        <time>2026-08-30T15:29:58Z</time>
      </trkpt>
      <trkpt lat="59.205009201542" lon="17.801910666749">
        <ele>29.2</ele>
        <time>2026-08-30T15:30:02Z</time>
      </trkpt>
      <trkpt lat="59.20497475192" lon="17.801931118593">
        <ele>29.4</ele>
        <time>2026-08-30T15:30:03Z</time>
      </trkpt>
      <trkpt lat="59.204801749438" lon="17.802059194073">
        <ele>30.4</ele>
        <time>2026-08-30T15:30:09Z</time>
      </trkpt>
      <trkpt lat="59.204673757777" lon="17.802139492705">
        <ele>31.2</ele>
        <time>2026-08-30T15:30:14Z</time>
      </trkpt>
      <trkpt lat="59.204659257084" lon="17.802171176299">
        <ele>31.4</ele>
        <time>2026-08-30T15:30:15Z</time>
      </trkpt>
      <trkpt lat="59.204625226557" lon="17.802346944809">
        <ele>32.2</ele>
        <time>2026-08-30T15:30:19Z</time>
      </trkpt>
      <trkpt lat="59.20462413691" lon="17.802409389988">
        <ele>32.4</ele>
        <time>2026-08-30T15:30:20Z</time>
      </trkpt>
      <trkpt lat="59.20462329872" lon="17.802471332252">
        <ele>32.6</ele>
        <time>2026-08-30T15:30:21Z</time>
      </trkpt>
      <trkpt lat="59.204652216285" lon="17.802639305592">
        <ele>33.2</ele>
        <time>2026-08-30T15:30:24Z</time>
      </trkpt>
      <trkpt lat="59.204742154106" lon="17.802832005545">
        <ele>33.6</ele>
        <time>2026-08-30T15:30:28Z</time>
      </trkpt>
      <trkpt lat="59.204765958712" lon="17.802875004709">
        <ele>33.6</ele>
        <time>2026-08-30T15:30:29Z</time>
      </trkpt>
      <trkpt lat="59.204914821312" lon="17.803051443771">
        <ele>34.4</ele>
        <time>2026-08-30T15:30:34Z</time>
      </trkpt>
      <trkpt lat="59.205098217353" lon="17.803222602233">
        <ele>34.4</ele>
        <time>2026-08-30T15:30:40Z</time>
      </trkpt>
      <trkpt lat="59.205271387473" lon="17.803439190611">
        <ele>34.4</ele>
        <time>2026-08-30T15:30:45Z</time>
      </trkpt>
      <trkpt lat="59.205308603123" lon="17.803499540314">
        <ele>34.4</ele>
        <time>2026-08-30T15:30:46Z</time>
      </trkpt>
      <trkpt lat="59.205437265337" lon="17.803748901933">
        <ele>34.4</ele>
        <time>2026-08-30T15:30:49Z</time>
      </trkpt>
      <trkpt lat="59.205477247015" lon="17.803845712915">
        <ele>34.4</ele>
        <time>2026-08-30T15:30:50Z</time>
      </trkpt>
      <trkpt lat="59.205514462665" lon="17.803941434249">
        <ele>34.4</ele>
        <time>2026-08-30T15:30:51Z</time>
      </trkpt>
      <trkpt lat="59.20562309213" lon="17.804237902164">
        <ele>34</ele>
        <time>2026-08-30T15:30:54Z</time>
      </trkpt>
      <trkpt lat="59.205658296123" lon="17.804341753945">
        <ele>33.6</ele>
        <time>2026-08-30T15:30:55Z</time>
      </trkpt>
      <trkpt lat="59.205820569769" lon="17.804738050327">
        <ele>32.4</ele>
        <time>2026-08-30T15:30:59Z</time>
      </trkpt>
      <trkpt lat="59.205907741562" lon="17.804944412783">
        <ele>32</ele>
        <time>2026-08-30T15:31:01Z</time>
      </trkpt>
      <trkpt lat="59.20598401688" lon="17.805115738884">
        <ele>31.4</ele>
        <time>2026-08-30T15:31:03Z</time>
      </trkpt>
      <trkpt lat="59.206078900024" lon="17.805317323655">
        <ele>30.2</ele>
        <time>2026-08-30T15:31:05Z</time>
      </trkpt>
      <trkpt lat="59.206234300509" lon="17.805655701086">
        <ele>29.2</ele>
        <time>2026-08-30T15:31:08Z</time>
      </trkpt>
      <trkpt lat="59.206334883347" lon="17.805918809026">
        <ele>28.6</ele>
        <time>2026-08-30T15:31:10Z</time>
      </trkpt>
      <trkpt lat="59.206449463964" lon="17.806224664673">
        <ele>28</ele>
        <time>2026-08-30T15:31:12Z</time>
      </trkpt>
      <trkpt lat="59.206554237753" lon="17.806529095396">
        <ele>26.8</ele>
        <time>2026-08-30T15:31:14Z</time>
      </trkpt>
      <trkpt lat="59.206665214151" lon="17.806808464229">
        <ele>24.8</ele>
        <time>2026-08-30T15:31:16Z</time>
      </trkpt>
      <trkpt lat="59.206728748977" lon="17.806942490861">
        <ele>23.4</ele>
        <time>2026-08-30T15:31:17Z</time>
      </trkpt>
      <trkpt lat="59.206788595766" lon="17.807073080912">
        <ele>22.4</ele>
        <time>2026-08-30T15:31:18Z</time>
      </trkpt>
      <trkpt lat="59.206848274916" lon="17.807190427557">
        <ele>21</ele>
        <time>2026-08-30T15:31:19Z</time>
      </trkpt>
      <trkpt lat="59.206907115877" lon="17.807302493602">
        <ele>19.8</ele>
        <time>2026-08-30T15:31:20Z</time>
      </trkpt>
      <trkpt lat="59.207018176094" lon="17.807524027303">
        <ele>18.8</ele>
        <time>2026-08-30T15:31:22Z</time>
      </trkpt>
      <trkpt lat="59.20707131736" lon="17.807649420574">
        <ele>18.6</ele>
        <time>2026-08-30T15:31:23Z</time>
      </trkpt>
      <trkpt lat="59.207114316523" lon="17.807784536853">
        <ele>18.4</ele>
        <time>2026-08-30T15:31:24Z</time>
      </trkpt>
      <trkpt lat="59.2071838025" lon="17.808065079153">
        <ele>18.4</ele>
        <time>2026-08-30T15:31:26Z</time>
      </trkpt>
      <trkpt lat="59.207251025364" lon="17.808335563168">
        <ele>18.4</ele>
        <time>2026-08-30T15:31:28Z</time>
      </trkpt>
      <trkpt lat="59.20729293488" lon="17.808745857328">
        <ele>18.4</ele>
        <time>2026-08-30T15:31:31Z</time>
      </trkpt>
      <trkpt lat="59.207364935428" lon="17.809128575027">
        <ele>18.8</ele>
        <time>2026-08-30T15:31:34Z</time>
      </trkpt>
      <trkpt lat="59.207424111664" lon="17.809373578057">
        <ele>18.8</ele>
        <time>2026-08-30T15:31:36Z</time>
      </trkpt>
      <trkpt lat="59.207448335364" lon="17.809499390423">
        <ele>18.8</ele>
        <time>2026-08-30T15:31:37Z</time>
      </trkpt>
      <trkpt lat="59.207471134141" lon="17.80990482308">
        <ele>19</ele>
        <time>2026-08-30T15:31:40Z</time>
      </trkpt>
      <trkpt lat="59.20746778138" lon="17.810048153624">
        <ele>19</ele>
        <time>2026-08-30T15:31:41Z</time>
      </trkpt>
      <trkpt lat="59.207512205467" lon="17.810822976753">
        <ele>19.2</ele>
        <time>2026-08-30T15:31:47Z</time>
      </trkpt>
      <trkpt lat="59.20752922073" lon="17.811047779396">
        <ele>19.4</ele>
        <time>2026-08-30T15:31:49Z</time>
      </trkpt>
      <trkpt lat="59.20753357932" lon="17.811562260613">
        <ele>19.4</ele>
        <time>2026-08-30T15:31:53Z</time>
      </trkpt>
      <trkpt lat="59.207553025335" lon="17.812478737906">
        <ele>19.6</ele>
        <time>2026-08-30T15:32:00Z</time>
      </trkpt>
      <trkpt lat="59.207572136074" lon="17.813268229365">
        <ele>18.4</ele>
        <time>2026-08-30T15:32:06Z</time>
      </trkpt>
      <trkpt lat="59.20758462511" lon="17.813948169351">
        <ele>18.4</ele>
        <time>2026-08-30T15:32:12Z</time>
      </trkpt>
      <trkpt lat="59.207556545734" lon="17.814237596467">
        <ele>18.4</ele>
        <time>2026-08-30T15:32:15Z</time>
      </trkpt>
      <trkpt lat="59.207541123033" lon="17.814510427415">
        <ele>18.4</ele>
        <time>2026-08-30T15:32:18Z</time>
      </trkpt>
      <trkpt lat="59.207530478016" lon="17.814606735483">
        <ele>18.4</ele>
        <time>2026-08-30T15:32:19Z</time>
      </trkpt>
      <trkpt lat="59.207516061142" lon="17.814704384655">
        <ele>18.6</ele>
        <time>2026-08-30T15:32:20Z</time>
      </trkpt>
      <trkpt lat="59.207458812743" lon="17.815146949142">
        <ele>18.8</ele>
        <time>2026-08-30T15:32:24Z</time>
      </trkpt>
      <trkpt lat="59.207351105288" lon="17.815813310444">
        <ele>19</ele>
        <time>2026-08-30T15:32:30Z</time>
      </trkpt>
      <trkpt lat="59.207217413932" lon="17.816398283467">
        <ele>19.8</ele>
        <time>2026-08-30T15:32:37Z</time>
      </trkpt>
      <trkpt lat="59.207058576867" lon="17.816998092458">
        <ele>20.4</ele>
        <time>2026-08-30T15:32:43Z</time>
      </trkpt>
      <trkpt lat="59.207007447258" lon="17.817094651982">
        <ele>20.4</ele>
        <time>2026-08-30T15:32:44Z</time>
      </trkpt>
      <trkpt lat="59.20686352998" lon="17.817380055785">
        <ele>20.4</ele>
        <time>2026-08-30T15:32:47Z</time>
      </trkpt>
      <trkpt lat="59.206730760634" lon="17.817578120157">
        <ele>20.4</ele>
        <time>2026-08-30T15:32:49Z</time>
      </trkpt>
      <trkpt lat="59.206295488402" lon="17.818199638277">
        <ele>20</ele>
        <time>2026-08-30T15:32:57Z</time>
      </trkpt>
      <trkpt lat="59.206130197272" lon="17.818467020988">
        <ele>20</ele>
        <time>2026-08-30T15:33:01Z</time>
      </trkpt>
      <trkpt lat="59.206097591668" lon="17.818609261885">
        <ele>20</ele>
        <time>2026-08-30T15:33:02Z</time>
      </trkpt>
      <trkpt lat="59.205992314965" lon="17.819053502753">
        <ele>20.4</ele>
        <time>2026-08-30T15:33:05Z</time>
      </trkpt>
      <trkpt lat="59.205946968868" lon="17.819333039224">
        <ele>20.8</ele>
        <time>2026-08-30T15:33:07Z</time>
      </trkpt>
      <trkpt lat="59.205831047148" lon="17.819961095229">
        <ele>21.2</ele>
        <time>2026-08-30T15:33:13Z</time>
      </trkpt>
      <trkpt lat="59.205835573375" lon="17.820178102702">
        <ele>21.6</ele>
        <time>2026-08-30T15:33:16Z</time>
      </trkpt>
      <trkpt lat="59.205866670236" lon="17.820241302252">
        <ele>21.6</ele>
        <time>2026-08-30T15:33:17Z</time>
      </trkpt>
      <trkpt lat="59.205952668563" lon="17.820347752422">
        <ele>21.8</ele>
        <time>2026-08-30T15:33:19Z</time>
      </trkpt>
      <trkpt lat="59.206061214209" lon="17.820451101288">
        <ele>21.8</ele>
        <time>2026-08-30T15:33:21Z</time>
      </trkpt>
      <trkpt lat="59.206349216402" lon="17.82073231414">
        <ele>21.8</ele>
        <time>2026-08-30T15:33:26Z</time>
      </trkpt>
      <trkpt lat="59.206606876105" lon="17.820873884484">
        <ele>20.4</ele>
        <time>2026-08-30T15:33:30Z</time>
      </trkpt>
      <trkpt lat="59.206732101738" lon="17.820954937488">
        <ele>19.6</ele>
        <time>2026-08-30T15:33:32Z</time>
      </trkpt>
      <trkpt lat="59.206789853051" lon="17.820999445394">
        <ele>19.4</ele>
        <time>2026-08-30T15:33:33Z</time>
      </trkpt>
      <trkpt lat="59.206998310983" lon="17.821139674634">
        <ele>19</ele>
        <time>2026-08-30T15:33:37Z</time>
      </trkpt>
      <trkpt lat="59.20704533346" lon="17.82117119059">
        <ele>19</ele>
        <time>2026-08-30T15:33:38Z</time>
      </trkpt>
      <trkpt lat="59.207191513851" lon="17.821261547506">
        <ele>19</ele>
        <time>2026-08-30T15:33:41Z</time>
      </trkpt>
      <trkpt lat="59.207410113886" lon="17.821398004889">
        <ele>19</ele>
        <time>2026-08-30T15:33:45Z</time>
      </trkpt>
      <trkpt lat="59.207626618445" lon="17.821511412039">
        <ele>19.6</ele>
        <time>2026-08-30T15:33:49Z</time>
      </trkpt>
      <trkpt lat="59.207673892379" lon="17.821516441181">
        <ele>19.6</ele>
        <time>2026-08-30T15:33:50Z</time>
      </trkpt>
      <trkpt lat="59.207793334499" lon="17.821556087583">
        <ele>19.8</ele>
        <time>2026-08-30T15:33:53Z</time>
      </trkpt>
      <trkpt lat="59.207857372239" lon="17.821574695408">
        <ele>20</ele>
        <time>2026-08-30T15:33:55Z</time>
      </trkpt>
      <trkpt lat="59.20793264173" lon="17.821594560519">
        <ele>20.4</ele>
        <time>2026-08-30T15:33:58Z</time>
      </trkpt>
      <trkpt lat="59.207954518497" lon="17.821600176394">
        <ele>20.8</ele>
        <time>2026-08-30T15:33:59Z</time>
      </trkpt>
      <trkpt lat="59.207998691127" lon="17.821600344032">
        <ele>21.8</ele>
        <time>2026-08-30T15:34:01Z</time>
      </trkpt>
      <trkpt lat="59.208057364449" lon="17.821595566347">
        <ele>23.2</ele>
        <time>2026-08-30T15:34:04Z</time>
      </trkpt>
      <trkpt lat="59.208089886233" lon="17.821600176394">
        <ele>24</ele>
        <time>2026-08-30T15:34:06Z</time>
      </trkpt>
      <trkpt lat="59.208109918982" lon="17.821602523327">
        <ele>24.2</ele>
        <time>2026-08-30T15:34:07Z</time>
      </trkpt>
      <trkpt lat="59.208178315312" lon="17.821599924937">
        <ele>25.2</ele>
        <time>2026-08-30T15:34:10Z</time>
      </trkpt>
      <trkpt lat="59.208202958107" lon="17.821599002928">
        <ele>25.6</ele>
        <time>2026-08-30T15:34:11Z</time>
      </trkpt>
      <trkpt lat="59.2082399223" lon="17.821612078696">
        <ele>26.4</ele>
        <time>2026-08-30T15:34:13Z</time>
      </trkpt>
      <trkpt lat="59.208333883435" lon="17.821580730379">
        <ele>27.4</ele>
        <time>2026-08-30T15:34:17Z</time>
      </trkpt>
      <trkpt lat="59.208436813205" lon="17.821581065655">
        <ele>27.8</ele>
        <time>2026-08-30T15:34:20Z</time>
      </trkpt>
      <trkpt lat="59.208501521498" lon="17.821576204151">
        <ele>28.6</ele>
        <time>2026-08-30T15:34:22Z</time>
      </trkpt>
      <trkpt lat="59.208534294739" lon="17.821575114504">
        <ele>28.8</ele>
        <time>2026-08-30T15:34:23Z</time>
      </trkpt>
      <trkpt lat="59.208736550063" lon="17.821503281593">
        <ele>29.6</ele>
        <time>2026-08-30T15:34:29Z</time>
      </trkpt>
      <trkpt lat="59.208941739053" lon="17.821384929121">
        <ele>30</ele>
        <time>2026-08-30T15:34:35Z</time>
      </trkpt>
      <trkpt lat="59.209074592218" lon="17.821436477825">
        <ele>30.2</ele>
        <time>2026-08-30T15:34:39Z</time>
      </trkpt>
      <trkpt lat="59.209094541147" lon="17.821489535272">
        <ele>30.2</ele>
        <time>2026-08-30T15:34:40Z</time>
      </trkpt>
      <trkpt lat="59.209130834788" lon="17.821635045111">
        <ele>30.2</ele>
        <time>2026-08-30T15:34:42Z</time>
      </trkpt>
      <trkpt lat="59.209159165621" lon="17.82182212919">
        <ele>30.2</ele>
        <time>2026-08-30T15:34:44Z</time>
      </trkpt>
      <trkpt lat="59.209183808416" lon="17.822124967352">
        <ele>30.2</ele>
        <time>2026-08-30T15:34:47Z</time>
      </trkpt>
      <trkpt lat="59.209198812023" lon="17.822236865759">
        <ele>30</ele>
        <time>2026-08-30T15:34:48Z</time>
      </trkpt>
      <trkpt lat="59.209234686568" lon="17.822566861287">
        <ele>29.4</ele>
        <time>2026-08-30T15:34:51Z</time>
      </trkpt>
      <trkpt lat="59.209265951067" lon="17.822782611474">
        <ele>28.6</ele>
        <time>2026-08-30T15:34:53Z</time>
      </trkpt>
      <trkpt lat="59.209281373769" lon="17.822885708883">
        <ele>28.4</ele>
        <time>2026-08-30T15:34:54Z</time>
      </trkpt>
      <trkpt lat="59.209306016564" lon="17.82309290953">
        <ele>27.8</ele>
        <time>2026-08-30T15:34:56Z</time>
      </trkpt>
      <trkpt lat="59.209314985201" lon="17.823197515681">
        <ele>27.6</ele>
        <time>2026-08-30T15:34:57Z</time>
      </trkpt>
      <trkpt lat="59.209325043485" lon="17.823300277814">
        <ele>27.6</ele>
        <time>2026-08-30T15:34:58Z</time>
      </trkpt>
      <trkpt lat="59.209338035434" lon="17.823407566175">
        <ele>27.6</ele>
        <time>2026-08-30T15:34:59Z</time>
      </trkpt>
      <trkpt lat="59.209356140345" lon="17.823612922803">
        <ele>27.4</ele>
        <time>2026-08-30T15:35:01Z</time>
      </trkpt>
      <trkpt lat="59.209378520027" lon="17.823804030195">
        <ele>27.6</ele>
        <time>2026-08-30T15:35:03Z</time>
      </trkpt>
      <trkpt lat="59.209399977699" lon="17.823974350467">
        <ele>27.6</ele>
        <time>2026-08-30T15:35:05Z</time>
      </trkpt>
      <trkpt lat="59.209401151165" lon="17.824054565281">
        <ele>27.6</ele>
        <time>2026-08-30T15:35:06Z</time>
      </trkpt>
      <trkpt lat="59.209391428158" lon="17.824162021279">
        <ele>27.6</ele>
        <time>2026-08-30T15:35:08Z</time>
      </trkpt>
      <trkpt lat="59.209387572482" lon="17.82419395633">
        <ele>27.6</ele>
        <time>2026-08-30T15:35:09Z</time>
      </trkpt>
      <trkpt lat="59.209381118417" lon="17.824241230264">
        <ele>27.6</ele>
        <time>2026-08-30T15:35:11Z</time>
      </trkpt>
      <trkpt lat="59.209363013506" lon="17.824271656573">
        <ele>27.8</ele>
        <time>2026-08-30T15:35:13Z</time>
      </trkpt>
      <trkpt lat="59.209352871403" lon="17.8243021667">
        <ele>28</ele>
        <time>2026-08-30T15:35:14Z</time>
      </trkpt>
      <trkpt lat="59.209352033213" lon="17.824334520847">
        <ele>28.2</ele>
        <time>2026-08-30T15:35:15Z</time>
      </trkpt>
      <trkpt lat="59.20937390998" lon="17.824408533052">
        <ele>28.2</ele>
        <time>2026-08-30T15:35:17Z</time>
      </trkpt>
      <trkpt lat="59.209466194734" lon="17.824706761166">
        <ele>28.4</ele>
        <time>2026-08-30T15:35:22Z</time>
      </trkpt>
      <trkpt lat="59.20948036015" lon="17.824780102819">
        <ele>28.4</ele>
        <time>2026-08-30T15:35:23Z</time>
      </trkpt>
      <trkpt lat="59.209494106472" lon="17.824939023703">
        <ele>28.4</ele>
        <time>2026-08-30T15:35:25Z</time>
      </trkpt>
      <trkpt lat="59.209498381242" lon="17.825019154698">
        <ele>28.4</ele>
        <time>2026-08-30T15:35:26Z</time>
      </trkpt>
      <trkpt lat="59.209491340443" lon="17.825097274035">
        <ele>28.4</ele>
        <time>2026-08-30T15:35:27Z</time>
      </trkpt>
      <trkpt lat="59.209459908307" lon="17.825255859643">
        <ele>28.2</ele>
        <time>2026-08-30T15:35:29Z</time>
      </trkpt>
      <trkpt lat="59.209440294653" lon="17.825334984809">
        <ele>28.2</ele>
        <time>2026-08-30T15:35:30Z</time>
      </trkpt>
      <trkpt lat="59.209340885282" lon="17.825758857653">
        <ele>27.8</ele>
        <time>2026-08-30T15:35:35Z</time>
      </trkpt>
      <trkpt lat="59.209326468408" lon="17.82584737055">
        <ele>27.8</ele>
        <time>2026-08-30T15:35:36Z</time>
      </trkpt>
      <trkpt lat="59.209336778149" lon="17.826111735776">
        <ele>27.6</ele>
        <time>2026-08-30T15:35:39Z</time>
      </trkpt>
      <trkpt lat="59.209348345175" lon="17.826190944761">
        <ele>27.6</ele>
        <time>2026-08-30T15:35:40Z</time>
      </trkpt>
      <trkpt lat="59.209364019334" lon="17.826264873147">
        <ele>27.6</ele>
        <time>2026-08-30T15:35:41Z</time>
      </trkpt>
      <trkpt lat="59.209382878616" lon="17.82633385621">
        <ele>27.6</ele>
        <time>2026-08-30T15:35:42Z</time>
      </trkpt>
      <trkpt lat="59.209402073175" lon="17.82639789395">
        <ele>27.6</ele>
        <time>2026-08-30T15:35:43Z</time>
      </trkpt>
      <trkpt lat="59.209421016276" lon="17.826460339129">
        <ele>27.8</ele>
        <time>2026-08-30T15:35:44Z</time>
      </trkpt>
      <trkpt lat="59.209440629929" lon="17.826519850641">
        <ele>27.8</ele>
        <time>2026-08-30T15:35:45Z</time>
      </trkpt>
      <trkpt lat="59.209482707083" lon="17.826630994678">
        <ele>27.8</ele>
        <time>2026-08-30T15:35:47Z</time>
      </trkpt>
      <trkpt lat="59.209539201111" lon="17.826796704903">
        <ele>28.6</ele>
        <time>2026-08-30T15:35:50Z</time>
      </trkpt>
      <trkpt lat="59.209575662389" lon="17.826910698786">
        <ele>29.2</ele>
        <time>2026-08-30T15:35:52Z</time>
      </trkpt>
      <trkpt lat="59.209626959637" lon="17.827081186697">
        <ele>30.2</ele>
        <time>2026-08-30T15:35:55Z</time>
      </trkpt>
      <trkpt lat="59.209643807262" lon="17.827134663239">
        <ele>30.4</ele>
        <time>2026-08-30T15:35:56Z</time>
      </trkpt>
      <trkpt lat="59.20966216363" lon="17.827186211944">
        <ele>30.8</ele>
        <time>2026-08-30T15:35:57Z</time>
      </trkpt>
      <trkpt lat="59.209714885801" lon="17.827355107293">
        <ele>31.4</ele>
        <time>2026-08-30T15:36:00Z</time>
      </trkpt>
      <trkpt lat="59.209755202755" lon="17.827474046499">
        <ele>31.8</ele>
        <time>2026-08-30T15:36:02Z</time>
      </trkpt>
      <trkpt lat="59.209816558287" lon="17.827660627663">
        <ele>32.8</ele>
        <time>2026-08-30T15:36:05Z</time>
      </trkpt>
      <trkpt lat="59.209826113656" lon="17.827789206058">
        <ele>33.6</ele>
        <time>2026-08-30T15:36:07Z</time>
      </trkpt>
      <trkpt lat="59.209815468639" lon="17.827849555761">
        <ele>33.8</ele>
        <time>2026-08-30T15:36:08Z</time>
      </trkpt>
      <trkpt lat="59.209793256596" lon="17.827904205769">
        <ele>34.2</ele>
        <time>2026-08-30T15:36:09Z</time>
      </trkpt>
      <trkpt lat="59.209763249382" lon="17.827958185226">
        <ele>34.4</ele>
        <time>2026-08-30T15:36:10Z</time>
      </trkpt>
      <trkpt lat="59.209625618532" lon="17.828194554895">
        <ele>35</ele>
        <time>2026-08-30T15:36:14Z</time>
      </trkpt>
      <trkpt lat="59.209512881935" lon="17.828395552933">
        <ele>35</ele>
        <time>2026-08-30T15:36:17Z</time>
      </trkpt>
      <trkpt lat="59.20932194218" lon="17.828739546239">
        <ele>35</ele>
        <time>2026-08-30T15:36:22Z</time>
      </trkpt>
      <trkpt lat="59.209287660196" lon="17.828818587586">
        <ele>35</ele>
        <time>2026-08-30T15:36:23Z</time>
      </trkpt>
      <trkpt lat="59.20921892859" lon="17.829218991101">
        <ele>34.2</ele>
        <time>2026-08-30T15:36:27Z</time>
      </trkpt>
      <trkpt lat="59.209214486182" lon="17.829333404079">
        <ele>34.2</ele>
        <time>2026-08-30T15:36:28Z</time>
      </trkpt>
      <trkpt lat="59.209211468697" lon="17.829563403502">
        <ele>33.8</ele>
        <time>2026-08-30T15:36:30Z</time>
      </trkpt>
      <trkpt lat="59.209221191704" lon="17.829892812297">
        <ele>33.8</ele>
        <time>2026-08-30T15:36:33Z</time>
      </trkpt>
      <trkpt lat="59.209241727367" lon="17.830095570534">
        <ele>33.6</ele>
        <time>2026-08-30T15:36:35Z</time>
      </trkpt>
      <trkpt lat="59.209315655753" lon="17.830356415361">
        <ele>33.8</ele>
        <time>2026-08-30T15:36:38Z</time>
      </trkpt>
      <trkpt lat="59.209343818948" lon="17.830434869975">
        <ele>33.8</ele>
        <time>2026-08-30T15:36:39Z</time>
      </trkpt>
      <trkpt lat="59.209449850023" lon="17.830707449466">
        <ele>34</ele>
        <time>2026-08-30T15:36:43Z</time>
      </trkpt>
      <trkpt lat="59.209473654628" lon="17.83075815998">
        <ele>34.2</ele>
        <time>2026-08-30T15:36:44Z</time>
      </trkpt>
      <trkpt lat="59.209497962147" lon="17.830861425027">
        <ele>34.6</ele>
        <time>2026-08-30T15:36:46Z</time>
      </trkpt>
      <trkpt lat="59.209486059844" lon="17.830909034237">
        <ele>34.8</ele>
        <time>2026-08-30T15:36:47Z</time>
      </trkpt>
      <trkpt lat="59.20944574289" lon="17.831013388932">
        <ele>35.2</ele>
        <time>2026-08-30T15:36:49Z</time>
      </trkpt>
      <trkpt lat="59.209400229156" lon="17.831139536574">
        <ele>35.8</ele>
        <time>2026-08-30T15:36:51Z</time>
      </trkpt>
      <trkpt lat="59.209383716807" lon="17.831211956218">
        <ele>35.8</ele>
        <time>2026-08-30T15:36:52Z</time>
      </trkpt>
      <trkpt lat="59.209416406229" lon="17.831421000883">
        <ele>36</ele>
        <time>2026-08-30T15:36:55Z</time>
      </trkpt>
      <trkpt lat="59.209485892206" lon="17.831591069698">
        <ele>36.4</ele>
        <time>2026-08-30T15:36:59Z</time>
      </trkpt>
      <trkpt lat="59.209509361535" lon="17.831608839333">
        <ele>36.4</ele>
        <time>2026-08-30T15:37:00Z</time>
      </trkpt>
      <trkpt lat="59.209635006264" lon="17.831660723314">
        <ele>37</ele>
        <time>2026-08-30T15:37:05Z</time>
      </trkpt>
      <trkpt lat="59.209661828354" lon="17.831670446321">
        <ele>37.4</ele>
        <time>2026-08-30T15:37:06Z</time>
      </trkpt>
      <trkpt lat="59.209729889408" lon="17.831718306988">
        <ele>38.8</ele>
        <time>2026-08-30T15:37:09Z</time>
      </trkpt>
      <trkpt lat="59.209797782823" lon="17.83178829588">
        <ele>39.6</ele>
        <time>2026-08-30T15:37:12Z</time>
      </trkpt>
      <trkpt lat="59.209851594642" lon="17.831858871505">
        <ele>40.2</ele>
        <time>2026-08-30T15:37:14Z</time>
      </trkpt>
      <trkpt lat="59.209914626554" lon="17.832021228969">
        <ele>41.4</ele>
        <time>2026-08-30T15:37:17Z</time>
      </trkpt>
      <trkpt lat="59.210004648194" lon="17.83229297027">
        <ele>41.8</ele>
        <time>2026-08-30T15:37:21Z</time>
      </trkpt>
      <trkpt lat="59.210017221048" lon="17.832402186468">
        <ele>41.8</ele>
        <time>2026-08-30T15:37:22Z</time>
      </trkpt>
      <trkpt lat="59.209977323189" lon="17.832632856444">
        <ele>41.8</ele>
        <time>2026-08-30T15:37:24Z</time>
      </trkpt>
      <trkpt lat="59.209945052862" lon="17.832717262208">
        <ele>41.8</ele>
        <time>2026-08-30T15:37:25Z</time>
      </trkpt>
      <trkpt lat="59.209821084514" lon="17.833011299372">
        <ele>41</ele>
        <time>2026-08-30T15:37:29Z</time>
      </trkpt>
      <trkpt lat="59.209768278524" lon="17.833161670715">
        <ele>40.6</ele>
        <time>2026-08-30T15:37:31Z</time>
      </trkpt>
      <trkpt lat="59.209681358188" lon="17.83349275589">
        <ele>40.6</ele>
        <time>2026-08-30T15:37:35Z</time>
      </trkpt>
      <trkpt lat="59.209622936323" lon="17.833945127204">
        <ele>41</ele>
        <time>2026-08-30T15:37:40Z</time>
      </trkpt>
      <trkpt lat="59.209620170295" lon="17.834039758891">
        <ele>41</ele>
        <time>2026-08-30T15:37:41Z</time>
      </trkpt>
      <trkpt lat="59.209622936323" lon="17.834330778569">
        <ele>41.8</ele>
        <time>2026-08-30T15:37:44Z</time>
      </trkpt>
      <trkpt lat="59.209668617696" lon="17.834809049964">
        <ele>42.2</ele>
        <time>2026-08-30T15:37:49Z</time>
      </trkpt>
      <trkpt lat="59.209745563567" lon="17.835158156231">
        <ele>42.4</ele>
        <time>2026-08-30T15:37:53Z</time>
      </trkpt>
      <trkpt lat="59.209819827229" lon="17.835425036028">
        <ele>42.4</ele>
        <time>2026-08-30T15:37:56Z</time>
      </trkpt>
      <trkpt lat="59.209864838049" lon="17.835598457605">
        <ele>42.4</ele>
        <time>2026-08-30T15:37:59Z</time>
      </trkpt>
      <trkpt lat="59.209779091179" lon="17.835771376267">
        <ele>42.4</ele>
        <time>2026-08-30T15:38:02Z</time>
      </trkpt>
      <trkpt lat="59.209631653503" lon="17.836023420095">
        <ele>42.2</ele>
        <time>2026-08-30T15:38:05Z</time>
      </trkpt>
      <trkpt lat="59.209588905796" lon="17.83614856191">
        <ele>42</ele>
        <time>2026-08-30T15:38:06Z</time>
      </trkpt>
      <trkpt lat="59.209517659619" lon="17.836571345106">
        <ele>40.8</ele>
        <time>2026-08-30T15:38:09Z</time>
      </trkpt>
      <trkpt lat="59.209499889985" lon="17.836704868823">
        <ele>40.4</ele>
        <time>2026-08-30T15:38:10Z</time>
      </trkpt>
      <trkpt lat="59.20941808261" lon="17.837250949815">
        <ele>40</ele>
        <time>2026-08-30T15:38:15Z</time>
      </trkpt>
      <trkpt lat="59.209368629381" lon="17.837542975321">
        <ele>40</ele>
        <time>2026-08-30T15:38:18Z</time>
      </trkpt>
      <trkpt lat="59.209330491722" lon="17.837729472667">
        <ele>40.4</ele>
        <time>2026-08-30T15:38:20Z</time>
      </trkpt>
      <trkpt lat="59.20929512009" lon="17.837881436571">
        <ele>42.2</ele>
        <time>2026-08-30T15:38:22Z</time>
      </trkpt>
      <trkpt lat="59.209280703217" lon="17.837937427685">
        <ele>43.4</ele>
        <time>2026-08-30T15:38:23Z</time>
      </trkpt>
      <trkpt lat="59.209269220009" lon="17.837986545637">
        <ele>44</ele>
        <time>2026-08-30T15:38:24Z</time>
      </trkpt>
      <trkpt lat="59.209238709882" lon="17.838071873412">
        <ele>44.8</ele>
        <time>2026-08-30T15:38:26Z</time>
      </trkpt>
      <trkpt lat="59.209188837558" lon="17.838145131245">
        <ele>45.8</ele>
        <time>2026-08-30T15:38:28Z</time>
      </trkpt>
      <trkpt lat="59.209158662707" lon="17.838176982477">
        <ele>46.8</ele>
        <time>2026-08-30T15:38:29Z</time>
      </trkpt>
      <trkpt lat="59.209124967456" lon="17.838210677728">
        <ele>47.6</ele>
        <time>2026-08-30T15:38:30Z</time>
      </trkpt>
      <trkpt lat="59.209042573348" lon="17.838287455961">
        <ele>49.6</ele>
        <time>2026-08-30T15:38:32Z</time>
      </trkpt>
      <trkpt lat="59.208929417655" lon="17.838372448459">
        <ele>50.4</ele>
        <time>2026-08-30T15:38:34Z</time>
      </trkpt>
      <trkpt lat="59.208864374086" lon="17.838412430137">
        <ele>50.4</ele>
        <time>2026-08-30T15:38:35Z</time>
      </trkpt>
      <trkpt lat="59.208721714094" lon="17.838483005762">
        <ele>50.6</ele>
        <time>2026-08-30T15:38:37Z</time>
      </trkpt>
      <trkpt lat="59.208649042994" lon="17.838541427627">
        <ele>50.6</ele>
        <time>2026-08-30T15:38:38Z</time>
      </trkpt>
      <trkpt lat="59.208484422415" lon="17.838761787862">
        <ele>50.6</ele>
        <time>2026-08-30T15:38:41Z</time>
      </trkpt>
      <trkpt lat="59.208442848176" lon="17.838837476447">
        <ele>50.8</ele>
        <time>2026-08-30T15:38:42Z</time>
      </trkpt>
      <trkpt lat="59.208406051621" lon="17.838911572471">
        <ele>50.8</ele>
        <time>2026-08-30T15:38:43Z</time>
      </trkpt>
      <trkpt lat="59.208348803222" lon="17.83904585056">
        <ele>50.8</ele>
        <time>2026-08-30T15:38:45Z</time>
      </trkpt>
      <trkpt lat="59.208319215104" lon="17.839247686788">
        <ele>50.8</ele>
        <time>2026-08-30T15:38:48Z</time>
      </trkpt>
      <trkpt lat="59.208338074386" lon="17.839318178594">
        <ele>50.8</ele>
        <time>2026-08-30T15:38:49Z</time>
      </trkpt>
      <trkpt lat="59.208444440737" lon="17.83955915831">
        <ele>51.8</ele>
        <time>2026-08-30T15:38:52Z</time>
      </trkpt>
      <trkpt lat="59.208481488749" lon="17.839638451114">
        <ele>52.4</ele>
        <time>2026-08-30T15:38:53Z</time>
      </trkpt>
      <trkpt lat="59.208519374952" lon="17.839714642614">
        <ele>52.8</ele>
        <time>2026-08-30T15:38:54Z</time>
      </trkpt>
      <trkpt lat="59.208601685241" lon="17.839849926531">
        <ele>53.2</ele>
        <time>2026-08-30T15:38:56Z</time>
      </trkpt>
      <trkpt lat="59.208726240322" lon="17.840065509081">
        <ele>53.6</ele>
        <time>2026-08-30T15:38:59Z</time>
      </trkpt>
      <trkpt lat="59.208763875067" lon="17.840141281486">
        <ele>53.8</ele>
        <time>2026-08-30T15:39:00Z</time>
      </trkpt>
      <trkpt lat="59.208800923079" lon="17.84021361731">
        <ele>53.8</ele>
        <time>2026-08-30T15:39:01Z</time>
      </trkpt>
      <trkpt lat="59.208858087659" lon="17.840362731367">
        <ele>54</ele>
        <time>2026-08-30T15:39:03Z</time>
      </trkpt>
      <trkpt lat="59.208874767646" lon="17.840441521257">
        <ele>54.2</ele>
        <time>2026-08-30T15:39:04Z</time>
      </trkpt>
      <trkpt lat="59.208854064345" lon="17.840621061623">
        <ele>54.4</ele>
        <time>2026-08-30T15:39:07Z</time>
      </trkpt>
      <trkpt lat="59.208811651915" lon="17.840753663331">
        <ele>55</ele>
        <time>2026-08-30T15:39:10Z</time>
      </trkpt>
      <trkpt lat="59.208731772378" lon="17.840947117656">
        <ele>55.6</ele>
        <time>2026-08-30T15:39:15Z</time>
      </trkpt>
      <trkpt lat="59.208701429889" lon="17.841024650261">
        <ele>56</ele>
        <time>2026-08-30T15:39:17Z</time>
      </trkpt>
      <trkpt lat="59.208622304723" lon="17.841135123745">
        <ele>57</ele>
        <time>2026-08-30T15:39:21Z</time>
      </trkpt>
      <trkpt lat="59.208600595593" lon="17.841164041311">
        <ele>57</ele>
        <time>2026-08-30T15:39:22Z</time>
      </trkpt>
      <trkpt lat="59.208489619195" lon="17.841251883656">
        <ele>58</ele>
        <time>2026-08-30T15:39:27Z</time>
      </trkpt>
      <trkpt lat="59.208466820419" lon="17.841227073222">
        <ele>58.2</ele>
        <time>2026-08-30T15:39:28Z</time>
      </trkpt>
      <trkpt lat="59.208377301693" lon="17.841127328575">
        <ele>58.8</ele>
        <time>2026-08-30T15:39:32Z</time>
      </trkpt>
      <trkpt lat="59.208321897313" lon="17.841182565317">
        <ele>59</ele>
        <time>2026-08-30T15:39:34Z</time>
      </trkpt>
      <trkpt lat="59.208258697763" lon="17.841247692704">
        <ele>59</ele>
        <time>2026-08-30T15:39:36Z</time>
      </trkpt>
      <trkpt lat="59.20818887651" lon="17.841301923618">
        <ele>59</ele>
        <time>2026-08-30T15:39:38Z</time>
      </trkpt>
      <trkpt lat="59.20812048018" lon="17.841352550313">
        <ele>59.2</ele>
        <time>2026-08-30T15:39:40Z</time>
      </trkpt>
      <trkpt lat="59.207987710834" lon="17.841431340203">
        <ele>59.2</ele>
        <time>2026-08-30T15:39:44Z</time>
      </trkpt>
      <trkpt lat="59.207804733887" lon="17.841562600806">
        <ele>59.4</ele>
        <time>2026-08-30T15:39:50Z</time>
      </trkpt>
      <trkpt lat="59.207733152434" lon="17.841603588313">
        <ele>59.4</ele>
        <time>2026-08-30T15:39:53Z</time>
      </trkpt>
      <trkpt lat="59.207718065009" lon="17.841627392918">
        <ele>59.4</ele>
        <time>2026-08-30T15:39:54Z</time>
      </trkpt>
      <trkpt lat="59.207712868229" lon="17.841663435102">
        <ele>59.4</ele>
        <time>2026-08-30T15:39:55Z</time>
      </trkpt>
      <trkpt lat="59.207727033645" lon="17.841720432043">
        <ele>59.6</ele>
        <time>2026-08-30T15:39:57Z</time>
      </trkpt>
    </trkseg>
  </trk>
</gpx>